<?xml version="1.0" encoding="UTF-8" standalone="no" ?>
<gpx xmlns="http://www.topografix.com/GPX/1/1" xmlns:xsi="http://www.w3.org/2001/XMLSchema-instance" xsi:schemaLocation="http://www.topografix.com/GPX/1/1 http://www.topografix.com/GPX/1/1/gpx.xsd" version="1.1" creator="VisuGPX - https://www.visugpx.com">
  <metadata>
    <name>Trek au Ladakh</name>
    <desc><![CDATA[Trek au Ladakh - Septembre 2015]]></desc>
  </metadata>
  <trk>
    <name><![CDATA[Camp d'Hinju (3920m) - Konze La Pass (4890m) - Camp de Sumda Chemno (4240m)]]></name>
    <trkseg>
      <trkpt lat="34.17733" lon="76.95507">
        <ele>3927.2</ele>
        <time>2015-08-29T02:44:45Z</time>
      </trkpt>
      <trkpt lat="34.17716" lon="76.95515">
        <ele>3926.2</ele>
        <time>2015-08-29T02:45:03Z</time>
      </trkpt>
      <trkpt lat="34.17714" lon="76.95513">
        <ele>3925.2</ele>
        <time>2015-08-29T02:45:11Z</time>
      </trkpt>
      <trkpt lat="34.17707" lon="76.95512">
        <ele>3924.2</ele>
        <time>2015-08-29T02:45:20Z</time>
      </trkpt>
      <trkpt lat="34.17706" lon="76.95511">
        <ele>3924</ele>
        <time>2015-08-29T02:45:21Z</time>
      </trkpt>
      <trkpt lat="34.17706" lon="76.95511">
        <ele>3923.6</ele>
        <time>2015-08-29T02:45:23Z</time>
      </trkpt>
      <trkpt lat="34.17705" lon="76.95511">
        <ele>3923</ele>
        <time>2015-08-29T02:45:26Z</time>
      </trkpt>
      <trkpt lat="34.17699" lon="76.95518">
        <ele>3922.2</ele>
        <time>2015-08-29T02:45:36Z</time>
      </trkpt>
      <trkpt lat="34.17699" lon="76.9552">
        <ele>3922.4</ele>
        <time>2015-08-29T02:45:39Z</time>
      </trkpt>
      <trkpt lat="34.17699" lon="76.95538">
        <ele>3923.6</ele>
        <time>2015-08-29T02:46:05Z</time>
      </trkpt>
      <trkpt lat="34.17695" lon="76.95546">
        <ele>3924</ele>
        <time>2015-08-29T02:46:17Z</time>
      </trkpt>
      <trkpt lat="34.17693" lon="76.95555">
        <ele>3924.8</ele>
        <time>2015-08-29T02:46:29Z</time>
      </trkpt>
      <trkpt lat="34.1769" lon="76.95558">
        <ele>3925</ele>
        <time>2015-08-29T02:46:34Z</time>
      </trkpt>
      <trkpt lat="34.17685" lon="76.95569">
        <ele>3926.2</ele>
        <time>2015-08-29T02:46:50Z</time>
      </trkpt>
      <trkpt lat="34.17681" lon="76.95578">
        <ele>3927.2</ele>
        <time>2015-08-29T02:47:00Z</time>
      </trkpt>
      <trkpt lat="34.17673" lon="76.95588">
        <ele>3928</ele>
        <time>2015-08-29T02:47:20Z</time>
      </trkpt>
      <trkpt lat="34.17677" lon="76.95597">
        <ele>3928.2</ele>
        <time>2015-08-29T02:47:27Z</time>
      </trkpt>
      <trkpt lat="34.17678" lon="76.95599">
        <ele>3928.4</ele>
        <time>2015-08-29T02:47:29Z</time>
      </trkpt>
      <trkpt lat="34.17678" lon="76.95616">
        <ele>3929.4</ele>
        <time>2015-08-29T02:47:50Z</time>
      </trkpt>
      <trkpt lat="34.17674" lon="76.95618">
        <ele>3930</ele>
        <time>2015-08-29T02:47:55Z</time>
      </trkpt>
      <trkpt lat="34.17674" lon="76.95622">
        <ele>3930</ele>
        <time>2015-08-29T02:47:58Z</time>
      </trkpt>
      <trkpt lat="34.17674" lon="76.95627">
        <ele>3929.8</ele>
        <time>2015-08-29T02:48:04Z</time>
      </trkpt>
      <trkpt lat="34.17672" lon="76.95632">
        <ele>3930.4</ele>
        <time>2015-08-29T02:48:09Z</time>
      </trkpt>
      <trkpt lat="34.17672" lon="76.95633">
        <ele>3930.4</ele>
        <time>2015-08-29T02:48:11Z</time>
      </trkpt>
      <trkpt lat="34.17662" lon="76.95645">
        <ele>3930.8</ele>
        <time>2015-08-29T02:48:28Z</time>
      </trkpt>
      <trkpt lat="34.17653" lon="76.95666">
        <ele>3931.4</ele>
        <time>2015-08-29T02:49:01Z</time>
      </trkpt>
      <trkpt lat="34.17655" lon="76.95674">
        <ele>3931.4</ele>
        <time>2015-08-29T02:49:09Z</time>
      </trkpt>
      <trkpt lat="34.17655" lon="76.95675">
        <ele>3931.4</ele>
        <time>2015-08-29T02:49:11Z</time>
      </trkpt>
      <trkpt lat="34.17648" lon="76.95683">
        <ele>3932.4</ele>
        <time>2015-08-29T02:49:28Z</time>
      </trkpt>
      <trkpt lat="34.17648" lon="76.95683">
        <ele>3932.4</ele>
        <time>2015-08-29T02:49:29Z</time>
      </trkpt>
      <trkpt lat="34.17647" lon="76.9569">
        <ele>3932.4</ele>
        <time>2015-08-29T02:49:34Z</time>
      </trkpt>
      <trkpt lat="34.17645" lon="76.95695">
        <ele>3933.4</ele>
        <time>2015-08-29T02:49:43Z</time>
      </trkpt>
      <trkpt lat="34.17646" lon="76.95707">
        <ele>3934.4</ele>
        <time>2015-08-29T02:50:01Z</time>
      </trkpt>
      <trkpt lat="34.17641" lon="76.95714">
        <ele>3935.6</ele>
        <time>2015-08-29T02:50:16Z</time>
      </trkpt>
      <trkpt lat="34.17639" lon="76.95726">
        <ele>3936.2</ele>
        <time>2015-08-29T02:50:30Z</time>
      </trkpt>
      <trkpt lat="34.17638" lon="76.95727">
        <ele>3936.2</ele>
        <time>2015-08-29T02:50:32Z</time>
      </trkpt>
      <trkpt lat="34.17636" lon="76.95731">
        <ele>3936.6</ele>
        <time>2015-08-29T02:50:37Z</time>
      </trkpt>
      <trkpt lat="34.17632" lon="76.95738">
        <ele>3937.2</ele>
        <time>2015-08-29T02:50:45Z</time>
      </trkpt>
      <trkpt lat="34.17625" lon="76.9575">
        <ele>3937.2</ele>
        <time>2015-08-29T02:51:04Z</time>
      </trkpt>
      <trkpt lat="34.17624" lon="76.95752">
        <ele>3937.6</ele>
        <time>2015-08-29T02:51:10Z</time>
      </trkpt>
      <trkpt lat="34.17624" lon="76.95757">
        <ele>3938.6</ele>
        <time>2015-08-29T02:51:18Z</time>
      </trkpt>
      <trkpt lat="34.17621" lon="76.95763">
        <ele>3939.4</ele>
        <time>2015-08-29T02:51:27Z</time>
      </trkpt>
      <trkpt lat="34.17624" lon="76.95774">
        <ele>3939.6</ele>
        <time>2015-08-29T02:51:39Z</time>
      </trkpt>
      <trkpt lat="34.17625" lon="76.95775">
        <ele>3939.8</ele>
        <time>2015-08-29T02:51:40Z</time>
      </trkpt>
      <trkpt lat="34.17625" lon="76.95776">
        <ele>3940</ele>
        <time>2015-08-29T02:51:42Z</time>
      </trkpt>
      <trkpt lat="34.17622" lon="76.95777">
        <ele>3940.4</ele>
        <time>2015-08-29T02:51:45Z</time>
      </trkpt>
      <trkpt lat="34.17618" lon="76.95781">
        <ele>3940.6</ele>
        <time>2015-08-29T02:51:51Z</time>
      </trkpt>
      <trkpt lat="34.17615" lon="76.95782">
        <ele>3940.8</ele>
        <time>2015-08-29T02:51:54Z</time>
      </trkpt>
      <trkpt lat="34.17615" lon="76.95783">
        <ele>3940.8</ele>
        <time>2015-08-29T02:51:55Z</time>
      </trkpt>
      <trkpt lat="34.17607" lon="76.95791">
        <ele>3941.6</ele>
        <time>2015-08-29T02:52:11Z</time>
      </trkpt>
      <trkpt lat="34.17605" lon="76.95793">
        <ele>3941.6</ele>
        <time>2015-08-29T02:52:14Z</time>
      </trkpt>
      <trkpt lat="34.17604" lon="76.95794">
        <ele>3941.6</ele>
        <time>2015-08-29T02:52:16Z</time>
      </trkpt>
      <trkpt lat="34.17604" lon="76.95795">
        <ele>3941.8</ele>
        <time>2015-08-29T02:52:18Z</time>
      </trkpt>
      <trkpt lat="34.17602" lon="76.95809">
        <ele>3942.6</ele>
        <time>2015-08-29T02:52:37Z</time>
      </trkpt>
      <trkpt lat="34.17603" lon="76.95812">
        <ele>3942.8</ele>
        <time>2015-08-29T02:52:39Z</time>
      </trkpt>
      <trkpt lat="34.17605" lon="76.95814">
        <ele>3943</ele>
        <time>2015-08-29T02:52:41Z</time>
      </trkpt>
      <trkpt lat="34.17605" lon="76.95815">
        <ele>3943</ele>
        <time>2015-08-29T02:52:42Z</time>
      </trkpt>
      <trkpt lat="34.17597" lon="76.95822">
        <ele>3943.8</ele>
        <time>2015-08-29T02:52:57Z</time>
      </trkpt>
      <trkpt lat="34.17594" lon="76.95824">
        <ele>3944</ele>
        <time>2015-08-29T02:53:01Z</time>
      </trkpt>
      <trkpt lat="34.1759" lon="76.95832">
        <ele>3944.8</ele>
        <time>2015-08-29T02:53:13Z</time>
      </trkpt>
      <trkpt lat="34.17586" lon="76.95835">
        <ele>3945</ele>
        <time>2015-08-29T02:53:20Z</time>
      </trkpt>
      <trkpt lat="34.17578" lon="76.95845">
        <ele>3946</ele>
        <time>2015-08-29T02:53:38Z</time>
      </trkpt>
      <trkpt lat="34.17575" lon="76.95853">
        <ele>3946.8</ele>
        <time>2015-08-29T02:53:52Z</time>
      </trkpt>
      <trkpt lat="34.17575" lon="76.95855">
        <ele>3947</ele>
        <time>2015-08-29T02:53:57Z</time>
      </trkpt>
      <trkpt lat="34.17579" lon="76.95854">
        <ele>3947.2</ele>
        <time>2015-08-29T02:54:12Z</time>
      </trkpt>
      <trkpt lat="34.17579" lon="76.95856">
        <ele>3947.6</ele>
        <time>2015-08-29T02:54:14Z</time>
      </trkpt>
      <trkpt lat="34.17572" lon="76.95862">
        <ele>3948</ele>
        <time>2015-08-29T02:54:31Z</time>
      </trkpt>
      <trkpt lat="34.1757" lon="76.95864">
        <ele>3948</ele>
        <time>2015-08-29T02:54:35Z</time>
      </trkpt>
      <trkpt lat="34.17567" lon="76.95863">
        <ele>3948.4</ele>
        <time>2015-08-29T02:54:38Z</time>
      </trkpt>
      <trkpt lat="34.1756" lon="76.95869">
        <ele>3949.2</ele>
        <time>2015-08-29T02:54:48Z</time>
      </trkpt>
      <trkpt lat="34.17556" lon="76.95872">
        <ele>3950.2</ele>
        <time>2015-08-29T02:54:59Z</time>
      </trkpt>
      <trkpt lat="34.17555" lon="76.95875">
        <ele>3950.6</ele>
        <time>2015-08-29T02:55:02Z</time>
      </trkpt>
      <trkpt lat="34.17552" lon="76.95877">
        <ele>3951.2</ele>
        <time>2015-08-29T02:55:07Z</time>
      </trkpt>
      <trkpt lat="34.17552" lon="76.95878">
        <ele>3951.4</ele>
        <time>2015-08-29T02:55:08Z</time>
      </trkpt>
      <trkpt lat="34.17549" lon="76.95878">
        <ele>3952.2</ele>
        <time>2015-08-29T02:55:15Z</time>
      </trkpt>
      <trkpt lat="34.17547" lon="76.95878">
        <ele>3952.4</ele>
        <time>2015-08-29T02:55:20Z</time>
      </trkpt>
      <trkpt lat="34.17545" lon="76.95882">
        <ele>3953.4</ele>
        <time>2015-08-29T02:55:30Z</time>
      </trkpt>
      <trkpt lat="34.17541" lon="76.95888">
        <ele>3954.4</ele>
        <time>2015-08-29T02:55:44Z</time>
      </trkpt>
      <trkpt lat="34.17536" lon="76.9589">
        <ele>3955.6</ele>
        <time>2015-08-29T02:55:54Z</time>
      </trkpt>
      <trkpt lat="34.17536" lon="76.95894">
        <ele>3956.8</ele>
        <time>2015-08-29T02:56:02Z</time>
      </trkpt>
      <trkpt lat="34.17533" lon="76.95899">
        <ele>3957.8</ele>
        <time>2015-08-29T02:56:12Z</time>
      </trkpt>
      <trkpt lat="34.17525" lon="76.95904">
        <ele>3958.8</ele>
        <time>2015-08-29T02:56:24Z</time>
      </trkpt>
      <trkpt lat="34.17525" lon="76.95905">
        <ele>3959</ele>
        <time>2015-08-29T02:56:26Z</time>
      </trkpt>
      <trkpt lat="34.1752" lon="76.95909">
        <ele>3959.8</ele>
        <time>2015-08-29T02:56:35Z</time>
      </trkpt>
      <trkpt lat="34.17516" lon="76.95911">
        <ele>3961</ele>
        <time>2015-08-29T02:56:44Z</time>
      </trkpt>
      <trkpt lat="34.17513" lon="76.95913">
        <ele>3962</ele>
        <time>2015-08-29T02:56:53Z</time>
      </trkpt>
      <trkpt lat="34.17512" lon="76.9592">
        <ele>3963.2</ele>
        <time>2015-08-29T02:57:00Z</time>
      </trkpt>
      <trkpt lat="34.17509" lon="76.95926">
        <ele>3964.2</ele>
        <time>2015-08-29T02:57:09Z</time>
      </trkpt>
      <trkpt lat="34.17509" lon="76.9593">
        <ele>3965.2</ele>
        <time>2015-08-29T02:57:17Z</time>
      </trkpt>
      <trkpt lat="34.17509" lon="76.95931">
        <ele>3965.4</ele>
        <time>2015-08-29T02:57:18Z</time>
      </trkpt>
      <trkpt lat="34.17505" lon="76.9593">
        <ele>3966.4</ele>
        <time>2015-08-29T02:57:29Z</time>
      </trkpt>
      <trkpt lat="34.17511" lon="76.95931">
        <ele>3965.6</ele>
        <time>2015-08-29T02:57:45Z</time>
      </trkpt>
      <trkpt lat="34.17513" lon="76.95934">
        <ele>3966.4</ele>
        <time>2015-08-29T02:57:49Z</time>
      </trkpt>
      <trkpt lat="34.17506" lon="76.95945">
        <ele>3967.4</ele>
        <time>2015-08-29T02:58:04Z</time>
      </trkpt>
      <trkpt lat="34.17503" lon="76.9595">
        <ele>3968.6</ele>
        <time>2015-08-29T02:58:12Z</time>
      </trkpt>
      <trkpt lat="34.17501" lon="76.95957">
        <ele>3969.6</ele>
        <time>2015-08-29T02:58:41Z</time>
      </trkpt>
      <trkpt lat="34.17494" lon="76.95963">
        <ele>3970.6</ele>
        <time>2015-08-29T02:58:58Z</time>
      </trkpt>
      <trkpt lat="34.17488" lon="76.95967">
        <ele>3971.4</ele>
        <time>2015-08-29T02:59:06Z</time>
      </trkpt>
      <trkpt lat="34.17486" lon="76.9597">
        <ele>3971.6</ele>
        <time>2015-08-29T02:59:08Z</time>
      </trkpt>
      <trkpt lat="34.17486" lon="76.95972">
        <ele>3971.8</ele>
        <time>2015-08-29T02:59:10Z</time>
      </trkpt>
      <trkpt lat="34.17485" lon="76.95973">
        <ele>3972</ele>
        <time>2015-08-29T02:59:12Z</time>
      </trkpt>
      <trkpt lat="34.17482" lon="76.95976">
        <ele>3972.2</ele>
        <time>2015-08-29T02:59:16Z</time>
      </trkpt>
      <trkpt lat="34.17481" lon="76.95977">
        <ele>3972.4</ele>
        <time>2015-08-29T02:59:19Z</time>
      </trkpt>
      <trkpt lat="34.1748" lon="76.95979">
        <ele>3972.6</ele>
        <time>2015-08-29T02:59:21Z</time>
      </trkpt>
      <trkpt lat="34.1748" lon="76.95979">
        <ele>3972.8</ele>
        <time>2015-08-29T02:59:22Z</time>
      </trkpt>
      <trkpt lat="34.17478" lon="76.95986">
        <ele>3974</ele>
        <time>2015-08-29T02:59:34Z</time>
      </trkpt>
      <trkpt lat="34.17469" lon="76.95993">
        <ele>3975</ele>
        <time>2015-08-29T02:59:49Z</time>
      </trkpt>
      <trkpt lat="34.17465" lon="76.96002">
        <ele>3975.6</ele>
        <time>2015-08-29T03:00:02Z</time>
      </trkpt>
      <trkpt lat="34.17463" lon="76.96003">
        <ele>3975.8</ele>
        <time>2015-08-29T03:00:05Z</time>
      </trkpt>
      <trkpt lat="34.17461" lon="76.96004">
        <ele>3976</ele>
        <time>2015-08-29T03:00:07Z</time>
      </trkpt>
      <trkpt lat="34.1746" lon="76.96005">
        <ele>3976.2</ele>
        <time>2015-08-29T03:00:10Z</time>
      </trkpt>
      <trkpt lat="34.17455" lon="76.96009">
        <ele>3977</ele>
        <time>2015-08-29T03:00:22Z</time>
      </trkpt>
      <trkpt lat="34.17453" lon="76.9601">
        <ele>3977.2</ele>
        <time>2015-08-29T03:00:24Z</time>
      </trkpt>
      <trkpt lat="34.17448" lon="76.96018">
        <ele>3978</ele>
        <time>2015-08-29T03:00:36Z</time>
      </trkpt>
      <trkpt lat="34.17442" lon="76.96029">
        <ele>3979</ele>
        <time>2015-08-29T03:00:52Z</time>
      </trkpt>
      <trkpt lat="34.1744" lon="76.9603">
        <ele>3979</ele>
        <time>2015-08-29T03:00:54Z</time>
      </trkpt>
      <trkpt lat="34.17439" lon="76.96032">
        <ele>3979.2</ele>
        <time>2015-08-29T03:00:56Z</time>
      </trkpt>
      <trkpt lat="34.17433" lon="76.9604">
        <ele>3980</ele>
        <time>2015-08-29T03:01:11Z</time>
      </trkpt>
      <trkpt lat="34.17429" lon="76.96046">
        <ele>3980.6</ele>
        <time>2015-08-29T03:01:23Z</time>
      </trkpt>
      <trkpt lat="34.17421" lon="76.96051">
        <ele>3981.2</ele>
        <time>2015-08-29T03:01:36Z</time>
      </trkpt>
      <trkpt lat="34.17414" lon="76.96057">
        <ele>3982.2</ele>
        <time>2015-08-29T03:01:48Z</time>
      </trkpt>
      <trkpt lat="34.17407" lon="76.96064">
        <ele>3983.2</ele>
        <time>2015-08-29T03:02:00Z</time>
      </trkpt>
      <trkpt lat="34.174" lon="76.96066">
        <ele>3984.4</ele>
        <time>2015-08-29T03:02:13Z</time>
      </trkpt>
      <trkpt lat="34.17395" lon="76.96069">
        <ele>3985.4</ele>
        <time>2015-08-29T03:02:28Z</time>
      </trkpt>
      <trkpt lat="34.17389" lon="76.96071">
        <ele>3986.4</ele>
        <time>2015-08-29T03:02:42Z</time>
      </trkpt>
      <trkpt lat="34.17383" lon="76.96072">
        <ele>3987.4</ele>
        <time>2015-08-29T03:02:53Z</time>
      </trkpt>
      <trkpt lat="34.17382" lon="76.96075">
        <ele>3988</ele>
        <time>2015-08-29T03:02:56Z</time>
      </trkpt>
      <trkpt lat="34.1738" lon="76.96077">
        <ele>3988.4</ele>
        <time>2015-08-29T03:03:01Z</time>
      </trkpt>
      <trkpt lat="34.17373" lon="76.9608">
        <ele>3989.4</ele>
        <time>2015-08-29T03:03:12Z</time>
      </trkpt>
      <trkpt lat="34.17367" lon="76.96079">
        <ele>3990.6</ele>
        <time>2015-08-29T03:03:26Z</time>
      </trkpt>
      <trkpt lat="34.17359" lon="76.96085">
        <ele>3991.6</ele>
        <time>2015-08-29T03:03:40Z</time>
      </trkpt>
      <trkpt lat="34.17357" lon="76.96093">
        <ele>3992.8</ele>
        <time>2015-08-29T03:03:51Z</time>
      </trkpt>
      <trkpt lat="34.17349" lon="76.96098">
        <ele>3993.8</ele>
        <time>2015-08-29T03:04:06Z</time>
      </trkpt>
      <trkpt lat="34.17341" lon="76.96104">
        <ele>3994.8</ele>
        <time>2015-08-29T03:04:23Z</time>
      </trkpt>
      <trkpt lat="34.17341" lon="76.96106">
        <ele>3995.2</ele>
        <time>2015-08-29T03:04:28Z</time>
      </trkpt>
      <trkpt lat="34.1734" lon="76.96108">
        <ele>3995.8</ele>
        <time>2015-08-29T03:04:33Z</time>
      </trkpt>
      <trkpt lat="34.17335" lon="76.96116">
        <ele>3996.8</ele>
        <time>2015-08-29T03:04:44Z</time>
      </trkpt>
      <trkpt lat="34.17333" lon="76.96119">
        <ele>3997</ele>
        <time>2015-08-29T03:04:48Z</time>
      </trkpt>
      <trkpt lat="34.17329" lon="76.96126">
        <ele>3998</ele>
        <time>2015-08-29T03:05:00Z</time>
      </trkpt>
      <trkpt lat="34.17324" lon="76.9613">
        <ele>3999</ele>
        <time>2015-08-29T03:05:15Z</time>
      </trkpt>
      <trkpt lat="34.17317" lon="76.96132">
        <ele>4000</ele>
        <time>2015-08-29T03:05:27Z</time>
      </trkpt>
      <trkpt lat="34.17311" lon="76.96135">
        <ele>4001</ele>
        <time>2015-08-29T03:05:39Z</time>
      </trkpt>
      <trkpt lat="34.17305" lon="76.96139">
        <ele>4002</ele>
        <time>2015-08-29T03:05:52Z</time>
      </trkpt>
      <trkpt lat="34.17297" lon="76.96139">
        <ele>4003.2</ele>
        <time>2015-08-29T03:06:02Z</time>
      </trkpt>
      <trkpt lat="34.1729" lon="76.9614">
        <ele>4004.2</ele>
        <time>2015-08-29T03:06:15Z</time>
      </trkpt>
      <trkpt lat="34.17282" lon="76.96146">
        <ele>4005.4</ele>
        <time>2015-08-29T03:06:30Z</time>
      </trkpt>
      <trkpt lat="34.1728" lon="76.96152">
        <ele>4006.4</ele>
        <time>2015-08-29T03:06:46Z</time>
      </trkpt>
      <trkpt lat="34.17274" lon="76.96158">
        <ele>4007.4</ele>
        <time>2015-08-29T03:06:57Z</time>
      </trkpt>
      <trkpt lat="34.17268" lon="76.96164">
        <ele>4008.4</ele>
        <time>2015-08-29T03:07:09Z</time>
      </trkpt>
      <trkpt lat="34.17263" lon="76.96166">
        <ele>4009.6</ele>
        <time>2015-08-29T03:07:18Z</time>
      </trkpt>
      <trkpt lat="34.17259" lon="76.96174">
        <ele>4010.6</ele>
        <time>2015-08-29T03:07:32Z</time>
      </trkpt>
      <trkpt lat="34.17254" lon="76.96181">
        <ele>4011.6</ele>
        <time>2015-08-29T03:07:46Z</time>
      </trkpt>
      <trkpt lat="34.17248" lon="76.96187">
        <ele>4012.6</ele>
        <time>2015-08-29T03:07:58Z</time>
      </trkpt>
      <trkpt lat="34.17244" lon="76.96192">
        <ele>4013.2</ele>
        <time>2015-08-29T03:08:08Z</time>
      </trkpt>
      <trkpt lat="34.17241" lon="76.96194">
        <ele>4013.6</ele>
        <time>2015-08-29T03:08:14Z</time>
      </trkpt>
      <trkpt lat="34.17235" lon="76.96202">
        <ele>4014.8</ele>
        <time>2015-08-29T03:08:32Z</time>
      </trkpt>
      <trkpt lat="34.17231" lon="76.96209">
        <ele>4015.8</ele>
        <time>2015-08-29T03:08:46Z</time>
      </trkpt>
      <trkpt lat="34.17224" lon="76.96215">
        <ele>4016.8</ele>
        <time>2015-08-29T03:09:03Z</time>
      </trkpt>
      <trkpt lat="34.17219" lon="76.96213">
        <ele>4018</ele>
        <time>2015-08-29T03:09:16Z</time>
      </trkpt>
      <trkpt lat="34.1721" lon="76.96214">
        <ele>4019</ele>
        <time>2015-08-29T03:09:31Z</time>
      </trkpt>
      <trkpt lat="34.17204" lon="76.96219">
        <ele>4020</ele>
        <time>2015-08-29T03:09:45Z</time>
      </trkpt>
      <trkpt lat="34.17198" lon="76.96227">
        <ele>4021</ele>
        <time>2015-08-29T03:09:59Z</time>
      </trkpt>
      <trkpt lat="34.17191" lon="76.96231">
        <ele>4022.2</ele>
        <time>2015-08-29T03:10:13Z</time>
      </trkpt>
      <trkpt lat="34.17186" lon="76.96231">
        <ele>4023.2</ele>
        <time>2015-08-29T03:10:24Z</time>
      </trkpt>
      <trkpt lat="34.17181" lon="76.96235">
        <ele>4024.2</ele>
        <time>2015-08-29T03:10:36Z</time>
      </trkpt>
      <trkpt lat="34.17175" lon="76.96236">
        <ele>4025.2</ele>
        <time>2015-08-29T03:10:49Z</time>
      </trkpt>
      <trkpt lat="34.1717" lon="76.9624">
        <ele>4026.4</ele>
        <time>2015-08-29T03:11:00Z</time>
      </trkpt>
      <trkpt lat="34.17164" lon="76.96244">
        <ele>4027.4</ele>
        <time>2015-08-29T03:11:13Z</time>
      </trkpt>
      <trkpt lat="34.17159" lon="76.96256">
        <ele>4028.4</ele>
        <time>2015-08-29T03:11:26Z</time>
      </trkpt>
      <trkpt lat="34.17156" lon="76.96258">
        <ele>4029.6</ele>
        <time>2015-08-29T03:11:37Z</time>
      </trkpt>
      <trkpt lat="34.17151" lon="76.96262">
        <ele>4030.6</ele>
        <time>2015-08-29T03:11:55Z</time>
      </trkpt>
      <trkpt lat="34.17146" lon="76.96265">
        <ele>4031</ele>
        <time>2015-08-29T03:11:58Z</time>
      </trkpt>
      <trkpt lat="34.17145" lon="76.96267">
        <ele>4031</ele>
        <time>2015-08-29T03:12:01Z</time>
      </trkpt>
      <trkpt lat="34.17144" lon="76.96271">
        <ele>4031.4</ele>
        <time>2015-08-29T03:12:03Z</time>
      </trkpt>
      <trkpt lat="34.17141" lon="76.96274">
        <ele>4031.6</ele>
        <time>2015-08-29T03:12:10Z</time>
      </trkpt>
      <trkpt lat="34.17139" lon="76.96279">
        <ele>4032.6</ele>
        <time>2015-08-29T03:12:19Z</time>
      </trkpt>
      <trkpt lat="34.17133" lon="76.96285">
        <ele>4033.6</ele>
        <time>2015-08-29T03:12:36Z</time>
      </trkpt>
      <trkpt lat="34.17126" lon="76.96291">
        <ele>4034.6</ele>
        <time>2015-08-29T03:12:51Z</time>
      </trkpt>
      <trkpt lat="34.17125" lon="76.96292">
        <ele>4034.8</ele>
        <time>2015-08-29T03:12:53Z</time>
      </trkpt>
      <trkpt lat="34.17122" lon="76.96292">
        <ele>4035.8</ele>
        <time>2015-08-29T03:13:01Z</time>
      </trkpt>
      <trkpt lat="34.17117" lon="76.96298">
        <ele>4036.8</ele>
        <time>2015-08-29T03:13:14Z</time>
      </trkpt>
      <trkpt lat="34.17114" lon="76.96301">
        <ele>4038</ele>
        <time>2015-08-29T03:13:27Z</time>
      </trkpt>
      <trkpt lat="34.17108" lon="76.96305">
        <ele>4039</ele>
        <time>2015-08-29T03:13:42Z</time>
      </trkpt>
      <trkpt lat="34.17102" lon="76.96306">
        <ele>4040</ele>
        <time>2015-08-29T03:13:54Z</time>
      </trkpt>
      <trkpt lat="34.17095" lon="76.96311">
        <ele>4041</ele>
        <time>2015-08-29T03:14:09Z</time>
      </trkpt>
      <trkpt lat="34.17089" lon="76.96311">
        <ele>4042.2</ele>
        <time>2015-08-29T03:14:20Z</time>
      </trkpt>
      <trkpt lat="34.17087" lon="76.96313">
        <ele>4043.2</ele>
        <time>2015-08-29T03:14:30Z</time>
      </trkpt>
      <trkpt lat="34.17081" lon="76.96319">
        <ele>4044.2</ele>
        <time>2015-08-29T03:14:42Z</time>
      </trkpt>
      <trkpt lat="34.17077" lon="76.96323">
        <ele>4045.2</ele>
        <time>2015-08-29T03:14:53Z</time>
      </trkpt>
      <trkpt lat="34.17071" lon="76.9633">
        <ele>4046.4</ele>
        <time>2015-08-29T03:15:05Z</time>
      </trkpt>
      <trkpt lat="34.17067" lon="76.96336">
        <ele>4047.4</ele>
        <time>2015-08-29T03:15:18Z</time>
      </trkpt>
      <trkpt lat="34.17064" lon="76.96337">
        <ele>4047.8</ele>
        <time>2015-08-29T03:15:22Z</time>
      </trkpt>
      <trkpt lat="34.1706" lon="76.96335">
        <ele>4048.4</ele>
        <time>2015-08-29T03:15:29Z</time>
      </trkpt>
      <trkpt lat="34.17052" lon="76.9634">
        <ele>4049.2</ele>
        <time>2015-08-29T03:15:42Z</time>
      </trkpt>
      <trkpt lat="34.1705" lon="76.96345">
        <ele>4049.6</ele>
        <time>2015-08-29T03:15:50Z</time>
      </trkpt>
      <trkpt lat="34.17045" lon="76.96348">
        <ele>4050.6</ele>
        <time>2015-08-29T03:16:01Z</time>
      </trkpt>
      <trkpt lat="34.17039" lon="76.96356">
        <ele>4051.6</ele>
        <time>2015-08-29T03:16:16Z</time>
      </trkpt>
      <trkpt lat="34.17032" lon="76.96358">
        <ele>4052.8</ele>
        <time>2015-08-29T03:16:30Z</time>
      </trkpt>
      <trkpt lat="34.1703" lon="76.96368">
        <ele>4053.4</ele>
        <time>2015-08-29T03:16:38Z</time>
      </trkpt>
      <trkpt lat="34.17029" lon="76.96369">
        <ele>4053.8</ele>
        <time>2015-08-29T03:16:40Z</time>
      </trkpt>
      <trkpt lat="34.17023" lon="76.96377">
        <ele>4054.8</ele>
        <time>2015-08-29T03:16:57Z</time>
      </trkpt>
      <trkpt lat="34.17018" lon="76.9638">
        <ele>4056</ele>
        <time>2015-08-29T03:17:07Z</time>
      </trkpt>
      <trkpt lat="34.17013" lon="76.96393">
        <ele>4057</ele>
        <time>2015-08-29T03:17:21Z</time>
      </trkpt>
      <trkpt lat="34.17008" lon="76.96406">
        <ele>4058</ele>
        <time>2015-08-29T03:17:40Z</time>
      </trkpt>
      <trkpt lat="34.17001" lon="76.96415">
        <ele>4059</ele>
        <time>2015-08-29T03:17:57Z</time>
      </trkpt>
      <trkpt lat="34.16995" lon="76.96421">
        <ele>4060</ele>
        <time>2015-08-29T03:18:07Z</time>
      </trkpt>
      <trkpt lat="34.16993" lon="76.96431">
        <ele>4059.6</ele>
        <time>2015-08-29T03:18:18Z</time>
      </trkpt>
      <trkpt lat="34.16996" lon="76.96443">
        <ele>4059.8</ele>
        <time>2015-08-29T03:18:30Z</time>
      </trkpt>
      <trkpt lat="34.16996" lon="76.96445">
        <ele>4059.8</ele>
        <time>2015-08-29T03:18:33Z</time>
      </trkpt>
      <trkpt lat="34.17" lon="76.96467">
        <ele>4060.8</ele>
        <time>2015-08-29T03:18:54Z</time>
      </trkpt>
      <trkpt lat="34.16999" lon="76.96471">
        <ele>4061</ele>
        <time>2015-08-29T03:18:57Z</time>
      </trkpt>
      <trkpt lat="34.16999" lon="76.96474">
        <ele>4061.2</ele>
        <time>2015-08-29T03:19:00Z</time>
      </trkpt>
      <trkpt lat="34.17" lon="76.96476">
        <ele>4061.4</ele>
        <time>2015-08-29T03:19:02Z</time>
      </trkpt>
      <trkpt lat="34.16997" lon="76.96478">
        <ele>4061.4</ele>
        <time>2015-08-29T03:19:07Z</time>
      </trkpt>
      <trkpt lat="34.1699" lon="76.96478">
        <ele>4062</ele>
        <time>2015-08-29T03:19:18Z</time>
      </trkpt>
      <trkpt lat="34.16985" lon="76.96476">
        <ele>4062.4</ele>
        <time>2015-08-29T03:19:23Z</time>
      </trkpt>
      <trkpt lat="34.16984" lon="76.96475">
        <ele>4062.6</ele>
        <time>2015-08-29T03:19:25Z</time>
      </trkpt>
      <trkpt lat="34.16976" lon="76.96471">
        <ele>4062.8</ele>
        <time>2015-08-29T03:19:34Z</time>
      </trkpt>
      <trkpt lat="34.16975" lon="76.96471">
        <ele>4063</ele>
        <time>2015-08-29T03:19:36Z</time>
      </trkpt>
      <trkpt lat="34.16969" lon="76.96488">
        <ele>4063</ele>
        <time>2015-08-29T03:19:50Z</time>
      </trkpt>
      <trkpt lat="34.16966" lon="76.965">
        <ele>4063</ele>
        <time>2015-08-29T03:19:57Z</time>
      </trkpt>
      <trkpt lat="34.16964" lon="76.96501">
        <ele>4063.2</ele>
        <time>2015-08-29T03:20:00Z</time>
      </trkpt>
      <trkpt lat="34.16962" lon="76.96515">
        <ele>4063.6</ele>
        <time>2015-08-29T03:20:24Z</time>
      </trkpt>
      <trkpt lat="34.16956" lon="76.96527">
        <ele>4064</ele>
        <time>2015-08-29T03:20:36Z</time>
      </trkpt>
      <trkpt lat="34.16952" lon="76.96534">
        <ele>4064.2</ele>
        <time>2015-08-29T03:20:46Z</time>
      </trkpt>
      <trkpt lat="34.16948" lon="76.96549">
        <ele>4065</ele>
        <time>2015-08-29T03:21:01Z</time>
      </trkpt>
      <trkpt lat="34.16946" lon="76.96571">
        <ele>4064.8</ele>
        <time>2015-08-29T03:21:25Z</time>
      </trkpt>
      <trkpt lat="34.16942" lon="76.96593">
        <ele>4065</ele>
        <time>2015-08-29T03:21:43Z</time>
      </trkpt>
      <trkpt lat="34.1694" lon="76.96603">
        <ele>4065</ele>
        <time>2015-08-29T03:21:52Z</time>
      </trkpt>
      <trkpt lat="34.16939" lon="76.96607">
        <ele>4065</ele>
        <time>2015-08-29T03:21:56Z</time>
      </trkpt>
      <trkpt lat="34.16939" lon="76.96613">
        <ele>4065.2</ele>
        <time>2015-08-29T03:22:01Z</time>
      </trkpt>
      <trkpt lat="34.16937" lon="76.96619">
        <ele>4065.2</ele>
        <time>2015-08-29T03:22:06Z</time>
      </trkpt>
      <trkpt lat="34.16921" lon="76.96632">
        <ele>4065.4</ele>
        <time>2015-08-29T03:22:29Z</time>
      </trkpt>
      <trkpt lat="34.16915" lon="76.96639">
        <ele>4066.2</ele>
        <time>2015-08-29T03:22:42Z</time>
      </trkpt>
      <trkpt lat="34.16913" lon="76.96653">
        <ele>4067.2</ele>
        <time>2015-08-29T03:22:51Z</time>
      </trkpt>
      <trkpt lat="34.16913" lon="76.96652">
        <ele>4067.4</ele>
        <time>2015-08-29T03:22:52Z</time>
      </trkpt>
      <trkpt lat="34.16913" lon="76.96654">
        <ele>4067.6</ele>
        <time>2015-08-29T03:22:54Z</time>
      </trkpt>
      <trkpt lat="34.16912" lon="76.96662">
        <ele>4068.4</ele>
        <time>2015-08-29T03:23:06Z</time>
      </trkpt>
      <trkpt lat="34.16914" lon="76.96683">
        <ele>4068.6</ele>
        <time>2015-08-29T03:23:27Z</time>
      </trkpt>
      <trkpt lat="34.16914" lon="76.96685">
        <ele>4068.4</ele>
        <time>2015-08-29T03:23:29Z</time>
      </trkpt>
      <trkpt lat="34.16918" lon="76.96697">
        <ele>4067.4</ele>
        <time>2015-08-29T03:23:39Z</time>
      </trkpt>
      <trkpt lat="34.16927" lon="76.96716">
        <ele>4066.8</ele>
        <time>2015-08-29T03:24:00Z</time>
      </trkpt>
      <trkpt lat="34.16927" lon="76.96736">
        <ele>4066.4</ele>
        <time>2015-08-29T03:24:20Z</time>
      </trkpt>
      <trkpt lat="34.16927" lon="76.96736">
        <ele>4066.4</ele>
        <time>2015-08-29T03:24:21Z</time>
      </trkpt>
      <trkpt lat="34.16922" lon="76.96751">
        <ele>4066.8</ele>
        <time>2015-08-29T03:24:33Z</time>
      </trkpt>
      <trkpt lat="34.16915" lon="76.96771">
        <ele>4067.2</ele>
        <time>2015-08-29T03:24:54Z</time>
      </trkpt>
      <trkpt lat="34.1691" lon="76.96786">
        <ele>4067.8</ele>
        <time>2015-08-29T03:25:10Z</time>
      </trkpt>
      <trkpt lat="34.16906" lon="76.96794">
        <ele>4068</ele>
        <time>2015-08-29T03:25:19Z</time>
      </trkpt>
      <trkpt lat="34.16904" lon="76.96804">
        <ele>4068.4</ele>
        <time>2015-08-29T03:25:30Z</time>
      </trkpt>
      <trkpt lat="34.16904" lon="76.96807">
        <ele>4068.4</ele>
        <time>2015-08-29T03:25:33Z</time>
      </trkpt>
      <trkpt lat="34.16902" lon="76.96819">
        <ele>4069.4</ele>
        <time>2015-08-29T03:25:49Z</time>
      </trkpt>
      <trkpt lat="34.16896" lon="76.96833">
        <ele>4070.4</ele>
        <time>2015-08-29T03:26:07Z</time>
      </trkpt>
      <trkpt lat="34.1689" lon="76.96838">
        <ele>4071.6</ele>
        <time>2015-08-29T03:26:19Z</time>
      </trkpt>
      <trkpt lat="34.16885" lon="76.9685">
        <ele>4072.6</ele>
        <time>2015-08-29T03:26:35Z</time>
      </trkpt>
      <trkpt lat="34.16883" lon="76.96862">
        <ele>4073.2</ele>
        <time>2015-08-29T03:26:51Z</time>
      </trkpt>
      <trkpt lat="34.16882" lon="76.96864">
        <ele>4073.4</ele>
        <time>2015-08-29T03:26:54Z</time>
      </trkpt>
      <trkpt lat="34.16882" lon="76.96865">
        <ele>4073.6</ele>
        <time>2015-08-29T03:26:55Z</time>
      </trkpt>
      <trkpt lat="34.16881" lon="76.96873">
        <ele>4074.6</ele>
        <time>2015-08-29T03:27:06Z</time>
      </trkpt>
      <trkpt lat="34.16878" lon="76.96877">
        <ele>4075.6</ele>
        <time>2015-08-29T03:27:16Z</time>
      </trkpt>
      <trkpt lat="34.16873" lon="76.96887">
        <ele>4076.8</ele>
        <time>2015-08-29T03:27:32Z</time>
      </trkpt>
      <trkpt lat="34.1687" lon="76.96892">
        <ele>4077.8</ele>
        <time>2015-08-29T03:27:45Z</time>
      </trkpt>
      <trkpt lat="34.16856" lon="76.96907">
        <ele>4078.8</ele>
        <time>2015-08-29T03:28:16Z</time>
      </trkpt>
      <trkpt lat="34.1685" lon="76.96911">
        <ele>4079.8</ele>
        <time>2015-08-29T03:28:29Z</time>
      </trkpt>
      <trkpt lat="34.16836" lon="76.96918">
        <ele>4080.8</ele>
        <time>2015-08-29T03:28:53Z</time>
      </trkpt>
      <trkpt lat="34.1683" lon="76.96923">
        <ele>4082</ele>
        <time>2015-08-29T03:29:09Z</time>
      </trkpt>
      <trkpt lat="34.16816" lon="76.9692">
        <ele>4083</ele>
        <time>2015-08-29T03:29:23Z</time>
      </trkpt>
      <trkpt lat="34.1681" lon="76.96926">
        <ele>4084</ele>
        <time>2015-08-29T03:29:35Z</time>
      </trkpt>
      <trkpt lat="34.16806" lon="76.96924">
        <ele>4085</ele>
        <time>2015-08-29T03:29:46Z</time>
      </trkpt>
      <trkpt lat="34.16801" lon="76.96935">
        <ele>4086</ele>
        <time>2015-08-29T03:29:57Z</time>
      </trkpt>
      <trkpt lat="34.16797" lon="76.96939">
        <ele>4087.2</ele>
        <time>2015-08-29T03:30:08Z</time>
      </trkpt>
      <trkpt lat="34.16794" lon="76.96943">
        <ele>4088.2</ele>
        <time>2015-08-29T03:30:20Z</time>
      </trkpt>
      <trkpt lat="34.16793" lon="76.96951">
        <ele>4089.2</ele>
        <time>2015-08-29T03:30:30Z</time>
      </trkpt>
      <trkpt lat="34.16791" lon="76.96955">
        <ele>4090.2</ele>
        <time>2015-08-29T03:30:41Z</time>
      </trkpt>
      <trkpt lat="34.16787" lon="76.96967">
        <ele>4091.4</ele>
        <time>2015-08-29T03:30:59Z</time>
      </trkpt>
      <trkpt lat="34.16785" lon="76.9697">
        <ele>4091.6</ele>
        <time>2015-08-29T03:31:03Z</time>
      </trkpt>
      <trkpt lat="34.16781" lon="76.96978">
        <ele>4092.4</ele>
        <time>2015-08-29T03:31:13Z</time>
      </trkpt>
      <trkpt lat="34.16775" lon="76.96985">
        <ele>4093.4</ele>
        <time>2015-08-29T03:31:31Z</time>
      </trkpt>
      <trkpt lat="34.16764" lon="76.97002">
        <ele>4094.2</ele>
        <time>2015-08-29T03:31:57Z</time>
      </trkpt>
      <trkpt lat="34.16763" lon="76.97004">
        <ele>4094.4</ele>
        <time>2015-08-29T03:31:59Z</time>
      </trkpt>
      <trkpt lat="34.16758" lon="76.97015">
        <ele>4095</ele>
        <time>2015-08-29T03:32:13Z</time>
      </trkpt>
      <trkpt lat="34.16755" lon="76.97015">
        <ele>4095</ele>
        <time>2015-08-29T03:32:17Z</time>
      </trkpt>
      <trkpt lat="34.16752" lon="76.97018">
        <ele>4095.4</ele>
        <time>2015-08-29T03:32:22Z</time>
      </trkpt>
      <trkpt lat="34.16749" lon="76.97026">
        <ele>4096.6</ele>
        <time>2015-08-29T03:32:34Z</time>
      </trkpt>
      <trkpt lat="34.16748" lon="76.97028">
        <ele>4097.2</ele>
        <time>2015-08-29T03:32:37Z</time>
      </trkpt>
      <trkpt lat="34.16747" lon="76.97028">
        <ele>4097.6</ele>
        <time>2015-08-29T03:32:40Z</time>
      </trkpt>
      <trkpt lat="34.16746" lon="76.97028">
        <ele>4097.6</ele>
        <time>2015-08-29T03:32:41Z</time>
      </trkpt>
      <trkpt lat="34.16736" lon="76.97028">
        <ele>4098.6</ele>
        <time>2015-08-29T03:33:02Z</time>
      </trkpt>
      <trkpt lat="34.16727" lon="76.97035">
        <ele>4099.8</ele>
        <time>2015-08-29T03:33:17Z</time>
      </trkpt>
      <trkpt lat="34.16721" lon="76.97038">
        <ele>4100.8</ele>
        <time>2015-08-29T03:33:28Z</time>
      </trkpt>
      <trkpt lat="34.16714" lon="76.97045">
        <ele>4101.8</ele>
        <time>2015-08-29T03:33:43Z</time>
      </trkpt>
      <trkpt lat="34.16706" lon="76.97051">
        <ele>4103</ele>
        <time>2015-08-29T03:34:00Z</time>
      </trkpt>
      <trkpt lat="34.16695" lon="76.97057">
        <ele>4104</ele>
        <time>2015-08-29T03:34:15Z</time>
      </trkpt>
      <trkpt lat="34.16682" lon="76.97064">
        <ele>4105</ele>
        <time>2015-08-29T03:34:37Z</time>
      </trkpt>
      <trkpt lat="34.16675" lon="76.97068">
        <ele>4106</ele>
        <time>2015-08-29T03:34:50Z</time>
      </trkpt>
      <trkpt lat="34.1667" lon="76.97072">
        <ele>4107.2</ele>
        <time>2015-08-29T03:35:01Z</time>
      </trkpt>
      <trkpt lat="34.16664" lon="76.97076">
        <ele>4108.2</ele>
        <time>2015-08-29T03:35:11Z</time>
      </trkpt>
      <trkpt lat="34.16659" lon="76.97079">
        <ele>4109.2</ele>
        <time>2015-08-29T03:35:22Z</time>
      </trkpt>
      <trkpt lat="34.16657" lon="76.97085">
        <ele>4110.2</ele>
        <time>2015-08-29T03:35:30Z</time>
      </trkpt>
      <trkpt lat="34.16657" lon="76.97093">
        <ele>4111.2</ele>
        <time>2015-08-29T03:35:39Z</time>
      </trkpt>
      <trkpt lat="34.16655" lon="76.97096">
        <ele>4112.4</ele>
        <time>2015-08-29T03:35:49Z</time>
      </trkpt>
      <trkpt lat="34.16652" lon="76.97098">
        <ele>4113.4</ele>
        <time>2015-08-29T03:36:02Z</time>
      </trkpt>
      <trkpt lat="34.1665" lon="76.971">
        <ele>4114.6</ele>
        <time>2015-08-29T03:36:11Z</time>
      </trkpt>
      <trkpt lat="34.16642" lon="76.97113">
        <ele>4115.6</ele>
        <time>2015-08-29T03:36:28Z</time>
      </trkpt>
      <trkpt lat="34.16639" lon="76.97115">
        <ele>4116.8</ele>
        <time>2015-08-29T03:36:35Z</time>
      </trkpt>
      <trkpt lat="34.16634" lon="76.97124">
        <ele>4117.8</ele>
        <time>2015-08-29T03:36:46Z</time>
      </trkpt>
      <trkpt lat="34.16634" lon="76.97124">
        <ele>4118</ele>
        <time>2015-08-29T03:36:47Z</time>
      </trkpt>
      <trkpt lat="34.16625" lon="76.97127">
        <ele>4119</ele>
        <time>2015-08-29T03:37:08Z</time>
      </trkpt>
      <trkpt lat="34.16622" lon="76.97126">
        <ele>4120</ele>
        <time>2015-08-29T03:37:20Z</time>
      </trkpt>
      <trkpt lat="34.16616" lon="76.97131">
        <ele>4121</ele>
        <time>2015-08-29T03:37:32Z</time>
      </trkpt>
      <trkpt lat="34.16608" lon="76.97133">
        <ele>4122.2</ele>
        <time>2015-08-29T03:37:46Z</time>
      </trkpt>
      <trkpt lat="34.16606" lon="76.97133">
        <ele>4123.2</ele>
        <time>2015-08-29T03:37:56Z</time>
      </trkpt>
      <trkpt lat="34.16603" lon="76.97136">
        <ele>4124.4</ele>
        <time>2015-08-29T03:38:02Z</time>
      </trkpt>
      <trkpt lat="34.16599" lon="76.97137">
        <ele>4125.4</ele>
        <time>2015-08-29T03:38:10Z</time>
      </trkpt>
      <trkpt lat="34.16594" lon="76.97143">
        <ele>4126.4</ele>
        <time>2015-08-29T03:38:24Z</time>
      </trkpt>
      <trkpt lat="34.16591" lon="76.97147">
        <ele>4127.4</ele>
        <time>2015-08-29T03:38:35Z</time>
      </trkpt>
      <trkpt lat="34.16585" lon="76.97148">
        <ele>4128.4</ele>
        <time>2015-08-29T03:38:45Z</time>
      </trkpt>
      <trkpt lat="34.16579" lon="76.97165">
        <ele>4129.6</ele>
        <time>2015-08-29T03:39:05Z</time>
      </trkpt>
      <trkpt lat="34.16582" lon="76.97168">
        <ele>4130.6</ele>
        <time>2015-08-29T03:39:17Z</time>
      </trkpt>
      <trkpt lat="34.16585" lon="76.97176">
        <ele>4131.6</ele>
        <time>2015-08-29T03:39:38Z</time>
      </trkpt>
      <trkpt lat="34.16582" lon="76.97179">
        <ele>4131.6</ele>
        <time>2015-08-29T03:40:08Z</time>
      </trkpt>
      <trkpt lat="34.1659" lon="76.9718">
        <ele>4132</ele>
        <time>2015-08-29T03:40:16Z</time>
      </trkpt>
      <trkpt lat="34.16574" lon="76.97174">
        <ele>4131.2</ele>
        <time>2015-08-29T03:40:37Z</time>
      </trkpt>
      <trkpt lat="34.16568" lon="76.97165">
        <ele>4131.8</ele>
        <time>2015-08-29T03:40:44Z</time>
      </trkpt>
      <trkpt lat="34.16587" lon="76.97174">
        <ele>4131.4</ele>
        <time>2015-08-29T03:41:16Z</time>
      </trkpt>
      <trkpt lat="34.16586" lon="76.9718">
        <ele>4131.4</ele>
        <time>2015-08-29T03:41:31Z</time>
      </trkpt>
      <trkpt lat="34.16587" lon="76.9718">
        <ele>4131.2</ele>
        <time>2015-08-29T03:41:32Z</time>
      </trkpt>
      <trkpt lat="34.16586" lon="76.9718">
        <ele>4131.2</ele>
        <time>2015-08-29T03:41:34Z</time>
      </trkpt>
      <trkpt lat="34.16591" lon="76.97184">
        <ele>4131.6</ele>
        <time>2015-08-29T03:42:04Z</time>
      </trkpt>
      <trkpt lat="34.16593" lon="76.97179">
        <ele>4132.4</ele>
        <time>2015-08-29T03:42:16Z</time>
      </trkpt>
      <trkpt lat="34.16593" lon="76.97176">
        <ele>4132.4</ele>
        <time>2015-08-29T03:42:20Z</time>
      </trkpt>
      <trkpt lat="34.16581" lon="76.97165">
        <ele>4131.2</ele>
        <time>2015-08-29T03:42:53Z</time>
      </trkpt>
      <trkpt lat="34.16585" lon="76.97168">
        <ele>4131.6</ele>
        <time>2015-08-29T03:43:48Z</time>
      </trkpt>
      <trkpt lat="34.16583" lon="76.9717">
        <ele>4131.4</ele>
        <time>2015-08-29T03:43:55Z</time>
      </trkpt>
      <trkpt lat="34.16585" lon="76.97174">
        <ele>4131.4</ele>
        <time>2015-08-29T03:43:59Z</time>
      </trkpt>
      <trkpt lat="34.16574" lon="76.97163">
        <ele>4131</ele>
        <time>2015-08-29T03:44:52Z</time>
      </trkpt>
      <trkpt lat="34.16566" lon="76.97164">
        <ele>4132.6</ele>
        <time>2015-08-29T03:45:10Z</time>
      </trkpt>
      <trkpt lat="34.16564" lon="76.97167">
        <ele>4133.8</ele>
        <time>2015-08-29T03:45:18Z</time>
      </trkpt>
      <trkpt lat="34.1656" lon="76.97169">
        <ele>4134.8</ele>
        <time>2015-08-29T03:45:26Z</time>
      </trkpt>
      <trkpt lat="34.16557" lon="76.97171">
        <ele>4136</ele>
        <time>2015-08-29T03:45:35Z</time>
      </trkpt>
      <trkpt lat="34.16551" lon="76.97175">
        <ele>4137</ele>
        <time>2015-08-29T03:45:48Z</time>
      </trkpt>
      <trkpt lat="34.16545" lon="76.97181">
        <ele>4138</ele>
        <time>2015-08-29T03:45:56Z</time>
      </trkpt>
      <trkpt lat="34.16538" lon="76.97188">
        <ele>4139.2</ele>
        <time>2015-08-29T03:46:11Z</time>
      </trkpt>
      <trkpt lat="34.16535" lon="76.97186">
        <ele>4140.2</ele>
        <time>2015-08-29T03:46:21Z</time>
      </trkpt>
      <trkpt lat="34.1653" lon="76.97188">
        <ele>4141.2</ele>
        <time>2015-08-29T03:46:33Z</time>
      </trkpt>
      <trkpt lat="34.16525" lon="76.97191">
        <ele>4142.4</ele>
        <time>2015-08-29T03:46:42Z</time>
      </trkpt>
      <trkpt lat="34.16524" lon="76.97194">
        <ele>4142.8</ele>
        <time>2015-08-29T03:46:45Z</time>
      </trkpt>
      <trkpt lat="34.16523" lon="76.97198">
        <ele>4143.4</ele>
        <time>2015-08-29T03:46:49Z</time>
      </trkpt>
      <trkpt lat="34.16518" lon="76.97205">
        <ele>4144.4</ele>
        <time>2015-08-29T03:46:59Z</time>
      </trkpt>
      <trkpt lat="34.16513" lon="76.97205">
        <ele>4145.6</ele>
        <time>2015-08-29T03:47:11Z</time>
      </trkpt>
      <trkpt lat="34.16509" lon="76.97208">
        <ele>4146.6</ele>
        <time>2015-08-29T03:47:22Z</time>
      </trkpt>
      <trkpt lat="34.16504" lon="76.97215">
        <ele>4147.4</ele>
        <time>2015-08-29T03:47:30Z</time>
      </trkpt>
      <trkpt lat="34.16503" lon="76.97214">
        <ele>4147.6</ele>
        <time>2015-08-29T03:47:33Z</time>
      </trkpt>
      <trkpt lat="34.16495" lon="76.97222">
        <ele>4148.6</ele>
        <time>2015-08-29T03:47:51Z</time>
      </trkpt>
      <trkpt lat="34.16493" lon="76.97233">
        <ele>4149</ele>
        <time>2015-08-29T03:47:57Z</time>
      </trkpt>
      <trkpt lat="34.16492" lon="76.97235">
        <ele>4149.6</ele>
        <time>2015-08-29T03:48:03Z</time>
      </trkpt>
      <trkpt lat="34.16488" lon="76.97245">
        <ele>4150.6</ele>
        <time>2015-08-29T03:48:14Z</time>
      </trkpt>
      <trkpt lat="34.16487" lon="76.97246">
        <ele>4150.8</ele>
        <time>2015-08-29T03:48:15Z</time>
      </trkpt>
      <trkpt lat="34.16484" lon="76.97249">
        <ele>4151.8</ele>
        <time>2015-08-29T03:48:22Z</time>
      </trkpt>
      <trkpt lat="34.16482" lon="76.97247">
        <ele>4153</ele>
        <time>2015-08-29T03:48:33Z</time>
      </trkpt>
      <trkpt lat="34.16479" lon="76.97249">
        <ele>4154</ele>
        <time>2015-08-29T03:48:42Z</time>
      </trkpt>
      <trkpt lat="34.16476" lon="76.97247">
        <ele>4155</ele>
        <time>2015-08-29T03:48:57Z</time>
      </trkpt>
      <trkpt lat="34.1647" lon="76.97249">
        <ele>4156</ele>
        <time>2015-08-29T03:49:09Z</time>
      </trkpt>
      <trkpt lat="34.16466" lon="76.97258">
        <ele>4157.2</ele>
        <time>2015-08-29T03:49:20Z</time>
      </trkpt>
      <trkpt lat="34.1646" lon="76.97258">
        <ele>4158.2</ele>
        <time>2015-08-29T03:49:39Z</time>
      </trkpt>
      <trkpt lat="34.16455" lon="76.97263">
        <ele>4159.2</ele>
        <time>2015-08-29T03:49:47Z</time>
      </trkpt>
      <trkpt lat="34.16451" lon="76.97276">
        <ele>4160</ele>
        <time>2015-08-29T03:49:56Z</time>
      </trkpt>
      <trkpt lat="34.16449" lon="76.97279">
        <ele>4160.4</ele>
        <time>2015-08-29T03:50:00Z</time>
      </trkpt>
      <trkpt lat="34.16447" lon="76.97285">
        <ele>4160.6</ele>
        <time>2015-08-29T03:50:03Z</time>
      </trkpt>
      <trkpt lat="34.16446" lon="76.97285">
        <ele>4161</ele>
        <time>2015-08-29T03:50:07Z</time>
      </trkpt>
      <trkpt lat="34.16444" lon="76.97282">
        <ele>4161.4</ele>
        <time>2015-08-29T03:50:11Z</time>
      </trkpt>
      <trkpt lat="34.1644" lon="76.97282">
        <ele>4162.6</ele>
        <time>2015-08-29T03:50:19Z</time>
      </trkpt>
      <trkpt lat="34.16437" lon="76.97281">
        <ele>4163.6</ele>
        <time>2015-08-29T03:50:26Z</time>
      </trkpt>
      <trkpt lat="34.16434" lon="76.97282">
        <ele>4164.8</ele>
        <time>2015-08-29T03:50:33Z</time>
      </trkpt>
      <trkpt lat="34.1643" lon="76.97283">
        <ele>4165.8</ele>
        <time>2015-08-29T03:50:44Z</time>
      </trkpt>
      <trkpt lat="34.16426" lon="76.97285">
        <ele>4166.8</ele>
        <time>2015-08-29T03:50:54Z</time>
      </trkpt>
      <trkpt lat="34.16422" lon="76.97302">
        <ele>4167.8</ele>
        <time>2015-08-29T03:51:02Z</time>
      </trkpt>
      <trkpt lat="34.16419" lon="76.97305">
        <ele>4168</ele>
        <time>2015-08-29T03:51:05Z</time>
      </trkpt>
      <trkpt lat="34.16415" lon="76.97314">
        <ele>4168.8</ele>
        <time>2015-08-29T03:51:19Z</time>
      </trkpt>
      <trkpt lat="34.16412" lon="76.97315">
        <ele>4169.8</ele>
        <time>2015-08-29T03:51:44Z</time>
      </trkpt>
      <trkpt lat="34.16415" lon="76.97315">
        <ele>4169.8</ele>
        <time>2015-08-29T03:51:53Z</time>
      </trkpt>
      <trkpt lat="34.16409" lon="76.97325">
        <ele>4169.8</ele>
        <time>2015-08-29T03:51:59Z</time>
      </trkpt>
      <trkpt lat="34.16419" lon="76.97322">
        <ele>4170</ele>
        <time>2015-08-29T03:52:34Z</time>
      </trkpt>
      <trkpt lat="34.16413" lon="76.97337">
        <ele>4170.8</ele>
        <time>2015-08-29T03:53:10Z</time>
      </trkpt>
      <trkpt lat="34.16413" lon="76.97337">
        <ele>4171</ele>
        <time>2015-08-29T03:53:11Z</time>
      </trkpt>
      <trkpt lat="34.16408" lon="76.97349">
        <ele>4172</ele>
        <time>2015-08-29T03:53:30Z</time>
      </trkpt>
      <trkpt lat="34.16409" lon="76.97357">
        <ele>4173</ele>
        <time>2015-08-29T03:53:42Z</time>
      </trkpt>
      <trkpt lat="34.16406" lon="76.97372">
        <ele>4172.8</ele>
        <time>2015-08-29T03:54:03Z</time>
      </trkpt>
      <trkpt lat="34.16404" lon="76.97374">
        <ele>4173</ele>
        <time>2015-08-29T03:54:06Z</time>
      </trkpt>
      <trkpt lat="34.164" lon="76.97382">
        <ele>4173.8</ele>
        <time>2015-08-29T03:54:17Z</time>
      </trkpt>
      <trkpt lat="34.16399" lon="76.97383">
        <ele>4174</ele>
        <time>2015-08-29T03:54:18Z</time>
      </trkpt>
      <trkpt lat="34.16399" lon="76.97383">
        <ele>4174</ele>
        <time>2015-08-29T03:54:19Z</time>
      </trkpt>
      <trkpt lat="34.16397" lon="76.97378">
        <ele>4175</ele>
        <time>2015-08-29T03:54:26Z</time>
      </trkpt>
      <trkpt lat="34.16393" lon="76.97376">
        <ele>4176.2</ele>
        <time>2015-08-29T03:54:34Z</time>
      </trkpt>
      <trkpt lat="34.1639" lon="76.97374">
        <ele>4177.2</ele>
        <time>2015-08-29T03:54:42Z</time>
      </trkpt>
      <trkpt lat="34.16386" lon="76.97371">
        <ele>4178.2</ele>
        <time>2015-08-29T03:54:49Z</time>
      </trkpt>
      <trkpt lat="34.1638" lon="76.97367">
        <ele>4179.2</ele>
        <time>2015-08-29T03:55:00Z</time>
      </trkpt>
      <trkpt lat="34.16379" lon="76.97367">
        <ele>4179.4</ele>
        <time>2015-08-29T03:55:02Z</time>
      </trkpt>
      <trkpt lat="34.16377" lon="76.97381">
        <ele>4180.2</ele>
        <time>2015-08-29T03:55:16Z</time>
      </trkpt>
      <trkpt lat="34.16374" lon="76.97395">
        <ele>4181.2</ele>
        <time>2015-08-29T03:55:32Z</time>
      </trkpt>
      <trkpt lat="34.1637" lon="76.97407">
        <ele>4182.4</ele>
        <time>2015-08-29T03:55:48Z</time>
      </trkpt>
      <trkpt lat="34.16366" lon="76.97425">
        <ele>4183</ele>
        <time>2015-08-29T03:56:09Z</time>
      </trkpt>
      <trkpt lat="34.16366" lon="76.97426">
        <ele>4183</ele>
        <time>2015-08-29T03:56:11Z</time>
      </trkpt>
      <trkpt lat="34.16366" lon="76.97433">
        <ele>4183</ele>
        <time>2015-08-29T03:56:19Z</time>
      </trkpt>
      <trkpt lat="34.16366" lon="76.97436">
        <ele>4182.8</ele>
        <time>2015-08-29T03:56:22Z</time>
      </trkpt>
      <trkpt lat="34.16366" lon="76.97444">
        <ele>4182.4</ele>
        <time>2015-08-29T03:56:29Z</time>
      </trkpt>
      <trkpt lat="34.16368" lon="76.97448">
        <ele>4182</ele>
        <time>2015-08-29T03:56:34Z</time>
      </trkpt>
      <trkpt lat="34.16372" lon="76.97467">
        <ele>4181.6</ele>
        <time>2015-08-29T03:56:56Z</time>
      </trkpt>
      <trkpt lat="34.16374" lon="76.97471">
        <ele>4182</ele>
        <time>2015-08-29T03:57:02Z</time>
      </trkpt>
      <trkpt lat="34.16374" lon="76.9749">
        <ele>4182.2</ele>
        <time>2015-08-29T03:57:22Z</time>
      </trkpt>
      <trkpt lat="34.16376" lon="76.97505">
        <ele>4181.2</ele>
        <time>2015-08-29T03:57:43Z</time>
      </trkpt>
      <trkpt lat="34.16376" lon="76.97527">
        <ele>4181.2</ele>
        <time>2015-08-29T03:58:08Z</time>
      </trkpt>
      <trkpt lat="34.16375" lon="76.97549">
        <ele>4182</ele>
        <time>2015-08-29T03:58:30Z</time>
      </trkpt>
      <trkpt lat="34.16375" lon="76.97552">
        <ele>4182.2</ele>
        <time>2015-08-29T03:58:34Z</time>
      </trkpt>
      <trkpt lat="34.16371" lon="76.97557">
        <ele>4182.6</ele>
        <time>2015-08-29T03:58:40Z</time>
      </trkpt>
      <trkpt lat="34.1637" lon="76.97562">
        <ele>4183</ele>
        <time>2015-08-29T03:58:45Z</time>
      </trkpt>
      <trkpt lat="34.16371" lon="76.97565">
        <ele>4183.4</ele>
        <time>2015-08-29T03:58:51Z</time>
      </trkpt>
      <trkpt lat="34.1637" lon="76.97576">
        <ele>4183.8</ele>
        <time>2015-08-29T03:59:03Z</time>
      </trkpt>
      <trkpt lat="34.16369" lon="76.97582">
        <ele>4184</ele>
        <time>2015-08-29T03:59:11Z</time>
      </trkpt>
      <trkpt lat="34.16368" lon="76.97584">
        <ele>4184</ele>
        <time>2015-08-29T03:59:13Z</time>
      </trkpt>
      <trkpt lat="34.16367" lon="76.97587">
        <ele>4184.4</ele>
        <time>2015-08-29T03:59:17Z</time>
      </trkpt>
      <trkpt lat="34.16366" lon="76.97609">
        <ele>4185.2</ele>
        <time>2015-08-29T03:59:44Z</time>
      </trkpt>
      <trkpt lat="34.16365" lon="76.97611">
        <ele>4185.4</ele>
        <time>2015-08-29T03:59:47Z</time>
      </trkpt>
      <trkpt lat="34.16361" lon="76.97633">
        <ele>4186</ele>
        <time>2015-08-29T04:00:13Z</time>
      </trkpt>
      <trkpt lat="34.16361" lon="76.97637">
        <ele>4186.4</ele>
        <time>2015-08-29T04:00:18Z</time>
      </trkpt>
      <trkpt lat="34.16359" lon="76.97647">
        <ele>4187.2</ele>
        <time>2015-08-29T04:00:31Z</time>
      </trkpt>
      <trkpt lat="34.16358" lon="76.97648">
        <ele>4187.2</ele>
        <time>2015-08-29T04:00:32Z</time>
      </trkpt>
      <trkpt lat="34.16356" lon="76.97652">
        <ele>4187.4</ele>
        <time>2015-08-29T04:00:36Z</time>
      </trkpt>
      <trkpt lat="34.16355" lon="76.9766">
        <ele>4188.6</ele>
        <time>2015-08-29T04:00:48Z</time>
      </trkpt>
      <trkpt lat="34.16356" lon="76.97667">
        <ele>4189.6</ele>
        <time>2015-08-29T04:01:01Z</time>
      </trkpt>
      <trkpt lat="34.16354" lon="76.97683">
        <ele>4190</ele>
        <time>2015-08-29T04:01:18Z</time>
      </trkpt>
      <trkpt lat="34.1635" lon="76.97692">
        <ele>4190.6</ele>
        <time>2015-08-29T04:01:25Z</time>
      </trkpt>
      <trkpt lat="34.16349" lon="76.97704">
        <ele>4191</ele>
        <time>2015-08-29T04:01:41Z</time>
      </trkpt>
      <trkpt lat="34.16355" lon="76.9771">
        <ele>4191.6</ele>
        <time>2015-08-29T04:01:52Z</time>
      </trkpt>
      <trkpt lat="34.16354" lon="76.97718">
        <ele>4192.6</ele>
        <time>2015-08-29T04:02:06Z</time>
      </trkpt>
      <trkpt lat="34.16354" lon="76.97733">
        <ele>4193.6</ele>
        <time>2015-08-29T04:02:21Z</time>
      </trkpt>
      <trkpt lat="34.16354" lon="76.97735">
        <ele>4193.8</ele>
        <time>2015-08-29T04:02:23Z</time>
      </trkpt>
      <trkpt lat="34.16357" lon="76.97745">
        <ele>4194.4</ele>
        <time>2015-08-29T04:02:33Z</time>
      </trkpt>
      <trkpt lat="34.16355" lon="76.97748">
        <ele>4194.8</ele>
        <time>2015-08-29T04:02:38Z</time>
      </trkpt>
      <trkpt lat="34.1635" lon="76.97757">
        <ele>4195.8</ele>
        <time>2015-08-29T04:02:51Z</time>
      </trkpt>
      <trkpt lat="34.16358" lon="76.97766">
        <ele>4196.8</ele>
        <time>2015-08-29T04:03:13Z</time>
      </trkpt>
      <trkpt lat="34.16357" lon="76.97765">
        <ele>4197.2</ele>
        <time>2015-08-29T04:03:16Z</time>
      </trkpt>
      <trkpt lat="34.16355" lon="76.97771">
        <ele>4197</ele>
        <time>2015-08-29T04:03:22Z</time>
      </trkpt>
      <trkpt lat="34.16356" lon="76.97772">
        <ele>4197.2</ele>
        <time>2015-08-29T04:03:25Z</time>
      </trkpt>
      <trkpt lat="34.16354" lon="76.97778">
        <ele>4198</ele>
        <time>2015-08-29T04:03:31Z</time>
      </trkpt>
      <trkpt lat="34.16361" lon="76.97788">
        <ele>4198</ele>
        <time>2015-08-29T04:03:46Z</time>
      </trkpt>
      <trkpt lat="34.1636" lon="76.97788">
        <ele>4198.2</ele>
        <time>2015-08-29T04:03:47Z</time>
      </trkpt>
      <trkpt lat="34.16359" lon="76.97805">
        <ele>4199.2</ele>
        <time>2015-08-29T04:04:08Z</time>
      </trkpt>
      <trkpt lat="34.16355" lon="76.97813">
        <ele>4200.2</ele>
        <time>2015-08-29T04:04:20Z</time>
      </trkpt>
      <trkpt lat="34.16347" lon="76.97829">
        <ele>4201.2</ele>
        <time>2015-08-29T04:04:43Z</time>
      </trkpt>
      <trkpt lat="34.16345" lon="76.97838">
        <ele>4202.4</ele>
        <time>2015-08-29T04:04:57Z</time>
      </trkpt>
      <trkpt lat="34.16343" lon="76.97851">
        <ele>4203.4</ele>
        <time>2015-08-29T04:05:10Z</time>
      </trkpt>
      <trkpt lat="34.16337" lon="76.97867">
        <ele>4204.4</ele>
        <time>2015-08-29T04:05:29Z</time>
      </trkpt>
      <trkpt lat="34.16334" lon="76.97879">
        <ele>4205.4</ele>
        <time>2015-08-29T04:05:44Z</time>
      </trkpt>
      <trkpt lat="34.16334" lon="76.97882">
        <ele>4205.6</ele>
        <time>2015-08-29T04:05:47Z</time>
      </trkpt>
      <trkpt lat="34.1633" lon="76.97887">
        <ele>4206.4</ele>
        <time>2015-08-29T04:05:59Z</time>
      </trkpt>
      <trkpt lat="34.1633" lon="76.97897">
        <ele>4207.6</ele>
        <time>2015-08-29T04:06:10Z</time>
      </trkpt>
      <trkpt lat="34.16329" lon="76.97905">
        <ele>4208.4</ele>
        <time>2015-08-29T04:06:18Z</time>
      </trkpt>
      <trkpt lat="34.16328" lon="76.97907">
        <ele>4208.6</ele>
        <time>2015-08-29T04:06:20Z</time>
      </trkpt>
      <trkpt lat="34.16325" lon="76.97909">
        <ele>4209</ele>
        <time>2015-08-29T04:06:23Z</time>
      </trkpt>
      <trkpt lat="34.16319" lon="76.97913">
        <ele>4209.8</ele>
        <time>2015-08-29T04:06:30Z</time>
      </trkpt>
      <trkpt lat="34.16323" lon="76.97916">
        <ele>4210.8</ele>
        <time>2015-08-29T04:06:41Z</time>
      </trkpt>
      <trkpt lat="34.1632" lon="76.97926">
        <ele>4211.8</ele>
        <time>2015-08-29T04:06:52Z</time>
      </trkpt>
      <trkpt lat="34.16321" lon="76.97932">
        <ele>4212.8</ele>
        <time>2015-08-29T04:07:02Z</time>
      </trkpt>
      <trkpt lat="34.16321" lon="76.97937">
        <ele>4214</ele>
        <time>2015-08-29T04:07:11Z</time>
      </trkpt>
      <trkpt lat="34.16317" lon="76.97945">
        <ele>4215</ele>
        <time>2015-08-29T04:07:23Z</time>
      </trkpt>
      <trkpt lat="34.16316" lon="76.97949">
        <ele>4215.4</ele>
        <time>2015-08-29T04:07:26Z</time>
      </trkpt>
      <trkpt lat="34.16316" lon="76.97956">
        <ele>4216.2</ele>
        <time>2015-08-29T04:07:34Z</time>
      </trkpt>
      <trkpt lat="34.16325" lon="76.97957">
        <ele>4217.2</ele>
        <time>2015-08-29T04:07:43Z</time>
      </trkpt>
      <trkpt lat="34.16321" lon="76.97962">
        <ele>4218.2</ele>
        <time>2015-08-29T04:07:52Z</time>
      </trkpt>
      <trkpt lat="34.16318" lon="76.97967">
        <ele>4218.8</ele>
        <time>2015-08-29T04:08:00Z</time>
      </trkpt>
      <trkpt lat="34.16318" lon="76.97968">
        <ele>4219.2</ele>
        <time>2015-08-29T04:08:03Z</time>
      </trkpt>
      <trkpt lat="34.16317" lon="76.97968">
        <ele>4219.2</ele>
        <time>2015-08-29T04:08:04Z</time>
      </trkpt>
      <trkpt lat="34.16314" lon="76.97973">
        <ele>4220.2</ele>
        <time>2015-08-29T04:08:17Z</time>
      </trkpt>
      <trkpt lat="34.16311" lon="76.97982">
        <ele>4221.4</ele>
        <time>2015-08-29T04:08:26Z</time>
      </trkpt>
      <trkpt lat="34.16306" lon="76.9799">
        <ele>4221.6</ele>
        <time>2015-08-29T04:08:34Z</time>
      </trkpt>
      <trkpt lat="34.16302" lon="76.97994">
        <ele>4222.2</ele>
        <time>2015-08-29T04:08:40Z</time>
      </trkpt>
      <trkpt lat="34.16302" lon="76.97994">
        <ele>4222.4</ele>
        <time>2015-08-29T04:08:41Z</time>
      </trkpt>
      <trkpt lat="34.16304" lon="76.98002">
        <ele>4223.4</ele>
        <time>2015-08-29T04:08:56Z</time>
      </trkpt>
      <trkpt lat="34.16303" lon="76.98009">
        <ele>4224.4</ele>
        <time>2015-08-29T04:09:06Z</time>
      </trkpt>
      <trkpt lat="34.16301" lon="76.98021">
        <ele>4225</ele>
        <time>2015-08-29T04:09:19Z</time>
      </trkpt>
      <trkpt lat="34.16301" lon="76.98028">
        <ele>4225.4</ele>
        <time>2015-08-29T04:09:27Z</time>
      </trkpt>
      <trkpt lat="34.16299" lon="76.98034">
        <ele>4226.6</ele>
        <time>2015-08-29T04:09:39Z</time>
      </trkpt>
      <trkpt lat="34.16299" lon="76.98039">
        <ele>4227.6</ele>
        <time>2015-08-29T04:09:51Z</time>
      </trkpt>
      <trkpt lat="34.16296" lon="76.98048">
        <ele>4228.6</ele>
        <time>2015-08-29T04:10:12Z</time>
      </trkpt>
      <trkpt lat="34.16295" lon="76.9805">
        <ele>4228.6</ele>
        <time>2015-08-29T04:10:14Z</time>
      </trkpt>
      <trkpt lat="34.16294" lon="76.98053">
        <ele>4228.6</ele>
        <time>2015-08-29T04:10:16Z</time>
      </trkpt>
      <trkpt lat="34.16289" lon="76.98062">
        <ele>4228.6</ele>
        <time>2015-08-29T04:10:23Z</time>
      </trkpt>
      <trkpt lat="34.16288" lon="76.98064">
        <ele>4228.4</ele>
        <time>2015-08-29T04:10:25Z</time>
      </trkpt>
      <trkpt lat="34.16282" lon="76.98078">
        <ele>4229.6</ele>
        <time>2015-08-29T04:10:45Z</time>
      </trkpt>
      <trkpt lat="34.16274" lon="76.98093">
        <ele>4230.6</ele>
        <time>2015-08-29T04:11:08Z</time>
      </trkpt>
      <trkpt lat="34.16273" lon="76.98095">
        <ele>4230.4</ele>
        <time>2015-08-29T04:11:11Z</time>
      </trkpt>
      <trkpt lat="34.16271" lon="76.98098">
        <ele>4230.8</ele>
        <time>2015-08-29T04:11:14Z</time>
      </trkpt>
      <trkpt lat="34.16271" lon="76.98103">
        <ele>4230.8</ele>
        <time>2015-08-29T04:11:17Z</time>
      </trkpt>
      <trkpt lat="34.1627" lon="76.98106">
        <ele>4231</ele>
        <time>2015-08-29T04:11:21Z</time>
      </trkpt>
      <trkpt lat="34.16269" lon="76.98109">
        <ele>4231.2</ele>
        <time>2015-08-29T04:11:25Z</time>
      </trkpt>
      <trkpt lat="34.16268" lon="76.98112">
        <ele>4231.4</ele>
        <time>2015-08-29T04:11:29Z</time>
      </trkpt>
      <trkpt lat="34.16268" lon="76.98113">
        <ele>4231.8</ele>
        <time>2015-08-29T04:11:32Z</time>
      </trkpt>
      <trkpt lat="34.16262" lon="76.98132">
        <ele>4232.4</ele>
        <time>2015-08-29T04:12:01Z</time>
      </trkpt>
      <trkpt lat="34.16262" lon="76.98135">
        <ele>4232.4</ele>
        <time>2015-08-29T04:12:04Z</time>
      </trkpt>
      <trkpt lat="34.1626" lon="76.98144">
        <ele>4232.8</ele>
        <time>2015-08-29T04:12:09Z</time>
      </trkpt>
      <trkpt lat="34.16259" lon="76.98145">
        <ele>4232.8</ele>
        <time>2015-08-29T04:12:10Z</time>
      </trkpt>
      <trkpt lat="34.16264" lon="76.98157">
        <ele>4233.6</ele>
        <time>2015-08-29T04:12:23Z</time>
      </trkpt>
      <trkpt lat="34.16264" lon="76.98162">
        <ele>4233.8</ele>
        <time>2015-08-29T04:12:29Z</time>
      </trkpt>
      <trkpt lat="34.16264" lon="76.98163">
        <ele>4233.8</ele>
        <time>2015-08-29T04:12:30Z</time>
      </trkpt>
      <trkpt lat="34.16264" lon="76.98166">
        <ele>4234</ele>
        <time>2015-08-29T04:12:33Z</time>
      </trkpt>
      <trkpt lat="34.16274" lon="76.9818">
        <ele>4234.4</ele>
        <time>2015-08-29T04:12:56Z</time>
      </trkpt>
      <trkpt lat="34.16274" lon="76.98184">
        <ele>4234</ele>
        <time>2015-08-29T04:13:02Z</time>
      </trkpt>
      <trkpt lat="34.16273" lon="76.98185">
        <ele>4233.8</ele>
        <time>2015-08-29T04:13:06Z</time>
      </trkpt>
      <trkpt lat="34.16271" lon="76.98187">
        <ele>4232.8</ele>
        <time>2015-08-29T04:13:17Z</time>
      </trkpt>
      <trkpt lat="34.16267" lon="76.98196">
        <ele>4234</ele>
        <time>2015-08-29T04:13:42Z</time>
      </trkpt>
      <trkpt lat="34.16268" lon="76.98195">
        <ele>4235</ele>
        <time>2015-08-29T04:13:49Z</time>
      </trkpt>
      <trkpt lat="34.16276" lon="76.98194">
        <ele>4235.4</ele>
        <time>2015-08-29T04:13:55Z</time>
      </trkpt>
      <trkpt lat="34.16276" lon="76.98197">
        <ele>4236</ele>
        <time>2015-08-29T04:13:58Z</time>
      </trkpt>
      <trkpt lat="34.16275" lon="76.98201">
        <ele>4236.6</ele>
        <time>2015-08-29T04:14:02Z</time>
      </trkpt>
      <trkpt lat="34.16274" lon="76.98202">
        <ele>4236.8</ele>
        <time>2015-08-29T04:14:04Z</time>
      </trkpt>
      <trkpt lat="34.16273" lon="76.98202">
        <ele>4237</ele>
        <time>2015-08-29T04:14:06Z</time>
      </trkpt>
      <trkpt lat="34.1627" lon="76.98203">
        <ele>4238</ele>
        <time>2015-08-29T04:14:15Z</time>
      </trkpt>
      <trkpt lat="34.16266" lon="76.98203">
        <ele>4239.2</ele>
        <time>2015-08-29T04:14:25Z</time>
      </trkpt>
      <trkpt lat="34.16263" lon="76.98211">
        <ele>4240</ele>
        <time>2015-08-29T04:14:35Z</time>
      </trkpt>
      <trkpt lat="34.16263" lon="76.98211">
        <ele>4240.2</ele>
        <time>2015-08-29T04:14:37Z</time>
      </trkpt>
      <trkpt lat="34.16261" lon="76.98216">
        <ele>4241.2</ele>
        <time>2015-08-29T04:14:47Z</time>
      </trkpt>
      <trkpt lat="34.16261" lon="76.9822">
        <ele>4242.2</ele>
        <time>2015-08-29T04:14:56Z</time>
      </trkpt>
      <trkpt lat="34.16259" lon="76.98221">
        <ele>4242.6</ele>
        <time>2015-08-29T04:14:58Z</time>
      </trkpt>
      <trkpt lat="34.16259" lon="76.9822">
        <ele>4242.6</ele>
        <time>2015-08-29T04:15:00Z</time>
      </trkpt>
      <trkpt lat="34.16263" lon="76.98221">
        <ele>4243.4</ele>
        <time>2015-08-29T04:15:17Z</time>
      </trkpt>
      <trkpt lat="34.16263" lon="76.9823">
        <ele>4244.4</ele>
        <time>2015-08-29T04:15:32Z</time>
      </trkpt>
      <trkpt lat="34.16264" lon="76.98231">
        <ele>4244.4</ele>
        <time>2015-08-29T04:15:34Z</time>
      </trkpt>
      <trkpt lat="34.16271" lon="76.98249">
        <ele>4245.2</ele>
        <time>2015-08-29T04:15:55Z</time>
      </trkpt>
      <trkpt lat="34.16269" lon="76.98252">
        <ele>4245.6</ele>
        <time>2015-08-29T04:15:59Z</time>
      </trkpt>
      <trkpt lat="34.16264" lon="76.98264">
        <ele>4246.2</ele>
        <time>2015-08-29T04:16:15Z</time>
      </trkpt>
      <trkpt lat="34.16267" lon="76.98266">
        <ele>4246</ele>
        <time>2015-08-29T04:16:17Z</time>
      </trkpt>
      <trkpt lat="34.16267" lon="76.98268">
        <ele>4246.2</ele>
        <time>2015-08-29T04:16:20Z</time>
      </trkpt>
      <trkpt lat="34.16263" lon="76.98288">
        <ele>4246</ele>
        <time>2015-08-29T04:16:49Z</time>
      </trkpt>
      <trkpt lat="34.16259" lon="76.98302">
        <ele>4246</ele>
        <time>2015-08-29T04:16:59Z</time>
      </trkpt>
      <trkpt lat="34.16258" lon="76.98305">
        <ele>4246</ele>
        <time>2015-08-29T04:17:01Z</time>
      </trkpt>
      <trkpt lat="34.16255" lon="76.98312">
        <ele>4246.6</ele>
        <time>2015-08-29T04:17:06Z</time>
      </trkpt>
      <trkpt lat="34.16253" lon="76.98318">
        <ele>4247</ele>
        <time>2015-08-29T04:17:10Z</time>
      </trkpt>
      <trkpt lat="34.16253" lon="76.98321">
        <ele>4247.2</ele>
        <time>2015-08-29T04:17:14Z</time>
      </trkpt>
      <trkpt lat="34.16253" lon="76.98328">
        <ele>4247.2</ele>
        <time>2015-08-29T04:17:23Z</time>
      </trkpt>
      <trkpt lat="34.16251" lon="76.98335">
        <ele>4247.6</ele>
        <time>2015-08-29T04:17:43Z</time>
      </trkpt>
      <trkpt lat="34.16246" lon="76.98353">
        <ele>4248.4</ele>
        <time>2015-08-29T04:18:03Z</time>
      </trkpt>
      <trkpt lat="34.16246" lon="76.98358">
        <ele>4248.8</ele>
        <time>2015-08-29T04:18:06Z</time>
      </trkpt>
      <trkpt lat="34.16243" lon="76.98363">
        <ele>4248.8</ele>
        <time>2015-08-29T04:18:08Z</time>
      </trkpt>
      <trkpt lat="34.16242" lon="76.98366">
        <ele>4249</ele>
        <time>2015-08-29T04:18:10Z</time>
      </trkpt>
      <trkpt lat="34.16236" lon="76.98375">
        <ele>4249.8</ele>
        <time>2015-08-29T04:18:29Z</time>
      </trkpt>
      <trkpt lat="34.16231" lon="76.98384">
        <ele>4250</ele>
        <time>2015-08-29T04:18:36Z</time>
      </trkpt>
      <trkpt lat="34.16228" lon="76.98385">
        <ele>4250.2</ele>
        <time>2015-08-29T04:18:39Z</time>
      </trkpt>
      <trkpt lat="34.16233" lon="76.98385">
        <ele>4250.8</ele>
        <time>2015-08-29T04:18:44Z</time>
      </trkpt>
      <trkpt lat="34.16235" lon="76.98385">
        <ele>4251.2</ele>
        <time>2015-08-29T04:18:46Z</time>
      </trkpt>
      <trkpt lat="34.1623" lon="76.98397">
        <ele>4251.4</ele>
        <time>2015-08-29T04:19:05Z</time>
      </trkpt>
      <trkpt lat="34.16227" lon="76.98405">
        <ele>4251.6</ele>
        <time>2015-08-29T04:19:09Z</time>
      </trkpt>
      <trkpt lat="34.16226" lon="76.98405">
        <ele>4251.8</ele>
        <time>2015-08-29T04:19:11Z</time>
      </trkpt>
      <trkpt lat="34.16226" lon="76.98407">
        <ele>4252</ele>
        <time>2015-08-29T04:19:15Z</time>
      </trkpt>
      <trkpt lat="34.16221" lon="76.98415">
        <ele>4253</ele>
        <time>2015-08-29T04:19:29Z</time>
      </trkpt>
      <trkpt lat="34.16221" lon="76.98416">
        <ele>4253</ele>
        <time>2015-08-29T04:19:30Z</time>
      </trkpt>
      <trkpt lat="34.16218" lon="76.98423">
        <ele>4254</ele>
        <time>2015-08-29T04:19:40Z</time>
      </trkpt>
      <trkpt lat="34.1622" lon="76.98426">
        <ele>4254.6</ele>
        <time>2015-08-29T04:19:46Z</time>
      </trkpt>
      <trkpt lat="34.16218" lon="76.98429">
        <ele>4255</ele>
        <time>2015-08-29T04:19:51Z</time>
      </trkpt>
      <trkpt lat="34.16219" lon="76.98439">
        <ele>4256</ele>
        <time>2015-08-29T04:20:02Z</time>
      </trkpt>
      <trkpt lat="34.16218" lon="76.98442">
        <ele>4256.4</ele>
        <time>2015-08-29T04:20:06Z</time>
      </trkpt>
      <trkpt lat="34.16216" lon="76.98445">
        <ele>4257.2</ele>
        <time>2015-08-29T04:20:12Z</time>
      </trkpt>
      <trkpt lat="34.16208" lon="76.98457">
        <ele>4258.2</ele>
        <time>2015-08-29T04:20:28Z</time>
      </trkpt>
      <trkpt lat="34.16209" lon="76.98462">
        <ele>4259.2</ele>
        <time>2015-08-29T04:20:38Z</time>
      </trkpt>
      <trkpt lat="34.16208" lon="76.98472">
        <ele>4260.4</ele>
        <time>2015-08-29T04:21:07Z</time>
      </trkpt>
      <trkpt lat="34.16207" lon="76.98474">
        <ele>4260.6</ele>
        <time>2015-08-29T04:21:11Z</time>
      </trkpt>
      <trkpt lat="34.16201" lon="76.98478">
        <ele>4261.4</ele>
        <time>2015-08-29T04:21:18Z</time>
      </trkpt>
      <trkpt lat="34.162" lon="76.98484">
        <ele>4262</ele>
        <time>2015-08-29T04:21:24Z</time>
      </trkpt>
      <trkpt lat="34.162" lon="76.98486">
        <ele>4262.4</ele>
        <time>2015-08-29T04:21:27Z</time>
      </trkpt>
      <trkpt lat="34.16201" lon="76.98495">
        <ele>4263.4</ele>
        <time>2015-08-29T04:22:00Z</time>
      </trkpt>
      <trkpt lat="34.16197" lon="76.98502">
        <ele>4263.8</ele>
        <time>2015-08-29T04:22:05Z</time>
      </trkpt>
      <trkpt lat="34.16194" lon="76.98506">
        <ele>4264.4</ele>
        <time>2015-08-29T04:22:12Z</time>
      </trkpt>
      <trkpt lat="34.16193" lon="76.98517">
        <ele>4265.2</ele>
        <time>2015-08-29T04:22:28Z</time>
      </trkpt>
      <trkpt lat="34.1619" lon="76.98519">
        <ele>4265.6</ele>
        <time>2015-08-29T04:22:34Z</time>
      </trkpt>
      <trkpt lat="34.16189" lon="76.98527">
        <ele>4266.6</ele>
        <time>2015-08-29T04:22:48Z</time>
      </trkpt>
      <trkpt lat="34.16178" lon="76.9854">
        <ele>4267.6</ele>
        <time>2015-08-29T04:23:02Z</time>
      </trkpt>
      <trkpt lat="34.1617" lon="76.98541">
        <ele>4268</ele>
        <time>2015-08-29T04:23:21Z</time>
      </trkpt>
      <trkpt lat="34.16167" lon="76.98543">
        <ele>4267.8</ele>
        <time>2015-08-29T04:23:27Z</time>
      </trkpt>
      <trkpt lat="34.16166" lon="76.98538">
        <ele>4267.6</ele>
        <time>2015-08-29T04:23:34Z</time>
      </trkpt>
      <trkpt lat="34.16166" lon="76.98537">
        <ele>4267.4</ele>
        <time>2015-08-29T04:23:36Z</time>
      </trkpt>
      <trkpt lat="34.16172" lon="76.98542">
        <ele>4268.4</ele>
        <time>2015-08-29T04:24:09Z</time>
      </trkpt>
      <trkpt lat="34.16163" lon="76.98551">
        <ele>4268.2</ele>
        <time>2015-08-29T04:24:24Z</time>
      </trkpt>
      <trkpt lat="34.16179" lon="76.98548">
        <ele>4268.6</ele>
        <time>2015-08-29T04:24:30Z</time>
      </trkpt>
      <trkpt lat="34.1618" lon="76.98548">
        <ele>4268.8</ele>
        <time>2015-08-29T04:24:31Z</time>
      </trkpt>
      <trkpt lat="34.16181" lon="76.98549">
        <ele>4268.8</ele>
        <time>2015-08-29T04:24:32Z</time>
      </trkpt>
      <trkpt lat="34.16181" lon="76.98551">
        <ele>4269.4</ele>
        <time>2015-08-29T04:24:36Z</time>
      </trkpt>
      <trkpt lat="34.16181" lon="76.98552">
        <ele>4269.8</ele>
        <time>2015-08-29T04:24:38Z</time>
      </trkpt>
      <trkpt lat="34.16177" lon="76.98571">
        <ele>4270</ele>
        <time>2015-08-29T04:25:02Z</time>
      </trkpt>
      <trkpt lat="34.16176" lon="76.98583">
        <ele>4270.2</ele>
        <time>2015-08-29T04:25:12Z</time>
      </trkpt>
      <trkpt lat="34.16176" lon="76.98592">
        <ele>4270.8</ele>
        <time>2015-08-29T04:25:22Z</time>
      </trkpt>
      <trkpt lat="34.16174" lon="76.98593">
        <ele>4271</ele>
        <time>2015-08-29T04:25:25Z</time>
      </trkpt>
      <trkpt lat="34.16175" lon="76.98596">
        <ele>4271</ele>
        <time>2015-08-29T04:25:28Z</time>
      </trkpt>
      <trkpt lat="34.16176" lon="76.98596">
        <ele>4271.2</ele>
        <time>2015-08-29T04:25:29Z</time>
      </trkpt>
      <trkpt lat="34.16176" lon="76.98596">
        <ele>4271</ele>
        <time>2015-08-29T04:25:32Z</time>
      </trkpt>
      <trkpt lat="34.16173" lon="76.98611">
        <ele>4271.6</ele>
        <time>2015-08-29T04:25:50Z</time>
      </trkpt>
      <trkpt lat="34.16171" lon="76.98615">
        <ele>4272</ele>
        <time>2015-08-29T04:25:53Z</time>
      </trkpt>
      <trkpt lat="34.16178" lon="76.98622">
        <ele>4272.4</ele>
        <time>2015-08-29T04:26:10Z</time>
      </trkpt>
      <trkpt lat="34.16173" lon="76.98626">
        <ele>4273</ele>
        <time>2015-08-29T04:26:18Z</time>
      </trkpt>
      <trkpt lat="34.16172" lon="76.98627">
        <ele>4273</ele>
        <time>2015-08-29T04:26:19Z</time>
      </trkpt>
      <trkpt lat="34.16169" lon="76.98634">
        <ele>4273.6</ele>
        <time>2015-08-29T04:26:26Z</time>
      </trkpt>
      <trkpt lat="34.16166" lon="76.98639">
        <ele>4274</ele>
        <time>2015-08-29T04:26:29Z</time>
      </trkpt>
      <trkpt lat="34.16165" lon="76.98639">
        <ele>4274</ele>
        <time>2015-08-29T04:26:30Z</time>
      </trkpt>
      <trkpt lat="34.16167" lon="76.98643">
        <ele>4274.4</ele>
        <time>2015-08-29T04:26:35Z</time>
      </trkpt>
      <trkpt lat="34.16168" lon="76.98647">
        <ele>4275</ele>
        <time>2015-08-29T04:26:45Z</time>
      </trkpt>
      <trkpt lat="34.16166" lon="76.98655">
        <ele>4276</ele>
        <time>2015-08-29T04:26:59Z</time>
      </trkpt>
      <trkpt lat="34.16166" lon="76.98656">
        <ele>4276.2</ele>
        <time>2015-08-29T04:27:01Z</time>
      </trkpt>
      <trkpt lat="34.16166" lon="76.98672">
        <ele>4277.2</ele>
        <time>2015-08-29T04:27:20Z</time>
      </trkpt>
      <trkpt lat="34.1616" lon="76.98686">
        <ele>4278</ele>
        <time>2015-08-29T04:27:40Z</time>
      </trkpt>
      <trkpt lat="34.16161" lon="76.98688">
        <ele>4278.2</ele>
        <time>2015-08-29T04:27:44Z</time>
      </trkpt>
      <trkpt lat="34.16164" lon="76.98697">
        <ele>4279</ele>
        <time>2015-08-29T04:27:57Z</time>
      </trkpt>
      <trkpt lat="34.16167" lon="76.98699">
        <ele>4279.4</ele>
        <time>2015-08-29T04:28:03Z</time>
      </trkpt>
      <trkpt lat="34.16163" lon="76.98702">
        <ele>4279.6</ele>
        <time>2015-08-29T04:28:07Z</time>
      </trkpt>
      <trkpt lat="34.1616" lon="76.98711">
        <ele>4280</ele>
        <time>2015-08-29T04:28:19Z</time>
      </trkpt>
      <trkpt lat="34.16159" lon="76.98721">
        <ele>4279.4</ele>
        <time>2015-08-29T04:28:41Z</time>
      </trkpt>
      <trkpt lat="34.16157" lon="76.98732">
        <ele>4280.2</ele>
        <time>2015-08-29T04:29:00Z</time>
      </trkpt>
      <trkpt lat="34.16154" lon="76.9874">
        <ele>4280</ele>
        <time>2015-08-29T04:29:08Z</time>
      </trkpt>
      <trkpt lat="34.16155" lon="76.9875">
        <ele>4280</ele>
        <time>2015-08-29T04:29:19Z</time>
      </trkpt>
      <trkpt lat="34.16154" lon="76.98752">
        <ele>4280.4</ele>
        <time>2015-08-29T04:29:24Z</time>
      </trkpt>
      <trkpt lat="34.1615" lon="76.98758">
        <ele>4281.2</ele>
        <time>2015-08-29T04:29:30Z</time>
      </trkpt>
      <trkpt lat="34.16149" lon="76.9876">
        <ele>4281.6</ele>
        <time>2015-08-29T04:29:33Z</time>
      </trkpt>
      <trkpt lat="34.16151" lon="76.98761">
        <ele>4281.8</ele>
        <time>2015-08-29T04:29:34Z</time>
      </trkpt>
      <trkpt lat="34.16154" lon="76.98764">
        <ele>4282.2</ele>
        <time>2015-08-29T04:29:38Z</time>
      </trkpt>
      <trkpt lat="34.16151" lon="76.98772">
        <ele>4282.6</ele>
        <time>2015-08-29T04:29:48Z</time>
      </trkpt>
      <trkpt lat="34.16149" lon="76.98774">
        <ele>4282.8</ele>
        <time>2015-08-29T04:29:50Z</time>
      </trkpt>
      <trkpt lat="34.16142" lon="76.98779">
        <ele>4283.6</ele>
        <time>2015-08-29T04:29:58Z</time>
      </trkpt>
      <trkpt lat="34.1614" lon="76.98778">
        <ele>4283.6</ele>
        <time>2015-08-29T04:30:00Z</time>
      </trkpt>
      <trkpt lat="34.16135" lon="76.98781">
        <ele>4283.8</ele>
        <time>2015-08-29T04:30:06Z</time>
      </trkpt>
      <trkpt lat="34.16125" lon="76.98799">
        <ele>4284.4</ele>
        <time>2015-08-29T04:30:23Z</time>
      </trkpt>
      <trkpt lat="34.16123" lon="76.98805">
        <ele>4284.8</ele>
        <time>2015-08-29T04:30:27Z</time>
      </trkpt>
      <trkpt lat="34.16116" lon="76.98812">
        <ele>4285.8</ele>
        <time>2015-08-29T04:30:40Z</time>
      </trkpt>
      <trkpt lat="34.1611" lon="76.98814">
        <ele>4286.4</ele>
        <time>2015-08-29T04:30:47Z</time>
      </trkpt>
      <trkpt lat="34.16108" lon="76.98815">
        <ele>4286.8</ele>
        <time>2015-08-29T04:30:51Z</time>
      </trkpt>
      <trkpt lat="34.16107" lon="76.98818">
        <ele>4287.4</ele>
        <time>2015-08-29T04:30:59Z</time>
      </trkpt>
      <trkpt lat="34.16107" lon="76.98825">
        <ele>4287.8</ele>
        <time>2015-08-29T04:31:07Z</time>
      </trkpt>
      <trkpt lat="34.16108" lon="76.98827">
        <ele>4288</ele>
        <time>2015-08-29T04:31:08Z</time>
      </trkpt>
      <trkpt lat="34.16108" lon="76.98828">
        <ele>4288.2</ele>
        <time>2015-08-29T04:31:10Z</time>
      </trkpt>
      <trkpt lat="34.16106" lon="76.98832">
        <ele>4289</ele>
        <time>2015-08-29T04:31:17Z</time>
      </trkpt>
      <trkpt lat="34.16096" lon="76.9884">
        <ele>4290</ele>
        <time>2015-08-29T04:31:50Z</time>
      </trkpt>
      <trkpt lat="34.16086" lon="76.98855">
        <ele>4291</ele>
        <time>2015-08-29T04:32:05Z</time>
      </trkpt>
      <trkpt lat="34.16086" lon="76.98856">
        <ele>4291.2</ele>
        <time>2015-08-29T04:32:06Z</time>
      </trkpt>
      <trkpt lat="34.16079" lon="76.98857">
        <ele>4292</ele>
        <time>2015-08-29T04:32:18Z</time>
      </trkpt>
      <trkpt lat="34.16074" lon="76.98859">
        <ele>4293</ele>
        <time>2015-08-29T04:32:32Z</time>
      </trkpt>
      <trkpt lat="34.16064" lon="76.98861">
        <ele>4294</ele>
        <time>2015-08-29T04:32:46Z</time>
      </trkpt>
      <trkpt lat="34.16067" lon="76.98871">
        <ele>4294.6</ele>
        <time>2015-08-29T04:32:54Z</time>
      </trkpt>
      <trkpt lat="34.16072" lon="76.98875">
        <ele>4295.2</ele>
        <time>2015-08-29T04:32:59Z</time>
      </trkpt>
      <trkpt lat="34.16069" lon="76.98881">
        <ele>4295.4</ele>
        <time>2015-08-29T04:33:04Z</time>
      </trkpt>
      <trkpt lat="34.16064" lon="76.98883">
        <ele>4295.4</ele>
        <time>2015-08-29T04:33:06Z</time>
      </trkpt>
      <trkpt lat="34.16045" lon="76.98885">
        <ele>4296.2</ele>
        <time>2015-08-29T04:33:17Z</time>
      </trkpt>
      <trkpt lat="34.16038" lon="76.98891">
        <ele>4296.6</ele>
        <time>2015-08-29T04:33:28Z</time>
      </trkpt>
      <trkpt lat="34.16041" lon="76.98905">
        <ele>4297.2</ele>
        <time>2015-08-29T04:33:43Z</time>
      </trkpt>
      <trkpt lat="34.16042" lon="76.98909">
        <ele>4297.2</ele>
        <time>2015-08-29T04:33:46Z</time>
      </trkpt>
      <trkpt lat="34.16032" lon="76.98918">
        <ele>4297.6</ele>
        <time>2015-08-29T04:33:59Z</time>
      </trkpt>
      <trkpt lat="34.16024" lon="76.9893">
        <ele>4298.2</ele>
        <time>2015-08-29T04:34:20Z</time>
      </trkpt>
      <trkpt lat="34.16022" lon="76.9893">
        <ele>4298.4</ele>
        <time>2015-08-29T04:34:23Z</time>
      </trkpt>
      <trkpt lat="34.16017" lon="76.98931">
        <ele>4298.8</ele>
        <time>2015-08-29T04:34:30Z</time>
      </trkpt>
      <trkpt lat="34.16015" lon="76.98935">
        <ele>4299</ele>
        <time>2015-08-29T04:34:33Z</time>
      </trkpt>
      <trkpt lat="34.16014" lon="76.98938">
        <ele>4299.4</ele>
        <time>2015-08-29T04:34:36Z</time>
      </trkpt>
      <trkpt lat="34.16014" lon="76.98939">
        <ele>4299.4</ele>
        <time>2015-08-29T04:34:37Z</time>
      </trkpt>
      <trkpt lat="34.16013" lon="76.98944">
        <ele>4299.6</ele>
        <time>2015-08-29T04:34:42Z</time>
      </trkpt>
      <trkpt lat="34.16011" lon="76.98946">
        <ele>4299.6</ele>
        <time>2015-08-29T04:34:45Z</time>
      </trkpt>
      <trkpt lat="34.16009" lon="76.98946">
        <ele>4299.8</ele>
        <time>2015-08-29T04:34:47Z</time>
      </trkpt>
      <trkpt lat="34.16007" lon="76.98948">
        <ele>4299.8</ele>
        <time>2015-08-29T04:34:51Z</time>
      </trkpt>
      <trkpt lat="34.16006" lon="76.9895">
        <ele>4300</ele>
        <time>2015-08-29T04:34:53Z</time>
      </trkpt>
      <trkpt lat="34.16005" lon="76.98952">
        <ele>4300.4</ele>
        <time>2015-08-29T04:34:56Z</time>
      </trkpt>
      <trkpt lat="34.15996" lon="76.98955">
        <ele>4301.4</ele>
        <time>2015-08-29T04:35:08Z</time>
      </trkpt>
      <trkpt lat="34.15991" lon="76.98958">
        <ele>4302</ele>
        <time>2015-08-29T04:35:15Z</time>
      </trkpt>
      <trkpt lat="34.15984" lon="76.98962">
        <ele>4302.4</ele>
        <time>2015-08-29T04:35:23Z</time>
      </trkpt>
      <trkpt lat="34.15983" lon="76.98959">
        <ele>4303.4</ele>
        <time>2015-08-29T04:35:34Z</time>
      </trkpt>
      <trkpt lat="34.15978" lon="76.98969">
        <ele>4304.4</ele>
        <time>2015-08-29T04:35:46Z</time>
      </trkpt>
      <trkpt lat="34.1597" lon="76.98974">
        <ele>4305.6</ele>
        <time>2015-08-29T04:35:57Z</time>
      </trkpt>
      <trkpt lat="34.15969" lon="76.98975">
        <ele>4305.8</ele>
        <time>2015-08-29T04:35:59Z</time>
      </trkpt>
      <trkpt lat="34.15966" lon="76.98976">
        <ele>4306.6</ele>
        <time>2015-08-29T04:36:08Z</time>
      </trkpt>
      <trkpt lat="34.15964" lon="76.98983">
        <ele>4306.4</ele>
        <time>2015-08-29T04:36:16Z</time>
      </trkpt>
      <trkpt lat="34.15961" lon="76.98992">
        <ele>4306.6</ele>
        <time>2015-08-29T04:36:30Z</time>
      </trkpt>
      <trkpt lat="34.15955" lon="76.98999">
        <ele>4307.6</ele>
        <time>2015-08-29T04:36:47Z</time>
      </trkpt>
      <trkpt lat="34.15954" lon="76.99001">
        <ele>4307.6</ele>
        <time>2015-08-29T04:36:49Z</time>
      </trkpt>
      <trkpt lat="34.15953" lon="76.99001">
        <ele>4307.8</ele>
        <time>2015-08-29T04:36:50Z</time>
      </trkpt>
      <trkpt lat="34.15943" lon="76.99008">
        <ele>4308.6</ele>
        <time>2015-08-29T04:37:04Z</time>
      </trkpt>
      <trkpt lat="34.15942" lon="76.99008">
        <ele>4308.8</ele>
        <time>2015-08-29T04:37:05Z</time>
      </trkpt>
      <trkpt lat="34.1594" lon="76.99009">
        <ele>4309</ele>
        <time>2015-08-29T04:37:08Z</time>
      </trkpt>
      <trkpt lat="34.15936" lon="76.99014">
        <ele>4309.6</ele>
        <time>2015-08-29T04:37:19Z</time>
      </trkpt>
      <trkpt lat="34.15934" lon="76.99027">
        <ele>4310.4</ele>
        <time>2015-08-29T04:37:35Z</time>
      </trkpt>
      <trkpt lat="34.15933" lon="76.99033">
        <ele>4310.8</ele>
        <time>2015-08-29T04:37:40Z</time>
      </trkpt>
      <trkpt lat="34.15928" lon="76.99034">
        <ele>4311.4</ele>
        <time>2015-08-29T04:37:46Z</time>
      </trkpt>
      <trkpt lat="34.15922" lon="76.99034">
        <ele>4311.8</ele>
        <time>2015-08-29T04:37:52Z</time>
      </trkpt>
      <trkpt lat="34.15919" lon="76.99035">
        <ele>4312</ele>
        <time>2015-08-29T04:37:55Z</time>
      </trkpt>
      <trkpt lat="34.15917" lon="76.99037">
        <ele>4312</ele>
        <time>2015-08-29T04:37:57Z</time>
      </trkpt>
      <trkpt lat="34.15911" lon="76.99048">
        <ele>4312.2</ele>
        <time>2015-08-29T04:38:06Z</time>
      </trkpt>
      <trkpt lat="34.1591" lon="76.9905">
        <ele>4312.8</ele>
        <time>2015-08-29T04:38:11Z</time>
      </trkpt>
      <trkpt lat="34.15905" lon="76.99052">
        <ele>4313.8</ele>
        <time>2015-08-29T04:38:21Z</time>
      </trkpt>
      <trkpt lat="34.15896" lon="76.99052">
        <ele>4315</ele>
        <time>2015-08-29T04:38:34Z</time>
      </trkpt>
      <trkpt lat="34.15885" lon="76.99057">
        <ele>4316</ele>
        <time>2015-08-29T04:38:48Z</time>
      </trkpt>
      <trkpt lat="34.15884" lon="76.99058">
        <ele>4316.2</ele>
        <time>2015-08-29T04:38:50Z</time>
      </trkpt>
      <trkpt lat="34.1588" lon="76.99062">
        <ele>4317</ele>
        <time>2015-08-29T04:39:00Z</time>
      </trkpt>
      <trkpt lat="34.1588" lon="76.99063">
        <ele>4317</ele>
        <time>2015-08-29T04:39:01Z</time>
      </trkpt>
      <trkpt lat="34.15879" lon="76.99065">
        <ele>4317.2</ele>
        <time>2015-08-29T04:39:03Z</time>
      </trkpt>
      <trkpt lat="34.15877" lon="76.99073">
        <ele>4318</ele>
        <time>2015-08-29T04:39:12Z</time>
      </trkpt>
      <trkpt lat="34.15876" lon="76.99079">
        <ele>4318.4</ele>
        <time>2015-08-29T04:39:16Z</time>
      </trkpt>
      <trkpt lat="34.15874" lon="76.9908">
        <ele>4318.6</ele>
        <time>2015-08-29T04:39:19Z</time>
      </trkpt>
      <trkpt lat="34.15873" lon="76.9908">
        <ele>4318.8</ele>
        <time>2015-08-29T04:39:21Z</time>
      </trkpt>
      <trkpt lat="34.15872" lon="76.99082">
        <ele>4319</ele>
        <time>2015-08-29T04:39:23Z</time>
      </trkpt>
      <trkpt lat="34.1587" lon="76.99082">
        <ele>4319.2</ele>
        <time>2015-08-29T04:39:25Z</time>
      </trkpt>
      <trkpt lat="34.15868" lon="76.99085">
        <ele>4319.2</ele>
        <time>2015-08-29T04:39:28Z</time>
      </trkpt>
      <trkpt lat="34.15871" lon="76.99095">
        <ele>4320.2</ele>
        <time>2015-08-29T04:39:38Z</time>
      </trkpt>
      <trkpt lat="34.15869" lon="76.99101">
        <ele>4321.2</ele>
        <time>2015-08-29T04:39:51Z</time>
      </trkpt>
      <trkpt lat="34.15865" lon="76.99106">
        <ele>4321.8</ele>
        <time>2015-08-29T04:39:58Z</time>
      </trkpt>
      <trkpt lat="34.15861" lon="76.99109">
        <ele>4322.2</ele>
        <time>2015-08-29T04:40:03Z</time>
      </trkpt>
      <trkpt lat="34.15852" lon="76.99117">
        <ele>4323.4</ele>
        <time>2015-08-29T04:40:14Z</time>
      </trkpt>
      <trkpt lat="34.15845" lon="76.99121">
        <ele>4324.4</ele>
        <time>2015-08-29T04:40:26Z</time>
      </trkpt>
      <trkpt lat="34.15845" lon="76.9913">
        <ele>4325</ele>
        <time>2015-08-29T04:40:33Z</time>
      </trkpt>
      <trkpt lat="34.15844" lon="76.99133">
        <ele>4325.2</ele>
        <time>2015-08-29T04:40:37Z</time>
      </trkpt>
      <trkpt lat="34.15844" lon="76.99135">
        <ele>4325.6</ele>
        <time>2015-08-29T04:40:41Z</time>
      </trkpt>
      <trkpt lat="34.15843" lon="76.99142">
        <ele>4326.6</ele>
        <time>2015-08-29T04:40:52Z</time>
      </trkpt>
      <trkpt lat="34.15844" lon="76.99151">
        <ele>4327.6</ele>
        <time>2015-08-29T04:41:04Z</time>
      </trkpt>
      <trkpt lat="34.15843" lon="76.99153">
        <ele>4327.8</ele>
        <time>2015-08-29T04:41:06Z</time>
      </trkpt>
      <trkpt lat="34.15841" lon="76.99155">
        <ele>4328</ele>
        <time>2015-08-29T04:41:09Z</time>
      </trkpt>
      <trkpt lat="34.15834" lon="76.9916">
        <ele>4328.6</ele>
        <time>2015-08-29T04:41:21Z</time>
      </trkpt>
      <trkpt lat="34.15832" lon="76.99161">
        <ele>4329</ele>
        <time>2015-08-29T04:41:24Z</time>
      </trkpt>
      <trkpt lat="34.1583" lon="76.99163">
        <ele>4329.6</ele>
        <time>2015-08-29T04:41:27Z</time>
      </trkpt>
      <trkpt lat="34.15828" lon="76.99163">
        <ele>4329.8</ele>
        <time>2015-08-29T04:41:28Z</time>
      </trkpt>
      <trkpt lat="34.15827" lon="76.99163">
        <ele>4330</ele>
        <time>2015-08-29T04:41:29Z</time>
      </trkpt>
      <trkpt lat="34.15825" lon="76.99162">
        <ele>4330.4</ele>
        <time>2015-08-29T04:41:31Z</time>
      </trkpt>
      <trkpt lat="34.15821" lon="76.99164">
        <ele>4330.8</ele>
        <time>2015-08-29T04:41:39Z</time>
      </trkpt>
      <trkpt lat="34.15819" lon="76.99168">
        <ele>4331.8</ele>
        <time>2015-08-29T04:41:47Z</time>
      </trkpt>
      <trkpt lat="34.15823" lon="76.99177">
        <ele>4333</ele>
        <time>2015-08-29T04:41:56Z</time>
      </trkpt>
      <trkpt lat="34.15815" lon="76.99177">
        <ele>4333.4</ele>
        <time>2015-08-29T04:42:00Z</time>
      </trkpt>
      <trkpt lat="34.15815" lon="76.9918">
        <ele>4333.6</ele>
        <time>2015-08-29T04:42:04Z</time>
      </trkpt>
      <trkpt lat="34.15814" lon="76.99182">
        <ele>4334</ele>
        <time>2015-08-29T04:42:08Z</time>
      </trkpt>
      <trkpt lat="34.15807" lon="76.99189">
        <ele>4335.2</ele>
        <time>2015-08-29T04:42:23Z</time>
      </trkpt>
      <trkpt lat="34.15802" lon="76.9919">
        <ele>4336.2</ele>
        <time>2015-08-29T04:42:31Z</time>
      </trkpt>
      <trkpt lat="34.15802" lon="76.99198">
        <ele>4337.2</ele>
        <time>2015-08-29T04:42:41Z</time>
      </trkpt>
      <trkpt lat="34.15801" lon="76.992">
        <ele>4337.4</ele>
        <time>2015-08-29T04:42:43Z</time>
      </trkpt>
      <trkpt lat="34.15799" lon="76.99209">
        <ele>4338.2</ele>
        <time>2015-08-29T04:42:56Z</time>
      </trkpt>
      <trkpt lat="34.15794" lon="76.99206">
        <ele>4339.4</ele>
        <time>2015-08-29T04:43:05Z</time>
      </trkpt>
      <trkpt lat="34.15787" lon="76.9921">
        <ele>4340.4</ele>
        <time>2015-08-29T04:43:16Z</time>
      </trkpt>
      <trkpt lat="34.15784" lon="76.99211">
        <ele>4341</ele>
        <time>2015-08-29T04:43:20Z</time>
      </trkpt>
      <trkpt lat="34.15782" lon="76.99211">
        <ele>4341.2</ele>
        <time>2015-08-29T04:43:22Z</time>
      </trkpt>
      <trkpt lat="34.15782" lon="76.99213">
        <ele>4341.4</ele>
        <time>2015-08-29T04:43:25Z</time>
      </trkpt>
      <trkpt lat="34.15782" lon="76.99219">
        <ele>4342.6</ele>
        <time>2015-08-29T04:43:34Z</time>
      </trkpt>
      <trkpt lat="34.15781" lon="76.9923">
        <ele>4343.6</ele>
        <time>2015-08-29T04:43:45Z</time>
      </trkpt>
      <trkpt lat="34.1578" lon="76.99231">
        <ele>4343.6</ele>
        <time>2015-08-29T04:43:46Z</time>
      </trkpt>
      <trkpt lat="34.15778" lon="76.99236">
        <ele>4344.6</ele>
        <time>2015-08-29T04:43:55Z</time>
      </trkpt>
      <trkpt lat="34.15774" lon="76.9924">
        <ele>4345.6</ele>
        <time>2015-08-29T04:44:03Z</time>
      </trkpt>
      <trkpt lat="34.15769" lon="76.99244">
        <ele>4346.4</ele>
        <time>2015-08-29T04:44:10Z</time>
      </trkpt>
      <trkpt lat="34.15768" lon="76.99245">
        <ele>4346.6</ele>
        <time>2015-08-29T04:44:12Z</time>
      </trkpt>
      <trkpt lat="34.15768" lon="76.99245">
        <ele>4346.8</ele>
        <time>2015-08-29T04:44:14Z</time>
      </trkpt>
      <trkpt lat="34.15766" lon="76.99251">
        <ele>4347.4</ele>
        <time>2015-08-29T04:44:23Z</time>
      </trkpt>
      <trkpt lat="34.15767" lon="76.99252">
        <ele>4347.6</ele>
        <time>2015-08-29T04:44:25Z</time>
      </trkpt>
      <trkpt lat="34.15766" lon="76.99253">
        <ele>4347.8</ele>
        <time>2015-08-29T04:44:27Z</time>
      </trkpt>
      <trkpt lat="34.15761" lon="76.99257">
        <ele>4348.8</ele>
        <time>2015-08-29T04:44:38Z</time>
      </trkpt>
      <trkpt lat="34.15756" lon="76.99261">
        <ele>4350</ele>
        <time>2015-08-29T04:44:50Z</time>
      </trkpt>
      <trkpt lat="34.15757" lon="76.99271">
        <ele>4351</ele>
        <time>2015-08-29T04:45:02Z</time>
      </trkpt>
      <trkpt lat="34.15756" lon="76.99277">
        <ele>4352</ele>
        <time>2015-08-29T04:45:11Z</time>
      </trkpt>
      <trkpt lat="34.15753" lon="76.9928">
        <ele>4353.2</ele>
        <time>2015-08-29T04:45:21Z</time>
      </trkpt>
      <trkpt lat="34.15752" lon="76.9929">
        <ele>4354.2</ele>
        <time>2015-08-29T04:45:32Z</time>
      </trkpt>
      <trkpt lat="34.15746" lon="76.99295">
        <ele>4355.4</ele>
        <time>2015-08-29T04:45:40Z</time>
      </trkpt>
      <trkpt lat="34.15745" lon="76.99297">
        <ele>4356</ele>
        <time>2015-08-29T04:45:47Z</time>
      </trkpt>
      <trkpt lat="34.15745" lon="76.99298">
        <ele>4356.4</ele>
        <time>2015-08-29T04:45:49Z</time>
      </trkpt>
      <trkpt lat="34.15742" lon="76.99303">
        <ele>4357.4</ele>
        <time>2015-08-29T04:46:01Z</time>
      </trkpt>
      <trkpt lat="34.15737" lon="76.99305">
        <ele>4358.4</ele>
        <time>2015-08-29T04:46:13Z</time>
      </trkpt>
      <trkpt lat="34.15732" lon="76.99312">
        <ele>4359.4</ele>
        <time>2015-08-29T04:46:23Z</time>
      </trkpt>
      <trkpt lat="34.15731" lon="76.99323">
        <ele>4360.6</ele>
        <time>2015-08-29T04:46:32Z</time>
      </trkpt>
      <trkpt lat="34.15728" lon="76.99329">
        <ele>4361.8</ele>
        <time>2015-08-29T04:46:44Z</time>
      </trkpt>
      <trkpt lat="34.15729" lon="76.99335">
        <ele>4362.8</ele>
        <time>2015-08-29T04:46:51Z</time>
      </trkpt>
      <trkpt lat="34.15732" lon="76.99339">
        <ele>4363.2</ele>
        <time>2015-08-29T04:46:57Z</time>
      </trkpt>
      <trkpt lat="34.15728" lon="76.99339">
        <ele>4363.8</ele>
        <time>2015-08-29T04:47:03Z</time>
      </trkpt>
      <trkpt lat="34.15726" lon="76.99338">
        <ele>4364</ele>
        <time>2015-08-29T04:47:05Z</time>
      </trkpt>
      <trkpt lat="34.15721" lon="76.99339">
        <ele>4364.8</ele>
        <time>2015-08-29T04:47:14Z</time>
      </trkpt>
      <trkpt lat="34.15715" lon="76.99348">
        <ele>4365.8</ele>
        <time>2015-08-29T04:47:25Z</time>
      </trkpt>
      <trkpt lat="34.15708" lon="76.99351">
        <ele>4367</ele>
        <time>2015-08-29T04:47:35Z</time>
      </trkpt>
      <trkpt lat="34.15694" lon="76.99366">
        <ele>4371.2</ele>
        <time>2015-08-29T04:48:17Z</time>
      </trkpt>
      <trkpt lat="34.15695" lon="76.99373">
        <ele>4371.6</ele>
        <time>2015-08-29T04:48:20Z</time>
      </trkpt>
      <trkpt lat="34.15697" lon="76.99381">
        <ele>4372.2</ele>
        <time>2015-08-29T04:48:26Z</time>
      </trkpt>
      <trkpt lat="34.15696" lon="76.99383">
        <ele>4372.4</ele>
        <time>2015-08-29T04:48:28Z</time>
      </trkpt>
      <trkpt lat="34.15695" lon="76.99416">
        <ele>4377.6</ele>
        <time>2015-08-29T04:49:35Z</time>
      </trkpt>
      <trkpt lat="34.15678" lon="76.99473">
        <ele>4385.8</ele>
        <time>2015-08-29T04:51:19Z</time>
      </trkpt>
      <trkpt lat="34.15668" lon="76.99468">
        <ele>4387</ele>
        <time>2015-08-29T04:52:34Z</time>
      </trkpt>
      <trkpt lat="34.15667" lon="76.9947">
        <ele>4386</ele>
        <time>2015-08-29T04:55:09Z</time>
      </trkpt>
      <trkpt lat="34.15668" lon="76.99472">
        <ele>4386</ele>
        <time>2015-08-29T04:55:12Z</time>
      </trkpt>
      <trkpt lat="34.15668" lon="76.99469">
        <ele>4385.8</ele>
        <time>2015-08-29T04:55:26Z</time>
      </trkpt>
      <trkpt lat="34.15668" lon="76.99467">
        <ele>4385.8</ele>
        <time>2015-08-29T04:55:29Z</time>
      </trkpt>
      <trkpt lat="34.15667" lon="76.99468">
        <ele>4387</ele>
        <time>2015-08-29T04:56:30Z</time>
      </trkpt>
      <trkpt lat="34.15665" lon="76.99468">
        <ele>4387.6</ele>
        <time>2015-08-29T04:56:40Z</time>
      </trkpt>
      <trkpt lat="34.15668" lon="76.99471">
        <ele>4388</ele>
        <time>2015-08-29T04:57:26Z</time>
      </trkpt>
      <trkpt lat="34.15675" lon="76.99473">
        <ele>4388</ele>
        <time>2015-08-29T04:57:36Z</time>
      </trkpt>
      <trkpt lat="34.15672" lon="76.99472">
        <ele>4388.2</ele>
        <time>2015-08-29T04:57:39Z</time>
      </trkpt>
      <trkpt lat="34.1567" lon="76.99471">
        <ele>4388</ele>
        <time>2015-08-29T04:57:41Z</time>
      </trkpt>
      <trkpt lat="34.15669" lon="76.9947">
        <ele>4388</ele>
        <time>2015-08-29T04:57:43Z</time>
      </trkpt>
      <trkpt lat="34.15668" lon="76.99468">
        <ele>4387.8</ele>
        <time>2015-08-29T04:57:46Z</time>
      </trkpt>
      <trkpt lat="34.15666" lon="76.99471">
        <ele>4388.2</ele>
        <time>2015-08-29T04:58:04Z</time>
      </trkpt>
      <trkpt lat="34.15667" lon="76.99473">
        <ele>4388</ele>
        <time>2015-08-29T04:58:06Z</time>
      </trkpt>
      <trkpt lat="34.15662" lon="76.99461">
        <ele>4387.4</ele>
        <time>2015-08-29T04:58:19Z</time>
      </trkpt>
      <trkpt lat="34.15663" lon="76.99467">
        <ele>4388</ele>
        <time>2015-08-29T04:58:25Z</time>
      </trkpt>
      <trkpt lat="34.15661" lon="76.99469">
        <ele>4389</ele>
        <time>2015-08-29T04:58:57Z</time>
      </trkpt>
      <trkpt lat="34.15665" lon="76.99476">
        <ele>4389.2</ele>
        <time>2015-08-29T04:59:05Z</time>
      </trkpt>
      <trkpt lat="34.15665" lon="76.99478">
        <ele>4389.2</ele>
        <time>2015-08-29T04:59:08Z</time>
      </trkpt>
      <trkpt lat="34.15665" lon="76.99485">
        <ele>4390</ele>
        <time>2015-08-29T04:59:20Z</time>
      </trkpt>
      <trkpt lat="34.15662" lon="76.99489">
        <ele>4391.2</ele>
        <time>2015-08-29T04:59:34Z</time>
      </trkpt>
      <trkpt lat="34.15659" lon="76.99498">
        <ele>4391.4</ele>
        <time>2015-08-29T04:59:59Z</time>
      </trkpt>
      <trkpt lat="34.15653" lon="76.99503">
        <ele>4391.4</ele>
        <time>2015-08-29T05:00:07Z</time>
      </trkpt>
      <trkpt lat="34.1565" lon="76.9951">
        <ele>4392.2</ele>
        <time>2015-08-29T05:00:22Z</time>
      </trkpt>
      <trkpt lat="34.15644" lon="76.99524">
        <ele>4393.2</ele>
        <time>2015-08-29T05:00:47Z</time>
      </trkpt>
      <trkpt lat="34.15644" lon="76.99531">
        <ele>4394.2</ele>
        <time>2015-08-29T05:00:57Z</time>
      </trkpt>
      <trkpt lat="34.15645" lon="76.99534">
        <ele>4394.4</ele>
        <time>2015-08-29T05:01:00Z</time>
      </trkpt>
      <trkpt lat="34.15643" lon="76.99539">
        <ele>4395.4</ele>
        <time>2015-08-29T05:01:09Z</time>
      </trkpt>
      <trkpt lat="34.15645" lon="76.99542">
        <ele>4395.6</ele>
        <time>2015-08-29T05:01:13Z</time>
      </trkpt>
      <trkpt lat="34.15648" lon="76.99544">
        <ele>4395.6</ele>
        <time>2015-08-29T05:01:15Z</time>
      </trkpt>
      <trkpt lat="34.15646" lon="76.99544">
        <ele>4395.6</ele>
        <time>2015-08-29T05:01:17Z</time>
      </trkpt>
      <trkpt lat="34.15644" lon="76.99543">
        <ele>4395.6</ele>
        <time>2015-08-29T05:01:19Z</time>
      </trkpt>
      <trkpt lat="34.1564" lon="76.99544">
        <ele>4395.8</ele>
        <time>2015-08-29T05:01:23Z</time>
      </trkpt>
      <trkpt lat="34.15636" lon="76.99545">
        <ele>4396.2</ele>
        <time>2015-08-29T05:01:26Z</time>
      </trkpt>
      <trkpt lat="34.15635" lon="76.99545">
        <ele>4396.4</ele>
        <time>2015-08-29T05:01:28Z</time>
      </trkpt>
      <trkpt lat="34.15634" lon="76.99545">
        <ele>4396.4</ele>
        <time>2015-08-29T05:01:29Z</time>
      </trkpt>
      <trkpt lat="34.15625" lon="76.99541">
        <ele>4397.4</ele>
        <time>2015-08-29T05:01:41Z</time>
      </trkpt>
      <trkpt lat="34.15623" lon="76.99544">
        <ele>4398.4</ele>
        <time>2015-08-29T05:02:01Z</time>
      </trkpt>
      <trkpt lat="34.15629" lon="76.99552">
        <ele>4398.6</ele>
        <time>2015-08-29T05:02:06Z</time>
      </trkpt>
      <trkpt lat="34.15626" lon="76.99558">
        <ele>4398.8</ele>
        <time>2015-08-29T05:02:13Z</time>
      </trkpt>
      <trkpt lat="34.15622" lon="76.99559">
        <ele>4399.4</ele>
        <time>2015-08-29T05:02:19Z</time>
      </trkpt>
      <trkpt lat="34.15621" lon="76.99559">
        <ele>4399.6</ele>
        <time>2015-08-29T05:02:20Z</time>
      </trkpt>
      <trkpt lat="34.15615" lon="76.9956">
        <ele>4399.8</ele>
        <time>2015-08-29T05:02:23Z</time>
      </trkpt>
      <trkpt lat="34.1561" lon="76.99558">
        <ele>4400.6</ele>
        <time>2015-08-29T05:02:31Z</time>
      </trkpt>
      <trkpt lat="34.15607" lon="76.9956">
        <ele>4401.6</ele>
        <time>2015-08-29T05:02:40Z</time>
      </trkpt>
      <trkpt lat="34.15602" lon="76.99563">
        <ele>4402.6</ele>
        <time>2015-08-29T05:02:53Z</time>
      </trkpt>
      <trkpt lat="34.15611" lon="76.99573">
        <ele>4403.2</ele>
        <time>2015-08-29T05:03:01Z</time>
      </trkpt>
      <trkpt lat="34.15615" lon="76.9958">
        <ele>4403.8</ele>
        <time>2015-08-29T05:03:06Z</time>
      </trkpt>
      <trkpt lat="34.15605" lon="76.99582">
        <ele>4404.8</ele>
        <time>2015-08-29T05:03:20Z</time>
      </trkpt>
      <trkpt lat="34.15597" lon="76.99584">
        <ele>4405.4</ele>
        <time>2015-08-29T05:03:28Z</time>
      </trkpt>
      <trkpt lat="34.15593" lon="76.99586">
        <ele>4405.8</ele>
        <time>2015-08-29T05:03:34Z</time>
      </trkpt>
      <trkpt lat="34.15597" lon="76.99591">
        <ele>4406.2</ele>
        <time>2015-08-29T05:03:39Z</time>
      </trkpt>
      <trkpt lat="34.15593" lon="76.99597">
        <ele>4406.8</ele>
        <time>2015-08-29T05:03:49Z</time>
      </trkpt>
      <trkpt lat="34.15579" lon="76.99599">
        <ele>4407.8</ele>
        <time>2015-08-29T05:04:05Z</time>
      </trkpt>
      <trkpt lat="34.15569" lon="76.99593">
        <ele>4408.2</ele>
        <time>2015-08-29T05:04:11Z</time>
      </trkpt>
      <trkpt lat="34.15568" lon="76.99593">
        <ele>4408.4</ele>
        <time>2015-08-29T05:04:13Z</time>
      </trkpt>
      <trkpt lat="34.15568" lon="76.99595">
        <ele>4408.6</ele>
        <time>2015-08-29T05:04:15Z</time>
      </trkpt>
      <trkpt lat="34.1557" lon="76.99597">
        <ele>4409</ele>
        <time>2015-08-29T05:04:18Z</time>
      </trkpt>
      <trkpt lat="34.1557" lon="76.99604">
        <ele>4410</ele>
        <time>2015-08-29T05:04:31Z</time>
      </trkpt>
      <trkpt lat="34.15566" lon="76.99608">
        <ele>4411.2</ele>
        <time>2015-08-29T05:04:43Z</time>
      </trkpt>
      <trkpt lat="34.15562" lon="76.99617">
        <ele>4412.2</ele>
        <time>2015-08-29T05:04:55Z</time>
      </trkpt>
      <trkpt lat="34.15559" lon="76.99622">
        <ele>4413.2</ele>
        <time>2015-08-29T05:05:06Z</time>
      </trkpt>
      <trkpt lat="34.15557" lon="76.99623">
        <ele>4413.6</ele>
        <time>2015-08-29T05:05:09Z</time>
      </trkpt>
      <trkpt lat="34.15556" lon="76.99625">
        <ele>4414</ele>
        <time>2015-08-29T05:05:14Z</time>
      </trkpt>
      <trkpt lat="34.15557" lon="76.99626">
        <ele>4414.4</ele>
        <time>2015-08-29T05:05:18Z</time>
      </trkpt>
      <trkpt lat="34.15555" lon="76.9963">
        <ele>4415.4</ele>
        <time>2015-08-29T05:05:29Z</time>
      </trkpt>
      <trkpt lat="34.15547" lon="76.99634">
        <ele>4416.4</ele>
        <time>2015-08-29T05:05:46Z</time>
      </trkpt>
      <trkpt lat="34.15546" lon="76.9964">
        <ele>4417.4</ele>
        <time>2015-08-29T05:06:01Z</time>
      </trkpt>
      <trkpt lat="34.15542" lon="76.99648">
        <ele>4418.6</ele>
        <time>2015-08-29T05:06:14Z</time>
      </trkpt>
      <trkpt lat="34.15538" lon="76.99651">
        <ele>4419.6</ele>
        <time>2015-08-29T05:06:26Z</time>
      </trkpt>
      <trkpt lat="34.15541" lon="76.99663">
        <ele>4420.6</ele>
        <time>2015-08-29T05:06:40Z</time>
      </trkpt>
      <trkpt lat="34.15537" lon="76.99665">
        <ele>4421.2</ele>
        <time>2015-08-29T05:06:48Z</time>
      </trkpt>
      <trkpt lat="34.15536" lon="76.99673">
        <ele>4421.6</ele>
        <time>2015-08-29T05:07:00Z</time>
      </trkpt>
      <trkpt lat="34.15531" lon="76.99681">
        <ele>4422.6</ele>
        <time>2015-08-29T05:07:14Z</time>
      </trkpt>
      <trkpt lat="34.15528" lon="76.99689">
        <ele>4423.4</ele>
        <time>2015-08-29T05:07:29Z</time>
      </trkpt>
      <trkpt lat="34.15526" lon="76.99692">
        <ele>4423.6</ele>
        <time>2015-08-29T05:07:37Z</time>
      </trkpt>
      <trkpt lat="34.15525" lon="76.99696">
        <ele>4424.6</ele>
        <time>2015-08-29T05:07:52Z</time>
      </trkpt>
      <trkpt lat="34.15521" lon="76.99704">
        <ele>4425.4</ele>
        <time>2015-08-29T05:08:05Z</time>
      </trkpt>
      <trkpt lat="34.15518" lon="76.99706">
        <ele>4425.8</ele>
        <time>2015-08-29T05:08:13Z</time>
      </trkpt>
      <trkpt lat="34.15521" lon="76.99714">
        <ele>4426.8</ele>
        <time>2015-08-29T05:08:22Z</time>
      </trkpt>
      <trkpt lat="34.15517" lon="76.99721">
        <ele>4428</ele>
        <time>2015-08-29T05:08:39Z</time>
      </trkpt>
      <trkpt lat="34.15519" lon="76.99728">
        <ele>4429</ele>
        <time>2015-08-29T05:08:50Z</time>
      </trkpt>
      <trkpt lat="34.1551" lon="76.99732">
        <ele>4430</ele>
        <time>2015-08-29T05:09:04Z</time>
      </trkpt>
      <trkpt lat="34.15506" lon="76.99738">
        <ele>4431</ele>
        <time>2015-08-29T05:09:16Z</time>
      </trkpt>
      <trkpt lat="34.15507" lon="76.99743">
        <ele>4432</ele>
        <time>2015-08-29T05:09:27Z</time>
      </trkpt>
      <trkpt lat="34.15506" lon="76.99752">
        <ele>4433</ele>
        <time>2015-08-29T05:09:40Z</time>
      </trkpt>
      <trkpt lat="34.15504" lon="76.99759">
        <ele>4434.2</ele>
        <time>2015-08-29T05:09:51Z</time>
      </trkpt>
      <trkpt lat="34.155" lon="76.99761">
        <ele>4435.2</ele>
        <time>2015-08-29T05:09:59Z</time>
      </trkpt>
      <trkpt lat="34.15495" lon="76.99761">
        <ele>4436.4</ele>
        <time>2015-08-29T05:10:15Z</time>
      </trkpt>
      <trkpt lat="34.15491" lon="76.99763">
        <ele>4436.6</ele>
        <time>2015-08-29T05:10:19Z</time>
      </trkpt>
      <trkpt lat="34.15487" lon="76.99768">
        <ele>4437.4</ele>
        <time>2015-08-29T05:10:27Z</time>
      </trkpt>
      <trkpt lat="34.1548" lon="76.99775">
        <ele>4438.4</ele>
        <time>2015-08-29T05:10:42Z</time>
      </trkpt>
      <trkpt lat="34.15479" lon="76.99777">
        <ele>4439.4</ele>
        <time>2015-08-29T05:10:51Z</time>
      </trkpt>
      <trkpt lat="34.15486" lon="76.99786">
        <ele>4440.6</ele>
        <time>2015-08-29T05:11:07Z</time>
      </trkpt>
      <trkpt lat="34.15486" lon="76.99792">
        <ele>4441.6</ele>
        <time>2015-08-29T05:11:18Z</time>
      </trkpt>
      <trkpt lat="34.15479" lon="76.99797">
        <ele>4442</ele>
        <time>2015-08-29T05:11:28Z</time>
      </trkpt>
      <trkpt lat="34.15478" lon="76.99803">
        <ele>4442.4</ele>
        <time>2015-08-29T05:11:37Z</time>
      </trkpt>
      <trkpt lat="34.15477" lon="76.99803">
        <ele>4442.6</ele>
        <time>2015-08-29T05:11:41Z</time>
      </trkpt>
      <trkpt lat="34.1547" lon="76.99806">
        <ele>4443.8</ele>
        <time>2015-08-29T05:11:53Z</time>
      </trkpt>
      <trkpt lat="34.15469" lon="76.99805">
        <ele>4444.2</ele>
        <time>2015-08-29T05:11:58Z</time>
      </trkpt>
      <trkpt lat="34.15466" lon="76.99807">
        <ele>4444.6</ele>
        <time>2015-08-29T05:12:03Z</time>
      </trkpt>
      <trkpt lat="34.15464" lon="76.99808">
        <ele>4444.8</ele>
        <time>2015-08-29T05:12:05Z</time>
      </trkpt>
      <trkpt lat="34.15464" lon="76.99808">
        <ele>4444.8</ele>
        <time>2015-08-29T05:12:06Z</time>
      </trkpt>
      <trkpt lat="34.1546" lon="76.99812">
        <ele>4445.8</ele>
        <time>2015-08-29T05:12:17Z</time>
      </trkpt>
      <trkpt lat="34.15455" lon="76.99825">
        <ele>4447</ele>
        <time>2015-08-29T05:12:32Z</time>
      </trkpt>
      <trkpt lat="34.15453" lon="76.99828">
        <ele>4448</ele>
        <time>2015-08-29T05:12:45Z</time>
      </trkpt>
      <trkpt lat="34.1545" lon="76.99834">
        <ele>4449</ele>
        <time>2015-08-29T05:12:59Z</time>
      </trkpt>
      <trkpt lat="34.15451" lon="76.99842">
        <ele>4450.2</ele>
        <time>2015-08-29T05:13:08Z</time>
      </trkpt>
      <trkpt lat="34.15447" lon="76.99844">
        <ele>4451.2</ele>
        <time>2015-08-29T05:13:18Z</time>
      </trkpt>
      <trkpt lat="34.15444" lon="76.99844">
        <ele>4452.4</ele>
        <time>2015-08-29T05:13:30Z</time>
      </trkpt>
      <trkpt lat="34.15442" lon="76.99854">
        <ele>4453.4</ele>
        <time>2015-08-29T05:13:44Z</time>
      </trkpt>
      <trkpt lat="34.15441" lon="76.99855">
        <ele>4454.4</ele>
        <time>2015-08-29T05:13:54Z</time>
      </trkpt>
      <trkpt lat="34.15434" lon="76.99856">
        <ele>4455.4</ele>
        <time>2015-08-29T05:14:07Z</time>
      </trkpt>
      <trkpt lat="34.15423" lon="76.99862">
        <ele>4456.6</ele>
        <time>2015-08-29T05:14:23Z</time>
      </trkpt>
      <trkpt lat="34.15418" lon="76.99868">
        <ele>4457.6</ele>
        <time>2015-08-29T05:14:36Z</time>
      </trkpt>
      <trkpt lat="34.15416" lon="76.99876">
        <ele>4458.6</ele>
        <time>2015-08-29T05:14:52Z</time>
      </trkpt>
      <trkpt lat="34.15419" lon="76.99883">
        <ele>4459.6</ele>
        <time>2015-08-29T05:15:04Z</time>
      </trkpt>
      <trkpt lat="34.1542" lon="76.99884">
        <ele>4459.6</ele>
        <time>2015-08-29T05:15:06Z</time>
      </trkpt>
      <trkpt lat="34.15417" lon="76.99887">
        <ele>4460.8</ele>
        <time>2015-08-29T05:15:20Z</time>
      </trkpt>
      <trkpt lat="34.15416" lon="76.99886">
        <ele>4461.8</ele>
        <time>2015-08-29T05:15:33Z</time>
      </trkpt>
      <trkpt lat="34.15416" lon="76.99895">
        <ele>4462.8</ele>
        <time>2015-08-29T05:15:47Z</time>
      </trkpt>
      <trkpt lat="34.15409" lon="76.99902">
        <ele>4464</ele>
        <time>2015-08-29T05:16:03Z</time>
      </trkpt>
      <trkpt lat="34.15402" lon="76.99905">
        <ele>4465</ele>
        <time>2015-08-29T05:16:18Z</time>
      </trkpt>
      <trkpt lat="34.15402" lon="76.99908">
        <ele>4466</ele>
        <time>2015-08-29T05:16:25Z</time>
      </trkpt>
      <trkpt lat="34.15399" lon="76.9991">
        <ele>4467.2</ele>
        <time>2015-08-29T05:16:38Z</time>
      </trkpt>
      <trkpt lat="34.15406" lon="76.99918">
        <ele>4467.8</ele>
        <time>2015-08-29T05:16:45Z</time>
      </trkpt>
      <trkpt lat="34.15403" lon="76.99921">
        <ele>4468</ele>
        <time>2015-08-29T05:16:51Z</time>
      </trkpt>
      <trkpt lat="34.15402" lon="76.9992">
        <ele>4468.2</ele>
        <time>2015-08-29T05:16:52Z</time>
      </trkpt>
      <trkpt lat="34.15401" lon="76.99919">
        <ele>4468.4</ele>
        <time>2015-08-29T05:16:54Z</time>
      </trkpt>
      <trkpt lat="34.15391" lon="76.99923">
        <ele>4468.8</ele>
        <time>2015-08-29T05:17:20Z</time>
      </trkpt>
      <trkpt lat="34.15396" lon="76.99917">
        <ele>4468.6</ele>
        <time>2015-08-29T05:17:55Z</time>
      </trkpt>
      <trkpt lat="34.15391" lon="76.9992">
        <ele>4468.2</ele>
        <time>2015-08-29T05:17:57Z</time>
      </trkpt>
      <trkpt lat="34.15392" lon="76.99917">
        <ele>4468.4</ele>
        <time>2015-08-29T05:18:03Z</time>
      </trkpt>
      <trkpt lat="34.15392" lon="76.99923">
        <ele>4468.8</ele>
        <time>2015-08-29T05:18:43Z</time>
      </trkpt>
      <trkpt lat="34.15392" lon="76.99925">
        <ele>4469</ele>
        <time>2015-08-29T05:18:54Z</time>
      </trkpt>
      <trkpt lat="34.15391" lon="76.99916">
        <ele>4468</ele>
        <time>2015-08-29T05:19:46Z</time>
      </trkpt>
      <trkpt lat="34.1539" lon="76.99913">
        <ele>4468.2</ele>
        <time>2015-08-29T05:19:54Z</time>
      </trkpt>
      <trkpt lat="34.15394" lon="76.9993">
        <ele>4468.4</ele>
        <time>2015-08-29T05:20:29Z</time>
      </trkpt>
      <trkpt lat="34.15392" lon="76.99937">
        <ele>4468.2</ele>
        <time>2015-08-29T05:21:01Z</time>
      </trkpt>
      <trkpt lat="34.15397" lon="76.9993">
        <ele>4467.2</ele>
        <time>2015-08-29T05:21:38Z</time>
      </trkpt>
      <trkpt lat="34.15395" lon="76.99927">
        <ele>4467.2</ele>
        <time>2015-08-29T05:21:41Z</time>
      </trkpt>
      <trkpt lat="34.15395" lon="76.99905">
        <ele>4467.2</ele>
        <time>2015-08-29T05:21:59Z</time>
      </trkpt>
      <trkpt lat="34.15393" lon="76.99903">
        <ele>4467.6</ele>
        <time>2015-08-29T05:22:12Z</time>
      </trkpt>
      <trkpt lat="34.15397" lon="76.99913">
        <ele>4468.2</ele>
        <time>2015-08-29T05:22:24Z</time>
      </trkpt>
      <trkpt lat="34.15397" lon="76.99915">
        <ele>4468.2</ele>
        <time>2015-08-29T05:22:25Z</time>
      </trkpt>
      <trkpt lat="34.15397" lon="76.99917">
        <ele>4468.2</ele>
        <time>2015-08-29T05:22:26Z</time>
      </trkpt>
      <trkpt lat="34.15397" lon="76.99918">
        <ele>4468.4</ele>
        <time>2015-08-29T05:22:28Z</time>
      </trkpt>
      <trkpt lat="34.15398" lon="76.99919">
        <ele>4469.2</ele>
        <time>2015-08-29T05:22:34Z</time>
      </trkpt>
      <trkpt lat="34.1539" lon="76.99919">
        <ele>4469.2</ele>
        <time>2015-08-29T05:22:44Z</time>
      </trkpt>
      <trkpt lat="34.15392" lon="76.9992">
        <ele>4469.6</ele>
        <time>2015-08-29T05:23:13Z</time>
      </trkpt>
      <trkpt lat="34.15394" lon="76.99922">
        <ele>4469.6</ele>
        <time>2015-08-29T05:23:31Z</time>
      </trkpt>
      <trkpt lat="34.15395" lon="76.99927">
        <ele>4470</ele>
        <time>2015-08-29T05:23:45Z</time>
      </trkpt>
      <trkpt lat="34.15395" lon="76.99926">
        <ele>4469.8</ele>
        <time>2015-08-29T05:23:47Z</time>
      </trkpt>
      <trkpt lat="34.15397" lon="76.99925">
        <ele>4470.2</ele>
        <time>2015-08-29T05:23:54Z</time>
      </trkpt>
      <trkpt lat="34.15398" lon="76.99921">
        <ele>4470.2</ele>
        <time>2015-08-29T05:23:57Z</time>
      </trkpt>
      <trkpt lat="34.15398" lon="76.99919">
        <ele>4470.2</ele>
        <time>2015-08-29T05:23:59Z</time>
      </trkpt>
      <trkpt lat="34.15393" lon="76.99921">
        <ele>4469.2</ele>
        <time>2015-08-29T05:24:21Z</time>
      </trkpt>
      <trkpt lat="34.1539" lon="76.99922">
        <ele>4470.2</ele>
        <time>2015-08-29T05:24:38Z</time>
      </trkpt>
      <trkpt lat="34.15391" lon="76.99921">
        <ele>4469.2</ele>
        <time>2015-08-29T05:24:58Z</time>
      </trkpt>
      <trkpt lat="34.15395" lon="76.99921">
        <ele>4468.6</ele>
        <time>2015-08-29T05:25:51Z</time>
      </trkpt>
      <trkpt lat="34.15395" lon="76.99915">
        <ele>4468.2</ele>
        <time>2015-08-29T05:26:04Z</time>
      </trkpt>
      <trkpt lat="34.15394" lon="76.99934">
        <ele>4468.6</ele>
        <time>2015-08-29T05:26:38Z</time>
      </trkpt>
      <trkpt lat="34.15395" lon="76.9993">
        <ele>4468.2</ele>
        <time>2015-08-29T05:27:27Z</time>
      </trkpt>
      <trkpt lat="34.15397" lon="76.9992">
        <ele>4468.6</ele>
        <time>2015-08-29T05:27:34Z</time>
      </trkpt>
      <trkpt lat="34.15403" lon="76.99919">
        <ele>4469</ele>
        <time>2015-08-29T05:27:38Z</time>
      </trkpt>
      <trkpt lat="34.15403" lon="76.99918">
        <ele>4468.6</ele>
        <time>2015-08-29T05:27:41Z</time>
      </trkpt>
      <trkpt lat="34.15395" lon="76.99921">
        <ele>4469.2</ele>
        <time>2015-08-29T05:27:51Z</time>
      </trkpt>
      <trkpt lat="34.15396" lon="76.99919">
        <ele>4469.2</ele>
        <time>2015-08-29T05:27:52Z</time>
      </trkpt>
      <trkpt lat="34.15392" lon="76.99922">
        <ele>4470.2</ele>
        <time>2015-08-29T05:27:59Z</time>
      </trkpt>
      <trkpt lat="34.15389" lon="76.99924">
        <ele>4471.2</ele>
        <time>2015-08-29T05:28:08Z</time>
      </trkpt>
      <trkpt lat="34.15381" lon="76.99937">
        <ele>4472.4</ele>
        <time>2015-08-29T05:28:40Z</time>
      </trkpt>
      <trkpt lat="34.15377" lon="76.99939">
        <ele>4473.4</ele>
        <time>2015-08-29T05:28:45Z</time>
      </trkpt>
      <trkpt lat="34.1537" lon="76.99946">
        <ele>4474.4</ele>
        <time>2015-08-29T05:29:03Z</time>
      </trkpt>
      <trkpt lat="34.15368" lon="76.99952">
        <ele>4475</ele>
        <time>2015-08-29T05:29:14Z</time>
      </trkpt>
      <trkpt lat="34.15367" lon="76.99953">
        <ele>4475.6</ele>
        <time>2015-08-29T05:29:25Z</time>
      </trkpt>
      <trkpt lat="34.15365" lon="76.99952">
        <ele>4476.6</ele>
        <time>2015-08-29T05:29:32Z</time>
      </trkpt>
      <trkpt lat="34.15363" lon="76.99952">
        <ele>4477.6</ele>
        <time>2015-08-29T05:29:40Z</time>
      </trkpt>
      <trkpt lat="34.15357" lon="76.99953">
        <ele>4478.6</ele>
        <time>2015-08-29T05:29:49Z</time>
      </trkpt>
      <trkpt lat="34.15356" lon="76.99954">
        <ele>4478.6</ele>
        <time>2015-08-29T05:29:52Z</time>
      </trkpt>
      <trkpt lat="34.15356" lon="76.99954">
        <ele>4479.6</ele>
        <time>2015-08-29T05:30:03Z</time>
      </trkpt>
      <trkpt lat="34.1535" lon="76.99959">
        <ele>4480.8</ele>
        <time>2015-08-29T05:30:18Z</time>
      </trkpt>
      <trkpt lat="34.15348" lon="76.99965">
        <ele>4482</ele>
        <time>2015-08-29T05:30:26Z</time>
      </trkpt>
      <trkpt lat="34.15345" lon="76.99971">
        <ele>4483</ele>
        <time>2015-08-29T05:30:40Z</time>
      </trkpt>
      <trkpt lat="34.15343" lon="76.99977">
        <ele>4484</ele>
        <time>2015-08-29T05:30:50Z</time>
      </trkpt>
      <trkpt lat="34.1534" lon="76.99983">
        <ele>4485.2</ele>
        <time>2015-08-29T05:31:01Z</time>
      </trkpt>
      <trkpt lat="34.15339" lon="76.99986">
        <ele>4486.2</ele>
        <time>2015-08-29T05:31:10Z</time>
      </trkpt>
      <trkpt lat="34.15334" lon="76.99991">
        <ele>4487.4</ele>
        <time>2015-08-29T05:31:21Z</time>
      </trkpt>
      <trkpt lat="34.15333" lon="76.99994">
        <ele>4487.8</ele>
        <time>2015-08-29T05:31:25Z</time>
      </trkpt>
      <trkpt lat="34.15329" lon="76.99997">
        <ele>4488.4</ele>
        <time>2015-08-29T05:31:31Z</time>
      </trkpt>
      <trkpt lat="34.15331" lon="77">
        <ele>4489.4</ele>
        <time>2015-08-29T05:31:42Z</time>
      </trkpt>
      <trkpt lat="34.15329" lon="77">
        <ele>4490.4</ele>
        <time>2015-08-29T05:31:51Z</time>
      </trkpt>
      <trkpt lat="34.15331" lon="77.00006">
        <ele>4491.2</ele>
        <time>2015-08-29T05:31:57Z</time>
      </trkpt>
      <trkpt lat="34.15328" lon="77.00008">
        <ele>4491.6</ele>
        <time>2015-08-29T05:32:01Z</time>
      </trkpt>
      <trkpt lat="34.1532" lon="77.00012">
        <ele>4492.6</ele>
        <time>2015-08-29T05:32:11Z</time>
      </trkpt>
      <trkpt lat="34.15318" lon="77.00012">
        <ele>4493</ele>
        <time>2015-08-29T05:32:13Z</time>
      </trkpt>
      <trkpt lat="34.15315" lon="77.00013">
        <ele>4493.6</ele>
        <time>2015-08-29T05:32:19Z</time>
      </trkpt>
      <trkpt lat="34.15311" lon="77.00012">
        <ele>4494.8</ele>
        <time>2015-08-29T05:32:30Z</time>
      </trkpt>
      <trkpt lat="34.15305" lon="77.00016">
        <ele>4495.8</ele>
        <time>2015-08-29T05:32:43Z</time>
      </trkpt>
      <trkpt lat="34.153" lon="77.00022">
        <ele>4496.8</ele>
        <time>2015-08-29T05:32:55Z</time>
      </trkpt>
      <trkpt lat="34.15297" lon="77.0002">
        <ele>4497.8</ele>
        <time>2015-08-29T05:33:04Z</time>
      </trkpt>
      <trkpt lat="34.15293" lon="77.00021">
        <ele>4499</ele>
        <time>2015-08-29T05:33:14Z</time>
      </trkpt>
      <trkpt lat="34.15289" lon="77.00022">
        <ele>4500</ele>
        <time>2015-08-29T05:33:23Z</time>
      </trkpt>
      <trkpt lat="34.15285" lon="77.00023">
        <ele>4501.2</ele>
        <time>2015-08-29T05:33:34Z</time>
      </trkpt>
      <trkpt lat="34.15279" lon="77.00022">
        <ele>4502.2</ele>
        <time>2015-08-29T05:33:42Z</time>
      </trkpt>
      <trkpt lat="34.15277" lon="77.00024">
        <ele>4502.8</ele>
        <time>2015-08-29T05:33:46Z</time>
      </trkpt>
      <trkpt lat="34.15274" lon="77.00028">
        <ele>4503.4</ele>
        <time>2015-08-29T05:33:58Z</time>
      </trkpt>
      <trkpt lat="34.15273" lon="77.00028">
        <ele>4504.4</ele>
        <time>2015-08-29T05:34:08Z</time>
      </trkpt>
      <trkpt lat="34.15271" lon="77.00029">
        <ele>4505.4</ele>
        <time>2015-08-29T05:34:15Z</time>
      </trkpt>
      <trkpt lat="34.15265" lon="77.00039">
        <ele>4506.6</ele>
        <time>2015-08-29T05:34:28Z</time>
      </trkpt>
      <trkpt lat="34.1526" lon="77.00043">
        <ele>4507.8</ele>
        <time>2015-08-29T05:34:34Z</time>
      </trkpt>
      <trkpt lat="34.15257" lon="77.00048">
        <ele>4508.2</ele>
        <time>2015-08-29T05:34:41Z</time>
      </trkpt>
      <trkpt lat="34.15257" lon="77.00048">
        <ele>4508.8</ele>
        <time>2015-08-29T05:34:46Z</time>
      </trkpt>
      <trkpt lat="34.15254" lon="77.0005">
        <ele>4509.8</ele>
        <time>2015-08-29T05:34:57Z</time>
      </trkpt>
      <trkpt lat="34.1525" lon="77.0005">
        <ele>4511</ele>
        <time>2015-08-29T05:35:05Z</time>
      </trkpt>
      <trkpt lat="34.15247" lon="77.00051">
        <ele>4512</ele>
        <time>2015-08-29T05:35:12Z</time>
      </trkpt>
      <trkpt lat="34.1524" lon="77.00056">
        <ele>4513.2</ele>
        <time>2015-08-29T05:35:31Z</time>
      </trkpt>
      <trkpt lat="34.15238" lon="77.00059">
        <ele>4514.2</ele>
        <time>2015-08-29T05:35:38Z</time>
      </trkpt>
      <trkpt lat="34.15236" lon="77.00067">
        <ele>4515.2</ele>
        <time>2015-08-29T05:35:47Z</time>
      </trkpt>
      <trkpt lat="34.15227" lon="77.00064">
        <ele>4516.2</ele>
        <time>2015-08-29T05:35:59Z</time>
      </trkpt>
      <trkpt lat="34.15223" lon="77.00065">
        <ele>4517.4</ele>
        <time>2015-08-29T05:36:09Z</time>
      </trkpt>
      <trkpt lat="34.1522" lon="77.00067">
        <ele>4518.4</ele>
        <time>2015-08-29T05:36:17Z</time>
      </trkpt>
      <trkpt lat="34.15218" lon="77.00065">
        <ele>4519.4</ele>
        <time>2015-08-29T05:36:26Z</time>
      </trkpt>
      <trkpt lat="34.15213" lon="77.00072">
        <ele>4520.4</ele>
        <time>2015-08-29T05:36:38Z</time>
      </trkpt>
      <trkpt lat="34.15208" lon="77.00073">
        <ele>4521.4</ele>
        <time>2015-08-29T05:36:50Z</time>
      </trkpt>
      <trkpt lat="34.15207" lon="77.00074">
        <ele>4522.6</ele>
        <time>2015-08-29T05:37:03Z</time>
      </trkpt>
      <trkpt lat="34.15205" lon="77.00072">
        <ele>4523.6</ele>
        <time>2015-08-29T05:37:13Z</time>
      </trkpt>
      <trkpt lat="34.15204" lon="77.00075">
        <ele>4524.6</ele>
        <time>2015-08-29T05:37:18Z</time>
      </trkpt>
      <trkpt lat="34.15202" lon="77.00079">
        <ele>4525.4</ele>
        <time>2015-08-29T05:37:26Z</time>
      </trkpt>
      <trkpt lat="34.15203" lon="77.00081">
        <ele>4525.6</ele>
        <time>2015-08-29T05:37:30Z</time>
      </trkpt>
      <trkpt lat="34.152" lon="77.00089">
        <ele>4526.8</ele>
        <time>2015-08-29T05:37:44Z</time>
      </trkpt>
      <trkpt lat="34.15197" lon="77.00093">
        <ele>4527.8</ele>
        <time>2015-08-29T05:37:53Z</time>
      </trkpt>
      <trkpt lat="34.15199" lon="77.00102">
        <ele>4529</ele>
        <time>2015-08-29T05:38:17Z</time>
      </trkpt>
      <trkpt lat="34.15199" lon="77.00103">
        <ele>4529.6</ele>
        <time>2015-08-29T05:38:23Z</time>
      </trkpt>
      <trkpt lat="34.152" lon="77.00104">
        <ele>4530</ele>
        <time>2015-08-29T05:38:27Z</time>
      </trkpt>
      <trkpt lat="34.15199" lon="77.00108">
        <ele>4531.2</ele>
        <time>2015-08-29T05:38:39Z</time>
      </trkpt>
      <trkpt lat="34.15199" lon="77.00109">
        <ele>4532.2</ele>
        <time>2015-08-29T05:38:51Z</time>
      </trkpt>
      <trkpt lat="34.152" lon="77.00113">
        <ele>4533.2</ele>
        <time>2015-08-29T05:38:58Z</time>
      </trkpt>
      <trkpt lat="34.152" lon="77.00111">
        <ele>4534.4</ele>
        <time>2015-08-29T05:39:16Z</time>
      </trkpt>
      <trkpt lat="34.15198" lon="77.00115">
        <ele>4535.4</ele>
        <time>2015-08-29T05:39:24Z</time>
      </trkpt>
      <trkpt lat="34.15198" lon="77.00121">
        <ele>4535.6</ele>
        <time>2015-08-29T05:39:28Z</time>
      </trkpt>
      <trkpt lat="34.15199" lon="77.00124">
        <ele>4536.6</ele>
        <time>2015-08-29T05:39:35Z</time>
      </trkpt>
      <trkpt lat="34.152" lon="77.00125">
        <ele>4537.6</ele>
        <time>2015-08-29T05:39:45Z</time>
      </trkpt>
      <trkpt lat="34.15199" lon="77.00125">
        <ele>4537.8</ele>
        <time>2015-08-29T05:39:46Z</time>
      </trkpt>
      <trkpt lat="34.15202" lon="77.00125">
        <ele>4538.8</ele>
        <time>2015-08-29T05:39:54Z</time>
      </trkpt>
      <trkpt lat="34.15206" lon="77.00127">
        <ele>4539.8</ele>
        <time>2015-08-29T05:40:01Z</time>
      </trkpt>
      <trkpt lat="34.15208" lon="77.00127">
        <ele>4540.4</ele>
        <time>2015-08-29T05:40:06Z</time>
      </trkpt>
      <trkpt lat="34.15209" lon="77.00128">
        <ele>4540.8</ele>
        <time>2015-08-29T05:40:10Z</time>
      </trkpt>
      <trkpt lat="34.15213" lon="77.00126">
        <ele>4541.8</ele>
        <time>2015-08-29T05:40:19Z</time>
      </trkpt>
      <trkpt lat="34.15228" lon="77.00124">
        <ele>4543</ele>
        <time>2015-08-29T05:40:52Z</time>
      </trkpt>
      <trkpt lat="34.15228" lon="77.00126">
        <ele>4543.8</ele>
        <time>2015-08-29T05:40:58Z</time>
      </trkpt>
      <trkpt lat="34.15229" lon="77.00127">
        <ele>4544.2</ele>
        <time>2015-08-29T05:41:00Z</time>
      </trkpt>
      <trkpt lat="34.15229" lon="77.00132">
        <ele>4545.2</ele>
        <time>2015-08-29T05:41:08Z</time>
      </trkpt>
      <trkpt lat="34.15228" lon="77.00137">
        <ele>4546.2</ele>
        <time>2015-08-29T05:41:29Z</time>
      </trkpt>
      <trkpt lat="34.15227" lon="77.00141">
        <ele>4547.4</ele>
        <time>2015-08-29T05:41:35Z</time>
      </trkpt>
      <trkpt lat="34.15226" lon="77.00143">
        <ele>4548.4</ele>
        <time>2015-08-29T05:41:40Z</time>
      </trkpt>
      <trkpt lat="34.15224" lon="77.00146">
        <ele>4548.6</ele>
        <time>2015-08-29T05:41:46Z</time>
      </trkpt>
      <trkpt lat="34.15224" lon="77.00148">
        <ele>4549.4</ele>
        <time>2015-08-29T05:41:52Z</time>
      </trkpt>
      <trkpt lat="34.15226" lon="77.00154">
        <ele>4550.4</ele>
        <time>2015-08-29T05:42:03Z</time>
      </trkpt>
      <trkpt lat="34.15226" lon="77.00158">
        <ele>4551.4</ele>
        <time>2015-08-29T05:42:12Z</time>
      </trkpt>
      <trkpt lat="34.15224" lon="77.00162">
        <ele>4552.6</ele>
        <time>2015-08-29T05:42:21Z</time>
      </trkpt>
      <trkpt lat="34.15223" lon="77.00163">
        <ele>4553.6</ele>
        <time>2015-08-29T05:42:29Z</time>
      </trkpt>
      <trkpt lat="34.15222" lon="77.00168">
        <ele>4554.6</ele>
        <time>2015-08-29T05:42:40Z</time>
      </trkpt>
      <trkpt lat="34.1522" lon="77.00169">
        <ele>4555.8</ele>
        <time>2015-08-29T05:42:49Z</time>
      </trkpt>
      <trkpt lat="34.15221" lon="77.00171">
        <ele>4556.8</ele>
        <time>2015-08-29T05:43:06Z</time>
      </trkpt>
      <trkpt lat="34.15225" lon="77.00175">
        <ele>4557.8</ele>
        <time>2015-08-29T05:43:15Z</time>
      </trkpt>
      <trkpt lat="34.15232" lon="77.00179">
        <ele>4558.8</ele>
        <time>2015-08-29T05:43:24Z</time>
      </trkpt>
      <trkpt lat="34.1524" lon="77.00179">
        <ele>4560</ele>
        <time>2015-08-29T05:43:40Z</time>
      </trkpt>
      <trkpt lat="34.15243" lon="77.00176">
        <ele>4560.2</ele>
        <time>2015-08-29T05:43:48Z</time>
      </trkpt>
      <trkpt lat="34.15251" lon="77.00175">
        <ele>4561</ele>
        <time>2015-08-29T05:44:07Z</time>
      </trkpt>
      <trkpt lat="34.15255" lon="77.00172">
        <ele>4562.2</ele>
        <time>2015-08-29T05:44:14Z</time>
      </trkpt>
      <trkpt lat="34.15266" lon="77.0017">
        <ele>4563.2</ele>
        <time>2015-08-29T05:44:32Z</time>
      </trkpt>
      <trkpt lat="34.1527" lon="77.0017">
        <ele>4564.4</ele>
        <time>2015-08-29T05:44:47Z</time>
      </trkpt>
      <trkpt lat="34.15271" lon="77.0017">
        <ele>4564.6</ele>
        <time>2015-08-29T05:44:51Z</time>
      </trkpt>
      <trkpt lat="34.15274" lon="77.0017">
        <ele>4565.4</ele>
        <time>2015-08-29T05:44:59Z</time>
      </trkpt>
      <trkpt lat="34.15286" lon="77.00168">
        <ele>4566.4</ele>
        <time>2015-08-29T05:45:19Z</time>
      </trkpt>
      <trkpt lat="34.15291" lon="77.00164">
        <ele>4567.4</ele>
        <time>2015-08-29T05:45:28Z</time>
      </trkpt>
      <trkpt lat="34.15296" lon="77.00163">
        <ele>4568.6</ele>
        <time>2015-08-29T05:45:40Z</time>
      </trkpt>
      <trkpt lat="34.15301" lon="77.00164">
        <ele>4569.6</ele>
        <time>2015-08-29T05:45:57Z</time>
      </trkpt>
      <trkpt lat="34.15307" lon="77.00168">
        <ele>4570.6</ele>
        <time>2015-08-29T05:46:12Z</time>
      </trkpt>
      <trkpt lat="34.1531" lon="77.00166">
        <ele>4570.6</ele>
        <time>2015-08-29T05:46:18Z</time>
      </trkpt>
      <trkpt lat="34.15315" lon="77.00166">
        <ele>4571.8</ele>
        <time>2015-08-29T05:46:29Z</time>
      </trkpt>
      <trkpt lat="34.15326" lon="77.00168">
        <ele>4572.8</ele>
        <time>2015-08-29T05:46:46Z</time>
      </trkpt>
      <trkpt lat="34.15332" lon="77.00169">
        <ele>4573.8</ele>
        <time>2015-08-29T05:46:55Z</time>
      </trkpt>
      <trkpt lat="34.15335" lon="77.00171">
        <ele>4575</ele>
        <time>2015-08-29T05:47:05Z</time>
      </trkpt>
      <trkpt lat="34.1534" lon="77.00174">
        <ele>4576</ele>
        <time>2015-08-29T05:47:15Z</time>
      </trkpt>
      <trkpt lat="34.15347" lon="77.00176">
        <ele>4577.2</ele>
        <time>2015-08-29T05:47:24Z</time>
      </trkpt>
      <trkpt lat="34.15349" lon="77.00178">
        <ele>4578.2</ele>
        <time>2015-08-29T05:47:31Z</time>
      </trkpt>
      <trkpt lat="34.1535" lon="77.0018">
        <ele>4579.2</ele>
        <time>2015-08-29T05:47:37Z</time>
      </trkpt>
      <trkpt lat="34.15354" lon="77.00181">
        <ele>4579.6</ele>
        <time>2015-08-29T05:47:41Z</time>
      </trkpt>
      <trkpt lat="34.15362" lon="77.00187">
        <ele>4580.4</ele>
        <time>2015-08-29T05:48:06Z</time>
      </trkpt>
      <trkpt lat="34.15369" lon="77.00185">
        <ele>4581.4</ele>
        <time>2015-08-29T05:48:19Z</time>
      </trkpt>
      <trkpt lat="34.1538" lon="77.00181">
        <ele>4582.4</ele>
        <time>2015-08-29T05:48:41Z</time>
      </trkpt>
      <trkpt lat="34.15385" lon="77.00178">
        <ele>4583.6</ele>
        <time>2015-08-29T05:48:54Z</time>
      </trkpt>
      <trkpt lat="34.15388" lon="77.00177">
        <ele>4584.6</ele>
        <time>2015-08-29T05:49:02Z</time>
      </trkpt>
      <trkpt lat="34.15396" lon="77.00176">
        <ele>4585.6</ele>
        <time>2015-08-29T05:49:17Z</time>
      </trkpt>
      <trkpt lat="34.15406" lon="77.00175">
        <ele>4586.6</ele>
        <time>2015-08-29T05:49:36Z</time>
      </trkpt>
      <trkpt lat="34.15409" lon="77.00176">
        <ele>4587.8</ele>
        <time>2015-08-29T05:49:44Z</time>
      </trkpt>
      <trkpt lat="34.15411" lon="77.00172">
        <ele>4588.8</ele>
        <time>2015-08-29T05:49:54Z</time>
      </trkpt>
      <trkpt lat="34.15414" lon="77.00171">
        <ele>4589.8</ele>
        <time>2015-08-29T05:50:04Z</time>
      </trkpt>
      <trkpt lat="34.15414" lon="77.00171">
        <ele>4590</ele>
        <time>2015-08-29T05:50:05Z</time>
      </trkpt>
      <trkpt lat="34.15417" lon="77.00165">
        <ele>4591</ele>
        <time>2015-08-29T05:50:19Z</time>
      </trkpt>
      <trkpt lat="34.15423" lon="77.00164">
        <ele>4592</ele>
        <time>2015-08-29T05:50:28Z</time>
      </trkpt>
      <trkpt lat="34.15425" lon="77.00169">
        <ele>4593.2</ele>
        <time>2015-08-29T05:50:39Z</time>
      </trkpt>
      <trkpt lat="34.15424" lon="77.00174">
        <ele>4594.2</ele>
        <time>2015-08-29T05:50:52Z</time>
      </trkpt>
      <trkpt lat="34.15422" lon="77.00177">
        <ele>4595.2</ele>
        <time>2015-08-29T05:51:01Z</time>
      </trkpt>
      <trkpt lat="34.15421" lon="77.0018">
        <ele>4596.2</ele>
        <time>2015-08-29T05:51:13Z</time>
      </trkpt>
      <trkpt lat="34.15422" lon="77.00182">
        <ele>4597.2</ele>
        <time>2015-08-29T05:51:23Z</time>
      </trkpt>
      <trkpt lat="34.15418" lon="77.00184">
        <ele>4598.4</ele>
        <time>2015-08-29T05:51:39Z</time>
      </trkpt>
      <trkpt lat="34.15415" lon="77.00189">
        <ele>4599.4</ele>
        <time>2015-08-29T05:51:49Z</time>
      </trkpt>
      <trkpt lat="34.15416" lon="77.00195">
        <ele>4600.4</ele>
        <time>2015-08-29T05:51:58Z</time>
      </trkpt>
      <trkpt lat="34.15415" lon="77.00198">
        <ele>4601.6</ele>
        <time>2015-08-29T05:52:07Z</time>
      </trkpt>
      <trkpt lat="34.1542" lon="77.00202">
        <ele>4602</ele>
        <time>2015-08-29T05:52:11Z</time>
      </trkpt>
      <trkpt lat="34.15421" lon="77.00203">
        <ele>4602.2</ele>
        <time>2015-08-29T05:52:13Z</time>
      </trkpt>
      <trkpt lat="34.1542" lon="77.00204">
        <ele>4602.6</ele>
        <time>2015-08-29T05:52:17Z</time>
      </trkpt>
      <trkpt lat="34.15415" lon="77.00206">
        <ele>4603.8</ele>
        <time>2015-08-29T05:52:27Z</time>
      </trkpt>
      <trkpt lat="34.15412" lon="77.00209">
        <ele>4604.8</ele>
        <time>2015-08-29T05:52:36Z</time>
      </trkpt>
      <trkpt lat="34.1541" lon="77.00212">
        <ele>4605.8</ele>
        <time>2015-08-29T05:52:45Z</time>
      </trkpt>
      <trkpt lat="34.15408" lon="77.00215">
        <ele>4606.8</ele>
        <time>2015-08-29T05:52:55Z</time>
      </trkpt>
      <trkpt lat="34.15407" lon="77.00219">
        <ele>4608</ele>
        <time>2015-08-29T05:53:05Z</time>
      </trkpt>
      <trkpt lat="34.15404" lon="77.00221">
        <ele>4609</ele>
        <time>2015-08-29T05:53:14Z</time>
      </trkpt>
      <trkpt lat="34.15402" lon="77.00225">
        <ele>4610</ele>
        <time>2015-08-29T05:53:24Z</time>
      </trkpt>
      <trkpt lat="34.15402" lon="77.00226">
        <ele>4611.2</ele>
        <time>2015-08-29T05:53:37Z</time>
      </trkpt>
      <trkpt lat="34.154" lon="77.00229">
        <ele>4612.2</ele>
        <time>2015-08-29T05:53:45Z</time>
      </trkpt>
      <trkpt lat="34.15395" lon="77.0023">
        <ele>4613.2</ele>
        <time>2015-08-29T05:53:55Z</time>
      </trkpt>
      <trkpt lat="34.15393" lon="77.00233">
        <ele>4614.4</ele>
        <time>2015-08-29T05:54:05Z</time>
      </trkpt>
      <trkpt lat="34.1539" lon="77.00233">
        <ele>4615.4</ele>
        <time>2015-08-29T05:54:13Z</time>
      </trkpt>
      <trkpt lat="34.15389" lon="77.00237">
        <ele>4616.4</ele>
        <time>2015-08-29T05:54:24Z</time>
      </trkpt>
      <trkpt lat="34.15386" lon="77.0024">
        <ele>4617.4</ele>
        <time>2015-08-29T05:54:36Z</time>
      </trkpt>
      <trkpt lat="34.15383" lon="77.00244">
        <ele>4618.6</ele>
        <time>2015-08-29T05:54:46Z</time>
      </trkpt>
      <trkpt lat="34.1538" lon="77.00246">
        <ele>4619.6</ele>
        <time>2015-08-29T05:54:55Z</time>
      </trkpt>
      <trkpt lat="34.15378" lon="77.00245">
        <ele>4620.8</ele>
        <time>2015-08-29T05:55:02Z</time>
      </trkpt>
      <trkpt lat="34.15372" lon="77.0025">
        <ele>4621.8</ele>
        <time>2015-08-29T05:55:20Z</time>
      </trkpt>
      <trkpt lat="34.1537" lon="77.00252">
        <ele>4623</ele>
        <time>2015-08-29T05:55:31Z</time>
      </trkpt>
      <trkpt lat="34.15367" lon="77.00258">
        <ele>4624</ele>
        <time>2015-08-29T05:55:41Z</time>
      </trkpt>
      <trkpt lat="34.15365" lon="77.0026">
        <ele>4625</ele>
        <time>2015-08-29T05:55:51Z</time>
      </trkpt>
      <trkpt lat="34.15362" lon="77.00267">
        <ele>4626</ele>
        <time>2015-08-29T05:56:01Z</time>
      </trkpt>
      <trkpt lat="34.15362" lon="77.00274">
        <ele>4627.2</ele>
        <time>2015-08-29T05:56:12Z</time>
      </trkpt>
      <trkpt lat="34.15359" lon="77.00275">
        <ele>4628.2</ele>
        <time>2015-08-29T05:56:22Z</time>
      </trkpt>
      <trkpt lat="34.15358" lon="77.00277">
        <ele>4629.2</ele>
        <time>2015-08-29T05:56:31Z</time>
      </trkpt>
      <trkpt lat="34.15355" lon="77.00281">
        <ele>4630.4</ele>
        <time>2015-08-29T05:56:44Z</time>
      </trkpt>
      <trkpt lat="34.15351" lon="77.00283">
        <ele>4631.6</ele>
        <time>2015-08-29T05:57:00Z</time>
      </trkpt>
      <trkpt lat="34.1535" lon="77.00286">
        <ele>4632.6</ele>
        <time>2015-08-29T05:57:09Z</time>
      </trkpt>
      <trkpt lat="34.15348" lon="77.00293">
        <ele>4633.6</ele>
        <time>2015-08-29T05:57:22Z</time>
      </trkpt>
      <trkpt lat="34.15344" lon="77.00295">
        <ele>4634.6</ele>
        <time>2015-08-29T05:57:33Z</time>
      </trkpt>
      <trkpt lat="34.15345" lon="77.003">
        <ele>4635.8</ele>
        <time>2015-08-29T05:57:44Z</time>
      </trkpt>
      <trkpt lat="34.15342" lon="77.00304">
        <ele>4636.8</ele>
        <time>2015-08-29T05:57:57Z</time>
      </trkpt>
      <trkpt lat="34.15339" lon="77.00309">
        <ele>4637.8</ele>
        <time>2015-08-29T05:58:12Z</time>
      </trkpt>
      <trkpt lat="34.15338" lon="77.00314">
        <ele>4638.8</ele>
        <time>2015-08-29T05:58:22Z</time>
      </trkpt>
      <trkpt lat="34.15335" lon="77.00316">
        <ele>4639.8</ele>
        <time>2015-08-29T05:58:33Z</time>
      </trkpt>
      <trkpt lat="34.15333" lon="77.00316">
        <ele>4641</ele>
        <time>2015-08-29T05:58:42Z</time>
      </trkpt>
      <trkpt lat="34.15332" lon="77.00321">
        <ele>4642</ele>
        <time>2015-08-29T05:58:51Z</time>
      </trkpt>
      <trkpt lat="34.15331" lon="77.00323">
        <ele>4643</ele>
        <time>2015-08-29T05:59:00Z</time>
      </trkpt>
      <trkpt lat="34.1533" lon="77.00325">
        <ele>4644</ele>
        <time>2015-08-29T05:59:11Z</time>
      </trkpt>
      <trkpt lat="34.15328" lon="77.0033">
        <ele>4645.2</ele>
        <time>2015-08-29T05:59:21Z</time>
      </trkpt>
      <trkpt lat="34.15326" lon="77.00333">
        <ele>4646.2</ele>
        <time>2015-08-29T05:59:30Z</time>
      </trkpt>
      <trkpt lat="34.15324" lon="77.00336">
        <ele>4647.2</ele>
        <time>2015-08-29T05:59:40Z</time>
      </trkpt>
      <trkpt lat="34.15321" lon="77.00338">
        <ele>4648.4</ele>
        <time>2015-08-29T05:59:50Z</time>
      </trkpt>
      <trkpt lat="34.15318" lon="77.00341">
        <ele>4649.4</ele>
        <time>2015-08-29T06:00:01Z</time>
      </trkpt>
      <trkpt lat="34.15317" lon="77.00343">
        <ele>4649.8</ele>
        <time>2015-08-29T06:00:05Z</time>
      </trkpt>
      <trkpt lat="34.15316" lon="77.00346">
        <ele>4650.6</ele>
        <time>2015-08-29T06:00:12Z</time>
      </trkpt>
      <trkpt lat="34.15315" lon="77.00348">
        <ele>4651.6</ele>
        <time>2015-08-29T06:00:22Z</time>
      </trkpt>
      <trkpt lat="34.15314" lon="77.0035">
        <ele>4652.6</ele>
        <time>2015-08-29T06:00:31Z</time>
      </trkpt>
      <trkpt lat="34.15313" lon="77.0035">
        <ele>4653.8</ele>
        <time>2015-08-29T06:00:42Z</time>
      </trkpt>
      <trkpt lat="34.1531" lon="77.00359">
        <ele>4655</ele>
        <time>2015-08-29T06:00:52Z</time>
      </trkpt>
      <trkpt lat="34.15309" lon="77.00362">
        <ele>4656</ele>
        <time>2015-08-29T06:00:59Z</time>
      </trkpt>
      <trkpt lat="34.15312" lon="77.00365">
        <ele>4657.2</ele>
        <time>2015-08-29T06:01:15Z</time>
      </trkpt>
      <trkpt lat="34.15313" lon="77.00366">
        <ele>4658.2</ele>
        <time>2015-08-29T06:01:28Z</time>
      </trkpt>
      <trkpt lat="34.15314" lon="77.00366">
        <ele>4659.4</ele>
        <time>2015-08-29T06:01:33Z</time>
      </trkpt>
      <trkpt lat="34.15316" lon="77.00367">
        <ele>4660.4</ele>
        <time>2015-08-29T06:01:47Z</time>
      </trkpt>
      <trkpt lat="34.15315" lon="77.00368">
        <ele>4661.6</ele>
        <time>2015-08-29T06:01:56Z</time>
      </trkpt>
      <trkpt lat="34.15314" lon="77.00371">
        <ele>4662.6</ele>
        <time>2015-08-29T06:02:04Z</time>
      </trkpt>
      <trkpt lat="34.15312" lon="77.00375">
        <ele>4663.6</ele>
        <time>2015-08-29T06:02:18Z</time>
      </trkpt>
      <trkpt lat="34.15311" lon="77.0038">
        <ele>4664.8</ele>
        <time>2015-08-29T06:02:28Z</time>
      </trkpt>
      <trkpt lat="34.15312" lon="77.00384">
        <ele>4665.8</ele>
        <time>2015-08-29T06:02:36Z</time>
      </trkpt>
      <trkpt lat="34.15311" lon="77.00385">
        <ele>4666.8</ele>
        <time>2015-08-29T06:02:42Z</time>
      </trkpt>
      <trkpt lat="34.15308" lon="77.00394">
        <ele>4667.8</ele>
        <time>2015-08-29T06:03:01Z</time>
      </trkpt>
      <trkpt lat="34.15305" lon="77.00401">
        <ele>4668.8</ele>
        <time>2015-08-29T06:03:15Z</time>
      </trkpt>
      <trkpt lat="34.15304" lon="77.00402">
        <ele>4669.8</ele>
        <time>2015-08-29T06:03:23Z</time>
      </trkpt>
      <trkpt lat="34.15303" lon="77.00408">
        <ele>4671</ele>
        <time>2015-08-29T06:03:35Z</time>
      </trkpt>
      <trkpt lat="34.15307" lon="77.00413">
        <ele>4672</ele>
        <time>2015-08-29T06:03:43Z</time>
      </trkpt>
      <trkpt lat="34.15306" lon="77.00414">
        <ele>4673</ele>
        <time>2015-08-29T06:03:53Z</time>
      </trkpt>
      <trkpt lat="34.15305" lon="77.00415">
        <ele>4674</ele>
        <time>2015-08-29T06:04:04Z</time>
      </trkpt>
      <trkpt lat="34.15304" lon="77.00418">
        <ele>4675</ele>
        <time>2015-08-29T06:04:13Z</time>
      </trkpt>
      <trkpt lat="34.15305" lon="77.00421">
        <ele>4676.2</ele>
        <time>2015-08-29T06:04:21Z</time>
      </trkpt>
      <trkpt lat="34.15301" lon="77.00425">
        <ele>4677.2</ele>
        <time>2015-08-29T06:04:32Z</time>
      </trkpt>
      <trkpt lat="34.15299" lon="77.00433">
        <ele>4678.2</ele>
        <time>2015-08-29T06:04:43Z</time>
      </trkpt>
      <trkpt lat="34.15299" lon="77.00435">
        <ele>4679.4</ele>
        <time>2015-08-29T06:04:52Z</time>
      </trkpt>
      <trkpt lat="34.15295" lon="77.00437">
        <ele>4680.4</ele>
        <time>2015-08-29T06:05:05Z</time>
      </trkpt>
      <trkpt lat="34.15295" lon="77.0044">
        <ele>4681.4</ele>
        <time>2015-08-29T06:05:17Z</time>
      </trkpt>
      <trkpt lat="34.15296" lon="77.00443">
        <ele>4682.4</ele>
        <time>2015-08-29T06:05:28Z</time>
      </trkpt>
      <trkpt lat="34.15295" lon="77.00447">
        <ele>4683.6</ele>
        <time>2015-08-29T06:05:41Z</time>
      </trkpt>
      <trkpt lat="34.15294" lon="77.00453">
        <ele>4684.6</ele>
        <time>2015-08-29T06:05:54Z</time>
      </trkpt>
      <trkpt lat="34.15291" lon="77.00452">
        <ele>4685.6</ele>
        <time>2015-08-29T06:06:03Z</time>
      </trkpt>
      <trkpt lat="34.15289" lon="77.00453">
        <ele>4686.8</ele>
        <time>2015-08-29T06:06:15Z</time>
      </trkpt>
      <trkpt lat="34.15287" lon="77.0046">
        <ele>4687.8</ele>
        <time>2015-08-29T06:06:28Z</time>
      </trkpt>
      <trkpt lat="34.15283" lon="77.00463">
        <ele>4688.8</ele>
        <time>2015-08-29T06:06:44Z</time>
      </trkpt>
      <trkpt lat="34.15279" lon="77.00463">
        <ele>4690</ele>
        <time>2015-08-29T06:06:56Z</time>
      </trkpt>
      <trkpt lat="34.15275" lon="77.0047">
        <ele>4691.2</ele>
        <time>2015-08-29T06:07:10Z</time>
      </trkpt>
      <trkpt lat="34.15274" lon="77.00474">
        <ele>4692.2</ele>
        <time>2015-08-29T06:07:21Z</time>
      </trkpt>
      <trkpt lat="34.15273" lon="77.00476">
        <ele>4693.2</ele>
        <time>2015-08-29T06:07:30Z</time>
      </trkpt>
      <trkpt lat="34.15273" lon="77.00483">
        <ele>4694.4</ele>
        <time>2015-08-29T06:07:56Z</time>
      </trkpt>
      <trkpt lat="34.15271" lon="77.00486">
        <ele>4695.4</ele>
        <time>2015-08-29T06:08:03Z</time>
      </trkpt>
      <trkpt lat="34.15267" lon="77.00485">
        <ele>4696.6</ele>
        <time>2015-08-29T06:08:13Z</time>
      </trkpt>
      <trkpt lat="34.15266" lon="77.0049">
        <ele>4697.6</ele>
        <time>2015-08-29T06:08:30Z</time>
      </trkpt>
      <trkpt lat="34.15261" lon="77.00498">
        <ele>4698.6</ele>
        <time>2015-08-29T06:08:43Z</time>
      </trkpt>
      <trkpt lat="34.15262" lon="77.00498">
        <ele>4699.8</ele>
        <time>2015-08-29T06:09:01Z</time>
      </trkpt>
      <trkpt lat="34.1526" lon="77.00503">
        <ele>4700.8</ele>
        <time>2015-08-29T06:09:15Z</time>
      </trkpt>
      <trkpt lat="34.15259" lon="77.00504">
        <ele>4701.2</ele>
        <time>2015-08-29T06:09:17Z</time>
      </trkpt>
      <trkpt lat="34.15259" lon="77.00506">
        <ele>4702</ele>
        <time>2015-08-29T06:09:23Z</time>
      </trkpt>
      <trkpt lat="34.15258" lon="77.0051">
        <ele>4703</ele>
        <time>2015-08-29T06:09:31Z</time>
      </trkpt>
      <trkpt lat="34.15254" lon="77.00514">
        <ele>4704.2</ele>
        <time>2015-08-29T06:09:46Z</time>
      </trkpt>
      <trkpt lat="34.15257" lon="77.00516">
        <ele>4705</ele>
        <time>2015-08-29T06:10:04Z</time>
      </trkpt>
      <trkpt lat="34.15257" lon="77.00518">
        <ele>4705.2</ele>
        <time>2015-08-29T06:10:09Z</time>
      </trkpt>
      <trkpt lat="34.15256" lon="77.00519">
        <ele>4706.4</ele>
        <time>2015-08-29T06:10:33Z</time>
      </trkpt>
      <trkpt lat="34.15256" lon="77.00524">
        <ele>4707.4</ele>
        <time>2015-08-29T06:10:44Z</time>
      </trkpt>
      <trkpt lat="34.15254" lon="77.00529">
        <ele>4708.4</ele>
        <time>2015-08-29T06:10:58Z</time>
      </trkpt>
      <trkpt lat="34.15252" lon="77.00531">
        <ele>4709.4</ele>
        <time>2015-08-29T06:11:06Z</time>
      </trkpt>
      <trkpt lat="34.15252" lon="77.00533">
        <ele>4710.4</ele>
        <time>2015-08-29T06:11:16Z</time>
      </trkpt>
      <trkpt lat="34.15252" lon="77.00538">
        <ele>4711.6</ele>
        <time>2015-08-29T06:11:36Z</time>
      </trkpt>
      <trkpt lat="34.15249" lon="77.00537">
        <ele>4712.8</ele>
        <time>2015-08-29T06:11:44Z</time>
      </trkpt>
      <trkpt lat="34.15246" lon="77.00538">
        <ele>4713.8</ele>
        <time>2015-08-29T06:11:51Z</time>
      </trkpt>
      <trkpt lat="34.15242" lon="77.00544">
        <ele>4714.8</ele>
        <time>2015-08-29T06:12:02Z</time>
      </trkpt>
      <trkpt lat="34.15241" lon="77.00549">
        <ele>4715.8</ele>
        <time>2015-08-29T06:12:12Z</time>
      </trkpt>
      <trkpt lat="34.15236" lon="77.00552">
        <ele>4715.8</ele>
        <time>2015-08-29T06:12:41Z</time>
      </trkpt>
      <trkpt lat="34.1524" lon="77.00551">
        <ele>4716.2</ele>
        <time>2015-08-29T06:12:45Z</time>
      </trkpt>
      <trkpt lat="34.15244" lon="77.00549">
        <ele>4716.4</ele>
        <time>2015-08-29T06:13:27Z</time>
      </trkpt>
      <trkpt lat="34.15237" lon="77.00553">
        <ele>4715.8</ele>
        <time>2015-08-29T06:14:54Z</time>
      </trkpt>
      <trkpt lat="34.15229" lon="77.00557">
        <ele>4715</ele>
        <time>2015-08-29T06:15:19Z</time>
      </trkpt>
      <trkpt lat="34.15229" lon="77.00557">
        <ele>4714.8</ele>
        <time>2015-08-29T06:15:20Z</time>
      </trkpt>
      <trkpt lat="34.15235" lon="77.00548">
        <ele>4715.8</ele>
        <time>2015-08-29T06:15:43Z</time>
      </trkpt>
      <trkpt lat="34.15233" lon="77.0055">
        <ele>4716.8</ele>
        <time>2015-08-29T06:16:18Z</time>
      </trkpt>
      <trkpt lat="34.15232" lon="77.00547">
        <ele>4718</ele>
        <time>2015-08-29T06:16:44Z</time>
      </trkpt>
      <trkpt lat="34.15235" lon="77.00543">
        <ele>4718.4</ele>
        <time>2015-08-29T06:16:59Z</time>
      </trkpt>
      <trkpt lat="34.15228" lon="77.00557">
        <ele>4718</ele>
        <time>2015-08-29T06:17:45Z</time>
      </trkpt>
      <trkpt lat="34.15222" lon="77.0056">
        <ele>4718.8</ele>
        <time>2015-08-29T06:18:08Z</time>
      </trkpt>
      <trkpt lat="34.15218" lon="77.00559">
        <ele>4719.2</ele>
        <time>2015-08-29T06:18:36Z</time>
      </trkpt>
      <trkpt lat="34.15225" lon="77.00557">
        <ele>4719.2</ele>
        <time>2015-08-29T06:19:02Z</time>
      </trkpt>
      <trkpt lat="34.15221" lon="77.00559">
        <ele>4719.2</ele>
        <time>2015-08-29T06:19:04Z</time>
      </trkpt>
      <trkpt lat="34.1523" lon="77.00563">
        <ele>4720.2</ele>
        <time>2015-08-29T06:19:30Z</time>
      </trkpt>
      <trkpt lat="34.15233" lon="77.00562">
        <ele>4720.4</ele>
        <time>2015-08-29T06:19:33Z</time>
      </trkpt>
      <trkpt lat="34.15233" lon="77.00565">
        <ele>4721.4</ele>
        <time>2015-08-29T06:19:45Z</time>
      </trkpt>
      <trkpt lat="34.15232" lon="77.00566">
        <ele>4722.4</ele>
        <time>2015-08-29T06:19:57Z</time>
      </trkpt>
      <trkpt lat="34.15233" lon="77.00565">
        <ele>4723.4</ele>
        <time>2015-08-29T06:20:04Z</time>
      </trkpt>
      <trkpt lat="34.15233" lon="77.00569">
        <ele>4724.6</ele>
        <time>2015-08-29T06:20:22Z</time>
      </trkpt>
      <trkpt lat="34.15231" lon="77.00572">
        <ele>4725.6</ele>
        <time>2015-08-29T06:20:28Z</time>
      </trkpt>
      <trkpt lat="34.15227" lon="77.00571">
        <ele>4726.6</ele>
        <time>2015-08-29T06:20:45Z</time>
      </trkpt>
      <trkpt lat="34.15225" lon="77.00572">
        <ele>4727.8</ele>
        <time>2015-08-29T06:20:57Z</time>
      </trkpt>
      <trkpt lat="34.15221" lon="77.00574">
        <ele>4728.8</ele>
        <time>2015-08-29T06:21:09Z</time>
      </trkpt>
      <trkpt lat="34.15221" lon="77.00571">
        <ele>4729.8</ele>
        <time>2015-08-29T06:21:17Z</time>
      </trkpt>
      <trkpt lat="34.15218" lon="77.00573">
        <ele>4731</ele>
        <time>2015-08-29T06:21:34Z</time>
      </trkpt>
      <trkpt lat="34.15216" lon="77.00577">
        <ele>4732</ele>
        <time>2015-08-29T06:21:52Z</time>
      </trkpt>
      <trkpt lat="34.15217" lon="77.0058">
        <ele>4733</ele>
        <time>2015-08-29T06:22:02Z</time>
      </trkpt>
      <trkpt lat="34.15214" lon="77.00583">
        <ele>4734.2</ele>
        <time>2015-08-29T06:22:12Z</time>
      </trkpt>
      <trkpt lat="34.15213" lon="77.00583">
        <ele>4735.2</ele>
        <time>2015-08-29T06:22:21Z</time>
      </trkpt>
      <trkpt lat="34.1521" lon="77.00587">
        <ele>4736.2</ele>
        <time>2015-08-29T06:22:36Z</time>
      </trkpt>
      <trkpt lat="34.15209" lon="77.00588">
        <ele>4737.4</ele>
        <time>2015-08-29T06:22:47Z</time>
      </trkpt>
      <trkpt lat="34.15209" lon="77.00589">
        <ele>4737.6</ele>
        <time>2015-08-29T06:22:50Z</time>
      </trkpt>
      <trkpt lat="34.15206" lon="77.0059">
        <ele>4738.4</ele>
        <time>2015-08-29T06:22:59Z</time>
      </trkpt>
      <trkpt lat="34.15205" lon="77.00595">
        <ele>4739.4</ele>
        <time>2015-08-29T06:23:27Z</time>
      </trkpt>
      <trkpt lat="34.15204" lon="77.00599">
        <ele>4740.6</ele>
        <time>2015-08-29T06:24:01Z</time>
      </trkpt>
      <trkpt lat="34.15205" lon="77.00605">
        <ele>4741.6</ele>
        <time>2015-08-29T06:24:13Z</time>
      </trkpt>
      <trkpt lat="34.1521" lon="77.00605">
        <ele>4742.2</ele>
        <time>2015-08-29T06:24:22Z</time>
      </trkpt>
      <trkpt lat="34.15214" lon="77.00604">
        <ele>4742.8</ele>
        <time>2015-08-29T06:24:25Z</time>
      </trkpt>
      <trkpt lat="34.15214" lon="77.00604">
        <ele>4743.8</ele>
        <time>2015-08-29T06:24:31Z</time>
      </trkpt>
      <trkpt lat="34.15212" lon="77.00605">
        <ele>4745</ele>
        <time>2015-08-29T06:24:37Z</time>
      </trkpt>
      <trkpt lat="34.15207" lon="77.00607">
        <ele>4746</ele>
        <time>2015-08-29T06:24:51Z</time>
      </trkpt>
      <trkpt lat="34.15206" lon="77.00609">
        <ele>4747</ele>
        <time>2015-08-29T06:25:01Z</time>
      </trkpt>
      <trkpt lat="34.15202" lon="77.00614">
        <ele>4748.2</ele>
        <time>2015-08-29T06:25:21Z</time>
      </trkpt>
      <trkpt lat="34.152" lon="77.00617">
        <ele>4749.2</ele>
        <time>2015-08-29T06:25:31Z</time>
      </trkpt>
      <trkpt lat="34.152" lon="77.00622">
        <ele>4750.4</ele>
        <time>2015-08-29T06:25:53Z</time>
      </trkpt>
      <trkpt lat="34.15198" lon="77.00624">
        <ele>4751.4</ele>
        <time>2015-08-29T06:26:05Z</time>
      </trkpt>
      <trkpt lat="34.15207" lon="77.00623">
        <ele>4752.6</ele>
        <time>2015-08-29T06:26:27Z</time>
      </trkpt>
      <trkpt lat="34.15209" lon="77.00623">
        <ele>4753.2</ele>
        <time>2015-08-29T06:26:34Z</time>
      </trkpt>
      <trkpt lat="34.1521" lon="77.00623">
        <ele>4753.6</ele>
        <time>2015-08-29T06:26:36Z</time>
      </trkpt>
      <trkpt lat="34.15211" lon="77.00626">
        <ele>4754.6</ele>
        <time>2015-08-29T06:26:49Z</time>
      </trkpt>
      <trkpt lat="34.15209" lon="77.00628">
        <ele>4755.6</ele>
        <time>2015-08-29T06:26:59Z</time>
      </trkpt>
      <trkpt lat="34.1521" lon="77.0063">
        <ele>4756.8</ele>
        <time>2015-08-29T06:27:07Z</time>
      </trkpt>
      <trkpt lat="34.15206" lon="77.00632">
        <ele>4757.8</ele>
        <time>2015-08-29T06:27:19Z</time>
      </trkpt>
      <trkpt lat="34.15203" lon="77.00632">
        <ele>4759</ele>
        <time>2015-08-29T06:27:31Z</time>
      </trkpt>
      <trkpt lat="34.15204" lon="77.00635">
        <ele>4760</ele>
        <time>2015-08-29T06:27:42Z</time>
      </trkpt>
      <trkpt lat="34.15201" lon="77.00643">
        <ele>4761</ele>
        <time>2015-08-29T06:27:58Z</time>
      </trkpt>
      <trkpt lat="34.15202" lon="77.00645">
        <ele>4762.2</ele>
        <time>2015-08-29T06:28:07Z</time>
      </trkpt>
      <trkpt lat="34.15204" lon="77.00647">
        <ele>4763.4</ele>
        <time>2015-08-29T06:28:41Z</time>
      </trkpt>
      <trkpt lat="34.15208" lon="77.00648">
        <ele>4764.4</ele>
        <time>2015-08-29T06:28:59Z</time>
      </trkpt>
      <trkpt lat="34.15212" lon="77.00648">
        <ele>4765.6</ele>
        <time>2015-08-29T06:29:03Z</time>
      </trkpt>
      <trkpt lat="34.15213" lon="77.00649">
        <ele>4766.8</ele>
        <time>2015-08-29T06:29:11Z</time>
      </trkpt>
      <trkpt lat="34.15212" lon="77.00648">
        <ele>4767.8</ele>
        <time>2015-08-29T06:29:23Z</time>
      </trkpt>
      <trkpt lat="34.1521" lon="77.00653">
        <ele>4768.8</ele>
        <time>2015-08-29T06:29:34Z</time>
      </trkpt>
      <trkpt lat="34.1521" lon="77.00659">
        <ele>4769.8</ele>
        <time>2015-08-29T06:29:46Z</time>
      </trkpt>
      <trkpt lat="34.15206" lon="77.00663">
        <ele>4771</ele>
        <time>2015-08-29T06:30:06Z</time>
      </trkpt>
      <trkpt lat="34.15207" lon="77.00662">
        <ele>4771.4</ele>
        <time>2015-08-29T06:30:13Z</time>
      </trkpt>
      <trkpt lat="34.15201" lon="77.00662">
        <ele>4771.6</ele>
        <time>2015-08-29T06:31:27Z</time>
      </trkpt>
      <trkpt lat="34.15209" lon="77.00663">
        <ele>4771.8</ele>
        <time>2015-08-29T06:31:43Z</time>
      </trkpt>
      <trkpt lat="34.1521" lon="77.00663">
        <ele>4772</ele>
        <time>2015-08-29T06:31:44Z</time>
      </trkpt>
      <trkpt lat="34.15198" lon="77.00661">
        <ele>4772.2</ele>
        <time>2015-08-29T06:32:21Z</time>
      </trkpt>
      <trkpt lat="34.15202" lon="77.0066">
        <ele>4772.2</ele>
        <time>2015-08-29T06:33:26Z</time>
      </trkpt>
      <trkpt lat="34.15205" lon="77.00659">
        <ele>4772.4</ele>
        <time>2015-08-29T06:34:56Z</time>
      </trkpt>
      <trkpt lat="34.15207" lon="77.00662">
        <ele>4773</ele>
        <time>2015-08-29T06:35:14Z</time>
      </trkpt>
      <trkpt lat="34.15209" lon="77.00662">
        <ele>4774</ele>
        <time>2015-08-29T06:35:23Z</time>
      </trkpt>
      <trkpt lat="34.15209" lon="77.00664">
        <ele>4775.2</ele>
        <time>2015-08-29T06:35:30Z</time>
      </trkpt>
      <trkpt lat="34.15208" lon="77.00666">
        <ele>4776.2</ele>
        <time>2015-08-29T06:35:36Z</time>
      </trkpt>
      <trkpt lat="34.15204" lon="77.00668">
        <ele>4777.2</ele>
        <time>2015-08-29T06:35:44Z</time>
      </trkpt>
      <trkpt lat="34.15209" lon="77.00673">
        <ele>4778.2</ele>
        <time>2015-08-29T06:36:01Z</time>
      </trkpt>
      <trkpt lat="34.1521" lon="77.00675">
        <ele>4779.4</ele>
        <time>2015-08-29T06:36:11Z</time>
      </trkpt>
      <trkpt lat="34.15209" lon="77.0068">
        <ele>4780.4</ele>
        <time>2015-08-29T06:36:23Z</time>
      </trkpt>
      <trkpt lat="34.15207" lon="77.00684">
        <ele>4781.4</ele>
        <time>2015-08-29T06:36:37Z</time>
      </trkpt>
      <trkpt lat="34.15206" lon="77.00689">
        <ele>4782.4</ele>
        <time>2015-08-29T06:36:52Z</time>
      </trkpt>
      <trkpt lat="34.15206" lon="77.00691">
        <ele>4783.6</ele>
        <time>2015-08-29T06:37:01Z</time>
      </trkpt>
      <trkpt lat="34.15201" lon="77.00696">
        <ele>4784.6</ele>
        <time>2015-08-29T06:37:12Z</time>
      </trkpt>
      <trkpt lat="34.15198" lon="77.007">
        <ele>4785.8</ele>
        <time>2015-08-29T06:37:29Z</time>
      </trkpt>
      <trkpt lat="34.15204" lon="77.00701">
        <ele>4786.8</ele>
        <time>2015-08-29T06:37:44Z</time>
      </trkpt>
      <trkpt lat="34.152" lon="77.00707">
        <ele>4787.8</ele>
        <time>2015-08-29T06:37:56Z</time>
      </trkpt>
      <trkpt lat="34.15198" lon="77.00709">
        <ele>4788.8</ele>
        <time>2015-08-29T06:38:05Z</time>
      </trkpt>
      <trkpt lat="34.15201" lon="77.00713">
        <ele>4790</ele>
        <time>2015-08-29T06:38:28Z</time>
      </trkpt>
      <trkpt lat="34.15208" lon="77.0071">
        <ele>4791</ele>
        <time>2015-08-29T06:38:43Z</time>
      </trkpt>
      <trkpt lat="34.1521" lon="77.00712">
        <ele>4792.2</ele>
        <time>2015-08-29T06:38:49Z</time>
      </trkpt>
      <trkpt lat="34.1521" lon="77.00715">
        <ele>4793.2</ele>
        <time>2015-08-29T06:38:56Z</time>
      </trkpt>
      <trkpt lat="34.15208" lon="77.00719">
        <ele>4794.2</ele>
        <time>2015-08-29T06:39:06Z</time>
      </trkpt>
      <trkpt lat="34.15206" lon="77.00722">
        <ele>4795.2</ele>
        <time>2015-08-29T06:39:16Z</time>
      </trkpt>
      <trkpt lat="34.15204" lon="77.00727">
        <ele>4796.4</ele>
        <time>2015-08-29T06:39:32Z</time>
      </trkpt>
      <trkpt lat="34.152" lon="77.00731">
        <ele>4797.4</ele>
        <time>2015-08-29T06:39:45Z</time>
      </trkpt>
      <trkpt lat="34.15196" lon="77.00735">
        <ele>4798.4</ele>
        <time>2015-08-29T06:39:56Z</time>
      </trkpt>
      <trkpt lat="34.15192" lon="77.00739">
        <ele>4799.4</ele>
        <time>2015-08-29T06:40:09Z</time>
      </trkpt>
      <trkpt lat="34.15188" lon="77.00746">
        <ele>4800.4</ele>
        <time>2015-08-29T06:40:27Z</time>
      </trkpt>
      <trkpt lat="34.15186" lon="77.00746">
        <ele>4800.6</ele>
        <time>2015-08-29T06:40:29Z</time>
      </trkpt>
      <trkpt lat="34.15185" lon="77.0075">
        <ele>4801.6</ele>
        <time>2015-08-29T06:40:42Z</time>
      </trkpt>
      <trkpt lat="34.15189" lon="77.00754">
        <ele>4802.6</ele>
        <time>2015-08-29T06:40:52Z</time>
      </trkpt>
      <trkpt lat="34.15181" lon="77.00755">
        <ele>4803.4</ele>
        <time>2015-08-29T06:41:02Z</time>
      </trkpt>
      <trkpt lat="34.15181" lon="77.00755">
        <ele>4803.8</ele>
        <time>2015-08-29T06:41:04Z</time>
      </trkpt>
      <trkpt lat="34.15184" lon="77.0076">
        <ele>4804.8</ele>
        <time>2015-08-29T06:41:20Z</time>
      </trkpt>
      <trkpt lat="34.15186" lon="77.00762">
        <ele>4804.8</ele>
        <time>2015-08-29T06:41:22Z</time>
      </trkpt>
      <trkpt lat="34.15189" lon="77.00765">
        <ele>4805.8</ele>
        <time>2015-08-29T06:41:32Z</time>
      </trkpt>
      <trkpt lat="34.15186" lon="77.00766">
        <ele>4807</ele>
        <time>2015-08-29T06:41:38Z</time>
      </trkpt>
      <trkpt lat="34.1518" lon="77.00769">
        <ele>4808.2</ele>
        <time>2015-08-29T06:41:50Z</time>
      </trkpt>
      <trkpt lat="34.15177" lon="77.00772">
        <ele>4809.2</ele>
        <time>2015-08-29T06:42:03Z</time>
      </trkpt>
      <trkpt lat="34.15175" lon="77.00769">
        <ele>4810</ele>
        <time>2015-08-29T06:42:12Z</time>
      </trkpt>
      <trkpt lat="34.15174" lon="77.00768">
        <ele>4810.2</ele>
        <time>2015-08-29T06:42:23Z</time>
      </trkpt>
      <trkpt lat="34.15176" lon="77.0077">
        <ele>4810.2</ele>
        <time>2015-08-29T06:42:28Z</time>
      </trkpt>
      <trkpt lat="34.15177" lon="77.0077">
        <ele>4809.8</ele>
        <time>2015-08-29T06:42:30Z</time>
      </trkpt>
      <trkpt lat="34.1517" lon="77.00775">
        <ele>4811.2</ele>
        <time>2015-08-29T06:43:06Z</time>
      </trkpt>
      <trkpt lat="34.15165" lon="77.0078">
        <ele>4812.4</ele>
        <time>2015-08-29T06:43:16Z</time>
      </trkpt>
      <trkpt lat="34.15162" lon="77.00783">
        <ele>4813.4</ele>
        <time>2015-08-29T06:43:22Z</time>
      </trkpt>
      <trkpt lat="34.15162" lon="77.00788">
        <ele>4814.6</ele>
        <time>2015-08-29T06:43:32Z</time>
      </trkpt>
      <trkpt lat="34.15163" lon="77.00793">
        <ele>4815.6</ele>
        <time>2015-08-29T06:43:41Z</time>
      </trkpt>
      <trkpt lat="34.15163" lon="77.00796">
        <ele>4816.8</ele>
        <time>2015-08-29T06:43:50Z</time>
      </trkpt>
      <trkpt lat="34.15161" lon="77.00801">
        <ele>4817.8</ele>
        <time>2015-08-29T06:44:00Z</time>
      </trkpt>
      <trkpt lat="34.15159" lon="77.00803">
        <ele>4818.8</ele>
        <time>2015-08-29T06:44:06Z</time>
      </trkpt>
      <trkpt lat="34.15152" lon="77.00809">
        <ele>4820</ele>
        <time>2015-08-29T06:44:23Z</time>
      </trkpt>
      <trkpt lat="34.15156" lon="77.0081">
        <ele>4821</ele>
        <time>2015-08-29T06:44:43Z</time>
      </trkpt>
      <trkpt lat="34.15153" lon="77.00815">
        <ele>4822.2</ele>
        <time>2015-08-29T06:45:10Z</time>
      </trkpt>
      <trkpt lat="34.15151" lon="77.00817">
        <ele>4823.2</ele>
        <time>2015-08-29T06:45:20Z</time>
      </trkpt>
      <trkpt lat="34.15163" lon="77.00817">
        <ele>4824.2</ele>
        <time>2015-08-29T06:45:58Z</time>
      </trkpt>
      <trkpt lat="34.15169" lon="77.00814">
        <ele>4825.4</ele>
        <time>2015-08-29T06:46:17Z</time>
      </trkpt>
      <trkpt lat="34.15167" lon="77.00817">
        <ele>4826.4</ele>
        <time>2015-08-29T06:46:27Z</time>
      </trkpt>
      <trkpt lat="34.15164" lon="77.00818">
        <ele>4827.4</ele>
        <time>2015-08-29T06:46:32Z</time>
      </trkpt>
      <trkpt lat="34.15158" lon="77.00818">
        <ele>4828.2</ele>
        <time>2015-08-29T06:46:38Z</time>
      </trkpt>
      <trkpt lat="34.15157" lon="77.00818">
        <ele>4828.4</ele>
        <time>2015-08-29T06:46:39Z</time>
      </trkpt>
      <trkpt lat="34.15155" lon="77.00818">
        <ele>4828.8</ele>
        <time>2015-08-29T06:46:42Z</time>
      </trkpt>
      <trkpt lat="34.15154" lon="77.00819">
        <ele>4829.4</ele>
        <time>2015-08-29T06:46:48Z</time>
      </trkpt>
      <trkpt lat="34.15154" lon="77.00824">
        <ele>4830.6</ele>
        <time>2015-08-29T06:46:59Z</time>
      </trkpt>
      <trkpt lat="34.15154" lon="77.00827">
        <ele>4831.8</ele>
        <time>2015-08-29T06:47:05Z</time>
      </trkpt>
      <trkpt lat="34.15153" lon="77.0083">
        <ele>4832.8</ele>
        <time>2015-08-29T06:47:27Z</time>
      </trkpt>
      <trkpt lat="34.15149" lon="77.00831">
        <ele>4833.8</ele>
        <time>2015-08-29T06:47:37Z</time>
      </trkpt>
      <trkpt lat="34.1515" lon="77.00833">
        <ele>4834.8</ele>
        <time>2015-08-29T06:47:44Z</time>
      </trkpt>
      <trkpt lat="34.15146" lon="77.00842">
        <ele>4836</ele>
        <time>2015-08-29T06:48:00Z</time>
      </trkpt>
      <trkpt lat="34.15142" lon="77.00842">
        <ele>4837</ele>
        <time>2015-08-29T06:48:11Z</time>
      </trkpt>
      <trkpt lat="34.15143" lon="77.00845">
        <ele>4838</ele>
        <time>2015-08-29T06:48:35Z</time>
      </trkpt>
      <trkpt lat="34.1514" lon="77.00849">
        <ele>4839</ele>
        <time>2015-08-29T06:48:50Z</time>
      </trkpt>
      <trkpt lat="34.15136" lon="77.0085">
        <ele>4840.2</ele>
        <time>2015-08-29T06:48:58Z</time>
      </trkpt>
      <trkpt lat="34.15136" lon="77.0085">
        <ele>4841.2</ele>
        <time>2015-08-29T06:49:06Z</time>
      </trkpt>
      <trkpt lat="34.15132" lon="77.00853">
        <ele>4842.2</ele>
        <time>2015-08-29T06:49:18Z</time>
      </trkpt>
      <trkpt lat="34.15126" lon="77.00854">
        <ele>4843.4</ele>
        <time>2015-08-29T06:49:28Z</time>
      </trkpt>
      <trkpt lat="34.15123" lon="77.00856">
        <ele>4844.6</ele>
        <time>2015-08-29T06:49:35Z</time>
      </trkpt>
      <trkpt lat="34.1512" lon="77.00858">
        <ele>4845.6</ele>
        <time>2015-08-29T06:49:43Z</time>
      </trkpt>
      <trkpt lat="34.15121" lon="77.00863">
        <ele>4846.6</ele>
        <time>2015-08-29T06:50:02Z</time>
      </trkpt>
      <trkpt lat="34.15122" lon="77.00864">
        <ele>4847.8</ele>
        <time>2015-08-29T06:50:08Z</time>
      </trkpt>
      <trkpt lat="34.15124" lon="77.00866">
        <ele>4848.8</ele>
        <time>2015-08-29T06:50:18Z</time>
      </trkpt>
      <trkpt lat="34.15119" lon="77.00867">
        <ele>4849.8</ele>
        <time>2015-08-29T06:51:11Z</time>
      </trkpt>
      <trkpt lat="34.15116" lon="77.0087">
        <ele>4851.2</ele>
        <time>2015-08-29T06:51:17Z</time>
      </trkpt>
      <trkpt lat="34.15115" lon="77.00871">
        <ele>4852.4</ele>
        <time>2015-08-29T06:51:31Z</time>
      </trkpt>
      <trkpt lat="34.15115" lon="77.00872">
        <ele>4853.4</ele>
        <time>2015-08-29T06:51:41Z</time>
      </trkpt>
      <trkpt lat="34.15108" lon="77.00875">
        <ele>4854.6</ele>
        <time>2015-08-29T06:52:10Z</time>
      </trkpt>
      <trkpt lat="34.1511" lon="77.0088">
        <ele>4855.6</ele>
        <time>2015-08-29T06:52:26Z</time>
      </trkpt>
      <trkpt lat="34.15106" lon="77.00882">
        <ele>4856.6</ele>
        <time>2015-08-29T06:52:36Z</time>
      </trkpt>
      <trkpt lat="34.15105" lon="77.00882">
        <ele>4856.8</ele>
        <time>2015-08-29T06:52:37Z</time>
      </trkpt>
      <trkpt lat="34.15103" lon="77.00883">
        <ele>4857.8</ele>
        <time>2015-08-29T06:52:43Z</time>
      </trkpt>
      <trkpt lat="34.15103" lon="77.00883">
        <ele>4859.2</ele>
        <time>2015-08-29T06:52:48Z</time>
      </trkpt>
      <trkpt lat="34.15098" lon="77.00885">
        <ele>4860.2</ele>
        <time>2015-08-29T06:53:03Z</time>
      </trkpt>
      <trkpt lat="34.15097" lon="77.00886">
        <ele>4861</ele>
        <time>2015-08-29T06:53:24Z</time>
      </trkpt>
      <trkpt lat="34.15097" lon="77.00887">
        <ele>4861.2</ele>
        <time>2015-08-29T06:53:25Z</time>
      </trkpt>
      <trkpt lat="34.15096" lon="77.00885">
        <ele>4860.8</ele>
        <time>2015-08-29T06:53:40Z</time>
      </trkpt>
      <trkpt lat="34.15093" lon="77.00886">
        <ele>4862.2</ele>
        <time>2015-08-29T06:53:44Z</time>
      </trkpt>
      <trkpt lat="34.15088" lon="77.00891">
        <ele>4863.2</ele>
        <time>2015-08-29T06:53:59Z</time>
      </trkpt>
      <trkpt lat="34.15084" lon="77.00892">
        <ele>4863.8</ele>
        <time>2015-08-29T06:54:02Z</time>
      </trkpt>
      <trkpt lat="34.15083" lon="77.00893">
        <ele>4864.4</ele>
        <time>2015-08-29T06:54:05Z</time>
      </trkpt>
      <trkpt lat="34.15086" lon="77.00899">
        <ele>4865.4</ele>
        <time>2015-08-29T06:54:16Z</time>
      </trkpt>
      <trkpt lat="34.15087" lon="77.009">
        <ele>4865.4</ele>
        <time>2015-08-29T06:54:17Z</time>
      </trkpt>
      <trkpt lat="34.15086" lon="77.00904">
        <ele>4866.6</ele>
        <time>2015-08-29T06:54:25Z</time>
      </trkpt>
      <trkpt lat="34.15085" lon="77.00905">
        <ele>4867.6</ele>
        <time>2015-08-29T06:54:32Z</time>
      </trkpt>
      <trkpt lat="34.15086" lon="77.00906">
        <ele>4866.6</ele>
        <time>2015-08-29T06:54:41Z</time>
      </trkpt>
      <trkpt lat="34.15093" lon="77.00906">
        <ele>4867.6</ele>
        <time>2015-08-29T06:54:51Z</time>
      </trkpt>
      <trkpt lat="34.15096" lon="77.00906">
        <ele>4867.8</ele>
        <time>2015-08-29T06:55:00Z</time>
      </trkpt>
      <trkpt lat="34.15097" lon="77.00907">
        <ele>4869</ele>
        <time>2015-08-29T06:55:03Z</time>
      </trkpt>
      <trkpt lat="34.15101" lon="77.00911">
        <ele>4870</ele>
        <time>2015-08-29T06:55:18Z</time>
      </trkpt>
      <trkpt lat="34.15102" lon="77.00913">
        <ele>4871.2</ele>
        <time>2015-08-29T06:55:28Z</time>
      </trkpt>
      <trkpt lat="34.15105" lon="77.00915">
        <ele>4872.4</ele>
        <time>2015-08-29T06:55:37Z</time>
      </trkpt>
      <trkpt lat="34.15106" lon="77.00916">
        <ele>4873.4</ele>
        <time>2015-08-29T06:55:42Z</time>
      </trkpt>
      <trkpt lat="34.1511" lon="77.00915">
        <ele>4873.2</ele>
        <time>2015-08-29T06:55:59Z</time>
      </trkpt>
      <trkpt lat="34.15104" lon="77.00914">
        <ele>4872.4</ele>
        <time>2015-08-29T06:56:02Z</time>
      </trkpt>
      <trkpt lat="34.15108" lon="77.00915">
        <ele>4872</ele>
        <time>2015-08-29T06:56:08Z</time>
      </trkpt>
      <trkpt lat="34.15111" lon="77.00916">
        <ele>4873.2</ele>
        <time>2015-08-29T06:56:12Z</time>
      </trkpt>
      <trkpt lat="34.15112" lon="77.00917">
        <ele>4873.6</ele>
        <time>2015-08-29T06:56:13Z</time>
      </trkpt>
      <trkpt lat="34.15114" lon="77.00918">
        <ele>4874.6</ele>
        <time>2015-08-29T06:56:17Z</time>
      </trkpt>
      <trkpt lat="34.15117" lon="77.00921">
        <ele>4875.8</ele>
        <time>2015-08-29T06:56:26Z</time>
      </trkpt>
      <trkpt lat="34.15117" lon="77.00922">
        <ele>4877</ele>
        <time>2015-08-29T06:56:29Z</time>
      </trkpt>
      <trkpt lat="34.15121" lon="77.00924">
        <ele>4878.2</ele>
        <time>2015-08-29T06:56:46Z</time>
      </trkpt>
      <trkpt lat="34.15122" lon="77.00925">
        <ele>4879.2</ele>
        <time>2015-08-29T06:56:49Z</time>
      </trkpt>
      <trkpt lat="34.15125" lon="77.00929">
        <ele>4880.4</ele>
        <time>2015-08-29T06:57:03Z</time>
      </trkpt>
      <trkpt lat="34.15125" lon="77.00929">
        <ele>4881.4</ele>
        <time>2015-08-29T06:57:06Z</time>
      </trkpt>
      <trkpt lat="34.15124" lon="77.00931">
        <ele>4882.2</ele>
        <time>2015-08-29T06:57:09Z</time>
      </trkpt>
      <trkpt lat="34.15123" lon="77.00932">
        <ele>4882.4</ele>
        <time>2015-08-29T06:57:11Z</time>
      </trkpt>
      <trkpt lat="34.15123" lon="77.00936">
        <ele>4883.6</ele>
        <time>2015-08-29T06:57:16Z</time>
      </trkpt>
      <trkpt lat="34.1512" lon="77.00938">
        <ele>4884.8</ele>
        <time>2015-08-29T06:57:20Z</time>
      </trkpt>
      <trkpt lat="34.15119" lon="77.0094">
        <ele>4886</ele>
        <time>2015-08-29T06:57:35Z</time>
      </trkpt>
      <trkpt lat="34.15123" lon="77.0094">
        <ele>4887</ele>
        <time>2015-08-29T06:57:49Z</time>
      </trkpt>
      <trkpt lat="34.15115" lon="77.00948">
        <ele>4888.2</ele>
        <time>2015-08-29T06:58:07Z</time>
      </trkpt>
      <trkpt lat="34.15124" lon="77.00958">
        <ele>4889</ele>
        <time>2015-08-29T06:58:17Z</time>
      </trkpt>
      <trkpt lat="34.15126" lon="77.0096">
        <ele>4889.2</ele>
        <time>2015-08-29T06:58:22Z</time>
      </trkpt>
      <trkpt lat="34.15125" lon="77.00963">
        <ele>4890.4</ele>
        <time>2015-08-29T06:58:27Z</time>
      </trkpt>
      <trkpt lat="34.15127" lon="77.00967">
        <ele>4891.4</ele>
        <time>2015-08-29T06:58:31Z</time>
      </trkpt>
      <trkpt lat="34.15129" lon="77.0097">
        <ele>4892</ele>
        <time>2015-08-29T06:58:35Z</time>
      </trkpt>
      <trkpt lat="34.1513" lon="77.00976">
        <ele>4892</ele>
        <time>2015-08-29T06:58:43Z</time>
      </trkpt>
      <trkpt lat="34.15129" lon="77.0098">
        <ele>4892.6</ele>
        <time>2015-08-29T06:58:46Z</time>
      </trkpt>
      <trkpt lat="34.15129" lon="77.00983">
        <ele>4892.8</ele>
        <time>2015-08-29T06:58:49Z</time>
      </trkpt>
      <trkpt lat="34.15127" lon="77.00988">
        <ele>4891.4</ele>
        <time>2015-08-29T06:59:18Z</time>
      </trkpt>
      <trkpt lat="34.15122" lon="77.0099">
        <ele>4891.8</ele>
        <time>2015-08-29T06:59:36Z</time>
      </trkpt>
      <trkpt lat="34.15123" lon="77.00985">
        <ele>4892.6</ele>
        <time>2015-08-29T06:59:54Z</time>
      </trkpt>
      <trkpt lat="34.15119" lon="77.00989">
        <ele>4893</ele>
        <time>2015-08-29T06:59:57Z</time>
      </trkpt>
      <trkpt lat="34.15115" lon="77.00986">
        <ele>4892.8</ele>
        <time>2015-08-29T07:00:00Z</time>
      </trkpt>
      <trkpt lat="34.15122" lon="77.00987">
        <ele>4892.8</ele>
        <time>2015-08-29T07:00:13Z</time>
      </trkpt>
      <trkpt lat="34.1512" lon="77.00991">
        <ele>4892.6</ele>
        <time>2015-08-29T07:00:27Z</time>
      </trkpt>
      <trkpt lat="34.15119" lon="77.00993">
        <ele>4892.4</ele>
        <time>2015-08-29T07:00:29Z</time>
      </trkpt>
      <trkpt lat="34.15121" lon="77.00987">
        <ele>4893.2</ele>
        <time>2015-08-29T07:00:35Z</time>
      </trkpt>
      <trkpt lat="34.15124" lon="77.00983">
        <ele>4893.6</ele>
        <time>2015-08-29T07:00:44Z</time>
      </trkpt>
      <trkpt lat="34.15116" lon="77.00983">
        <ele>4894.6</ele>
        <time>2015-08-29T07:00:51Z</time>
      </trkpt>
      <trkpt lat="34.15113" lon="77.00983">
        <ele>4896</ele>
        <time>2015-08-29T07:00:53Z</time>
      </trkpt>
      <trkpt lat="34.1511" lon="77.00983">
        <ele>4897.2</ele>
        <time>2015-08-29T07:00:55Z</time>
      </trkpt>
      <trkpt lat="34.15108" lon="77.00983">
        <ele>4898.4</ele>
        <time>2015-08-29T07:00:57Z</time>
      </trkpt>
      <trkpt lat="34.15105" lon="77.00983">
        <ele>4899.8</ele>
        <time>2015-08-29T07:01:00Z</time>
      </trkpt>
      <trkpt lat="34.15105" lon="77.00982">
        <ele>4900.8</ele>
        <time>2015-08-29T07:01:02Z</time>
      </trkpt>
      <trkpt lat="34.15104" lon="77.00977">
        <ele>4899.6</ele>
        <time>2015-08-29T07:01:12Z</time>
      </trkpt>
      <trkpt lat="34.15095" lon="77.00975">
        <ele>4899.4</ele>
        <time>2015-08-29T07:01:39Z</time>
      </trkpt>
      <trkpt lat="34.15097" lon="77.00975">
        <ele>4900.8</ele>
        <time>2015-08-29T07:01:42Z</time>
      </trkpt>
      <trkpt lat="34.15098" lon="77.00974">
        <ele>4899.6</ele>
        <time>2015-08-29T07:01:54Z</time>
      </trkpt>
      <trkpt lat="34.15099" lon="77.00974">
        <ele>4898.6</ele>
        <time>2015-08-29T07:01:57Z</time>
      </trkpt>
      <trkpt lat="34.15102" lon="77.00978">
        <ele>4898.6</ele>
        <time>2015-08-29T07:02:01Z</time>
      </trkpt>
      <trkpt lat="34.15103" lon="77.00981">
        <ele>4899</ele>
        <time>2015-08-29T07:02:04Z</time>
      </trkpt>
      <trkpt lat="34.15105" lon="77.00985">
        <ele>4898.2</ele>
        <time>2015-08-29T07:02:11Z</time>
      </trkpt>
      <trkpt lat="34.15105" lon="77.00986">
        <ele>4897.6</ele>
        <time>2015-08-29T07:02:16Z</time>
      </trkpt>
      <trkpt lat="34.15107" lon="77.0099">
        <ele>4896.4</ele>
        <time>2015-08-29T07:02:26Z</time>
      </trkpt>
      <trkpt lat="34.15106" lon="77.0099">
        <ele>4895.2</ele>
        <time>2015-08-29T07:02:29Z</time>
      </trkpt>
      <trkpt lat="34.15108" lon="77.00993">
        <ele>4894.2</ele>
        <time>2015-08-29T07:02:35Z</time>
      </trkpt>
      <trkpt lat="34.15112" lon="77.00993">
        <ele>4894.2</ele>
        <time>2015-08-29T07:02:36Z</time>
      </trkpt>
      <trkpt lat="34.15114" lon="77.00994">
        <ele>4894</ele>
        <time>2015-08-29T07:02:38Z</time>
      </trkpt>
      <trkpt lat="34.15114" lon="77.00999">
        <ele>4893.2</ele>
        <time>2015-08-29T07:02:48Z</time>
      </trkpt>
      <trkpt lat="34.15114" lon="77.01">
        <ele>4893</ele>
        <time>2015-08-29T07:02:50Z</time>
      </trkpt>
      <trkpt lat="34.15118" lon="77.01002">
        <ele>4893</ele>
        <time>2015-08-29T07:02:53Z</time>
      </trkpt>
      <trkpt lat="34.15117" lon="77.00993">
        <ele>4894.2</ele>
        <time>2015-08-29T07:03:40Z</time>
      </trkpt>
      <trkpt lat="34.1512" lon="77.00993">
        <ele>4894.2</ele>
        <time>2015-08-29T07:04:25Z</time>
      </trkpt>
      <trkpt lat="34.15115" lon="77.00996">
        <ele>4895.2</ele>
        <time>2015-08-29T07:05:03Z</time>
      </trkpt>
      <trkpt lat="34.15117" lon="77.00996">
        <ele>4894.4</ele>
        <time>2015-08-29T07:05:07Z</time>
      </trkpt>
      <trkpt lat="34.15117" lon="77.00996">
        <ele>4894.2</ele>
        <time>2015-08-29T07:05:08Z</time>
      </trkpt>
      <trkpt lat="34.15117" lon="77.00996">
        <ele>4895.2</ele>
        <time>2015-08-29T07:05:15Z</time>
      </trkpt>
      <trkpt lat="34.15119" lon="77.00993">
        <ele>4896.2</ele>
        <time>2015-08-29T07:05:44Z</time>
      </trkpt>
      <trkpt lat="34.1512" lon="77.00996">
        <ele>4896.8</ele>
        <time>2015-08-29T07:05:50Z</time>
      </trkpt>
      <trkpt lat="34.15119" lon="77.00995">
        <ele>4897.2</ele>
        <time>2015-08-29T07:05:57Z</time>
      </trkpt>
      <trkpt lat="34.15116" lon="77.00997">
        <ele>4896</ele>
        <time>2015-08-29T07:06:18Z</time>
      </trkpt>
      <trkpt lat="34.15116" lon="77.00995">
        <ele>4895</ele>
        <time>2015-08-29T07:06:55Z</time>
      </trkpt>
      <trkpt lat="34.15116" lon="77.00988">
        <ele>4894.2</ele>
        <time>2015-08-29T07:07:05Z</time>
      </trkpt>
      <trkpt lat="34.15107" lon="77.01">
        <ele>4894.2</ele>
        <time>2015-08-29T07:07:11Z</time>
      </trkpt>
      <trkpt lat="34.15107" lon="77.01001">
        <ele>4894</ele>
        <time>2015-08-29T07:07:13Z</time>
      </trkpt>
      <trkpt lat="34.15108" lon="77.01003">
        <ele>4893.8</ele>
        <time>2015-08-29T07:07:14Z</time>
      </trkpt>
      <trkpt lat="34.15099" lon="77.01001">
        <ele>4894.4</ele>
        <time>2015-08-29T07:07:36Z</time>
      </trkpt>
      <trkpt lat="34.15098" lon="77.01">
        <ele>4894.8</ele>
        <time>2015-08-29T07:07:39Z</time>
      </trkpt>
      <trkpt lat="34.15091" lon="77.01006">
        <ele>4893.8</ele>
        <time>2015-08-29T07:07:52Z</time>
      </trkpt>
      <trkpt lat="34.15083" lon="77.01006">
        <ele>4892.8</ele>
        <time>2015-08-29T07:08:14Z</time>
      </trkpt>
      <trkpt lat="34.15083" lon="77.01011">
        <ele>4891.8</ele>
        <time>2015-08-29T07:08:26Z</time>
      </trkpt>
      <trkpt lat="34.15087" lon="77.0101">
        <ele>4890.8</ele>
        <time>2015-08-29T07:08:49Z</time>
      </trkpt>
      <trkpt lat="34.15088" lon="77.01006">
        <ele>4890.6</ele>
        <time>2015-08-29T07:09:06Z</time>
      </trkpt>
      <trkpt lat="34.15078" lon="77.0101">
        <ele>4889.6</ele>
        <time>2015-08-29T07:09:32Z</time>
      </trkpt>
      <trkpt lat="34.15077" lon="77.01012">
        <ele>4889.4</ele>
        <time>2015-08-29T07:09:34Z</time>
      </trkpt>
      <trkpt lat="34.15072" lon="77.01019">
        <ele>4888.6</ele>
        <time>2015-08-29T07:09:46Z</time>
      </trkpt>
      <trkpt lat="34.15069" lon="77.01024">
        <ele>4888.2</ele>
        <time>2015-08-29T07:09:51Z</time>
      </trkpt>
      <trkpt lat="34.1507" lon="77.01027">
        <ele>4887.6</ele>
        <time>2015-08-29T07:09:56Z</time>
      </trkpt>
      <trkpt lat="34.1507" lon="77.01031">
        <ele>4886.4</ele>
        <time>2015-08-29T07:10:03Z</time>
      </trkpt>
      <trkpt lat="34.15067" lon="77.0103">
        <ele>4885.4</ele>
        <time>2015-08-29T07:10:09Z</time>
      </trkpt>
      <trkpt lat="34.15064" lon="77.0103">
        <ele>4885</ele>
        <time>2015-08-29T07:10:14Z</time>
      </trkpt>
      <trkpt lat="34.15052" lon="77.01043">
        <ele>4885.4</ele>
        <time>2015-08-29T07:10:18Z</time>
      </trkpt>
      <trkpt lat="34.15056" lon="77.01041">
        <ele>4884.4</ele>
        <time>2015-08-29T07:10:35Z</time>
      </trkpt>
      <trkpt lat="34.15056" lon="77.01042">
        <ele>4883.4</ele>
        <time>2015-08-29T07:10:56Z</time>
      </trkpt>
      <trkpt lat="34.15049" lon="77.01052">
        <ele>4882.4</ele>
        <time>2015-08-29T07:11:06Z</time>
      </trkpt>
      <trkpt lat="34.15047" lon="77.01058">
        <ele>4881.4</ele>
        <time>2015-08-29T07:11:11Z</time>
      </trkpt>
      <trkpt lat="34.15046" lon="77.01059">
        <ele>4881.2</ele>
        <time>2015-08-29T07:11:13Z</time>
      </trkpt>
      <trkpt lat="34.15046" lon="77.01061">
        <ele>4880.2</ele>
        <time>2015-08-29T07:11:23Z</time>
      </trkpt>
      <trkpt lat="34.15045" lon="77.01061">
        <ele>4879</ele>
        <time>2015-08-29T07:11:36Z</time>
      </trkpt>
      <trkpt lat="34.15046" lon="77.0106">
        <ele>4878</ele>
        <time>2015-08-29T07:11:43Z</time>
      </trkpt>
      <trkpt lat="34.15043" lon="77.0106">
        <ele>4876.8</ele>
        <time>2015-08-29T07:11:53Z</time>
      </trkpt>
      <trkpt lat="34.15033" lon="77.01072">
        <ele>4875.8</ele>
        <time>2015-08-29T07:12:07Z</time>
      </trkpt>
      <trkpt lat="34.1503" lon="77.01075">
        <ele>4875.2</ele>
        <time>2015-08-29T07:12:10Z</time>
      </trkpt>
      <trkpt lat="34.1503" lon="77.01076">
        <ele>4874.2</ele>
        <time>2015-08-29T07:12:12Z</time>
      </trkpt>
      <trkpt lat="34.1503" lon="77.01079">
        <ele>4873</ele>
        <time>2015-08-29T07:12:15Z</time>
      </trkpt>
      <trkpt lat="34.15026" lon="77.01087">
        <ele>4872.2</ele>
        <time>2015-08-29T07:12:22Z</time>
      </trkpt>
      <trkpt lat="34.15026" lon="77.01089">
        <ele>4872</ele>
        <time>2015-08-29T07:12:24Z</time>
      </trkpt>
      <trkpt lat="34.15022" lon="77.011">
        <ele>4871</ele>
        <time>2015-08-29T07:12:33Z</time>
      </trkpt>
      <trkpt lat="34.15022" lon="77.01107">
        <ele>4869.8</ele>
        <time>2015-08-29T07:12:40Z</time>
      </trkpt>
      <trkpt lat="34.15012" lon="77.01127">
        <ele>4868.8</ele>
        <time>2015-08-29T07:12:56Z</time>
      </trkpt>
      <trkpt lat="34.15002" lon="77.01141">
        <ele>4867.8</ele>
        <time>2015-08-29T07:13:11Z</time>
      </trkpt>
      <trkpt lat="34.14994" lon="77.01161">
        <ele>4867.8</ele>
        <time>2015-08-29T07:13:34Z</time>
      </trkpt>
      <trkpt lat="34.14992" lon="77.01165">
        <ele>4868.2</ele>
        <time>2015-08-29T07:13:40Z</time>
      </trkpt>
      <trkpt lat="34.14992" lon="77.01175">
        <ele>4866.4</ele>
        <time>2015-08-29T07:13:50Z</time>
      </trkpt>
      <trkpt lat="34.1499" lon="77.01179">
        <ele>4865.2</ele>
        <time>2015-08-29T07:13:53Z</time>
      </trkpt>
      <trkpt lat="34.14988" lon="77.01184">
        <ele>4864.8</ele>
        <time>2015-08-29T07:13:56Z</time>
      </trkpt>
      <trkpt lat="34.14982" lon="77.01189">
        <ele>4864.8</ele>
        <time>2015-08-29T07:14:02Z</time>
      </trkpt>
      <trkpt lat="34.14982" lon="77.01203">
        <ele>4864.2</ele>
        <time>2015-08-29T07:14:14Z</time>
      </trkpt>
      <trkpt lat="34.14968" lon="77.01216">
        <ele>4863.2</ele>
        <time>2015-08-29T07:14:33Z</time>
      </trkpt>
      <trkpt lat="34.14972" lon="77.01221">
        <ele>4862</ele>
        <time>2015-08-29T07:14:40Z</time>
      </trkpt>
      <trkpt lat="34.1497" lon="77.01223">
        <ele>4862.2</ele>
        <time>2015-08-29T07:15:36Z</time>
      </trkpt>
      <trkpt lat="34.1497" lon="77.01223">
        <ele>4863</ele>
        <time>2015-08-29T07:15:39Z</time>
      </trkpt>
      <trkpt lat="34.14955" lon="77.01225">
        <ele>4862.8</ele>
        <time>2015-08-29T07:16:11Z</time>
      </trkpt>
      <trkpt lat="34.14949" lon="77.01218">
        <ele>4862</ele>
        <time>2015-08-29T07:16:37Z</time>
      </trkpt>
      <trkpt lat="34.14949" lon="77.01217">
        <ele>4863.2</ele>
        <time>2015-08-29T07:16:43Z</time>
      </trkpt>
      <trkpt lat="34.1495" lon="77.01219">
        <ele>4863.6</ele>
        <time>2015-08-29T07:16:54Z</time>
      </trkpt>
      <trkpt lat="34.14951" lon="77.01219">
        <ele>4863.6</ele>
        <time>2015-08-29T07:16:55Z</time>
      </trkpt>
      <trkpt lat="34.14951" lon="77.01214">
        <ele>4863</ele>
        <time>2015-08-29T07:17:00Z</time>
      </trkpt>
      <trkpt lat="34.14951" lon="77.01219">
        <ele>4863.4</ele>
        <time>2015-08-29T07:17:28Z</time>
      </trkpt>
      <trkpt lat="34.14951" lon="77.01215">
        <ele>4862.8</ele>
        <time>2015-08-29T07:17:37Z</time>
      </trkpt>
      <trkpt lat="34.14947" lon="77.01216">
        <ele>4862.6</ele>
        <time>2015-08-29T07:18:17Z</time>
      </trkpt>
      <trkpt lat="34.14949" lon="77.01214">
        <ele>4864.4</ele>
        <time>2015-08-29T07:18:59Z</time>
      </trkpt>
      <trkpt lat="34.14949" lon="77.01214">
        <ele>4863.2</ele>
        <time>2015-08-29T07:19:07Z</time>
      </trkpt>
      <trkpt lat="34.1495" lon="77.01214">
        <ele>4864.2</ele>
        <time>2015-08-29T07:19:20Z</time>
      </trkpt>
      <trkpt lat="34.14953" lon="77.01212">
        <ele>4863.2</ele>
        <time>2015-08-29T07:20:07Z</time>
      </trkpt>
      <trkpt lat="34.14951" lon="77.01217">
        <ele>4863.8</ele>
        <time>2015-08-29T07:20:34Z</time>
      </trkpt>
      <trkpt lat="34.14954" lon="77.0121">
        <ele>4864.2</ele>
        <time>2015-08-29T07:20:50Z</time>
      </trkpt>
      <trkpt lat="34.14956" lon="77.01206">
        <ele>4865.4</ele>
        <time>2015-08-29T07:21:02Z</time>
      </trkpt>
      <trkpt lat="34.14952" lon="77.01218">
        <ele>4864.6</ele>
        <time>2015-08-29T07:21:32Z</time>
      </trkpt>
      <trkpt lat="34.14951" lon="77.01218">
        <ele>4864.4</ele>
        <time>2015-08-29T07:21:33Z</time>
      </trkpt>
      <trkpt lat="34.14951" lon="77.01218">
        <ele>4863.6</ele>
        <time>2015-08-29T07:21:42Z</time>
      </trkpt>
      <trkpt lat="34.14952" lon="77.01214">
        <ele>4865.4</ele>
        <time>2015-08-29T07:22:15Z</time>
      </trkpt>
      <trkpt lat="34.14952" lon="77.01214">
        <ele>4866.6</ele>
        <time>2015-08-29T07:22:17Z</time>
      </trkpt>
      <trkpt lat="34.14954" lon="77.01212">
        <ele>4865.2</ele>
        <time>2015-08-29T07:22:23Z</time>
      </trkpt>
      <trkpt lat="34.14952" lon="77.01214">
        <ele>4864</ele>
        <time>2015-08-29T07:22:28Z</time>
      </trkpt>
      <trkpt lat="34.14946" lon="77.01221">
        <ele>4863.6</ele>
        <time>2015-08-29T07:22:35Z</time>
      </trkpt>
      <trkpt lat="34.14954" lon="77.01208">
        <ele>4864</ele>
        <time>2015-08-29T07:22:48Z</time>
      </trkpt>
      <trkpt lat="34.14955" lon="77.01207">
        <ele>4864.2</ele>
        <time>2015-08-29T07:22:50Z</time>
      </trkpt>
      <trkpt lat="34.14951" lon="77.01219">
        <ele>4865.2</ele>
        <time>2015-08-29T07:23:35Z</time>
      </trkpt>
      <trkpt lat="34.14953" lon="77.01213">
        <ele>4865</ele>
        <time>2015-08-29T07:24:27Z</time>
      </trkpt>
      <trkpt lat="34.14951" lon="77.01213">
        <ele>4866.2</ele>
        <time>2015-08-29T07:24:38Z</time>
      </trkpt>
      <trkpt lat="34.14946" lon="77.01219">
        <ele>4867.2</ele>
        <time>2015-08-29T07:24:50Z</time>
      </trkpt>
      <trkpt lat="34.14961" lon="77.01209">
        <ele>4866.4</ele>
        <time>2015-08-29T07:25:26Z</time>
      </trkpt>
      <trkpt lat="34.14961" lon="77.01208">
        <ele>4866.2</ele>
        <time>2015-08-29T07:25:28Z</time>
      </trkpt>
      <trkpt lat="34.14965" lon="77.01199">
        <ele>4866</ele>
        <time>2015-08-29T07:25:40Z</time>
      </trkpt>
      <trkpt lat="34.14961" lon="77.01205">
        <ele>4866</ele>
        <time>2015-08-29T07:25:42Z</time>
      </trkpt>
      <trkpt lat="34.14955" lon="77.01212">
        <ele>4865.4</ele>
        <time>2015-08-29T07:25:46Z</time>
      </trkpt>
      <trkpt lat="34.14952" lon="77.01213">
        <ele>4865.2</ele>
        <time>2015-08-29T07:25:49Z</time>
      </trkpt>
      <trkpt lat="34.14952" lon="77.01212">
        <ele>4865</ele>
        <time>2015-08-29T07:25:50Z</time>
      </trkpt>
      <trkpt lat="34.14951" lon="77.0121">
        <ele>4866.2</ele>
        <time>2015-08-29T07:26:26Z</time>
      </trkpt>
      <trkpt lat="34.14952" lon="77.0121">
        <ele>4865.8</ele>
        <time>2015-08-29T07:26:46Z</time>
      </trkpt>
      <trkpt lat="34.14953" lon="77.01209">
        <ele>4865.6</ele>
        <time>2015-08-29T07:26:48Z</time>
      </trkpt>
      <trkpt lat="34.14956" lon="77.01207">
        <ele>4865.4</ele>
        <time>2015-08-29T07:26:51Z</time>
      </trkpt>
      <trkpt lat="34.14953" lon="77.01212">
        <ele>4865.2</ele>
        <time>2015-08-29T07:27:13Z</time>
      </trkpt>
      <trkpt lat="34.14951" lon="77.01214">
        <ele>4866.4</ele>
        <time>2015-08-29T07:27:38Z</time>
      </trkpt>
      <trkpt lat="34.14951" lon="77.01214">
        <ele>4865.4</ele>
        <time>2015-08-29T07:27:51Z</time>
      </trkpt>
      <trkpt lat="34.14952" lon="77.01214">
        <ele>4866.4</ele>
        <time>2015-08-29T07:28:26Z</time>
      </trkpt>
      <trkpt lat="34.14954" lon="77.01209">
        <ele>4867.6</ele>
        <time>2015-08-29T07:28:54Z</time>
      </trkpt>
      <trkpt lat="34.14955" lon="77.01212">
        <ele>4866.6</ele>
        <time>2015-08-29T07:29:41Z</time>
      </trkpt>
      <trkpt lat="34.14951" lon="77.01219">
        <ele>4867.6</ele>
        <time>2015-08-29T07:29:58Z</time>
      </trkpt>
      <trkpt lat="34.14951" lon="77.01215">
        <ele>4868.8</ele>
        <time>2015-08-29T07:30:15Z</time>
      </trkpt>
      <trkpt lat="34.1495" lon="77.01215">
        <ele>4869.8</ele>
        <time>2015-08-29T07:30:28Z</time>
      </trkpt>
      <trkpt lat="34.1495" lon="77.01212">
        <ele>4868.4</ele>
        <time>2015-08-29T07:30:36Z</time>
      </trkpt>
      <trkpt lat="34.14953" lon="77.01209">
        <ele>4867.6</ele>
        <time>2015-08-29T07:30:54Z</time>
      </trkpt>
      <trkpt lat="34.1495" lon="77.01214">
        <ele>4867.2</ele>
        <time>2015-08-29T07:31:19Z</time>
      </trkpt>
      <trkpt lat="34.14949" lon="77.01216">
        <ele>4866.2</ele>
        <time>2015-08-29T07:31:23Z</time>
      </trkpt>
      <trkpt lat="34.14951" lon="77.01213">
        <ele>4867.2</ele>
        <time>2015-08-29T07:31:57Z</time>
      </trkpt>
      <trkpt lat="34.14951" lon="77.01214">
        <ele>4867.6</ele>
        <time>2015-08-29T07:32:03Z</time>
      </trkpt>
      <trkpt lat="34.14951" lon="77.01212">
        <ele>4867.4</ele>
        <time>2015-08-29T07:32:31Z</time>
      </trkpt>
      <trkpt lat="34.1495" lon="77.01215">
        <ele>4866.2</ele>
        <time>2015-08-29T07:33:02Z</time>
      </trkpt>
      <trkpt lat="34.14953" lon="77.01212">
        <ele>4866.6</ele>
        <time>2015-08-29T07:33:11Z</time>
      </trkpt>
      <trkpt lat="34.14953" lon="77.01208">
        <ele>4866.6</ele>
        <time>2015-08-29T07:33:21Z</time>
      </trkpt>
      <trkpt lat="34.14951" lon="77.01217">
        <ele>4867.2</ele>
        <time>2015-08-29T07:33:44Z</time>
      </trkpt>
      <trkpt lat="34.14957" lon="77.01213">
        <ele>4867.4</ele>
        <time>2015-08-29T07:33:49Z</time>
      </trkpt>
      <trkpt lat="34.14959" lon="77.01211">
        <ele>4867.6</ele>
        <time>2015-08-29T07:33:52Z</time>
      </trkpt>
      <trkpt lat="34.14958" lon="77.0121">
        <ele>4867.4</ele>
        <time>2015-08-29T07:33:58Z</time>
      </trkpt>
      <trkpt lat="34.14952" lon="77.01213">
        <ele>4868.4</ele>
        <time>2015-08-29T07:34:25Z</time>
      </trkpt>
      <trkpt lat="34.14952" lon="77.01215">
        <ele>4867.2</ele>
        <time>2015-08-29T07:34:33Z</time>
      </trkpt>
      <trkpt lat="34.14952" lon="77.01212">
        <ele>4866.2</ele>
        <time>2015-08-29T07:34:51Z</time>
      </trkpt>
      <trkpt lat="34.1495" lon="77.01213">
        <ele>4867.2</ele>
        <time>2015-08-29T07:35:03Z</time>
      </trkpt>
      <trkpt lat="34.14952" lon="77.01213">
        <ele>4868.4</ele>
        <time>2015-08-29T07:35:16Z</time>
      </trkpt>
      <trkpt lat="34.14953" lon="77.01211">
        <ele>4867.4</ele>
        <time>2015-08-29T07:35:29Z</time>
      </trkpt>
      <trkpt lat="34.14953" lon="77.0121">
        <ele>4868.4</ele>
        <time>2015-08-29T07:35:37Z</time>
      </trkpt>
      <trkpt lat="34.1495" lon="77.01214">
        <ele>4867.4</ele>
        <time>2015-08-29T07:36:19Z</time>
      </trkpt>
      <trkpt lat="34.14954" lon="77.01213">
        <ele>4867.6</ele>
        <time>2015-08-29T07:36:32Z</time>
      </trkpt>
      <trkpt lat="34.14954" lon="77.01219">
        <ele>4868.2</ele>
        <time>2015-08-29T07:36:37Z</time>
      </trkpt>
      <trkpt lat="34.14951" lon="77.01217">
        <ele>4867.2</ele>
        <time>2015-08-29T07:36:51Z</time>
      </trkpt>
      <trkpt lat="34.14946" lon="77.01212">
        <ele>4868</ele>
        <time>2015-08-29T07:37:00Z</time>
      </trkpt>
      <trkpt lat="34.14947" lon="77.01215">
        <ele>4868</ele>
        <time>2015-08-29T07:37:02Z</time>
      </trkpt>
      <trkpt lat="34.14946" lon="77.01218">
        <ele>4868.2</ele>
        <time>2015-08-29T07:37:04Z</time>
      </trkpt>
      <trkpt lat="34.14944" lon="77.01219">
        <ele>4866.4</ele>
        <time>2015-08-29T07:37:13Z</time>
      </trkpt>
      <trkpt lat="34.14944" lon="77.01219">
        <ele>4866</ele>
        <time>2015-08-29T07:37:14Z</time>
      </trkpt>
      <trkpt lat="34.14945" lon="77.01218">
        <ele>4865</ele>
        <time>2015-08-29T07:37:18Z</time>
      </trkpt>
      <trkpt lat="34.14945" lon="77.01215">
        <ele>4866</ele>
        <time>2015-08-29T07:37:31Z</time>
      </trkpt>
      <trkpt lat="34.14941" lon="77.01213">
        <ele>4866</ele>
        <time>2015-08-29T07:37:36Z</time>
      </trkpt>
      <trkpt lat="34.14948" lon="77.01214">
        <ele>4865.8</ele>
        <time>2015-08-29T07:37:42Z</time>
      </trkpt>
      <trkpt lat="34.14953" lon="77.01223">
        <ele>4867.2</ele>
        <time>2015-08-29T07:37:52Z</time>
      </trkpt>
      <trkpt lat="34.1495" lon="77.01225">
        <ele>4868.2</ele>
        <time>2015-08-29T07:38:05Z</time>
      </trkpt>
      <trkpt lat="34.14946" lon="77.01222">
        <ele>4868</ele>
        <time>2015-08-29T07:38:09Z</time>
      </trkpt>
      <trkpt lat="34.14951" lon="77.01223">
        <ele>4867.2</ele>
        <time>2015-08-29T07:38:23Z</time>
      </trkpt>
      <trkpt lat="34.14949" lon="77.01223">
        <ele>4868.2</ele>
        <time>2015-08-29T07:38:49Z</time>
      </trkpt>
      <trkpt lat="34.1495" lon="77.01216">
        <ele>4868.8</ele>
        <time>2015-08-29T07:39:48Z</time>
      </trkpt>
      <trkpt lat="34.14949" lon="77.01214">
        <ele>4867.6</ele>
        <time>2015-08-29T07:40:14Z</time>
      </trkpt>
      <trkpt lat="34.14949" lon="77.01214">
        <ele>4867.2</ele>
        <time>2015-08-29T07:40:21Z</time>
      </trkpt>
      <trkpt lat="34.14946" lon="77.01217">
        <ele>4868.2</ele>
        <time>2015-08-29T07:40:42Z</time>
      </trkpt>
      <trkpt lat="34.14948" lon="77.01216">
        <ele>4867.4</ele>
        <time>2015-08-29T07:41:44Z</time>
      </trkpt>
      <trkpt lat="34.14948" lon="77.01217">
        <ele>4869.4</ele>
        <time>2015-08-29T07:42:11Z</time>
      </trkpt>
      <trkpt lat="34.14948" lon="77.01216">
        <ele>4870.6</ele>
        <time>2015-08-29T07:42:18Z</time>
      </trkpt>
      <trkpt lat="34.14949" lon="77.01215">
        <ele>4869.2</ele>
        <time>2015-08-29T07:42:33Z</time>
      </trkpt>
      <trkpt lat="34.14948" lon="77.01216">
        <ele>4868.2</ele>
        <time>2015-08-29T07:42:44Z</time>
      </trkpt>
      <trkpt lat="34.14948" lon="77.01217">
        <ele>4868.6</ele>
        <time>2015-08-29T07:42:59Z</time>
      </trkpt>
      <trkpt lat="34.14949" lon="77.01217">
        <ele>4869.4</ele>
        <time>2015-08-29T07:43:02Z</time>
      </trkpt>
      <trkpt lat="34.1495" lon="77.01217">
        <ele>4868.2</ele>
        <time>2015-08-29T07:43:23Z</time>
      </trkpt>
      <trkpt lat="34.1495" lon="77.01218">
        <ele>4867.2</ele>
        <time>2015-08-29T07:43:29Z</time>
      </trkpt>
      <trkpt lat="34.1495" lon="77.01218">
        <ele>4868.4</ele>
        <time>2015-08-29T07:43:41Z</time>
      </trkpt>
      <trkpt lat="34.1495" lon="77.01218">
        <ele>4869.8</ele>
        <time>2015-08-29T07:43:45Z</time>
      </trkpt>
      <trkpt lat="34.1495" lon="77.01218">
        <ele>4868.6</ele>
        <time>2015-08-29T07:43:53Z</time>
      </trkpt>
      <trkpt lat="34.1495" lon="77.01217">
        <ele>4867.6</ele>
        <time>2015-08-29T07:44:05Z</time>
      </trkpt>
      <trkpt lat="34.1495" lon="77.01217">
        <ele>4867.6</ele>
        <time>2015-08-29T07:44:08Z</time>
      </trkpt>
      <trkpt lat="34.1495" lon="77.01217">
        <ele>4868.6</ele>
        <time>2015-08-29T07:44:32Z</time>
      </trkpt>
      <trkpt lat="34.14949" lon="77.01217">
        <ele>4869.6</ele>
        <time>2015-08-29T07:44:37Z</time>
      </trkpt>
      <trkpt lat="34.14949" lon="77.01217">
        <ele>4870.6</ele>
        <time>2015-08-29T07:44:41Z</time>
      </trkpt>
      <trkpt lat="34.14949" lon="77.01217">
        <ele>4871.8</ele>
        <time>2015-08-29T07:44:44Z</time>
      </trkpt>
      <trkpt lat="34.14949" lon="77.01217">
        <ele>4872.8</ele>
        <time>2015-08-29T07:44:48Z</time>
      </trkpt>
      <trkpt lat="34.14949" lon="77.01217">
        <ele>4871.8</ele>
        <time>2015-08-29T07:45:02Z</time>
      </trkpt>
      <trkpt lat="34.14949" lon="77.01216">
        <ele>4870.8</ele>
        <time>2015-08-29T07:45:07Z</time>
      </trkpt>
      <trkpt lat="34.14948" lon="77.01216">
        <ele>4869.6</ele>
        <time>2015-08-29T07:45:23Z</time>
      </trkpt>
      <trkpt lat="34.14948" lon="77.01216">
        <ele>4868.4</ele>
        <time>2015-08-29T07:45:33Z</time>
      </trkpt>
      <trkpt lat="34.14948" lon="77.01215">
        <ele>4869.4</ele>
        <time>2015-08-29T07:46:00Z</time>
      </trkpt>
      <trkpt lat="34.14948" lon="77.01215">
        <ele>4869.6</ele>
        <time>2015-08-29T07:46:02Z</time>
      </trkpt>
      <trkpt lat="34.14947" lon="77.01217">
        <ele>4869.4</ele>
        <time>2015-08-29T07:46:52Z</time>
      </trkpt>
      <trkpt lat="34.14949" lon="77.01217">
        <ele>4868.8</ele>
        <time>2015-08-29T07:48:31Z</time>
      </trkpt>
      <trkpt lat="34.14949" lon="77.01217">
        <ele>4870.6</ele>
        <time>2015-08-29T07:48:52Z</time>
      </trkpt>
      <trkpt lat="34.14948" lon="77.01216">
        <ele>4871.6</ele>
        <time>2015-08-29T07:49:39Z</time>
      </trkpt>
      <trkpt lat="34.14949" lon="77.01216">
        <ele>4872.6</ele>
        <time>2015-08-29T07:50:05Z</time>
      </trkpt>
      <trkpt lat="34.14949" lon="77.01216">
        <ele>4871.6</ele>
        <time>2015-08-29T07:50:30Z</time>
      </trkpt>
      <trkpt lat="34.14949" lon="77.01215">
        <ele>4871.2</ele>
        <time>2015-08-29T07:50:50Z</time>
      </trkpt>
      <trkpt lat="34.14948" lon="77.01214">
        <ele>4870.6</ele>
        <time>2015-08-29T07:51:20Z</time>
      </trkpt>
      <trkpt lat="34.14948" lon="77.01212">
        <ele>4871.6</ele>
        <time>2015-08-29T07:51:51Z</time>
      </trkpt>
      <trkpt lat="34.14948" lon="77.01212">
        <ele>4872</ele>
        <time>2015-08-29T07:51:55Z</time>
      </trkpt>
      <trkpt lat="34.14948" lon="77.01213">
        <ele>4872.8</ele>
        <time>2015-08-29T07:51:59Z</time>
      </trkpt>
      <trkpt lat="34.14948" lon="77.01213">
        <ele>4871.6</ele>
        <time>2015-08-29T07:52:06Z</time>
      </trkpt>
      <trkpt lat="34.14948" lon="77.01216">
        <ele>4871.6</ele>
        <time>2015-08-29T07:53:09Z</time>
      </trkpt>
      <trkpt lat="34.14947" lon="77.01218">
        <ele>4872.8</ele>
        <time>2015-08-29T07:54:02Z</time>
      </trkpt>
      <trkpt lat="34.14946" lon="77.01217">
        <ele>4873</ele>
        <time>2015-08-29T07:54:05Z</time>
      </trkpt>
      <trkpt lat="34.14947" lon="77.01216">
        <ele>4873</ele>
        <time>2015-08-29T07:54:07Z</time>
      </trkpt>
      <trkpt lat="34.14949" lon="77.01211">
        <ele>4874</ele>
        <time>2015-08-29T07:54:31Z</time>
      </trkpt>
      <trkpt lat="34.14947" lon="77.01213">
        <ele>4873.4</ele>
        <time>2015-08-29T07:54:36Z</time>
      </trkpt>
      <trkpt lat="34.14947" lon="77.01212">
        <ele>4873.4</ele>
        <time>2015-08-29T07:54:38Z</time>
      </trkpt>
      <trkpt lat="34.14947" lon="77.01214">
        <ele>4873.2</ele>
        <time>2015-08-29T07:54:40Z</time>
      </trkpt>
      <trkpt lat="34.14949" lon="77.01216">
        <ele>4875.8</ele>
        <time>2015-08-29T07:55:10Z</time>
      </trkpt>
      <trkpt lat="34.14947" lon="77.01219">
        <ele>4876.8</ele>
        <time>2015-08-29T07:55:12Z</time>
      </trkpt>
      <trkpt lat="34.1495" lon="77.01226">
        <ele>4875.2</ele>
        <time>2015-08-29T07:55:28Z</time>
      </trkpt>
      <trkpt lat="34.1495" lon="77.01227">
        <ele>4874.2</ele>
        <time>2015-08-29T07:55:29Z</time>
      </trkpt>
      <trkpt lat="34.14951" lon="77.01227">
        <ele>4873.2</ele>
        <time>2015-08-29T07:55:30Z</time>
      </trkpt>
      <trkpt lat="34.14951" lon="77.01228">
        <ele>4872</ele>
        <time>2015-08-29T07:55:32Z</time>
      </trkpt>
      <trkpt lat="34.14953" lon="77.01229">
        <ele>4870.8</ele>
        <time>2015-08-29T07:55:35Z</time>
      </trkpt>
      <trkpt lat="34.14959" lon="77.01234">
        <ele>4872.2</ele>
        <time>2015-08-29T07:56:10Z</time>
      </trkpt>
      <trkpt lat="34.14961" lon="77.01232">
        <ele>4871</ele>
        <time>2015-08-29T07:56:35Z</time>
      </trkpt>
      <trkpt lat="34.14961" lon="77.01233">
        <ele>4871</ele>
        <time>2015-08-29T07:56:38Z</time>
      </trkpt>
      <trkpt lat="34.14949" lon="77.01235">
        <ele>4872.2</ele>
        <time>2015-08-29T07:57:24Z</time>
      </trkpt>
      <trkpt lat="34.14949" lon="77.01235">
        <ele>4871</ele>
        <time>2015-08-29T07:57:33Z</time>
      </trkpt>
      <trkpt lat="34.1495" lon="77.01238">
        <ele>4870</ele>
        <time>2015-08-29T07:57:56Z</time>
      </trkpt>
      <trkpt lat="34.14951" lon="77.0124">
        <ele>4869.2</ele>
        <time>2015-08-29T07:57:59Z</time>
      </trkpt>
      <trkpt lat="34.14951" lon="77.01243">
        <ele>4868.8</ele>
        <time>2015-08-29T07:58:05Z</time>
      </trkpt>
      <trkpt lat="34.1495" lon="77.01243">
        <ele>4868.8</ele>
        <time>2015-08-29T07:58:06Z</time>
      </trkpt>
      <trkpt lat="34.14947" lon="77.01245">
        <ele>4867.8</ele>
        <time>2015-08-29T07:58:15Z</time>
      </trkpt>
      <trkpt lat="34.14949" lon="77.01251">
        <ele>4867</ele>
        <time>2015-08-29T07:58:25Z</time>
      </trkpt>
      <trkpt lat="34.1495" lon="77.01252">
        <ele>4866.8</ele>
        <time>2015-08-29T07:58:27Z</time>
      </trkpt>
      <trkpt lat="34.14957" lon="77.01255">
        <ele>4865.6</ele>
        <time>2015-08-29T07:58:33Z</time>
      </trkpt>
      <trkpt lat="34.1496" lon="77.01257">
        <ele>4865.4</ele>
        <time>2015-08-29T07:58:36Z</time>
      </trkpt>
      <trkpt lat="34.14956" lon="77.01259">
        <ele>4864.6</ele>
        <time>2015-08-29T07:58:51Z</time>
      </trkpt>
      <trkpt lat="34.14954" lon="77.01265">
        <ele>4863.4</ele>
        <time>2015-08-29T07:58:59Z</time>
      </trkpt>
      <trkpt lat="34.14952" lon="77.01271">
        <ele>4863</ele>
        <time>2015-08-29T07:59:06Z</time>
      </trkpt>
      <trkpt lat="34.14951" lon="77.01275">
        <ele>4862.4</ele>
        <time>2015-08-29T07:59:09Z</time>
      </trkpt>
      <trkpt lat="34.1495" lon="77.01276">
        <ele>4862.2</ele>
        <time>2015-08-29T07:59:11Z</time>
      </trkpt>
      <trkpt lat="34.14949" lon="77.01282">
        <ele>4861.2</ele>
        <time>2015-08-29T07:59:20Z</time>
      </trkpt>
      <trkpt lat="34.14955" lon="77.01288">
        <ele>4860</ele>
        <time>2015-08-29T07:59:23Z</time>
      </trkpt>
      <trkpt lat="34.14955" lon="77.01288">
        <ele>4859</ele>
        <time>2015-08-29T07:59:28Z</time>
      </trkpt>
      <trkpt lat="34.14954" lon="77.01292">
        <ele>4858.8</ele>
        <time>2015-08-29T07:59:35Z</time>
      </trkpt>
      <trkpt lat="34.14953" lon="77.01294">
        <ele>4858.6</ele>
        <time>2015-08-29T07:59:38Z</time>
      </trkpt>
      <trkpt lat="34.14952" lon="77.01294">
        <ele>4857.6</ele>
        <time>2015-08-29T07:59:41Z</time>
      </trkpt>
      <trkpt lat="34.1495" lon="77.01297">
        <ele>4856.6</ele>
        <time>2015-08-29T07:59:45Z</time>
      </trkpt>
      <trkpt lat="34.14947" lon="77.013">
        <ele>4856.6</ele>
        <time>2015-08-29T07:59:48Z</time>
      </trkpt>
      <trkpt lat="34.14946" lon="77.01301">
        <ele>4856.4</ele>
        <time>2015-08-29T07:59:50Z</time>
      </trkpt>
      <trkpt lat="34.14946" lon="77.01301">
        <ele>4855.4</ele>
        <time>2015-08-29T07:59:53Z</time>
      </trkpt>
      <trkpt lat="34.14942" lon="77.01303">
        <ele>4854.2</ele>
        <time>2015-08-29T07:59:57Z</time>
      </trkpt>
      <trkpt lat="34.1494" lon="77.01306">
        <ele>4854</ele>
        <time>2015-08-29T07:59:58Z</time>
      </trkpt>
      <trkpt lat="34.1494" lon="77.01312">
        <ele>4853.2</ele>
        <time>2015-08-29T08:00:05Z</time>
      </trkpt>
      <trkpt lat="34.14943" lon="77.01314">
        <ele>4851.8</ele>
        <time>2015-08-29T08:00:09Z</time>
      </trkpt>
      <trkpt lat="34.14943" lon="77.01315">
        <ele>4851.4</ele>
        <time>2015-08-29T08:00:10Z</time>
      </trkpt>
      <trkpt lat="34.14946" lon="77.01316">
        <ele>4850.6</ele>
        <time>2015-08-29T08:00:12Z</time>
      </trkpt>
      <trkpt lat="34.14948" lon="77.01317">
        <ele>4850.4</ele>
        <time>2015-08-29T08:00:13Z</time>
      </trkpt>
      <trkpt lat="34.14948" lon="77.01319">
        <ele>4849.8</ele>
        <time>2015-08-29T08:00:15Z</time>
      </trkpt>
      <trkpt lat="34.14947" lon="77.01321">
        <ele>4849.6</ele>
        <time>2015-08-29T08:00:17Z</time>
      </trkpt>
      <trkpt lat="34.14946" lon="77.01322">
        <ele>4849.4</ele>
        <time>2015-08-29T08:00:19Z</time>
      </trkpt>
      <trkpt lat="34.14945" lon="77.01324">
        <ele>4848.6</ele>
        <time>2015-08-29T08:00:25Z</time>
      </trkpt>
      <trkpt lat="34.14937" lon="77.01329">
        <ele>4847.6</ele>
        <time>2015-08-29T08:00:39Z</time>
      </trkpt>
      <trkpt lat="34.14937" lon="77.01331">
        <ele>4846.2</ele>
        <time>2015-08-29T08:00:42Z</time>
      </trkpt>
      <trkpt lat="34.14934" lon="77.01344">
        <ele>4845.2</ele>
        <time>2015-08-29T08:00:57Z</time>
      </trkpt>
      <trkpt lat="34.14931" lon="77.01352">
        <ele>4844.4</ele>
        <time>2015-08-29T08:01:06Z</time>
      </trkpt>
      <trkpt lat="34.1493" lon="77.01357">
        <ele>4844</ele>
        <time>2015-08-29T08:01:09Z</time>
      </trkpt>
      <trkpt lat="34.14932" lon="77.01359">
        <ele>4843</ele>
        <time>2015-08-29T08:01:11Z</time>
      </trkpt>
      <trkpt lat="34.14933" lon="77.01359">
        <ele>4842</ele>
        <time>2015-08-29T08:01:13Z</time>
      </trkpt>
      <trkpt lat="34.14934" lon="77.0136">
        <ele>4841</ele>
        <time>2015-08-29T08:01:15Z</time>
      </trkpt>
      <trkpt lat="34.14933" lon="77.01366">
        <ele>4840</ele>
        <time>2015-08-29T08:01:21Z</time>
      </trkpt>
      <trkpt lat="34.1493" lon="77.01368">
        <ele>4839.6</ele>
        <time>2015-08-29T08:01:26Z</time>
      </trkpt>
      <trkpt lat="34.14927" lon="77.0137">
        <ele>4838.6</ele>
        <time>2015-08-29T08:01:29Z</time>
      </trkpt>
      <trkpt lat="34.14926" lon="77.01371">
        <ele>4838</ele>
        <time>2015-08-29T08:01:31Z</time>
      </trkpt>
      <trkpt lat="34.14926" lon="77.01372">
        <ele>4837.6</ele>
        <time>2015-08-29T08:01:32Z</time>
      </trkpt>
      <trkpt lat="34.14926" lon="77.01374">
        <ele>4836.4</ele>
        <time>2015-08-29T08:01:35Z</time>
      </trkpt>
      <trkpt lat="34.14928" lon="77.01379">
        <ele>4835.2</ele>
        <time>2015-08-29T08:01:39Z</time>
      </trkpt>
      <trkpt lat="34.1493" lon="77.01384">
        <ele>4834</ele>
        <time>2015-08-29T08:01:43Z</time>
      </trkpt>
      <trkpt lat="34.1493" lon="77.01387">
        <ele>4833.8</ele>
        <time>2015-08-29T08:01:45Z</time>
      </trkpt>
      <trkpt lat="34.14931" lon="77.01391">
        <ele>4833</ele>
        <time>2015-08-29T08:01:49Z</time>
      </trkpt>
      <trkpt lat="34.1493" lon="77.01401">
        <ele>4832.4</ele>
        <time>2015-08-29T08:01:58Z</time>
      </trkpt>
      <trkpt lat="34.14928" lon="77.01406">
        <ele>4831.8</ele>
        <time>2015-08-29T08:02:03Z</time>
      </trkpt>
      <trkpt lat="34.14926" lon="77.01409">
        <ele>4830.6</ele>
        <time>2015-08-29T08:02:07Z</time>
      </trkpt>
      <trkpt lat="34.14928" lon="77.01412">
        <ele>4829.6</ele>
        <time>2015-08-29T08:02:18Z</time>
      </trkpt>
      <trkpt lat="34.1493" lon="77.01416">
        <ele>4828.4</ele>
        <time>2015-08-29T08:02:23Z</time>
      </trkpt>
      <trkpt lat="34.14939" lon="77.01418">
        <ele>4827.2</ele>
        <time>2015-08-29T08:02:30Z</time>
      </trkpt>
      <trkpt lat="34.1495" lon="77.01417">
        <ele>4826</ele>
        <time>2015-08-29T08:02:37Z</time>
      </trkpt>
      <trkpt lat="34.14952" lon="77.01415">
        <ele>4825</ele>
        <time>2015-08-29T08:02:41Z</time>
      </trkpt>
      <trkpt lat="34.14949" lon="77.01424">
        <ele>4823.8</ele>
        <time>2015-08-29T08:02:48Z</time>
      </trkpt>
      <trkpt lat="34.14949" lon="77.01424">
        <ele>4823.6</ele>
        <time>2015-08-29T08:02:49Z</time>
      </trkpt>
      <trkpt lat="34.1495" lon="77.01428">
        <ele>4823</ele>
        <time>2015-08-29T08:02:53Z</time>
      </trkpt>
      <trkpt lat="34.14951" lon="77.0143">
        <ele>4822.8</ele>
        <time>2015-08-29T08:02:55Z</time>
      </trkpt>
      <trkpt lat="34.14952" lon="77.01435">
        <ele>4821.6</ele>
        <time>2015-08-29T08:03:00Z</time>
      </trkpt>
      <trkpt lat="34.14952" lon="77.01436">
        <ele>4820.6</ele>
        <time>2015-08-29T08:03:03Z</time>
      </trkpt>
      <trkpt lat="34.14954" lon="77.01439">
        <ele>4819.4</ele>
        <time>2015-08-29T08:03:08Z</time>
      </trkpt>
      <trkpt lat="34.14957" lon="77.01442">
        <ele>4818.4</ele>
        <time>2015-08-29T08:03:13Z</time>
      </trkpt>
      <trkpt lat="34.14962" lon="77.01441">
        <ele>4817.2</ele>
        <time>2015-08-29T08:03:17Z</time>
      </trkpt>
      <trkpt lat="34.14965" lon="77.01443">
        <ele>4816.2</ele>
        <time>2015-08-29T08:03:21Z</time>
      </trkpt>
      <trkpt lat="34.14967" lon="77.01444">
        <ele>4816</ele>
        <time>2015-08-29T08:03:22Z</time>
      </trkpt>
      <trkpt lat="34.14971" lon="77.01448">
        <ele>4815.6</ele>
        <time>2015-08-29T08:03:25Z</time>
      </trkpt>
      <trkpt lat="34.14972" lon="77.01451">
        <ele>4815.4</ele>
        <time>2015-08-29T08:03:27Z</time>
      </trkpt>
      <trkpt lat="34.14971" lon="77.01453">
        <ele>4815.2</ele>
        <time>2015-08-29T08:03:29Z</time>
      </trkpt>
      <trkpt lat="34.14971" lon="77.01453">
        <ele>4815</ele>
        <time>2015-08-29T08:03:30Z</time>
      </trkpt>
      <trkpt lat="34.1497" lon="77.01456">
        <ele>4814.4</ele>
        <time>2015-08-29T08:03:33Z</time>
      </trkpt>
      <trkpt lat="34.1497" lon="77.01461">
        <ele>4813.8</ele>
        <time>2015-08-29T08:03:37Z</time>
      </trkpt>
      <trkpt lat="34.1497" lon="77.01463">
        <ele>4813.4</ele>
        <time>2015-08-29T08:03:39Z</time>
      </trkpt>
      <trkpt lat="34.14971" lon="77.01466">
        <ele>4812.4</ele>
        <time>2015-08-29T08:03:42Z</time>
      </trkpt>
      <trkpt lat="34.14974" lon="77.01468">
        <ele>4811.4</ele>
        <time>2015-08-29T08:03:47Z</time>
      </trkpt>
      <trkpt lat="34.14974" lon="77.01469">
        <ele>4811.2</ele>
        <time>2015-08-29T08:03:48Z</time>
      </trkpt>
      <trkpt lat="34.14976" lon="77.01476">
        <ele>4810.2</ele>
        <time>2015-08-29T08:03:53Z</time>
      </trkpt>
      <trkpt lat="34.14975" lon="77.01483">
        <ele>4809.2</ele>
        <time>2015-08-29T08:03:59Z</time>
      </trkpt>
      <trkpt lat="34.14978" lon="77.01489">
        <ele>4808.4</ele>
        <time>2015-08-29T08:04:04Z</time>
      </trkpt>
      <trkpt lat="34.14982" lon="77.01492">
        <ele>4808.2</ele>
        <time>2015-08-29T08:04:06Z</time>
      </trkpt>
      <trkpt lat="34.14981" lon="77.01494">
        <ele>4807.6</ele>
        <time>2015-08-29T08:04:09Z</time>
      </trkpt>
      <trkpt lat="34.1498" lon="77.01495">
        <ele>4807</ele>
        <time>2015-08-29T08:04:11Z</time>
      </trkpt>
      <trkpt lat="34.14978" lon="77.01495">
        <ele>4805.8</ele>
        <time>2015-08-29T08:04:15Z</time>
      </trkpt>
      <trkpt lat="34.14977" lon="77.01496">
        <ele>4804.8</ele>
        <time>2015-08-29T08:04:19Z</time>
      </trkpt>
      <trkpt lat="34.14974" lon="77.01498">
        <ele>4803.4</ele>
        <time>2015-08-29T08:04:26Z</time>
      </trkpt>
      <trkpt lat="34.14974" lon="77.015">
        <ele>4802.4</ele>
        <time>2015-08-29T08:04:30Z</time>
      </trkpt>
      <trkpt lat="34.14974" lon="77.01501">
        <ele>4801.4</ele>
        <time>2015-08-29T08:04:36Z</time>
      </trkpt>
      <trkpt lat="34.14985" lon="77.01508">
        <ele>4800.2</ele>
        <time>2015-08-29T08:04:47Z</time>
      </trkpt>
      <trkpt lat="34.14987" lon="77.01509">
        <ele>4799.8</ele>
        <time>2015-08-29T08:04:49Z</time>
      </trkpt>
      <trkpt lat="34.14989" lon="77.0151">
        <ele>4799.2</ele>
        <time>2015-08-29T08:04:52Z</time>
      </trkpt>
      <trkpt lat="34.14989" lon="77.01512">
        <ele>4799</ele>
        <time>2015-08-29T08:04:53Z</time>
      </trkpt>
      <trkpt lat="34.14986" lon="77.01513">
        <ele>4798.6</ele>
        <time>2015-08-29T08:04:55Z</time>
      </trkpt>
      <trkpt lat="34.14985" lon="77.01514">
        <ele>4798.2</ele>
        <time>2015-08-29T08:04:57Z</time>
      </trkpt>
      <trkpt lat="34.14984" lon="77.01515">
        <ele>4798</ele>
        <time>2015-08-29T08:04:58Z</time>
      </trkpt>
      <trkpt lat="34.1498" lon="77.01517">
        <ele>4796.8</ele>
        <time>2015-08-29T08:05:02Z</time>
      </trkpt>
      <trkpt lat="34.14978" lon="77.01518">
        <ele>4795.6</ele>
        <time>2015-08-29T08:05:06Z</time>
      </trkpt>
      <trkpt lat="34.1498" lon="77.0152">
        <ele>4794.6</ele>
        <time>2015-08-29T08:05:10Z</time>
      </trkpt>
      <trkpt lat="34.14983" lon="77.01523">
        <ele>4793.6</ele>
        <time>2015-08-29T08:05:22Z</time>
      </trkpt>
      <trkpt lat="34.14984" lon="77.01525">
        <ele>4792.4</ele>
        <time>2015-08-29T08:05:27Z</time>
      </trkpt>
      <trkpt lat="34.14988" lon="77.01525">
        <ele>4791.4</ele>
        <time>2015-08-29T08:05:31Z</time>
      </trkpt>
      <trkpt lat="34.14993" lon="77.0153">
        <ele>4790.4</ele>
        <time>2015-08-29T08:05:39Z</time>
      </trkpt>
      <trkpt lat="34.14997" lon="77.01532">
        <ele>4789.4</ele>
        <time>2015-08-29T08:05:43Z</time>
      </trkpt>
      <trkpt lat="34.15002" lon="77.01535">
        <ele>4788.2</ele>
        <time>2015-08-29T08:05:48Z</time>
      </trkpt>
      <trkpt lat="34.15003" lon="77.01537">
        <ele>4786.8</ele>
        <time>2015-08-29T08:05:51Z</time>
      </trkpt>
      <trkpt lat="34.15001" lon="77.01541">
        <ele>4785.8</ele>
        <time>2015-08-29T08:05:56Z</time>
      </trkpt>
      <trkpt lat="34.15009" lon="77.01545">
        <ele>4785.8</ele>
        <time>2015-08-29T08:05:58Z</time>
      </trkpt>
      <trkpt lat="34.15009" lon="77.01546">
        <ele>4786</ele>
        <time>2015-08-29T08:06:00Z</time>
      </trkpt>
      <trkpt lat="34.15009" lon="77.01548">
        <ele>4785.8</ele>
        <time>2015-08-29T08:06:02Z</time>
      </trkpt>
      <trkpt lat="34.15009" lon="77.01551">
        <ele>4785.4</ele>
        <time>2015-08-29T08:06:04Z</time>
      </trkpt>
      <trkpt lat="34.1501" lon="77.01554">
        <ele>4784.8</ele>
        <time>2015-08-29T08:06:07Z</time>
      </trkpt>
      <trkpt lat="34.15008" lon="77.01558">
        <ele>4783.8</ele>
        <time>2015-08-29T08:06:14Z</time>
      </trkpt>
      <trkpt lat="34.15009" lon="77.01556">
        <ele>4782.8</ele>
        <time>2015-08-29T08:06:18Z</time>
      </trkpt>
      <trkpt lat="34.15008" lon="77.0156">
        <ele>4781.6</ele>
        <time>2015-08-29T08:06:23Z</time>
      </trkpt>
      <trkpt lat="34.15007" lon="77.01561">
        <ele>4780.6</ele>
        <time>2015-08-29T08:06:26Z</time>
      </trkpt>
      <trkpt lat="34.15004" lon="77.01563">
        <ele>4779.6</ele>
        <time>2015-08-29T08:06:35Z</time>
      </trkpt>
      <trkpt lat="34.15002" lon="77.01569">
        <ele>4778.4</ele>
        <time>2015-08-29T08:06:38Z</time>
      </trkpt>
      <trkpt lat="34.15002" lon="77.01574">
        <ele>4777.4</ele>
        <time>2015-08-29T08:06:43Z</time>
      </trkpt>
      <trkpt lat="34.15004" lon="77.01576">
        <ele>4776.4</ele>
        <time>2015-08-29T08:06:46Z</time>
      </trkpt>
      <trkpt lat="34.15006" lon="77.01576">
        <ele>4776.2</ele>
        <time>2015-08-29T08:06:47Z</time>
      </trkpt>
      <trkpt lat="34.15006" lon="77.01577">
        <ele>4776</ele>
        <time>2015-08-29T08:06:48Z</time>
      </trkpt>
      <trkpt lat="34.15011" lon="77.01579">
        <ele>4775</ele>
        <time>2015-08-29T08:06:52Z</time>
      </trkpt>
      <trkpt lat="34.15013" lon="77.01581">
        <ele>4774.8</ele>
        <time>2015-08-29T08:06:55Z</time>
      </trkpt>
      <trkpt lat="34.15016" lon="77.01583">
        <ele>4773.8</ele>
        <time>2015-08-29T08:07:00Z</time>
      </trkpt>
      <trkpt lat="34.15018" lon="77.01584">
        <ele>4773</ele>
        <time>2015-08-29T08:07:04Z</time>
      </trkpt>
      <trkpt lat="34.15016" lon="77.01587">
        <ele>4772.6</ele>
        <time>2015-08-29T08:07:07Z</time>
      </trkpt>
      <trkpt lat="34.15017" lon="77.01589">
        <ele>4772</ele>
        <time>2015-08-29T08:07:10Z</time>
      </trkpt>
      <trkpt lat="34.15016" lon="77.01592">
        <ele>4771.6</ele>
        <time>2015-08-29T08:07:13Z</time>
      </trkpt>
      <trkpt lat="34.15021" lon="77.01593">
        <ele>4770.2</ele>
        <time>2015-08-29T08:07:18Z</time>
      </trkpt>
      <trkpt lat="34.15024" lon="77.01594">
        <ele>4769</ele>
        <time>2015-08-29T08:07:21Z</time>
      </trkpt>
      <trkpt lat="34.15027" lon="77.01597">
        <ele>4768</ele>
        <time>2015-08-29T08:07:25Z</time>
      </trkpt>
      <trkpt lat="34.15027" lon="77.01597">
        <ele>4767.8</ele>
        <time>2015-08-29T08:07:26Z</time>
      </trkpt>
      <trkpt lat="34.15024" lon="77.01603">
        <ele>4766.8</ele>
        <time>2015-08-29T08:07:38Z</time>
      </trkpt>
      <trkpt lat="34.15023" lon="77.01607">
        <ele>4765.8</ele>
        <time>2015-08-29T08:07:44Z</time>
      </trkpt>
      <trkpt lat="34.15025" lon="77.01611">
        <ele>4764.6</ele>
        <time>2015-08-29T08:07:50Z</time>
      </trkpt>
      <trkpt lat="34.15024" lon="77.01614">
        <ele>4763.6</ele>
        <time>2015-08-29T08:07:55Z</time>
      </trkpt>
      <trkpt lat="34.15022" lon="77.01616">
        <ele>4762.4</ele>
        <time>2015-08-29T08:08:01Z</time>
      </trkpt>
      <trkpt lat="34.15021" lon="77.01617">
        <ele>4761.4</ele>
        <time>2015-08-29T08:08:04Z</time>
      </trkpt>
      <trkpt lat="34.1502" lon="77.01619">
        <ele>4760.2</ele>
        <time>2015-08-29T08:08:08Z</time>
      </trkpt>
      <trkpt lat="34.15021" lon="77.01621">
        <ele>4759</ele>
        <time>2015-08-29T08:08:12Z</time>
      </trkpt>
      <trkpt lat="34.15023" lon="77.01624">
        <ele>4757.8</ele>
        <time>2015-08-29T08:08:18Z</time>
      </trkpt>
      <trkpt lat="34.1503" lon="77.01632">
        <ele>4756.8</ele>
        <time>2015-08-29T08:08:29Z</time>
      </trkpt>
      <trkpt lat="34.1503" lon="77.01634">
        <ele>4756.8</ele>
        <time>2015-08-29T08:08:30Z</time>
      </trkpt>
      <trkpt lat="34.15035" lon="77.01638">
        <ele>4756</ele>
        <time>2015-08-29T08:08:33Z</time>
      </trkpt>
      <trkpt lat="34.15035" lon="77.01639">
        <ele>4755.8</ele>
        <time>2015-08-29T08:08:34Z</time>
      </trkpt>
      <trkpt lat="34.15034" lon="77.0164">
        <ele>4754.8</ele>
        <time>2015-08-29T08:08:37Z</time>
      </trkpt>
      <trkpt lat="34.15033" lon="77.01642">
        <ele>4753.4</ele>
        <time>2015-08-29T08:08:41Z</time>
      </trkpt>
      <trkpt lat="34.15033" lon="77.01645">
        <ele>4752.4</ele>
        <time>2015-08-29T08:08:45Z</time>
      </trkpt>
      <trkpt lat="34.15034" lon="77.01648">
        <ele>4751.2</ele>
        <time>2015-08-29T08:08:49Z</time>
      </trkpt>
      <trkpt lat="34.15032" lon="77.01649">
        <ele>4750.2</ele>
        <time>2015-08-29T08:08:53Z</time>
      </trkpt>
      <trkpt lat="34.15028" lon="77.01653">
        <ele>4749</ele>
        <time>2015-08-29T08:08:57Z</time>
      </trkpt>
      <trkpt lat="34.15029" lon="77.01655">
        <ele>4748.2</ele>
        <time>2015-08-29T08:08:59Z</time>
      </trkpt>
      <trkpt lat="34.1503" lon="77.01655">
        <ele>4747.8</ele>
        <time>2015-08-29T08:09:00Z</time>
      </trkpt>
      <trkpt lat="34.15036" lon="77.01657">
        <ele>4746.6</ele>
        <time>2015-08-29T08:09:06Z</time>
      </trkpt>
      <trkpt lat="34.15039" lon="77.01658">
        <ele>4745.6</ele>
        <time>2015-08-29T08:09:11Z</time>
      </trkpt>
      <trkpt lat="34.15047" lon="77.01658">
        <ele>4744.8</ele>
        <time>2015-08-29T08:09:17Z</time>
      </trkpt>
      <trkpt lat="34.15047" lon="77.01658">
        <ele>4744.4</ele>
        <time>2015-08-29T08:09:18Z</time>
      </trkpt>
      <trkpt lat="34.15049" lon="77.01657">
        <ele>4743.4</ele>
        <time>2015-08-29T08:09:23Z</time>
      </trkpt>
      <trkpt lat="34.15052" lon="77.01655">
        <ele>4742.4</ele>
        <time>2015-08-29T08:09:29Z</time>
      </trkpt>
      <trkpt lat="34.15054" lon="77.01654">
        <ele>4741.2</ele>
        <time>2015-08-29T08:09:34Z</time>
      </trkpt>
      <trkpt lat="34.15057" lon="77.01653">
        <ele>4740</ele>
        <time>2015-08-29T08:09:37Z</time>
      </trkpt>
      <trkpt lat="34.15065" lon="77.01657">
        <ele>4738.6</ele>
        <time>2015-08-29T08:09:49Z</time>
      </trkpt>
      <trkpt lat="34.15066" lon="77.01654">
        <ele>4737.4</ele>
        <time>2015-08-29T08:09:54Z</time>
      </trkpt>
      <trkpt lat="34.15066" lon="77.01651">
        <ele>4736.2</ele>
        <time>2015-08-29T08:09:57Z</time>
      </trkpt>
      <trkpt lat="34.15067" lon="77.01647">
        <ele>4734.8</ele>
        <time>2015-08-29T08:10:00Z</time>
      </trkpt>
      <trkpt lat="34.15067" lon="77.01642">
        <ele>4733.4</ele>
        <time>2015-08-29T08:10:04Z</time>
      </trkpt>
      <trkpt lat="34.15068" lon="77.01639">
        <ele>4732.8</ele>
        <time>2015-08-29T08:10:06Z</time>
      </trkpt>
      <trkpt lat="34.15068" lon="77.01638">
        <ele>4732.4</ele>
        <time>2015-08-29T08:10:07Z</time>
      </trkpt>
      <trkpt lat="34.15068" lon="77.01636">
        <ele>4731.4</ele>
        <time>2015-08-29T08:10:09Z</time>
      </trkpt>
      <trkpt lat="34.15069" lon="77.01635">
        <ele>4730.6</ele>
        <time>2015-08-29T08:10:11Z</time>
      </trkpt>
      <trkpt lat="34.15071" lon="77.01633">
        <ele>4730.2</ele>
        <time>2015-08-29T08:10:13Z</time>
      </trkpt>
      <trkpt lat="34.1507" lon="77.01629">
        <ele>4730</ele>
        <time>2015-08-29T08:10:16Z</time>
      </trkpt>
      <trkpt lat="34.15072" lon="77.01629">
        <ele>4730</ele>
        <time>2015-08-29T08:10:18Z</time>
      </trkpt>
      <trkpt lat="34.1507" lon="77.01628">
        <ele>4729</ele>
        <time>2015-08-29T08:10:22Z</time>
      </trkpt>
      <trkpt lat="34.15071" lon="77.01627">
        <ele>4727.4</ele>
        <time>2015-08-29T08:10:26Z</time>
      </trkpt>
      <trkpt lat="34.15074" lon="77.01626">
        <ele>4726.4</ele>
        <time>2015-08-29T08:10:30Z</time>
      </trkpt>
      <trkpt lat="34.15079" lon="77.01619">
        <ele>4725.4</ele>
        <time>2015-08-29T08:10:38Z</time>
      </trkpt>
      <trkpt lat="34.1508" lon="77.01617">
        <ele>4725.2</ele>
        <time>2015-08-29T08:10:40Z</time>
      </trkpt>
      <trkpt lat="34.15083" lon="77.01619">
        <ele>4725</ele>
        <time>2015-08-29T08:10:42Z</time>
      </trkpt>
      <trkpt lat="34.15085" lon="77.01618">
        <ele>4724.2</ele>
        <time>2015-08-29T08:10:46Z</time>
      </trkpt>
      <trkpt lat="34.15089" lon="77.01617">
        <ele>4722.8</ele>
        <time>2015-08-29T08:10:51Z</time>
      </trkpt>
      <trkpt lat="34.15092" lon="77.01618">
        <ele>4721.8</ele>
        <time>2015-08-29T08:10:56Z</time>
      </trkpt>
      <trkpt lat="34.15092" lon="77.01615">
        <ele>4720.4</ele>
        <time>2015-08-29T08:11:00Z</time>
      </trkpt>
      <trkpt lat="34.15092" lon="77.0161">
        <ele>4719.4</ele>
        <time>2015-08-29T08:11:04Z</time>
      </trkpt>
      <trkpt lat="34.15094" lon="77.01608">
        <ele>4718.8</ele>
        <time>2015-08-29T08:11:06Z</time>
      </trkpt>
      <trkpt lat="34.15096" lon="77.01604">
        <ele>4718</ele>
        <time>2015-08-29T08:11:09Z</time>
      </trkpt>
      <trkpt lat="34.15097" lon="77.016">
        <ele>4717</ele>
        <time>2015-08-29T08:11:12Z</time>
      </trkpt>
      <trkpt lat="34.15097" lon="77.01597">
        <ele>4716.6</ele>
        <time>2015-08-29T08:11:14Z</time>
      </trkpt>
      <trkpt lat="34.15097" lon="77.01596">
        <ele>4715.8</ele>
        <time>2015-08-29T08:11:16Z</time>
      </trkpt>
      <trkpt lat="34.15097" lon="77.01592">
        <ele>4714.8</ele>
        <time>2015-08-29T08:11:19Z</time>
      </trkpt>
      <trkpt lat="34.151" lon="77.01588">
        <ele>4713.6</ele>
        <time>2015-08-29T08:11:24Z</time>
      </trkpt>
      <trkpt lat="34.15103" lon="77.01585">
        <ele>4713.4</ele>
        <time>2015-08-29T08:11:26Z</time>
      </trkpt>
      <trkpt lat="34.15106" lon="77.01581">
        <ele>4712.6</ele>
        <time>2015-08-29T08:11:29Z</time>
      </trkpt>
      <trkpt lat="34.15109" lon="77.0158">
        <ele>4711.4</ele>
        <time>2015-08-29T08:11:33Z</time>
      </trkpt>
      <trkpt lat="34.1511" lon="77.01577">
        <ele>4710.4</ele>
        <time>2015-08-29T08:11:38Z</time>
      </trkpt>
      <trkpt lat="34.15111" lon="77.01575">
        <ele>4710.2</ele>
        <time>2015-08-29T08:11:40Z</time>
      </trkpt>
      <trkpt lat="34.15112" lon="77.01573">
        <ele>4709.4</ele>
        <time>2015-08-29T08:11:43Z</time>
      </trkpt>
      <trkpt lat="34.15118" lon="77.01569">
        <ele>4708.2</ele>
        <time>2015-08-29T08:11:49Z</time>
      </trkpt>
      <trkpt lat="34.15119" lon="77.01569">
        <ele>4708</ele>
        <time>2015-08-29T08:11:50Z</time>
      </trkpt>
      <trkpt lat="34.15121" lon="77.01567">
        <ele>4707</ele>
        <time>2015-08-29T08:11:53Z</time>
      </trkpt>
      <trkpt lat="34.15124" lon="77.01563">
        <ele>4706.2</ele>
        <time>2015-08-29T08:11:57Z</time>
      </trkpt>
      <trkpt lat="34.15125" lon="77.01561">
        <ele>4706</ele>
        <time>2015-08-29T08:11:59Z</time>
      </trkpt>
      <trkpt lat="34.15127" lon="77.01562">
        <ele>4705.8</ele>
        <time>2015-08-29T08:12:01Z</time>
      </trkpt>
      <trkpt lat="34.15128" lon="77.01563">
        <ele>4704.6</ele>
        <time>2015-08-29T08:12:06Z</time>
      </trkpt>
      <trkpt lat="34.15131" lon="77.01564">
        <ele>4703.6</ele>
        <time>2015-08-29T08:12:09Z</time>
      </trkpt>
      <trkpt lat="34.15132" lon="77.01562">
        <ele>4702.8</ele>
        <time>2015-08-29T08:12:11Z</time>
      </trkpt>
      <trkpt lat="34.15133" lon="77.01558">
        <ele>4702.4</ele>
        <time>2015-08-29T08:12:13Z</time>
      </trkpt>
      <trkpt lat="34.15136" lon="77.01552">
        <ele>4701.2</ele>
        <time>2015-08-29T08:12:18Z</time>
      </trkpt>
      <trkpt lat="34.15139" lon="77.01546">
        <ele>4700</ele>
        <time>2015-08-29T08:12:24Z</time>
      </trkpt>
      <trkpt lat="34.1514" lon="77.01545">
        <ele>4699.8</ele>
        <time>2015-08-29T08:12:25Z</time>
      </trkpt>
      <trkpt lat="34.15144" lon="77.01543">
        <ele>4699</ele>
        <time>2015-08-29T08:12:29Z</time>
      </trkpt>
      <trkpt lat="34.15151" lon="77.01539">
        <ele>4697.8</ele>
        <time>2015-08-29T08:12:36Z</time>
      </trkpt>
      <trkpt lat="34.15157" lon="77.01536">
        <ele>4696.8</ele>
        <time>2015-08-29T08:12:43Z</time>
      </trkpt>
      <trkpt lat="34.15144" lon="77.0153">
        <ele>4695.8</ele>
        <time>2015-08-29T08:12:51Z</time>
      </trkpt>
      <trkpt lat="34.15145" lon="77.01533">
        <ele>4695.4</ele>
        <time>2015-08-29T08:12:54Z</time>
      </trkpt>
      <trkpt lat="34.15148" lon="77.01536">
        <ele>4694.6</ele>
        <time>2015-08-29T08:12:57Z</time>
      </trkpt>
      <trkpt lat="34.15148" lon="77.01542">
        <ele>4693.6</ele>
        <time>2015-08-29T08:13:02Z</time>
      </trkpt>
      <trkpt lat="34.15144" lon="77.01552">
        <ele>4692.6</ele>
        <time>2015-08-29T08:13:13Z</time>
      </trkpt>
      <trkpt lat="34.15145" lon="77.01553">
        <ele>4692.6</ele>
        <time>2015-08-29T08:13:14Z</time>
      </trkpt>
      <trkpt lat="34.15146" lon="77.01557">
        <ele>4692</ele>
        <time>2015-08-29T08:13:17Z</time>
      </trkpt>
      <trkpt lat="34.15147" lon="77.01559">
        <ele>4691.4</ele>
        <time>2015-08-29T08:13:19Z</time>
      </trkpt>
      <trkpt lat="34.1515" lon="77.01562">
        <ele>4690.4</ele>
        <time>2015-08-29T08:13:23Z</time>
      </trkpt>
      <trkpt lat="34.1515" lon="77.01564">
        <ele>4689.4</ele>
        <time>2015-08-29T08:13:27Z</time>
      </trkpt>
      <trkpt lat="34.15147" lon="77.01568">
        <ele>4688.2</ele>
        <time>2015-08-29T08:13:33Z</time>
      </trkpt>
      <trkpt lat="34.15151" lon="77.0157">
        <ele>4687.6</ele>
        <time>2015-08-29T08:13:35Z</time>
      </trkpt>
      <trkpt lat="34.15154" lon="77.01573">
        <ele>4687</ele>
        <time>2015-08-29T08:13:39Z</time>
      </trkpt>
      <trkpt lat="34.15157" lon="77.0158">
        <ele>4686</ele>
        <time>2015-08-29T08:13:46Z</time>
      </trkpt>
      <trkpt lat="34.15158" lon="77.01581">
        <ele>4640.6</ele>
        <time>2015-08-29T08:13:47Z</time>
      </trkpt>
      <trkpt lat="34.15158" lon="77.01579">
        <ele>4685</ele>
        <time>2015-08-29T08:13:52Z</time>
      </trkpt>
      <trkpt lat="34.15157" lon="77.01582">
        <ele>4684.8</ele>
        <time>2015-08-29T08:14:00Z</time>
      </trkpt>
      <trkpt lat="34.15159" lon="77.01584">
        <ele>4640.6</ele>
        <time>2015-08-29T08:14:05Z</time>
      </trkpt>
      <trkpt lat="34.15159" lon="77.01582">
        <ele>4685</ele>
        <time>2015-08-29T08:14:10Z</time>
      </trkpt>
      <trkpt lat="34.15161" lon="77.01589">
        <ele>4683.8</ele>
        <time>2015-08-29T08:14:28Z</time>
      </trkpt>
      <trkpt lat="34.15159" lon="77.01595">
        <ele>4682.8</ele>
        <time>2015-08-29T08:14:35Z</time>
      </trkpt>
      <trkpt lat="34.15159" lon="77.01598">
        <ele>4681.6</ele>
        <time>2015-08-29T08:14:40Z</time>
      </trkpt>
      <trkpt lat="34.15159" lon="77.01602">
        <ele>4680.2</ele>
        <time>2015-08-29T08:14:45Z</time>
      </trkpt>
      <trkpt lat="34.15159" lon="77.01606">
        <ele>4679.2</ele>
        <time>2015-08-29T08:14:49Z</time>
      </trkpt>
      <trkpt lat="34.15162" lon="77.01605">
        <ele>4678</ele>
        <time>2015-08-29T08:14:53Z</time>
      </trkpt>
      <trkpt lat="34.15165" lon="77.01604">
        <ele>4677</ele>
        <time>2015-08-29T08:14:55Z</time>
      </trkpt>
      <trkpt lat="34.15168" lon="77.01604">
        <ele>4676</ele>
        <time>2015-08-29T08:14:58Z</time>
      </trkpt>
      <trkpt lat="34.15172" lon="77.01603">
        <ele>4674.8</ele>
        <time>2015-08-29T08:15:03Z</time>
      </trkpt>
      <trkpt lat="34.1518" lon="77.01602">
        <ele>4673.8</ele>
        <time>2015-08-29T08:15:12Z</time>
      </trkpt>
      <trkpt lat="34.15183" lon="77.01601">
        <ele>4672.8</ele>
        <time>2015-08-29T08:15:16Z</time>
      </trkpt>
      <trkpt lat="34.15184" lon="77.01601">
        <ele>4671.8</ele>
        <time>2015-08-29T08:15:20Z</time>
      </trkpt>
      <trkpt lat="34.15187" lon="77.016">
        <ele>4670.6</ele>
        <time>2015-08-29T08:15:23Z</time>
      </trkpt>
      <trkpt lat="34.1519" lon="77.01597">
        <ele>4669.6</ele>
        <time>2015-08-29T08:15:26Z</time>
      </trkpt>
      <trkpt lat="34.15191" lon="77.01596">
        <ele>4669.4</ele>
        <time>2015-08-29T08:15:27Z</time>
      </trkpt>
      <trkpt lat="34.15192" lon="77.01592">
        <ele>4669</ele>
        <time>2015-08-29T08:15:29Z</time>
      </trkpt>
      <trkpt lat="34.15191" lon="77.01593">
        <ele>4668.8</ele>
        <time>2015-08-29T08:15:32Z</time>
      </trkpt>
      <trkpt lat="34.15189" lon="77.01601">
        <ele>4668.4</ele>
        <time>2015-08-29T08:15:41Z</time>
      </trkpt>
      <trkpt lat="34.15189" lon="77.01604">
        <ele>4668</ele>
        <time>2015-08-29T08:15:44Z</time>
      </trkpt>
      <trkpt lat="34.1519" lon="77.01608">
        <ele>4667.4</ele>
        <time>2015-08-29T08:15:48Z</time>
      </trkpt>
      <trkpt lat="34.15191" lon="77.01612">
        <ele>4666.4</ele>
        <time>2015-08-29T08:15:53Z</time>
      </trkpt>
      <trkpt lat="34.15193" lon="77.01612">
        <ele>4664.8</ele>
        <time>2015-08-29T08:15:57Z</time>
      </trkpt>
      <trkpt lat="34.15196" lon="77.01615">
        <ele>4664.2</ele>
        <time>2015-08-29T08:15:59Z</time>
      </trkpt>
      <trkpt lat="34.15197" lon="77.01623">
        <ele>4663.6</ele>
        <time>2015-08-29T08:16:08Z</time>
      </trkpt>
      <trkpt lat="34.15197" lon="77.01628">
        <ele>4662.6</ele>
        <time>2015-08-29T08:16:13Z</time>
      </trkpt>
      <trkpt lat="34.15197" lon="77.01629">
        <ele>4661.4</ele>
        <time>2015-08-29T08:16:16Z</time>
      </trkpt>
      <trkpt lat="34.15198" lon="77.01629">
        <ele>4660.2</ele>
        <time>2015-08-29T08:16:20Z</time>
      </trkpt>
      <trkpt lat="34.15195" lon="77.01629">
        <ele>4659</ele>
        <time>2015-08-29T08:16:25Z</time>
      </trkpt>
      <trkpt lat="34.15194" lon="77.01633">
        <ele>4658</ele>
        <time>2015-08-29T08:16:29Z</time>
      </trkpt>
      <trkpt lat="34.15194" lon="77.0164">
        <ele>4656.8</ele>
        <time>2015-08-29T08:16:35Z</time>
      </trkpt>
      <trkpt lat="34.15193" lon="77.01644">
        <ele>4655.6</ele>
        <time>2015-08-29T08:16:40Z</time>
      </trkpt>
      <trkpt lat="34.15191" lon="77.01649">
        <ele>4654.6</ele>
        <time>2015-08-29T08:16:44Z</time>
      </trkpt>
      <trkpt lat="34.15191" lon="77.01652">
        <ele>4653.6</ele>
        <time>2015-08-29T08:16:48Z</time>
      </trkpt>
      <trkpt lat="34.1519" lon="77.01654">
        <ele>4653</ele>
        <time>2015-08-29T08:16:50Z</time>
      </trkpt>
      <trkpt lat="34.15192" lon="77.01655">
        <ele>4652.4</ele>
        <time>2015-08-29T08:16:53Z</time>
      </trkpt>
      <trkpt lat="34.15195" lon="77.01656">
        <ele>4651.4</ele>
        <time>2015-08-29T08:16:56Z</time>
      </trkpt>
      <trkpt lat="34.15199" lon="77.01655">
        <ele>4650.4</ele>
        <time>2015-08-29T08:16:59Z</time>
      </trkpt>
      <trkpt lat="34.152" lon="77.01654">
        <ele>4650</ele>
        <time>2015-08-29T08:17:00Z</time>
      </trkpt>
      <trkpt lat="34.152" lon="77.01654">
        <ele>4649.8</ele>
        <time>2015-08-29T08:17:01Z</time>
      </trkpt>
      <trkpt lat="34.15202" lon="77.01657">
        <ele>4649.6</ele>
        <time>2015-08-29T08:17:03Z</time>
      </trkpt>
      <trkpt lat="34.15202" lon="77.01659">
        <ele>4649.6</ele>
        <time>2015-08-29T08:17:22Z</time>
      </trkpt>
      <trkpt lat="34.15201" lon="77.01661">
        <ele>4649</ele>
        <time>2015-08-29T08:17:26Z</time>
      </trkpt>
      <trkpt lat="34.152" lon="77.01664">
        <ele>4647.8</ele>
        <time>2015-08-29T08:17:35Z</time>
      </trkpt>
      <trkpt lat="34.15201" lon="77.01668">
        <ele>4646.8</ele>
        <time>2015-08-29T08:17:40Z</time>
      </trkpt>
      <trkpt lat="34.152" lon="77.01673">
        <ele>4645.6</ele>
        <time>2015-08-29T08:17:47Z</time>
      </trkpt>
      <trkpt lat="34.15201" lon="77.01675">
        <ele>4644.6</ele>
        <time>2015-08-29T08:17:55Z</time>
      </trkpt>
      <trkpt lat="34.15202" lon="77.01679">
        <ele>4643.6</ele>
        <time>2015-08-29T08:17:59Z</time>
      </trkpt>
      <trkpt lat="34.15204" lon="77.0168">
        <ele>4642.4</ele>
        <time>2015-08-29T08:18:05Z</time>
      </trkpt>
      <trkpt lat="34.15204" lon="77.01684">
        <ele>4641.4</ele>
        <time>2015-08-29T08:18:15Z</time>
      </trkpt>
      <trkpt lat="34.15201" lon="77.01692">
        <ele>4640.2</ele>
        <time>2015-08-29T08:18:22Z</time>
      </trkpt>
      <trkpt lat="34.15199" lon="77.017">
        <ele>4639</ele>
        <time>2015-08-29T08:18:27Z</time>
      </trkpt>
      <trkpt lat="34.152" lon="77.01706">
        <ele>4638</ele>
        <time>2015-08-29T08:18:33Z</time>
      </trkpt>
      <trkpt lat="34.152" lon="77.01709">
        <ele>4636.8</ele>
        <time>2015-08-29T08:18:38Z</time>
      </trkpt>
      <trkpt lat="34.15201" lon="77.01715">
        <ele>4635.8</ele>
        <time>2015-08-29T08:18:45Z</time>
      </trkpt>
      <trkpt lat="34.15203" lon="77.01721">
        <ele>4634.8</ele>
        <time>2015-08-29T08:18:53Z</time>
      </trkpt>
      <trkpt lat="34.15204" lon="77.01727">
        <ele>4633.8</ele>
        <time>2015-08-29T08:18:58Z</time>
      </trkpt>
      <trkpt lat="34.15205" lon="77.01737">
        <ele>4632.8</ele>
        <time>2015-08-29T08:19:06Z</time>
      </trkpt>
      <trkpt lat="34.15204" lon="77.01739">
        <ele>4632.6</ele>
        <time>2015-08-29T08:19:08Z</time>
      </trkpt>
      <trkpt lat="34.15204" lon="77.0174">
        <ele>4632.6</ele>
        <time>2015-08-29T08:19:10Z</time>
      </trkpt>
      <trkpt lat="34.15205" lon="77.01737">
        <ele>4632.8</ele>
        <time>2015-08-29T08:19:29Z</time>
      </trkpt>
      <trkpt lat="34.15208" lon="77.01734">
        <ele>4633.2</ele>
        <time>2015-08-29T08:19:35Z</time>
      </trkpt>
      <trkpt lat="34.15204" lon="77.01735">
        <ele>4633</ele>
        <time>2015-08-29T08:19:51Z</time>
      </trkpt>
      <trkpt lat="34.15201" lon="77.01738">
        <ele>4632.6</ele>
        <time>2015-08-29T08:19:59Z</time>
      </trkpt>
      <trkpt lat="34.15209" lon="77.0174">
        <ele>4631.6</ele>
        <time>2015-08-29T08:20:22Z</time>
      </trkpt>
      <trkpt lat="34.15215" lon="77.01741">
        <ele>4631.6</ele>
        <time>2015-08-29T08:21:25Z</time>
      </trkpt>
      <trkpt lat="34.15208" lon="77.01741">
        <ele>4632.2</ele>
        <time>2015-08-29T08:21:49Z</time>
      </trkpt>
      <trkpt lat="34.15207" lon="77.01746">
        <ele>4630.8</ele>
        <time>2015-08-29T08:22:26Z</time>
      </trkpt>
      <trkpt lat="34.15207" lon="77.01746">
        <ele>4630.6</ele>
        <time>2015-08-29T08:22:27Z</time>
      </trkpt>
      <trkpt lat="34.15205" lon="77.01746">
        <ele>4629.6</ele>
        <time>2015-08-29T08:22:35Z</time>
      </trkpt>
      <trkpt lat="34.15203" lon="77.01748">
        <ele>4628.6</ele>
        <time>2015-08-29T08:22:49Z</time>
      </trkpt>
      <trkpt lat="34.15203" lon="77.0175">
        <ele>4628.4</ele>
        <time>2015-08-29T08:22:50Z</time>
      </trkpt>
      <trkpt lat="34.15202" lon="77.01755">
        <ele>4628.2</ele>
        <time>2015-08-29T08:22:54Z</time>
      </trkpt>
      <trkpt lat="34.15202" lon="77.01758">
        <ele>4627.4</ele>
        <time>2015-08-29T08:23:00Z</time>
      </trkpt>
      <trkpt lat="34.15202" lon="77.01758">
        <ele>4626.2</ele>
        <time>2015-08-29T08:23:07Z</time>
      </trkpt>
      <trkpt lat="34.15202" lon="77.01758">
        <ele>4625.2</ele>
        <time>2015-08-29T08:23:12Z</time>
      </trkpt>
      <trkpt lat="34.15202" lon="77.01761">
        <ele>4624.6</ele>
        <time>2015-08-29T08:23:16Z</time>
      </trkpt>
      <trkpt lat="34.15198" lon="77.01772">
        <ele>4624.2</ele>
        <time>2015-08-29T08:23:20Z</time>
      </trkpt>
      <trkpt lat="34.15198" lon="77.01773">
        <ele>4624</ele>
        <time>2015-08-29T08:23:21Z</time>
      </trkpt>
      <trkpt lat="34.15195" lon="77.01776">
        <ele>4623</ele>
        <time>2015-08-29T08:23:28Z</time>
      </trkpt>
      <trkpt lat="34.15193" lon="77.0178">
        <ele>4622</ele>
        <time>2015-08-29T08:23:35Z</time>
      </trkpt>
      <trkpt lat="34.15198" lon="77.01782">
        <ele>4620.8</ele>
        <time>2015-08-29T08:23:42Z</time>
      </trkpt>
      <trkpt lat="34.15195" lon="77.01779">
        <ele>4619.8</ele>
        <time>2015-08-29T08:23:46Z</time>
      </trkpt>
      <trkpt lat="34.15191" lon="77.01776">
        <ele>4618.8</ele>
        <time>2015-08-29T08:23:52Z</time>
      </trkpt>
      <trkpt lat="34.1519" lon="77.01776">
        <ele>4618.6</ele>
        <time>2015-08-29T08:23:53Z</time>
      </trkpt>
      <trkpt lat="34.15189" lon="77.01777">
        <ele>4618.4</ele>
        <time>2015-08-29T08:23:54Z</time>
      </trkpt>
      <trkpt lat="34.15187" lon="77.01774">
        <ele>4617.4</ele>
        <time>2015-08-29T08:24:00Z</time>
      </trkpt>
      <trkpt lat="34.15184" lon="77.01777">
        <ele>4616.4</ele>
        <time>2015-08-29T08:24:05Z</time>
      </trkpt>
      <trkpt lat="34.1518" lon="77.01789">
        <ele>4615.2</ele>
        <time>2015-08-29T08:24:12Z</time>
      </trkpt>
      <trkpt lat="34.15179" lon="77.01791">
        <ele>4615</ele>
        <time>2015-08-29T08:24:14Z</time>
      </trkpt>
      <trkpt lat="34.15177" lon="77.01796">
        <ele>4614.4</ele>
        <time>2015-08-29T08:24:17Z</time>
      </trkpt>
      <trkpt lat="34.15177" lon="77.01797">
        <ele>4614.2</ele>
        <time>2015-08-29T08:24:18Z</time>
      </trkpt>
      <trkpt lat="34.15173" lon="77.01812">
        <ele>4613</ele>
        <time>2015-08-29T08:24:23Z</time>
      </trkpt>
      <trkpt lat="34.15172" lon="77.01813">
        <ele>4612.8</ele>
        <time>2015-08-29T08:24:24Z</time>
      </trkpt>
      <trkpt lat="34.15172" lon="77.01815">
        <ele>4612.6</ele>
        <time>2015-08-29T08:24:26Z</time>
      </trkpt>
      <trkpt lat="34.15168" lon="77.01818">
        <ele>4612</ele>
        <time>2015-08-29T08:24:30Z</time>
      </trkpt>
      <trkpt lat="34.15168" lon="77.01819">
        <ele>4612</ele>
        <time>2015-08-29T08:24:31Z</time>
      </trkpt>
      <trkpt lat="34.15165" lon="77.0182">
        <ele>4611.6</ele>
        <time>2015-08-29T08:24:34Z</time>
      </trkpt>
      <trkpt lat="34.15161" lon="77.01819">
        <ele>4610.8</ele>
        <time>2015-08-29T08:24:38Z</time>
      </trkpt>
      <trkpt lat="34.15159" lon="77.01818">
        <ele>4609.6</ele>
        <time>2015-08-29T08:24:47Z</time>
      </trkpt>
      <trkpt lat="34.15156" lon="77.01818">
        <ele>4608.6</ele>
        <time>2015-08-29T08:24:57Z</time>
      </trkpt>
      <trkpt lat="34.15152" lon="77.01826">
        <ele>4607.8</ele>
        <time>2015-08-29T08:25:01Z</time>
      </trkpt>
      <trkpt lat="34.15151" lon="77.01828">
        <ele>4607.4</ele>
        <time>2015-08-29T08:25:02Z</time>
      </trkpt>
      <trkpt lat="34.15148" lon="77.01831">
        <ele>4606.4</ele>
        <time>2015-08-29T08:25:08Z</time>
      </trkpt>
      <trkpt lat="34.15144" lon="77.01832">
        <ele>4605.4</ele>
        <time>2015-08-29T08:25:15Z</time>
      </trkpt>
      <trkpt lat="34.15139" lon="77.01837">
        <ele>4604.2</ele>
        <time>2015-08-29T08:25:23Z</time>
      </trkpt>
      <trkpt lat="34.15138" lon="77.01837">
        <ele>4604.2</ele>
        <time>2015-08-29T08:25:24Z</time>
      </trkpt>
      <trkpt lat="34.15134" lon="77.01841">
        <ele>4603.2</ele>
        <time>2015-08-29T08:25:30Z</time>
      </trkpt>
      <trkpt lat="34.15131" lon="77.01845">
        <ele>4602.2</ele>
        <time>2015-08-29T08:25:34Z</time>
      </trkpt>
      <trkpt lat="34.1513" lon="77.01846">
        <ele>4602.2</ele>
        <time>2015-08-29T08:25:35Z</time>
      </trkpt>
      <trkpt lat="34.15127" lon="77.01848">
        <ele>4601</ele>
        <time>2015-08-29T08:25:40Z</time>
      </trkpt>
      <trkpt lat="34.15122" lon="77.01855">
        <ele>4600</ele>
        <time>2015-08-29T08:25:47Z</time>
      </trkpt>
      <trkpt lat="34.15118" lon="77.01852">
        <ele>4598.8</ele>
        <time>2015-08-29T08:25:53Z</time>
      </trkpt>
      <trkpt lat="34.15117" lon="77.01852">
        <ele>4598.8</ele>
        <time>2015-08-29T08:25:54Z</time>
      </trkpt>
      <trkpt lat="34.15112" lon="77.01867">
        <ele>4597.8</ele>
        <time>2015-08-29T08:25:58Z</time>
      </trkpt>
      <trkpt lat="34.15111" lon="77.0187">
        <ele>4597.2</ele>
        <time>2015-08-29T08:26:00Z</time>
      </trkpt>
      <trkpt lat="34.1511" lon="77.01872">
        <ele>4596.8</ele>
        <time>2015-08-29T08:26:03Z</time>
      </trkpt>
      <trkpt lat="34.15108" lon="77.01876">
        <ele>4595.6</ele>
        <time>2015-08-29T08:26:09Z</time>
      </trkpt>
      <trkpt lat="34.15106" lon="77.01879">
        <ele>4594.6</ele>
        <time>2015-08-29T08:26:17Z</time>
      </trkpt>
      <trkpt lat="34.15104" lon="77.01878">
        <ele>4593.6</ele>
        <time>2015-08-29T08:26:23Z</time>
      </trkpt>
      <trkpt lat="34.151" lon="77.01877">
        <ele>4592.6</ele>
        <time>2015-08-29T08:26:29Z</time>
      </trkpt>
      <trkpt lat="34.15097" lon="77.0188">
        <ele>4591.6</ele>
        <time>2015-08-29T08:26:33Z</time>
      </trkpt>
      <trkpt lat="34.15096" lon="77.01881">
        <ele>4591</ele>
        <time>2015-08-29T08:26:35Z</time>
      </trkpt>
      <trkpt lat="34.15094" lon="77.01883">
        <ele>4590.4</ele>
        <time>2015-08-29T08:26:38Z</time>
      </trkpt>
      <trkpt lat="34.15091" lon="77.01883">
        <ele>4589.2</ele>
        <time>2015-08-29T08:26:45Z</time>
      </trkpt>
      <trkpt lat="34.15086" lon="77.01898">
        <ele>4588.2</ele>
        <time>2015-08-29T08:26:53Z</time>
      </trkpt>
      <trkpt lat="34.15083" lon="77.01906">
        <ele>4587.2</ele>
        <time>2015-08-29T08:27:02Z</time>
      </trkpt>
      <trkpt lat="34.15083" lon="77.01907">
        <ele>4587</ele>
        <time>2015-08-29T08:27:03Z</time>
      </trkpt>
      <trkpt lat="34.15082" lon="77.01907">
        <ele>4586.8</ele>
        <time>2015-08-29T08:27:04Z</time>
      </trkpt>
      <trkpt lat="34.15084" lon="77.01906">
        <ele>4585.8</ele>
        <time>2015-08-29T08:27:10Z</time>
      </trkpt>
      <trkpt lat="34.1508" lon="77.01909">
        <ele>4584.6</ele>
        <time>2015-08-29T08:27:15Z</time>
      </trkpt>
      <trkpt lat="34.15078" lon="77.01907">
        <ele>4583.4</ele>
        <time>2015-08-29T08:27:19Z</time>
      </trkpt>
      <trkpt lat="34.15071" lon="77.01909">
        <ele>4582.4</ele>
        <time>2015-08-29T08:27:26Z</time>
      </trkpt>
      <trkpt lat="34.15069" lon="77.01909">
        <ele>4582</ele>
        <time>2015-08-29T08:27:29Z</time>
      </trkpt>
      <trkpt lat="34.15066" lon="77.01912">
        <ele>4581.6</ele>
        <time>2015-08-29T08:27:33Z</time>
      </trkpt>
      <trkpt lat="34.15064" lon="77.01913">
        <ele>4581.2</ele>
        <time>2015-08-29T08:27:37Z</time>
      </trkpt>
      <trkpt lat="34.15063" lon="77.01915">
        <ele>4580.8</ele>
        <time>2015-08-29T08:27:39Z</time>
      </trkpt>
      <trkpt lat="34.15062" lon="77.01916">
        <ele>4580</ele>
        <time>2015-08-29T08:27:43Z</time>
      </trkpt>
      <trkpt lat="34.15057" lon="77.01921">
        <ele>4579.2</ele>
        <time>2015-08-29T08:27:51Z</time>
      </trkpt>
      <trkpt lat="34.15055" lon="77.0192">
        <ele>4579</ele>
        <time>2015-08-29T08:27:55Z</time>
      </trkpt>
      <trkpt lat="34.15052" lon="77.01925">
        <ele>4578</ele>
        <time>2015-08-29T08:27:59Z</time>
      </trkpt>
      <trkpt lat="34.15047" lon="77.01928">
        <ele>4576.8</ele>
        <time>2015-08-29T08:28:06Z</time>
      </trkpt>
      <trkpt lat="34.15044" lon="77.01938">
        <ele>4576</ele>
        <time>2015-08-29T08:28:09Z</time>
      </trkpt>
      <trkpt lat="34.15044" lon="77.01938">
        <ele>4575.8</ele>
        <time>2015-08-29T08:28:10Z</time>
      </trkpt>
      <trkpt lat="34.15042" lon="77.01937">
        <ele>4574.6</ele>
        <time>2015-08-29T08:28:15Z</time>
      </trkpt>
      <trkpt lat="34.15037" lon="77.01942">
        <ele>4573.6</ele>
        <time>2015-08-29T08:28:20Z</time>
      </trkpt>
      <trkpt lat="34.15033" lon="77.01948">
        <ele>4572.6</ele>
        <time>2015-08-29T08:28:28Z</time>
      </trkpt>
      <trkpt lat="34.15028" lon="77.01957">
        <ele>4571.4</ele>
        <time>2015-08-29T08:28:35Z</time>
      </trkpt>
      <trkpt lat="34.15024" lon="77.01958">
        <ele>4570.4</ele>
        <time>2015-08-29T08:28:41Z</time>
      </trkpt>
      <trkpt lat="34.15019" lon="77.0197">
        <ele>4569.2</ele>
        <time>2015-08-29T08:28:48Z</time>
      </trkpt>
      <trkpt lat="34.15019" lon="77.0197">
        <ele>4569</ele>
        <time>2015-08-29T08:28:49Z</time>
      </trkpt>
      <trkpt lat="34.15014" lon="77.01971">
        <ele>4568.2</ele>
        <time>2015-08-29T08:29:04Z</time>
      </trkpt>
      <trkpt lat="34.15009" lon="77.0197">
        <ele>4567</ele>
        <time>2015-08-29T08:29:11Z</time>
      </trkpt>
      <trkpt lat="34.15003" lon="77.01971">
        <ele>4566</ele>
        <time>2015-08-29T08:29:22Z</time>
      </trkpt>
      <trkpt lat="34.14999" lon="77.01975">
        <ele>4565.2</ele>
        <time>2015-08-29T08:29:28Z</time>
      </trkpt>
      <trkpt lat="34.14996" lon="77.01979">
        <ele>4565</ele>
        <time>2015-08-29T08:29:31Z</time>
      </trkpt>
      <trkpt lat="34.14995" lon="77.0198">
        <ele>4564.8</ele>
        <time>2015-08-29T08:29:33Z</time>
      </trkpt>
      <trkpt lat="34.14993" lon="77.01982">
        <ele>4564.4</ele>
        <time>2015-08-29T08:29:35Z</time>
      </trkpt>
      <trkpt lat="34.14991" lon="77.01986">
        <ele>4563.8</ele>
        <time>2015-08-29T08:29:39Z</time>
      </trkpt>
      <trkpt lat="34.14991" lon="77.01986">
        <ele>4563.8</ele>
        <time>2015-08-29T08:29:40Z</time>
      </trkpt>
      <trkpt lat="34.14989" lon="77.01988">
        <ele>4563.4</ele>
        <time>2015-08-29T08:29:43Z</time>
      </trkpt>
      <trkpt lat="34.14988" lon="77.01988">
        <ele>4562.8</ele>
        <time>2015-08-29T08:29:46Z</time>
      </trkpt>
      <trkpt lat="34.14984" lon="77.01982">
        <ele>4561.6</ele>
        <time>2015-08-29T08:29:57Z</time>
      </trkpt>
      <trkpt lat="34.1498" lon="77.01988">
        <ele>4560.6</ele>
        <time>2015-08-29T08:30:04Z</time>
      </trkpt>
      <trkpt lat="34.14979" lon="77.01988">
        <ele>4560.4</ele>
        <time>2015-08-29T08:30:05Z</time>
      </trkpt>
      <trkpt lat="34.14976" lon="77.0199">
        <ele>4559.4</ele>
        <time>2015-08-29T08:30:11Z</time>
      </trkpt>
      <trkpt lat="34.14972" lon="77.0199">
        <ele>4558.6</ele>
        <time>2015-08-29T08:30:16Z</time>
      </trkpt>
      <trkpt lat="34.14969" lon="77.01988">
        <ele>4558.4</ele>
        <time>2015-08-29T08:30:19Z</time>
      </trkpt>
      <trkpt lat="34.14961" lon="77.01993">
        <ele>4557.4</ele>
        <time>2015-08-29T08:30:32Z</time>
      </trkpt>
      <trkpt lat="34.14955" lon="77.02006">
        <ele>4556.4</ele>
        <time>2015-08-29T08:30:37Z</time>
      </trkpt>
      <trkpt lat="34.14953" lon="77.0201">
        <ele>4555.8</ele>
        <time>2015-08-29T08:30:39Z</time>
      </trkpt>
      <trkpt lat="34.14951" lon="77.02011">
        <ele>4555.2</ele>
        <time>2015-08-29T08:30:44Z</time>
      </trkpt>
      <trkpt lat="34.14949" lon="77.02012">
        <ele>4553.8</ele>
        <time>2015-08-29T08:30:47Z</time>
      </trkpt>
      <trkpt lat="34.14946" lon="77.02019">
        <ele>4552.8</ele>
        <time>2015-08-29T08:30:51Z</time>
      </trkpt>
      <trkpt lat="34.14945" lon="77.02021">
        <ele>4552</ele>
        <time>2015-08-29T08:30:54Z</time>
      </trkpt>
      <trkpt lat="34.14944" lon="77.02022">
        <ele>4551.8</ele>
        <time>2015-08-29T08:30:55Z</time>
      </trkpt>
      <trkpt lat="34.14944" lon="77.02026">
        <ele>4551</ele>
        <time>2015-08-29T08:30:59Z</time>
      </trkpt>
      <trkpt lat="34.14943" lon="77.02029">
        <ele>4550.6</ele>
        <time>2015-08-29T08:31:01Z</time>
      </trkpt>
      <trkpt lat="34.1494" lon="77.02034">
        <ele>4549.8</ele>
        <time>2015-08-29T08:31:07Z</time>
      </trkpt>
      <trkpt lat="34.1494" lon="77.02036">
        <ele>4549.6</ele>
        <time>2015-08-29T08:31:08Z</time>
      </trkpt>
      <trkpt lat="34.14935" lon="77.02053">
        <ele>4548.4</ele>
        <time>2015-08-29T08:31:16Z</time>
      </trkpt>
      <trkpt lat="34.14936" lon="77.02053">
        <ele>4548</ele>
        <time>2015-08-29T08:31:17Z</time>
      </trkpt>
      <trkpt lat="34.14933" lon="77.02055">
        <ele>4547.4</ele>
        <time>2015-08-29T08:31:21Z</time>
      </trkpt>
      <trkpt lat="34.1493" lon="77.02057">
        <ele>4546.2</ele>
        <time>2015-08-29T08:31:28Z</time>
      </trkpt>
      <trkpt lat="34.14928" lon="77.02063">
        <ele>4545.6</ele>
        <time>2015-08-29T08:31:32Z</time>
      </trkpt>
      <trkpt lat="34.14927" lon="77.02066">
        <ele>4545</ele>
        <time>2015-08-29T08:31:34Z</time>
      </trkpt>
      <trkpt lat="34.14921" lon="77.02075">
        <ele>4543.8</ele>
        <time>2015-08-29T08:31:47Z</time>
      </trkpt>
      <trkpt lat="34.14918" lon="77.02083">
        <ele>4543</ele>
        <time>2015-08-29T08:31:53Z</time>
      </trkpt>
      <trkpt lat="34.14918" lon="77.02084">
        <ele>4542.8</ele>
        <time>2015-08-29T08:31:54Z</time>
      </trkpt>
      <trkpt lat="34.14916" lon="77.02095">
        <ele>4541.8</ele>
        <time>2015-08-29T08:32:04Z</time>
      </trkpt>
      <trkpt lat="34.14915" lon="77.02101">
        <ele>4540.8</ele>
        <time>2015-08-29T08:32:09Z</time>
      </trkpt>
      <trkpt lat="34.14915" lon="77.02102">
        <ele>4540.6</ele>
        <time>2015-08-29T08:32:10Z</time>
      </trkpt>
      <trkpt lat="34.14915" lon="77.02103">
        <ele>4540.6</ele>
        <time>2015-08-29T08:32:11Z</time>
      </trkpt>
      <trkpt lat="34.14914" lon="77.02109">
        <ele>4539.8</ele>
        <time>2015-08-29T08:32:16Z</time>
      </trkpt>
      <trkpt lat="34.14914" lon="77.02117">
        <ele>4539.8</ele>
        <time>2015-08-29T08:32:20Z</time>
      </trkpt>
      <trkpt lat="34.14914" lon="77.02119">
        <ele>4539.6</ele>
        <time>2015-08-29T08:32:21Z</time>
      </trkpt>
      <trkpt lat="34.14915" lon="77.02129">
        <ele>4538.6</ele>
        <time>2015-08-29T08:32:32Z</time>
      </trkpt>
      <trkpt lat="34.14914" lon="77.0214">
        <ele>4537.4</ele>
        <time>2015-08-29T08:32:46Z</time>
      </trkpt>
      <trkpt lat="34.14913" lon="77.02146">
        <ele>4536.4</ele>
        <time>2015-08-29T08:32:53Z</time>
      </trkpt>
      <trkpt lat="34.14915" lon="77.02155">
        <ele>4536</ele>
        <time>2015-08-29T08:33:02Z</time>
      </trkpt>
      <trkpt lat="34.14916" lon="77.0216">
        <ele>4536.2</ele>
        <time>2015-08-29T08:33:06Z</time>
      </trkpt>
      <trkpt lat="34.14919" lon="77.02169">
        <ele>4535.4</ele>
        <time>2015-08-29T08:33:15Z</time>
      </trkpt>
      <trkpt lat="34.14924" lon="77.02177">
        <ele>4534.2</ele>
        <time>2015-08-29T08:33:26Z</time>
      </trkpt>
      <trkpt lat="34.14927" lon="77.02179">
        <ele>4534.2</ele>
        <time>2015-08-29T08:33:27Z</time>
      </trkpt>
      <trkpt lat="34.14926" lon="77.02184">
        <ele>4533.2</ele>
        <time>2015-08-29T08:33:32Z</time>
      </trkpt>
      <trkpt lat="34.14925" lon="77.02189">
        <ele>4533</ele>
        <time>2015-08-29T08:33:36Z</time>
      </trkpt>
      <trkpt lat="34.14926" lon="77.02194">
        <ele>4532.8</ele>
        <time>2015-08-29T08:33:41Z</time>
      </trkpt>
      <trkpt lat="34.14925" lon="77.02197">
        <ele>4532.2</ele>
        <time>2015-08-29T08:33:45Z</time>
      </trkpt>
      <trkpt lat="34.14926" lon="77.02201">
        <ele>4531.2</ele>
        <time>2015-08-29T08:33:51Z</time>
      </trkpt>
      <trkpt lat="34.14926" lon="77.02207">
        <ele>4530</ele>
        <time>2015-08-29T08:33:57Z</time>
      </trkpt>
      <trkpt lat="34.14924" lon="77.02214">
        <ele>4529</ele>
        <time>2015-08-29T08:34:06Z</time>
      </trkpt>
      <trkpt lat="34.14924" lon="77.02215">
        <ele>4528.4</ele>
        <time>2015-08-29T08:34:09Z</time>
      </trkpt>
      <trkpt lat="34.14923" lon="77.0222">
        <ele>4527.8</ele>
        <time>2015-08-29T08:34:15Z</time>
      </trkpt>
      <trkpt lat="34.14919" lon="77.02225">
        <ele>4526.8</ele>
        <time>2015-08-29T08:34:24Z</time>
      </trkpt>
      <trkpt lat="34.14917" lon="77.02233">
        <ele>4525.6</ele>
        <time>2015-08-29T08:34:31Z</time>
      </trkpt>
      <trkpt lat="34.14916" lon="77.02243">
        <ele>4524.6</ele>
        <time>2015-08-29T08:34:40Z</time>
      </trkpt>
      <trkpt lat="34.14914" lon="77.0225">
        <ele>4523.4</ele>
        <time>2015-08-29T08:34:49Z</time>
      </trkpt>
      <trkpt lat="34.14912" lon="77.02253">
        <ele>4522.4</ele>
        <time>2015-08-29T08:34:55Z</time>
      </trkpt>
      <trkpt lat="34.14913" lon="77.02259">
        <ele>4521.2</ele>
        <time>2015-08-29T08:35:01Z</time>
      </trkpt>
      <trkpt lat="34.14912" lon="77.02262">
        <ele>4520</ele>
        <time>2015-08-29T08:35:05Z</time>
      </trkpt>
      <trkpt lat="34.14911" lon="77.02264">
        <ele>4519</ele>
        <time>2015-08-29T08:35:10Z</time>
      </trkpt>
      <trkpt lat="34.14908" lon="77.0227">
        <ele>4517.8</ele>
        <time>2015-08-29T08:35:15Z</time>
      </trkpt>
      <trkpt lat="34.14907" lon="77.02272">
        <ele>4517.4</ele>
        <time>2015-08-29T08:35:17Z</time>
      </trkpt>
      <trkpt lat="34.14906" lon="77.02275">
        <ele>4516.8</ele>
        <time>2015-08-29T08:35:19Z</time>
      </trkpt>
      <trkpt lat="34.14905" lon="77.02278">
        <ele>4516.6</ele>
        <time>2015-08-29T08:35:20Z</time>
      </trkpt>
      <trkpt lat="34.14904" lon="77.02295">
        <ele>4516</ele>
        <time>2015-08-29T08:35:32Z</time>
      </trkpt>
      <trkpt lat="34.14899" lon="77.02299">
        <ele>4516.4</ele>
        <time>2015-08-29T08:35:39Z</time>
      </trkpt>
      <trkpt lat="34.14899" lon="77.02299">
        <ele>4516.4</ele>
        <time>2015-08-29T08:35:41Z</time>
      </trkpt>
      <trkpt lat="34.14897" lon="77.023">
        <ele>4515.6</ele>
        <time>2015-08-29T08:35:46Z</time>
      </trkpt>
      <trkpt lat="34.14892" lon="77.02305">
        <ele>4514.4</ele>
        <time>2015-08-29T08:35:56Z</time>
      </trkpt>
      <trkpt lat="34.14891" lon="77.02309">
        <ele>4514</ele>
        <time>2015-08-29T08:36:00Z</time>
      </trkpt>
      <trkpt lat="34.14889" lon="77.02312">
        <ele>4513.4</ele>
        <time>2015-08-29T08:36:05Z</time>
      </trkpt>
      <trkpt lat="34.14886" lon="77.02315">
        <ele>4512.8</ele>
        <time>2015-08-29T08:36:08Z</time>
      </trkpt>
      <trkpt lat="34.14881" lon="77.02319">
        <ele>4512.4</ele>
        <time>2015-08-29T08:36:16Z</time>
      </trkpt>
      <trkpt lat="34.14879" lon="77.02321">
        <ele>4512.2</ele>
        <time>2015-08-29T08:36:19Z</time>
      </trkpt>
      <trkpt lat="34.14878" lon="77.02327">
        <ele>4511.8</ele>
        <time>2015-08-29T08:36:24Z</time>
      </trkpt>
      <trkpt lat="34.14876" lon="77.02333">
        <ele>4511.2</ele>
        <time>2015-08-29T08:36:27Z</time>
      </trkpt>
      <trkpt lat="34.14875" lon="77.02335">
        <ele>4511.2</ele>
        <time>2015-08-29T08:36:28Z</time>
      </trkpt>
      <trkpt lat="34.14874" lon="77.02351">
        <ele>4510.6</ele>
        <time>2015-08-29T08:36:38Z</time>
      </trkpt>
      <trkpt lat="34.14872" lon="77.02356">
        <ele>4510.2</ele>
        <time>2015-08-29T08:36:45Z</time>
      </trkpt>
      <trkpt lat="34.14871" lon="77.02359">
        <ele>4509.8</ele>
        <time>2015-08-29T08:36:48Z</time>
      </trkpt>
      <trkpt lat="34.1487" lon="77.02361">
        <ele>4509.2</ele>
        <time>2015-08-29T08:36:51Z</time>
      </trkpt>
      <trkpt lat="34.14869" lon="77.02367">
        <ele>4508.2</ele>
        <time>2015-08-29T08:37:05Z</time>
      </trkpt>
      <trkpt lat="34.14872" lon="77.02369">
        <ele>4508.8</ele>
        <time>2015-08-29T08:37:25Z</time>
      </trkpt>
      <trkpt lat="34.14872" lon="77.02369">
        <ele>4508.6</ele>
        <time>2015-08-29T08:37:27Z</time>
      </trkpt>
      <trkpt lat="34.14866" lon="77.02366">
        <ele>4507.8</ele>
        <time>2015-08-29T08:37:42Z</time>
      </trkpt>
      <trkpt lat="34.14863" lon="77.02373">
        <ele>4507.6</ele>
        <time>2015-08-29T08:37:45Z</time>
      </trkpt>
      <trkpt lat="34.14863" lon="77.02374">
        <ele>4507.2</ele>
        <time>2015-08-29T08:37:48Z</time>
      </trkpt>
      <trkpt lat="34.14864" lon="77.02375">
        <ele>4506.8</ele>
        <time>2015-08-29T08:38:22Z</time>
      </trkpt>
      <trkpt lat="34.14878" lon="77.02374">
        <ele>4507.8</ele>
        <time>2015-08-29T08:38:37Z</time>
      </trkpt>
      <trkpt lat="34.14879" lon="77.02375">
        <ele>4507.6</ele>
        <time>2015-08-29T08:38:40Z</time>
      </trkpt>
      <trkpt lat="34.14876" lon="77.02375">
        <ele>4508.2</ele>
        <time>2015-08-29T08:38:55Z</time>
      </trkpt>
      <trkpt lat="34.14873" lon="77.02376">
        <ele>4508.4</ele>
        <time>2015-08-29T08:39:25Z</time>
      </trkpt>
      <trkpt lat="34.14873" lon="77.02377">
        <ele>4508.4</ele>
        <time>2015-08-29T08:39:27Z</time>
      </trkpt>
      <trkpt lat="34.14869" lon="77.02375">
        <ele>4508.4</ele>
        <time>2015-08-29T08:39:41Z</time>
      </trkpt>
      <trkpt lat="34.1487" lon="77.02376">
        <ele>4508.8</ele>
        <time>2015-08-29T08:40:04Z</time>
      </trkpt>
      <trkpt lat="34.14877" lon="77.0236">
        <ele>4507.4</ele>
        <time>2015-08-29T08:40:35Z</time>
      </trkpt>
      <trkpt lat="34.14875" lon="77.02365">
        <ele>4507.2</ele>
        <time>2015-08-29T08:40:41Z</time>
      </trkpt>
      <trkpt lat="34.14867" lon="77.02369">
        <ele>4506.6</ele>
        <time>2015-08-29T08:40:50Z</time>
      </trkpt>
      <trkpt lat="34.14867" lon="77.02373">
        <ele>4506</ele>
        <time>2015-08-29T08:40:54Z</time>
      </trkpt>
      <trkpt lat="34.14866" lon="77.02375">
        <ele>4505</ele>
        <time>2015-08-29T08:41:00Z</time>
      </trkpt>
      <trkpt lat="34.14865" lon="77.02381">
        <ele>4504.6</ele>
        <time>2015-08-29T08:41:31Z</time>
      </trkpt>
      <trkpt lat="34.14865" lon="77.02382">
        <ele>4504.4</ele>
        <time>2015-08-29T08:41:33Z</time>
      </trkpt>
      <trkpt lat="34.14866" lon="77.02384">
        <ele>4504.6</ele>
        <time>2015-08-29T08:41:35Z</time>
      </trkpt>
      <trkpt lat="34.1487" lon="77.02385">
        <ele>4504.8</ele>
        <time>2015-08-29T08:41:38Z</time>
      </trkpt>
      <trkpt lat="34.14868" lon="77.02392">
        <ele>4505.8</ele>
        <time>2015-08-29T08:42:05Z</time>
      </trkpt>
      <trkpt lat="34.14868" lon="77.02393">
        <ele>4505.8</ele>
        <time>2015-08-29T08:42:07Z</time>
      </trkpt>
      <trkpt lat="34.14869" lon="77.02402">
        <ele>4504.4</ele>
        <time>2015-08-29T08:42:22Z</time>
      </trkpt>
      <trkpt lat="34.14871" lon="77.02399">
        <ele>4504</ele>
        <time>2015-08-29T08:42:24Z</time>
      </trkpt>
      <trkpt lat="34.1487" lon="77.02398">
        <ele>4503.8</ele>
        <time>2015-08-29T08:42:25Z</time>
      </trkpt>
      <trkpt lat="34.14863" lon="77.02392">
        <ele>4505.2</ele>
        <time>2015-08-29T08:42:44Z</time>
      </trkpt>
      <trkpt lat="34.14864" lon="77.02388">
        <ele>4504</ele>
        <time>2015-08-29T08:42:51Z</time>
      </trkpt>
      <trkpt lat="34.14869" lon="77.02387">
        <ele>4502.8</ele>
        <time>2015-08-29T08:42:56Z</time>
      </trkpt>
      <trkpt lat="34.14858" lon="77.02389">
        <ele>4503.2</ele>
        <time>2015-08-29T08:43:06Z</time>
      </trkpt>
      <trkpt lat="34.1486" lon="77.02393">
        <ele>4503.6</ele>
        <time>2015-08-29T08:43:13Z</time>
      </trkpt>
      <trkpt lat="34.1487" lon="77.02386">
        <ele>4503.4</ele>
        <time>2015-08-29T08:43:19Z</time>
      </trkpt>
      <trkpt lat="34.14872" lon="77.02384">
        <ele>4503.2</ele>
        <time>2015-08-29T08:43:22Z</time>
      </trkpt>
      <trkpt lat="34.14872" lon="77.02379">
        <ele>4503.2</ele>
        <time>2015-08-29T08:43:26Z</time>
      </trkpt>
      <trkpt lat="34.1487" lon="77.02381">
        <ele>4502.8</ele>
        <time>2015-08-29T08:43:28Z</time>
      </trkpt>
      <trkpt lat="34.14868" lon="77.0238">
        <ele>4501.8</ele>
        <time>2015-08-29T08:43:32Z</time>
      </trkpt>
      <trkpt lat="34.14865" lon="77.0238">
        <ele>4500.6</ele>
        <time>2015-08-29T08:43:39Z</time>
      </trkpt>
      <trkpt lat="34.14862" lon="77.02383">
        <ele>4499.6</ele>
        <time>2015-08-29T08:43:46Z</time>
      </trkpt>
      <trkpt lat="34.1486" lon="77.02384">
        <ele>4499.4</ele>
        <time>2015-08-29T08:43:48Z</time>
      </trkpt>
      <trkpt lat="34.14855" lon="77.0239">
        <ele>4498.6</ele>
        <time>2015-08-29T08:43:57Z</time>
      </trkpt>
      <trkpt lat="34.14851" lon="77.02397">
        <ele>4497.6</ele>
        <time>2015-08-29T08:44:04Z</time>
      </trkpt>
      <trkpt lat="34.14849" lon="77.02401">
        <ele>4496.4</ele>
        <time>2015-08-29T08:44:09Z</time>
      </trkpt>
      <trkpt lat="34.14846" lon="77.02406">
        <ele>4495.6</ele>
        <time>2015-08-29T08:44:14Z</time>
      </trkpt>
      <trkpt lat="34.14845" lon="77.02408">
        <ele>4495.4</ele>
        <time>2015-08-29T08:44:16Z</time>
      </trkpt>
      <trkpt lat="34.14844" lon="77.02413">
        <ele>4494.4</ele>
        <time>2015-08-29T08:44:24Z</time>
      </trkpt>
      <trkpt lat="34.14841" lon="77.02422">
        <ele>4493.2</ele>
        <time>2015-08-29T08:44:31Z</time>
      </trkpt>
      <trkpt lat="34.1484" lon="77.02428">
        <ele>4492.2</ele>
        <time>2015-08-29T08:44:37Z</time>
      </trkpt>
      <trkpt lat="34.14838" lon="77.02434">
        <ele>4491.8</ele>
        <time>2015-08-29T08:44:39Z</time>
      </trkpt>
      <trkpt lat="34.14836" lon="77.02442">
        <ele>4491</ele>
        <time>2015-08-29T08:44:44Z</time>
      </trkpt>
      <trkpt lat="34.14833" lon="77.02451">
        <ele>4490</ele>
        <time>2015-08-29T08:44:52Z</time>
      </trkpt>
      <trkpt lat="34.1483" lon="77.02458">
        <ele>4488.8</ele>
        <time>2015-08-29T08:44:59Z</time>
      </trkpt>
      <trkpt lat="34.14829" lon="77.02459">
        <ele>4488.6</ele>
        <time>2015-08-29T08:45:00Z</time>
      </trkpt>
      <trkpt lat="34.14825" lon="77.02462">
        <ele>4487.8</ele>
        <time>2015-08-29T08:45:05Z</time>
      </trkpt>
      <trkpt lat="34.14821" lon="77.02464">
        <ele>4487</ele>
        <time>2015-08-29T08:45:11Z</time>
      </trkpt>
      <trkpt lat="34.14821" lon="77.02465">
        <ele>4486.6</ele>
        <time>2015-08-29T08:45:12Z</time>
      </trkpt>
      <trkpt lat="34.14819" lon="77.02471">
        <ele>4485.4</ele>
        <time>2015-08-29T08:45:17Z</time>
      </trkpt>
      <trkpt lat="34.14818" lon="77.02477">
        <ele>4485</ele>
        <time>2015-08-29T08:45:21Z</time>
      </trkpt>
      <trkpt lat="34.14817" lon="77.0248">
        <ele>4484.2</ele>
        <time>2015-08-29T08:45:24Z</time>
      </trkpt>
      <trkpt lat="34.14816" lon="77.02482">
        <ele>4483</ele>
        <time>2015-08-29T08:45:29Z</time>
      </trkpt>
      <trkpt lat="34.14812" lon="77.02487">
        <ele>4482</ele>
        <time>2015-08-29T08:45:35Z</time>
      </trkpt>
      <trkpt lat="34.14812" lon="77.02489">
        <ele>4481.8</ele>
        <time>2015-08-29T08:45:36Z</time>
      </trkpt>
      <trkpt lat="34.14804" lon="77.02496">
        <ele>4482</ele>
        <time>2015-08-29T08:45:44Z</time>
      </trkpt>
      <trkpt lat="34.14802" lon="77.02501">
        <ele>4480.8</ele>
        <time>2015-08-29T08:45:49Z</time>
      </trkpt>
      <trkpt lat="34.14802" lon="77.02503">
        <ele>4479.8</ele>
        <time>2015-08-29T08:45:52Z</time>
      </trkpt>
      <trkpt lat="34.14799" lon="77.02508">
        <ele>4478.8</ele>
        <time>2015-08-29T08:45:57Z</time>
      </trkpt>
      <trkpt lat="34.14799" lon="77.02509">
        <ele>4478.8</ele>
        <time>2015-08-29T08:45:58Z</time>
      </trkpt>
      <trkpt lat="34.14797" lon="77.02512">
        <ele>4478</ele>
        <time>2015-08-29T08:46:01Z</time>
      </trkpt>
      <trkpt lat="34.14796" lon="77.02513">
        <ele>4477.6</ele>
        <time>2015-08-29T08:46:02Z</time>
      </trkpt>
      <trkpt lat="34.14794" lon="77.02519">
        <ele>4476.6</ele>
        <time>2015-08-29T08:46:08Z</time>
      </trkpt>
      <trkpt lat="34.14791" lon="77.0253">
        <ele>4475.4</ele>
        <time>2015-08-29T08:46:16Z</time>
      </trkpt>
      <trkpt lat="34.14791" lon="77.02531">
        <ele>4475.2</ele>
        <time>2015-08-29T08:46:17Z</time>
      </trkpt>
      <trkpt lat="34.14789" lon="77.02534">
        <ele>4474.4</ele>
        <time>2015-08-29T08:46:21Z</time>
      </trkpt>
      <trkpt lat="34.14789" lon="77.02535">
        <ele>4474.2</ele>
        <time>2015-08-29T08:46:22Z</time>
      </trkpt>
      <trkpt lat="34.14787" lon="77.02538">
        <ele>4473.6</ele>
        <time>2015-08-29T08:46:25Z</time>
      </trkpt>
      <trkpt lat="34.14786" lon="77.0254">
        <ele>4473.4</ele>
        <time>2015-08-29T08:46:27Z</time>
      </trkpt>
      <trkpt lat="34.14785" lon="77.02541">
        <ele>4473.2</ele>
        <time>2015-08-29T08:46:28Z</time>
      </trkpt>
      <trkpt lat="34.14782" lon="77.02544">
        <ele>4472.6</ele>
        <time>2015-08-29T08:46:32Z</time>
      </trkpt>
      <trkpt lat="34.1478" lon="77.02548">
        <ele>4472.2</ele>
        <time>2015-08-29T08:46:35Z</time>
      </trkpt>
      <trkpt lat="34.14773" lon="77.02557">
        <ele>4471.2</ele>
        <time>2015-08-29T08:46:45Z</time>
      </trkpt>
      <trkpt lat="34.1477" lon="77.02556">
        <ele>4470.2</ele>
        <time>2015-08-29T08:46:53Z</time>
      </trkpt>
      <trkpt lat="34.14767" lon="77.02562">
        <ele>4469</ele>
        <time>2015-08-29T08:47:00Z</time>
      </trkpt>
      <trkpt lat="34.14768" lon="77.02571">
        <ele>4468</ele>
        <time>2015-08-29T08:47:06Z</time>
      </trkpt>
      <trkpt lat="34.14767" lon="77.02573">
        <ele>4467.6</ele>
        <time>2015-08-29T08:47:08Z</time>
      </trkpt>
      <trkpt lat="34.14766" lon="77.02576">
        <ele>4467</ele>
        <time>2015-08-29T08:47:12Z</time>
      </trkpt>
      <trkpt lat="34.14765" lon="77.0258">
        <ele>4466.4</ele>
        <time>2015-08-29T08:47:16Z</time>
      </trkpt>
      <trkpt lat="34.14762" lon="77.02583">
        <ele>4465.8</ele>
        <time>2015-08-29T08:47:21Z</time>
      </trkpt>
      <trkpt lat="34.14758" lon="77.0259">
        <ele>4465</ele>
        <time>2015-08-29T08:47:28Z</time>
      </trkpt>
      <trkpt lat="34.14758" lon="77.02591">
        <ele>4464.8</ele>
        <time>2015-08-29T08:47:29Z</time>
      </trkpt>
      <trkpt lat="34.14757" lon="77.02592">
        <ele>4464.6</ele>
        <time>2015-08-29T08:47:30Z</time>
      </trkpt>
      <trkpt lat="34.14755" lon="77.02595">
        <ele>4463.8</ele>
        <time>2015-08-29T08:47:33Z</time>
      </trkpt>
      <trkpt lat="34.14751" lon="77.02598">
        <ele>4462.8</ele>
        <time>2015-08-29T08:47:38Z</time>
      </trkpt>
      <trkpt lat="34.14751" lon="77.02599">
        <ele>4462.4</ele>
        <time>2015-08-29T08:47:39Z</time>
      </trkpt>
      <trkpt lat="34.1475" lon="77.026">
        <ele>4461.6</ele>
        <time>2015-08-29T08:47:42Z</time>
      </trkpt>
      <trkpt lat="34.14749" lon="77.02603">
        <ele>4460.4</ele>
        <time>2015-08-29T08:47:46Z</time>
      </trkpt>
      <trkpt lat="34.14749" lon="77.02609">
        <ele>4459.4</ele>
        <time>2015-08-29T08:47:50Z</time>
      </trkpt>
      <trkpt lat="34.14748" lon="77.02616">
        <ele>4458.2</ele>
        <time>2015-08-29T08:47:55Z</time>
      </trkpt>
      <trkpt lat="34.14748" lon="77.0262">
        <ele>4457</ele>
        <time>2015-08-29T08:48:02Z</time>
      </trkpt>
      <trkpt lat="34.14748" lon="77.02624">
        <ele>4456</ele>
        <time>2015-08-29T08:48:06Z</time>
      </trkpt>
      <trkpt lat="34.14746" lon="77.02631">
        <ele>4455.2</ele>
        <time>2015-08-29T08:48:11Z</time>
      </trkpt>
      <trkpt lat="34.14746" lon="77.02632">
        <ele>4455</ele>
        <time>2015-08-29T08:48:12Z</time>
      </trkpt>
      <trkpt lat="34.14746" lon="77.02633">
        <ele>4454.8</ele>
        <time>2015-08-29T08:48:13Z</time>
      </trkpt>
      <trkpt lat="34.14745" lon="77.0264">
        <ele>4454</ele>
        <time>2015-08-29T08:48:17Z</time>
      </trkpt>
      <trkpt lat="34.14745" lon="77.02641">
        <ele>4454</ele>
        <time>2015-08-29T08:48:18Z</time>
      </trkpt>
      <trkpt lat="34.14745" lon="77.02647">
        <ele>4453.2</ele>
        <time>2015-08-29T08:48:23Z</time>
      </trkpt>
      <trkpt lat="34.14745" lon="77.02649">
        <ele>4452.8</ele>
        <time>2015-08-29T08:48:25Z</time>
      </trkpt>
      <trkpt lat="34.14745" lon="77.0265">
        <ele>4452.8</ele>
        <time>2015-08-29T08:48:26Z</time>
      </trkpt>
      <trkpt lat="34.14745" lon="77.02652">
        <ele>4452.4</ele>
        <time>2015-08-29T08:48:28Z</time>
      </trkpt>
      <trkpt lat="34.14744" lon="77.02656">
        <ele>4452.4</ele>
        <time>2015-08-29T08:48:32Z</time>
      </trkpt>
      <trkpt lat="34.14742" lon="77.02658">
        <ele>4452.4</ele>
        <time>2015-08-29T08:48:35Z</time>
      </trkpt>
      <trkpt lat="34.14741" lon="77.02659">
        <ele>4452.4</ele>
        <time>2015-08-29T08:48:36Z</time>
      </trkpt>
      <trkpt lat="34.1474" lon="77.02661">
        <ele>4452.4</ele>
        <time>2015-08-29T08:48:39Z</time>
      </trkpt>
      <trkpt lat="34.1474" lon="77.02666">
        <ele>4451.8</ele>
        <time>2015-08-29T08:48:46Z</time>
      </trkpt>
      <trkpt lat="34.14737" lon="77.0267">
        <ele>4450.8</ele>
        <time>2015-08-29T08:48:53Z</time>
      </trkpt>
      <trkpt lat="34.14736" lon="77.02675">
        <ele>4449.6</ele>
        <time>2015-08-29T08:48:59Z</time>
      </trkpt>
      <trkpt lat="34.14737" lon="77.02683">
        <ele>4448.4</ele>
        <time>2015-08-29T08:49:06Z</time>
      </trkpt>
      <trkpt lat="34.14735" lon="77.02687">
        <ele>4448</ele>
        <time>2015-08-29T08:49:09Z</time>
      </trkpt>
      <trkpt lat="34.14734" lon="77.02691">
        <ele>4447.4</ele>
        <time>2015-08-29T08:49:13Z</time>
      </trkpt>
      <trkpt lat="34.14733" lon="77.02698">
        <ele>4446.4</ele>
        <time>2015-08-29T08:49:18Z</time>
      </trkpt>
      <trkpt lat="34.14732" lon="77.02699">
        <ele>4446</ele>
        <time>2015-08-29T08:49:20Z</time>
      </trkpt>
      <trkpt lat="34.1473" lon="77.02702">
        <ele>4445.4</ele>
        <time>2015-08-29T08:49:23Z</time>
      </trkpt>
      <trkpt lat="34.14729" lon="77.02702">
        <ele>4445.2</ele>
        <time>2015-08-29T08:49:24Z</time>
      </trkpt>
      <trkpt lat="34.14728" lon="77.02706">
        <ele>4444.4</ele>
        <time>2015-08-29T08:49:29Z</time>
      </trkpt>
      <trkpt lat="34.14727" lon="77.02706">
        <ele>4444.2</ele>
        <time>2015-08-29T08:49:30Z</time>
      </trkpt>
      <trkpt lat="34.14726" lon="77.02709">
        <ele>4443.2</ele>
        <time>2015-08-29T08:49:36Z</time>
      </trkpt>
      <trkpt lat="34.14725" lon="77.02709">
        <ele>4443</ele>
        <time>2015-08-29T08:49:37Z</time>
      </trkpt>
      <trkpt lat="34.14726" lon="77.02715">
        <ele>4442.4</ele>
        <time>2015-08-29T08:49:41Z</time>
      </trkpt>
      <trkpt lat="34.14725" lon="77.02718">
        <ele>4442</ele>
        <time>2015-08-29T08:49:44Z</time>
      </trkpt>
      <trkpt lat="34.14722" lon="77.02722">
        <ele>4441.4</ele>
        <time>2015-08-29T08:49:47Z</time>
      </trkpt>
      <trkpt lat="34.1472" lon="77.02726">
        <ele>4440.8</ele>
        <time>2015-08-29T08:49:49Z</time>
      </trkpt>
      <trkpt lat="34.14717" lon="77.02736">
        <ele>4439.8</ele>
        <time>2015-08-29T08:49:54Z</time>
      </trkpt>
      <trkpt lat="34.14717" lon="77.02739">
        <ele>4438.6</ele>
        <time>2015-08-29T08:49:59Z</time>
      </trkpt>
      <trkpt lat="34.14717" lon="77.02743">
        <ele>4438</ele>
        <time>2015-08-29T08:50:02Z</time>
      </trkpt>
      <trkpt lat="34.14717" lon="77.02747">
        <ele>4437.6</ele>
        <time>2015-08-29T08:50:06Z</time>
      </trkpt>
      <trkpt lat="34.14718" lon="77.02752">
        <ele>4436.8</ele>
        <time>2015-08-29T08:50:10Z</time>
      </trkpt>
      <trkpt lat="34.14717" lon="77.02755">
        <ele>4436.2</ele>
        <time>2015-08-29T08:50:12Z</time>
      </trkpt>
      <trkpt lat="34.14716" lon="77.02758">
        <ele>4435.6</ele>
        <time>2015-08-29T08:50:15Z</time>
      </trkpt>
      <trkpt lat="34.14716" lon="77.02761">
        <ele>4435.4</ele>
        <time>2015-08-29T08:50:17Z</time>
      </trkpt>
      <trkpt lat="34.14716" lon="77.02764">
        <ele>4435.2</ele>
        <time>2015-08-29T08:50:20Z</time>
      </trkpt>
      <trkpt lat="34.14713" lon="77.02768">
        <ele>4435</ele>
        <time>2015-08-29T08:50:25Z</time>
      </trkpt>
      <trkpt lat="34.1471" lon="77.02771">
        <ele>4434</ele>
        <time>2015-08-29T08:50:31Z</time>
      </trkpt>
      <trkpt lat="34.1471" lon="77.02783">
        <ele>4433</ele>
        <time>2015-08-29T08:50:37Z</time>
      </trkpt>
      <trkpt lat="34.1471" lon="77.02787">
        <ele>4432.4</ele>
        <time>2015-08-29T08:50:40Z</time>
      </trkpt>
      <trkpt lat="34.1471" lon="77.0279">
        <ele>4432</ele>
        <time>2015-08-29T08:50:42Z</time>
      </trkpt>
      <trkpt lat="34.1471" lon="77.02797">
        <ele>4430.8</ele>
        <time>2015-08-29T08:50:49Z</time>
      </trkpt>
      <trkpt lat="34.14708" lon="77.028">
        <ele>4430.4</ele>
        <time>2015-08-29T08:50:51Z</time>
      </trkpt>
      <trkpt lat="34.14708" lon="77.02808">
        <ele>4429.6</ele>
        <time>2015-08-29T08:50:57Z</time>
      </trkpt>
      <trkpt lat="34.14707" lon="77.02815">
        <ele>4428.6</ele>
        <time>2015-08-29T08:51:05Z</time>
      </trkpt>
      <trkpt lat="34.14705" lon="77.02822">
        <ele>4427.4</ele>
        <time>2015-08-29T08:51:10Z</time>
      </trkpt>
      <trkpt lat="34.14705" lon="77.02823">
        <ele>4427.4</ele>
        <time>2015-08-29T08:51:11Z</time>
      </trkpt>
      <trkpt lat="34.14702" lon="77.02839">
        <ele>4426.4</ele>
        <time>2015-08-29T08:51:24Z</time>
      </trkpt>
      <trkpt lat="34.14704" lon="77.02844">
        <ele>4425.4</ele>
        <time>2015-08-29T08:51:29Z</time>
      </trkpt>
      <trkpt lat="34.14704" lon="77.02845">
        <ele>4425</ele>
        <time>2015-08-29T08:51:30Z</time>
      </trkpt>
      <trkpt lat="34.14701" lon="77.02851">
        <ele>4424.2</ele>
        <time>2015-08-29T08:51:36Z</time>
      </trkpt>
      <trkpt lat="34.14699" lon="77.02861">
        <ele>4423.2</ele>
        <time>2015-08-29T08:51:43Z</time>
      </trkpt>
      <trkpt lat="34.14698" lon="77.0287">
        <ele>4421.8</ele>
        <time>2015-08-29T08:51:52Z</time>
      </trkpt>
      <trkpt lat="34.14698" lon="77.02877">
        <ele>4420.6</ele>
        <time>2015-08-29T08:51:59Z</time>
      </trkpt>
      <trkpt lat="34.14695" lon="77.0288">
        <ele>4419.6</ele>
        <time>2015-08-29T08:52:08Z</time>
      </trkpt>
      <trkpt lat="34.14694" lon="77.02888">
        <ele>4419</ele>
        <time>2015-08-29T08:52:14Z</time>
      </trkpt>
      <trkpt lat="34.14693" lon="77.02892">
        <ele>4418.6</ele>
        <time>2015-08-29T08:52:16Z</time>
      </trkpt>
      <trkpt lat="34.14687" lon="77.02901">
        <ele>4417.6</ele>
        <time>2015-08-29T08:52:25Z</time>
      </trkpt>
      <trkpt lat="34.14685" lon="77.0291">
        <ele>4416.4</ele>
        <time>2015-08-29T08:52:31Z</time>
      </trkpt>
      <trkpt lat="34.14678" lon="77.02919">
        <ele>4415.4</ele>
        <time>2015-08-29T08:52:38Z</time>
      </trkpt>
      <trkpt lat="34.14676" lon="77.02926">
        <ele>4414.6</ele>
        <time>2015-08-29T08:52:45Z</time>
      </trkpt>
      <trkpt lat="34.14675" lon="77.0293">
        <ele>4414.4</ele>
        <time>2015-08-29T08:52:51Z</time>
      </trkpt>
      <trkpt lat="34.14671" lon="77.02936">
        <ele>4413.4</ele>
        <time>2015-08-29T08:52:59Z</time>
      </trkpt>
      <trkpt lat="34.14667" lon="77.02942">
        <ele>4412.2</ele>
        <time>2015-08-29T08:53:06Z</time>
      </trkpt>
      <trkpt lat="34.14665" lon="77.0295">
        <ele>4411.2</ele>
        <time>2015-08-29T08:53:11Z</time>
      </trkpt>
      <trkpt lat="34.14664" lon="77.0296">
        <ele>4410</ele>
        <time>2015-08-29T08:53:20Z</time>
      </trkpt>
      <trkpt lat="34.14665" lon="77.02967">
        <ele>4408.8</ele>
        <time>2015-08-29T08:53:26Z</time>
      </trkpt>
      <trkpt lat="34.14663" lon="77.02974">
        <ele>4407.6</ele>
        <time>2015-08-29T08:53:33Z</time>
      </trkpt>
      <trkpt lat="34.14667" lon="77.02981">
        <ele>4406.6</ele>
        <time>2015-08-29T08:53:39Z</time>
      </trkpt>
      <trkpt lat="34.14664" lon="77.02983">
        <ele>4406.4</ele>
        <time>2015-08-29T08:53:41Z</time>
      </trkpt>
      <trkpt lat="34.1466" lon="77.02985">
        <ele>4405.8</ele>
        <time>2015-08-29T08:53:44Z</time>
      </trkpt>
      <trkpt lat="34.14659" lon="77.02986">
        <ele>4405.6</ele>
        <time>2015-08-29T08:53:46Z</time>
      </trkpt>
      <trkpt lat="34.14651" lon="77.03">
        <ele>4404.4</ele>
        <time>2015-08-29T08:53:56Z</time>
      </trkpt>
      <trkpt lat="34.14646" lon="77.03007">
        <ele>4403.4</ele>
        <time>2015-08-29T08:54:02Z</time>
      </trkpt>
      <trkpt lat="34.14643" lon="77.03025">
        <ele>4402.4</ele>
        <time>2015-08-29T08:54:12Z</time>
      </trkpt>
      <trkpt lat="34.14642" lon="77.03025">
        <ele>4402.2</ele>
        <time>2015-08-29T08:54:13Z</time>
      </trkpt>
      <trkpt lat="34.14641" lon="77.03027">
        <ele>4402</ele>
        <time>2015-08-29T08:54:16Z</time>
      </trkpt>
      <trkpt lat="34.14638" lon="77.03032">
        <ele>4401.2</ele>
        <time>2015-08-29T08:54:20Z</time>
      </trkpt>
      <trkpt lat="34.14637" lon="77.0304">
        <ele>4400</ele>
        <time>2015-08-29T08:54:26Z</time>
      </trkpt>
      <trkpt lat="34.14636" lon="77.03045">
        <ele>4398.8</ele>
        <time>2015-08-29T08:54:31Z</time>
      </trkpt>
      <trkpt lat="34.14632" lon="77.03054">
        <ele>4397.8</ele>
        <time>2015-08-29T08:54:43Z</time>
      </trkpt>
      <trkpt lat="34.1462" lon="77.03073">
        <ele>4396.4</ele>
        <time>2015-08-29T08:55:03Z</time>
      </trkpt>
      <trkpt lat="34.14617" lon="77.03075">
        <ele>4395.6</ele>
        <time>2015-08-29T08:55:07Z</time>
      </trkpt>
      <trkpt lat="34.14616" lon="77.03078">
        <ele>4395.2</ele>
        <time>2015-08-29T08:55:10Z</time>
      </trkpt>
      <trkpt lat="34.14615" lon="77.0308">
        <ele>4394.4</ele>
        <time>2015-08-29T08:55:14Z</time>
      </trkpt>
      <trkpt lat="34.14614" lon="77.03084">
        <ele>4394.2</ele>
        <time>2015-08-29T08:55:17Z</time>
      </trkpt>
      <trkpt lat="34.14613" lon="77.03091">
        <ele>4393.2</ele>
        <time>2015-08-29T08:55:26Z</time>
      </trkpt>
      <trkpt lat="34.14613" lon="77.03092">
        <ele>4393</ele>
        <time>2015-08-29T08:55:27Z</time>
      </trkpt>
      <trkpt lat="34.1461" lon="77.031">
        <ele>4392</ele>
        <time>2015-08-29T08:55:35Z</time>
      </trkpt>
      <trkpt lat="34.14607" lon="77.03109">
        <ele>4390.8</ele>
        <time>2015-08-29T08:55:44Z</time>
      </trkpt>
      <trkpt lat="34.14606" lon="77.0311">
        <ele>4390.6</ele>
        <time>2015-08-29T08:55:46Z</time>
      </trkpt>
      <trkpt lat="34.14604" lon="77.03114">
        <ele>4390.2</ele>
        <time>2015-08-29T08:55:49Z</time>
      </trkpt>
      <trkpt lat="34.14601" lon="77.03117">
        <ele>4389.8</ele>
        <time>2015-08-29T08:55:53Z</time>
      </trkpt>
      <trkpt lat="34.14599" lon="77.03119">
        <ele>4389.6</ele>
        <time>2015-08-29T08:55:55Z</time>
      </trkpt>
      <trkpt lat="34.14588" lon="77.03134">
        <ele>4388.8</ele>
        <time>2015-08-29T08:56:11Z</time>
      </trkpt>
      <trkpt lat="34.14588" lon="77.03135">
        <ele>4388.6</ele>
        <time>2015-08-29T08:56:12Z</time>
      </trkpt>
      <trkpt lat="34.14579" lon="77.03138">
        <ele>4387.6</ele>
        <time>2015-08-29T08:56:21Z</time>
      </trkpt>
      <trkpt lat="34.14578" lon="77.03139">
        <ele>4387.4</ele>
        <time>2015-08-29T08:56:23Z</time>
      </trkpt>
      <trkpt lat="34.14576" lon="77.03139">
        <ele>4387.2</ele>
        <time>2015-08-29T08:56:25Z</time>
      </trkpt>
      <trkpt lat="34.14573" lon="77.03143">
        <ele>4386.4</ele>
        <time>2015-08-29T08:56:29Z</time>
      </trkpt>
      <trkpt lat="34.14571" lon="77.0315">
        <ele>4386</ele>
        <time>2015-08-29T08:56:33Z</time>
      </trkpt>
      <trkpt lat="34.14564" lon="77.03162">
        <ele>4385.4</ele>
        <time>2015-08-29T08:56:42Z</time>
      </trkpt>
      <trkpt lat="34.14563" lon="77.03163">
        <ele>4385.2</ele>
        <time>2015-08-29T08:56:44Z</time>
      </trkpt>
      <trkpt lat="34.14561" lon="77.03166">
        <ele>4385</ele>
        <time>2015-08-29T08:56:46Z</time>
      </trkpt>
      <trkpt lat="34.14558" lon="77.03168">
        <ele>4384.6</ele>
        <time>2015-08-29T08:56:50Z</time>
      </trkpt>
      <trkpt lat="34.14557" lon="77.03168">
        <ele>4384.4</ele>
        <time>2015-08-29T08:56:52Z</time>
      </trkpt>
      <trkpt lat="34.14556" lon="77.03168">
        <ele>4384.2</ele>
        <time>2015-08-29T08:56:53Z</time>
      </trkpt>
      <trkpt lat="34.14546" lon="77.0317">
        <ele>4383</ele>
        <time>2015-08-29T08:57:01Z</time>
      </trkpt>
      <trkpt lat="34.14544" lon="77.03173">
        <ele>4382.8</ele>
        <time>2015-08-29T08:57:03Z</time>
      </trkpt>
      <trkpt lat="34.14538" lon="77.03175">
        <ele>4381.8</ele>
        <time>2015-08-29T08:57:09Z</time>
      </trkpt>
      <trkpt lat="34.14533" lon="77.03179">
        <ele>4380.8</ele>
        <time>2015-08-29T08:57:15Z</time>
      </trkpt>
      <trkpt lat="34.14531" lon="77.03184">
        <ele>4379.6</ele>
        <time>2015-08-29T08:57:20Z</time>
      </trkpt>
      <trkpt lat="34.14528" lon="77.03186">
        <ele>4378.6</ele>
        <time>2015-08-29T08:57:24Z</time>
      </trkpt>
      <trkpt lat="34.14526" lon="77.03188">
        <ele>4377.6</ele>
        <time>2015-08-29T08:57:29Z</time>
      </trkpt>
      <trkpt lat="34.14522" lon="77.0319">
        <ele>4376.4</ele>
        <time>2015-08-29T08:57:34Z</time>
      </trkpt>
      <trkpt lat="34.14511" lon="77.03192">
        <ele>4375.2</ele>
        <time>2015-08-29T08:57:45Z</time>
      </trkpt>
      <trkpt lat="34.14507" lon="77.03194">
        <ele>4374.2</ele>
        <time>2015-08-29T08:57:54Z</time>
      </trkpt>
      <trkpt lat="34.14506" lon="77.03201">
        <ele>4373.6</ele>
        <time>2015-08-29T08:57:57Z</time>
      </trkpt>
      <trkpt lat="34.14506" lon="77.03206">
        <ele>4373</ele>
        <time>2015-08-29T08:58:02Z</time>
      </trkpt>
      <trkpt lat="34.14504" lon="77.03209">
        <ele>4372</ele>
        <time>2015-08-29T08:58:10Z</time>
      </trkpt>
      <trkpt lat="34.14497" lon="77.03218">
        <ele>4372</ele>
        <time>2015-08-29T08:58:24Z</time>
      </trkpt>
      <trkpt lat="34.14494" lon="77.03228">
        <ele>4371.6</ele>
        <time>2015-08-29T08:58:33Z</time>
      </trkpt>
      <trkpt lat="34.14493" lon="77.03229">
        <ele>4371.6</ele>
        <time>2015-08-29T08:58:35Z</time>
      </trkpt>
      <trkpt lat="34.14492" lon="77.03232">
        <ele>4371.4</ele>
        <time>2015-08-29T08:58:38Z</time>
      </trkpt>
      <trkpt lat="34.14489" lon="77.03235">
        <ele>4371</ele>
        <time>2015-08-29T08:58:47Z</time>
      </trkpt>
      <trkpt lat="34.14489" lon="77.03236">
        <ele>4370.8</ele>
        <time>2015-08-29T08:58:48Z</time>
      </trkpt>
      <trkpt lat="34.14491" lon="77.0324">
        <ele>4369.8</ele>
        <time>2015-08-29T08:58:53Z</time>
      </trkpt>
      <trkpt lat="34.14491" lon="77.03242">
        <ele>4370</ele>
        <time>2015-08-29T08:58:56Z</time>
      </trkpt>
      <trkpt lat="34.14491" lon="77.03242">
        <ele>4370.2</ele>
        <time>2015-08-29T08:58:58Z</time>
      </trkpt>
      <trkpt lat="34.1449" lon="77.03257">
        <ele>4369.4</ele>
        <time>2015-08-29T08:59:13Z</time>
      </trkpt>
      <trkpt lat="34.14486" lon="77.0326">
        <ele>4368.8</ele>
        <time>2015-08-29T08:59:18Z</time>
      </trkpt>
      <trkpt lat="34.14484" lon="77.03262">
        <ele>4368.6</ele>
        <time>2015-08-29T08:59:20Z</time>
      </trkpt>
      <trkpt lat="34.14478" lon="77.03268">
        <ele>4369</ele>
        <time>2015-08-29T08:59:31Z</time>
      </trkpt>
      <trkpt lat="34.14476" lon="77.0327">
        <ele>4368.8</ele>
        <time>2015-08-29T08:59:33Z</time>
      </trkpt>
      <trkpt lat="34.14474" lon="77.03272">
        <ele>4368.6</ele>
        <time>2015-08-29T08:59:36Z</time>
      </trkpt>
      <trkpt lat="34.14472" lon="77.03275">
        <ele>4367.8</ele>
        <time>2015-08-29T08:59:39Z</time>
      </trkpt>
      <trkpt lat="34.14471" lon="77.03276">
        <ele>4367.8</ele>
        <time>2015-08-29T08:59:40Z</time>
      </trkpt>
      <trkpt lat="34.14469" lon="77.03278">
        <ele>4367.6</ele>
        <time>2015-08-29T08:59:43Z</time>
      </trkpt>
      <trkpt lat="34.14468" lon="77.03279">
        <ele>4367.4</ele>
        <time>2015-08-29T08:59:45Z</time>
      </trkpt>
      <trkpt lat="34.14465" lon="77.03281">
        <ele>4367.2</ele>
        <time>2015-08-29T08:59:49Z</time>
      </trkpt>
      <trkpt lat="34.14461" lon="77.03284">
        <ele>4367.2</ele>
        <time>2015-08-29T08:59:57Z</time>
      </trkpt>
      <trkpt lat="34.14455" lon="77.03294">
        <ele>4367.6</ele>
        <time>2015-08-29T09:00:06Z</time>
      </trkpt>
      <trkpt lat="34.14452" lon="77.033">
        <ele>4367.8</ele>
        <time>2015-08-29T09:00:11Z</time>
      </trkpt>
      <trkpt lat="34.14449" lon="77.03305">
        <ele>4368.2</ele>
        <time>2015-08-29T09:00:18Z</time>
      </trkpt>
      <trkpt lat="34.14446" lon="77.03309">
        <ele>4368.2</ele>
        <time>2015-08-29T09:00:23Z</time>
      </trkpt>
      <trkpt lat="34.14443" lon="77.03311">
        <ele>4368.2</ele>
        <time>2015-08-29T09:00:27Z</time>
      </trkpt>
      <trkpt lat="34.14439" lon="77.03314">
        <ele>4368.2</ele>
        <time>2015-08-29T09:00:34Z</time>
      </trkpt>
      <trkpt lat="34.14437" lon="77.03315">
        <ele>4368</ele>
        <time>2015-08-29T09:00:36Z</time>
      </trkpt>
      <trkpt lat="34.1443" lon="77.03321">
        <ele>4366.6</ele>
        <time>2015-08-29T09:00:44Z</time>
      </trkpt>
      <trkpt lat="34.14429" lon="77.03322">
        <ele>4366.4</ele>
        <time>2015-08-29T09:00:46Z</time>
      </trkpt>
      <trkpt lat="34.14426" lon="77.03326">
        <ele>4365.6</ele>
        <time>2015-08-29T09:00:54Z</time>
      </trkpt>
      <trkpt lat="34.14421" lon="77.03333">
        <ele>4364.6</ele>
        <time>2015-08-29T09:01:04Z</time>
      </trkpt>
      <trkpt lat="34.14414" lon="77.03337">
        <ele>4363.4</ele>
        <time>2015-08-29T09:01:14Z</time>
      </trkpt>
      <trkpt lat="34.14412" lon="77.03337">
        <ele>4363</ele>
        <time>2015-08-29T09:01:16Z</time>
      </trkpt>
      <trkpt lat="34.14409" lon="77.03338">
        <ele>4362.4</ele>
        <time>2015-08-29T09:01:21Z</time>
      </trkpt>
      <trkpt lat="34.14404" lon="77.03342">
        <ele>4361.2</ele>
        <time>2015-08-29T09:01:27Z</time>
      </trkpt>
      <trkpt lat="34.14403" lon="77.03343">
        <ele>4361</ele>
        <time>2015-08-29T09:01:28Z</time>
      </trkpt>
      <trkpt lat="34.14395" lon="77.03348">
        <ele>4360.2</ele>
        <time>2015-08-29T09:01:35Z</time>
      </trkpt>
      <trkpt lat="34.14392" lon="77.03347">
        <ele>4359.8</ele>
        <time>2015-08-29T09:01:39Z</time>
      </trkpt>
      <trkpt lat="34.14385" lon="77.03362">
        <ele>4359.6</ele>
        <time>2015-08-29T09:01:49Z</time>
      </trkpt>
      <trkpt lat="34.14384" lon="77.03367">
        <ele>4359.2</ele>
        <time>2015-08-29T09:01:52Z</time>
      </trkpt>
      <trkpt lat="34.14384" lon="77.03369">
        <ele>4359</ele>
        <time>2015-08-29T09:01:54Z</time>
      </trkpt>
      <trkpt lat="34.14382" lon="77.03371">
        <ele>4358.2</ele>
        <time>2015-08-29T09:01:57Z</time>
      </trkpt>
      <trkpt lat="34.14383" lon="77.03372">
        <ele>4358</ele>
        <time>2015-08-29T09:01:58Z</time>
      </trkpt>
      <trkpt lat="34.1438" lon="77.03376">
        <ele>4357</ele>
        <time>2015-08-29T09:02:04Z</time>
      </trkpt>
      <trkpt lat="34.14379" lon="77.03377">
        <ele>4356.8</ele>
        <time>2015-08-29T09:02:05Z</time>
      </trkpt>
      <trkpt lat="34.14374" lon="77.03385">
        <ele>4355.6</ele>
        <time>2015-08-29T09:02:16Z</time>
      </trkpt>
      <trkpt lat="34.14372" lon="77.03388">
        <ele>4354.6</ele>
        <time>2015-08-29T09:02:21Z</time>
      </trkpt>
      <trkpt lat="34.14368" lon="77.03396">
        <ele>4353.4</ele>
        <time>2015-08-29T09:02:27Z</time>
      </trkpt>
      <trkpt lat="34.14367" lon="77.03397">
        <ele>4353.2</ele>
        <time>2015-08-29T09:02:28Z</time>
      </trkpt>
      <trkpt lat="34.14364" lon="77.03396">
        <ele>4352.6</ele>
        <time>2015-08-29T09:02:31Z</time>
      </trkpt>
      <trkpt lat="34.14364" lon="77.03397">
        <ele>4352.4</ele>
        <time>2015-08-29T09:02:32Z</time>
      </trkpt>
      <trkpt lat="34.1436" lon="77.03402">
        <ele>4351.4</ele>
        <time>2015-08-29T09:02:38Z</time>
      </trkpt>
      <trkpt lat="34.14358" lon="77.03404">
        <ele>4351.2</ele>
        <time>2015-08-29T09:02:40Z</time>
      </trkpt>
      <trkpt lat="34.14348" lon="77.03417">
        <ele>4350.2</ele>
        <time>2015-08-29T09:02:53Z</time>
      </trkpt>
      <trkpt lat="34.14346" lon="77.03422">
        <ele>4349.6</ele>
        <time>2015-08-29T09:02:57Z</time>
      </trkpt>
      <trkpt lat="34.14346" lon="77.03425">
        <ele>4349</ele>
        <time>2015-08-29T09:03:00Z</time>
      </trkpt>
      <trkpt lat="34.14344" lon="77.03432">
        <ele>4348</ele>
        <time>2015-08-29T09:03:06Z</time>
      </trkpt>
      <trkpt lat="34.14336" lon="77.03442">
        <ele>4347.2</ele>
        <time>2015-08-29T09:03:15Z</time>
      </trkpt>
      <trkpt lat="34.14334" lon="77.03445">
        <ele>4347</ele>
        <time>2015-08-29T09:03:18Z</time>
      </trkpt>
      <trkpt lat="34.14333" lon="77.03446">
        <ele>4347</ele>
        <time>2015-08-29T09:03:19Z</time>
      </trkpt>
      <trkpt lat="34.14329" lon="77.03449">
        <ele>4346.6</ele>
        <time>2015-08-29T09:03:24Z</time>
      </trkpt>
      <trkpt lat="34.14323" lon="77.03454">
        <ele>4346</ele>
        <time>2015-08-29T09:03:31Z</time>
      </trkpt>
      <trkpt lat="34.14322" lon="77.03454">
        <ele>4345.8</ele>
        <time>2015-08-29T09:03:32Z</time>
      </trkpt>
      <trkpt lat="34.14321" lon="77.03455">
        <ele>4345.6</ele>
        <time>2015-08-29T09:03:33Z</time>
      </trkpt>
      <trkpt lat="34.14313" lon="77.03462">
        <ele>4344.8</ele>
        <time>2015-08-29T09:03:41Z</time>
      </trkpt>
      <trkpt lat="34.14306" lon="77.03462">
        <ele>4343.8</ele>
        <time>2015-08-29T09:03:53Z</time>
      </trkpt>
      <trkpt lat="34.14305" lon="77.03462">
        <ele>4343.6</ele>
        <time>2015-08-29T09:03:54Z</time>
      </trkpt>
      <trkpt lat="34.14301" lon="77.03466">
        <ele>4343.4</ele>
        <time>2015-08-29T09:03:58Z</time>
      </trkpt>
      <trkpt lat="34.14289" lon="77.03482">
        <ele>4342.8</ele>
        <time>2015-08-29T09:04:09Z</time>
      </trkpt>
      <trkpt lat="34.14281" lon="77.03496">
        <ele>4341.8</ele>
        <time>2015-08-29T09:04:20Z</time>
      </trkpt>
      <trkpt lat="34.14275" lon="77.035">
        <ele>4340.6</ele>
        <time>2015-08-29T09:04:31Z</time>
      </trkpt>
      <trkpt lat="34.14269" lon="77.03512">
        <ele>4339.6</ele>
        <time>2015-08-29T09:04:39Z</time>
      </trkpt>
      <trkpt lat="34.14267" lon="77.03515">
        <ele>4339.4</ele>
        <time>2015-08-29T09:04:42Z</time>
      </trkpt>
      <trkpt lat="34.14265" lon="77.03519">
        <ele>4338.8</ele>
        <time>2015-08-29T09:04:47Z</time>
      </trkpt>
      <trkpt lat="34.14263" lon="77.03526">
        <ele>4338.4</ele>
        <time>2015-08-29T09:04:54Z</time>
      </trkpt>
      <trkpt lat="34.14262" lon="77.03529">
        <ele>4338.4</ele>
        <time>2015-08-29T09:04:56Z</time>
      </trkpt>
      <trkpt lat="34.14256" lon="77.03538">
        <ele>4337.4</ele>
        <time>2015-08-29T09:05:07Z</time>
      </trkpt>
      <trkpt lat="34.1425" lon="77.03546">
        <ele>4336.6</ele>
        <time>2015-08-29T09:05:16Z</time>
      </trkpt>
      <trkpt lat="34.14249" lon="77.0355">
        <ele>4336.2</ele>
        <time>2015-08-29T09:05:19Z</time>
      </trkpt>
      <trkpt lat="34.14248" lon="77.0355">
        <ele>4336.2</ele>
        <time>2015-08-29T09:05:20Z</time>
      </trkpt>
      <trkpt lat="34.14243" lon="77.03554">
        <ele>4335.2</ele>
        <time>2015-08-29T09:05:29Z</time>
      </trkpt>
      <trkpt lat="34.14239" lon="77.03559">
        <ele>4334.4</ele>
        <time>2015-08-29T09:05:35Z</time>
      </trkpt>
      <trkpt lat="34.14238" lon="77.03559">
        <ele>4334.2</ele>
        <time>2015-08-29T09:05:36Z</time>
      </trkpt>
      <trkpt lat="34.14234" lon="77.0356">
        <ele>4333.6</ele>
        <time>2015-08-29T09:05:40Z</time>
      </trkpt>
      <trkpt lat="34.14224" lon="77.03563">
        <ele>4333.4</ele>
        <time>2015-08-29T09:05:50Z</time>
      </trkpt>
      <trkpt lat="34.14223" lon="77.03576">
        <ele>4333.6</ele>
        <time>2015-08-29T09:05:59Z</time>
      </trkpt>
      <trkpt lat="34.14223" lon="77.03579">
        <ele>4333.4</ele>
        <time>2015-08-29T09:06:02Z</time>
      </trkpt>
      <trkpt lat="34.14222" lon="77.0358">
        <ele>4333</ele>
        <time>2015-08-29T09:06:04Z</time>
      </trkpt>
      <trkpt lat="34.14222" lon="77.0358">
        <ele>4333</ele>
        <time>2015-08-29T09:06:05Z</time>
      </trkpt>
      <trkpt lat="34.14227" lon="77.03591">
        <ele>4332.8</ele>
        <time>2015-08-29T09:06:22Z</time>
      </trkpt>
      <trkpt lat="34.1423" lon="77.03599">
        <ele>4332.6</ele>
        <time>2015-08-29T09:06:31Z</time>
      </trkpt>
      <trkpt lat="34.14229" lon="77.03612">
        <ele>4332</ele>
        <time>2015-08-29T09:06:38Z</time>
      </trkpt>
      <trkpt lat="34.14227" lon="77.0361">
        <ele>4331.6</ele>
        <time>2015-08-29T09:06:41Z</time>
      </trkpt>
      <trkpt lat="34.14226" lon="77.03599">
        <ele>4331</ele>
        <time>2015-08-29T09:06:57Z</time>
      </trkpt>
      <trkpt lat="34.14225" lon="77.03571">
        <ele>4331.4</ele>
        <time>2015-08-29T09:07:16Z</time>
      </trkpt>
      <trkpt lat="34.14226" lon="77.0357">
        <ele>4332</ele>
        <time>2015-08-29T09:07:30Z</time>
      </trkpt>
      <trkpt lat="34.14226" lon="77.03571">
        <ele>4332.4</ele>
        <time>2015-08-29T09:07:32Z</time>
      </trkpt>
      <trkpt lat="34.14223" lon="77.03578">
        <ele>4332.8</ele>
        <time>2015-08-29T09:07:45Z</time>
      </trkpt>
      <trkpt lat="34.14226" lon="77.03575">
        <ele>4332.8</ele>
        <time>2015-08-29T09:07:49Z</time>
      </trkpt>
      <trkpt lat="34.14224" lon="77.03577">
        <ele>4332.4</ele>
        <time>2015-08-29T09:07:59Z</time>
      </trkpt>
      <trkpt lat="34.14222" lon="77.03575">
        <ele>4332.2</ele>
        <time>2015-08-29T09:08:11Z</time>
      </trkpt>
      <trkpt lat="34.14222" lon="77.03581">
        <ele>4331.2</ele>
        <time>2015-08-29T09:08:14Z</time>
      </trkpt>
      <trkpt lat="34.14221" lon="77.03581">
        <ele>4331</ele>
        <time>2015-08-29T09:08:15Z</time>
      </trkpt>
      <trkpt lat="34.14225" lon="77.03567">
        <ele>4330.6</ele>
        <time>2015-08-29T09:09:02Z</time>
      </trkpt>
      <trkpt lat="34.14227" lon="77.03562">
        <ele>4330.6</ele>
        <time>2015-08-29T09:09:22Z</time>
      </trkpt>
      <trkpt lat="34.14223" lon="77.03567">
        <ele>4330.8</ele>
        <time>2015-08-29T09:09:27Z</time>
      </trkpt>
      <trkpt lat="34.14221" lon="77.03571">
        <ele>4330.6</ele>
        <time>2015-08-29T09:09:31Z</time>
      </trkpt>
      <trkpt lat="34.14219" lon="77.03575">
        <ele>4330.2</ele>
        <time>2015-08-29T09:09:33Z</time>
      </trkpt>
      <trkpt lat="34.14219" lon="77.03581">
        <ele>4330.8</ele>
        <time>2015-08-29T09:09:40Z</time>
      </trkpt>
      <trkpt lat="34.14231" lon="77.03577">
        <ele>4331.2</ele>
        <time>2015-08-29T09:10:09Z</time>
      </trkpt>
      <trkpt lat="34.1423" lon="77.03578">
        <ele>4330.2</ele>
        <time>2015-08-29T09:10:34Z</time>
      </trkpt>
      <trkpt lat="34.14229" lon="77.03578">
        <ele>4330.2</ele>
        <time>2015-08-29T09:10:36Z</time>
      </trkpt>
      <trkpt lat="34.14227" lon="77.03586">
        <ele>4330</ele>
        <time>2015-08-29T09:10:40Z</time>
      </trkpt>
      <trkpt lat="34.14223" lon="77.03588">
        <ele>4330</ele>
        <time>2015-08-29T09:10:43Z</time>
      </trkpt>
      <trkpt lat="34.14222" lon="77.0359">
        <ele>4330</ele>
        <time>2015-08-29T09:10:45Z</time>
      </trkpt>
      <trkpt lat="34.14221" lon="77.03596">
        <ele>4330</ele>
        <time>2015-08-29T09:10:52Z</time>
      </trkpt>
      <trkpt lat="34.14223" lon="77.03588">
        <ele>4330</ele>
        <time>2015-08-29T09:10:55Z</time>
      </trkpt>
      <trkpt lat="34.14222" lon="77.03591">
        <ele>4328.8</ele>
        <time>2015-08-29T09:11:23Z</time>
      </trkpt>
      <trkpt lat="34.14226" lon="77.03609">
        <ele>4327.8</ele>
        <time>2015-08-29T09:11:33Z</time>
      </trkpt>
      <trkpt lat="34.14222" lon="77.03584">
        <ele>4328</ele>
        <time>2015-08-29T09:12:13Z</time>
      </trkpt>
      <trkpt lat="34.14219" lon="77.03591">
        <ele>4327</ele>
        <time>2015-08-29T09:12:30Z</time>
      </trkpt>
      <trkpt lat="34.1422" lon="77.03592">
        <ele>4327</ele>
        <time>2015-08-29T09:12:32Z</time>
      </trkpt>
      <trkpt lat="34.1422" lon="77.03588">
        <ele>4327</ele>
        <time>2015-08-29T09:12:34Z</time>
      </trkpt>
      <trkpt lat="34.14219" lon="77.03579">
        <ele>4326.8</ele>
        <time>2015-08-29T09:12:39Z</time>
      </trkpt>
      <trkpt lat="34.14214" lon="77.03576">
        <ele>4326.6</ele>
        <time>2015-08-29T09:12:52Z</time>
      </trkpt>
      <trkpt lat="34.14224" lon="77.03571">
        <ele>4327.6</ele>
        <time>2015-08-29T09:13:51Z</time>
      </trkpt>
      <trkpt lat="34.14221" lon="77.03572">
        <ele>4327.8</ele>
        <time>2015-08-29T09:14:06Z</time>
      </trkpt>
      <trkpt lat="34.14224" lon="77.03569">
        <ele>4327.2</ele>
        <time>2015-08-29T09:14:26Z</time>
      </trkpt>
      <trkpt lat="34.14225" lon="77.03562">
        <ele>4327.4</ele>
        <time>2015-08-29T09:14:29Z</time>
      </trkpt>
      <trkpt lat="34.14224" lon="77.03569">
        <ele>4327</ele>
        <time>2015-08-29T09:14:52Z</time>
      </trkpt>
      <trkpt lat="34.14226" lon="77.03573">
        <ele>4326.8</ele>
        <time>2015-08-29T09:15:24Z</time>
      </trkpt>
      <trkpt lat="34.14228" lon="77.0357">
        <ele>4326.6</ele>
        <time>2015-08-29T09:15:33Z</time>
      </trkpt>
      <trkpt lat="34.14222" lon="77.03584">
        <ele>4325.6</ele>
        <time>2015-08-29T09:16:04Z</time>
      </trkpt>
      <trkpt lat="34.14222" lon="77.03585">
        <ele>4325.6</ele>
        <time>2015-08-29T09:16:05Z</time>
      </trkpt>
      <trkpt lat="34.14219" lon="77.03591">
        <ele>4324.6</ele>
        <time>2015-08-29T09:16:11Z</time>
      </trkpt>
      <trkpt lat="34.14206" lon="77.03608">
        <ele>4323.8</ele>
        <time>2015-08-29T09:16:25Z</time>
      </trkpt>
      <trkpt lat="34.14203" lon="77.0361">
        <ele>4323.6</ele>
        <time>2015-08-29T09:16:28Z</time>
      </trkpt>
      <trkpt lat="34.14202" lon="77.03611">
        <ele>4323.6</ele>
        <time>2015-08-29T09:16:29Z</time>
      </trkpt>
      <trkpt lat="34.14196" lon="77.03614">
        <ele>4322.6</ele>
        <time>2015-08-29T09:16:40Z</time>
      </trkpt>
      <trkpt lat="34.1419" lon="77.03619">
        <ele>4321.6</ele>
        <time>2015-08-29T09:16:48Z</time>
      </trkpt>
      <trkpt lat="34.14189" lon="77.0362">
        <ele>4321.4</ele>
        <time>2015-08-29T09:16:49Z</time>
      </trkpt>
      <trkpt lat="34.14183" lon="77.03629">
        <ele>4320.2</ele>
        <time>2015-08-29T09:16:56Z</time>
      </trkpt>
      <trkpt lat="34.14181" lon="77.03632">
        <ele>4319</ele>
        <time>2015-08-29T09:17:02Z</time>
      </trkpt>
      <trkpt lat="34.14177" lon="77.03642">
        <ele>4317.8</ele>
        <time>2015-08-29T09:17:08Z</time>
      </trkpt>
      <trkpt lat="34.14173" lon="77.03645">
        <ele>4316.8</ele>
        <time>2015-08-29T09:17:15Z</time>
      </trkpt>
      <trkpt lat="34.14167" lon="77.03658">
        <ele>4315.6</ele>
        <time>2015-08-29T09:17:24Z</time>
      </trkpt>
      <trkpt lat="34.14166" lon="77.0366">
        <ele>4315.4</ele>
        <time>2015-08-29T09:17:27Z</time>
      </trkpt>
      <trkpt lat="34.14162" lon="77.03662">
        <ele>4314.6</ele>
        <time>2015-08-29T09:17:31Z</time>
      </trkpt>
      <trkpt lat="34.14161" lon="77.03663">
        <ele>4314.4</ele>
        <time>2015-08-29T09:17:32Z</time>
      </trkpt>
      <trkpt lat="34.14156" lon="77.03669">
        <ele>4313.6</ele>
        <time>2015-08-29T09:17:38Z</time>
      </trkpt>
      <trkpt lat="34.14154" lon="77.03674">
        <ele>4312.4</ele>
        <time>2015-08-29T09:17:45Z</time>
      </trkpt>
      <trkpt lat="34.14146" lon="77.03692">
        <ele>4311.4</ele>
        <time>2015-08-29T09:17:57Z</time>
      </trkpt>
      <trkpt lat="34.14147" lon="77.03695">
        <ele>4311.4</ele>
        <time>2015-08-29T09:18:00Z</time>
      </trkpt>
      <trkpt lat="34.14139" lon="77.037">
        <ele>4310.6</ele>
        <time>2015-08-29T09:18:09Z</time>
      </trkpt>
      <trkpt lat="34.14139" lon="77.03701">
        <ele>4310.4</ele>
        <time>2015-08-29T09:18:10Z</time>
      </trkpt>
      <trkpt lat="34.14138" lon="77.03701">
        <ele>4310.4</ele>
        <time>2015-08-29T09:18:11Z</time>
      </trkpt>
      <trkpt lat="34.14134" lon="77.03711">
        <ele>4309.2</ele>
        <time>2015-08-29T09:18:18Z</time>
      </trkpt>
      <trkpt lat="34.14134" lon="77.03715">
        <ele>4308.2</ele>
        <time>2015-08-29T09:18:31Z</time>
      </trkpt>
      <trkpt lat="34.14127" lon="77.03719">
        <ele>4307.4</ele>
        <time>2015-08-29T09:18:39Z</time>
      </trkpt>
      <trkpt lat="34.14127" lon="77.0372">
        <ele>4307.2</ele>
        <time>2015-08-29T09:18:41Z</time>
      </trkpt>
      <trkpt lat="34.14124" lon="77.03724">
        <ele>4307</ele>
        <time>2015-08-29T09:18:46Z</time>
      </trkpt>
      <trkpt lat="34.14122" lon="77.03731">
        <ele>4306.6</ele>
        <time>2015-08-29T09:18:49Z</time>
      </trkpt>
      <trkpt lat="34.1412" lon="77.03737">
        <ele>4306.2</ele>
        <time>2015-08-29T09:18:53Z</time>
      </trkpt>
      <trkpt lat="34.14118" lon="77.03743">
        <ele>4305.2</ele>
        <time>2015-08-29T09:19:02Z</time>
      </trkpt>
      <trkpt lat="34.14113" lon="77.03751">
        <ele>4304.4</ele>
        <time>2015-08-29T09:19:09Z</time>
      </trkpt>
      <trkpt lat="34.14105" lon="77.03756">
        <ele>4304.2</ele>
        <time>2015-08-29T09:19:16Z</time>
      </trkpt>
      <trkpt lat="34.14093" lon="77.03757">
        <ele>4303.8</ele>
        <time>2015-08-29T09:19:27Z</time>
      </trkpt>
      <trkpt lat="34.14091" lon="77.03758">
        <ele>4303.6</ele>
        <time>2015-08-29T09:19:30Z</time>
      </trkpt>
      <trkpt lat="34.1409" lon="77.03758">
        <ele>4303.6</ele>
        <time>2015-08-29T09:19:31Z</time>
      </trkpt>
      <trkpt lat="34.14087" lon="77.03763">
        <ele>4303</ele>
        <time>2015-08-29T09:19:41Z</time>
      </trkpt>
      <trkpt lat="34.14083" lon="77.03768">
        <ele>4302.6</ele>
        <time>2015-08-29T09:19:45Z</time>
      </trkpt>
      <trkpt lat="34.14082" lon="77.03768">
        <ele>4302.4</ele>
        <time>2015-08-29T09:19:47Z</time>
      </trkpt>
      <trkpt lat="34.1408" lon="77.0377">
        <ele>4302.4</ele>
        <time>2015-08-29T09:19:49Z</time>
      </trkpt>
      <trkpt lat="34.14079" lon="77.0377">
        <ele>4302.4</ele>
        <time>2015-08-29T09:19:51Z</time>
      </trkpt>
      <trkpt lat="34.14072" lon="77.03776">
        <ele>4302.6</ele>
        <time>2015-08-29T09:19:57Z</time>
      </trkpt>
      <trkpt lat="34.14069" lon="77.03776">
        <ele>4302.6</ele>
        <time>2015-08-29T09:19:59Z</time>
      </trkpt>
      <trkpt lat="34.14065" lon="77.0378">
        <ele>4302</ele>
        <time>2015-08-29T09:20:02Z</time>
      </trkpt>
      <trkpt lat="34.14065" lon="77.03778">
        <ele>4301.8</ele>
        <time>2015-08-29T09:20:03Z</time>
      </trkpt>
      <trkpt lat="34.14064" lon="77.03777">
        <ele>4301.6</ele>
        <time>2015-08-29T09:20:05Z</time>
      </trkpt>
      <trkpt lat="34.14063" lon="77.03782">
        <ele>4301</ele>
        <time>2015-08-29T09:20:11Z</time>
      </trkpt>
      <trkpt lat="34.14065" lon="77.03788">
        <ele>4300.2</ele>
        <time>2015-08-29T09:20:15Z</time>
      </trkpt>
      <trkpt lat="34.14065" lon="77.0379">
        <ele>4300</ele>
        <time>2015-08-29T09:20:18Z</time>
      </trkpt>
      <trkpt lat="34.14064" lon="77.03792">
        <ele>4299.8</ele>
        <time>2015-08-29T09:20:19Z</time>
      </trkpt>
      <trkpt lat="34.14064" lon="77.038">
        <ele>4298.8</ele>
        <time>2015-08-29T09:20:26Z</time>
      </trkpt>
      <trkpt lat="34.14065" lon="77.03804">
        <ele>4298.6</ele>
        <time>2015-08-29T09:20:28Z</time>
      </trkpt>
      <trkpt lat="34.14065" lon="77.03805">
        <ele>4298.2</ele>
        <time>2015-08-29T09:20:30Z</time>
      </trkpt>
      <trkpt lat="34.14066" lon="77.03815">
        <ele>4297.6</ele>
        <time>2015-08-29T09:20:43Z</time>
      </trkpt>
      <trkpt lat="34.14067" lon="77.03818">
        <ele>4297.2</ele>
        <time>2015-08-29T09:20:45Z</time>
      </trkpt>
      <trkpt lat="34.14066" lon="77.03821">
        <ele>4296.8</ele>
        <time>2015-08-29T09:20:49Z</time>
      </trkpt>
      <trkpt lat="34.14064" lon="77.03823">
        <ele>4296.6</ele>
        <time>2015-08-29T09:20:53Z</time>
      </trkpt>
      <trkpt lat="34.14058" lon="77.03827">
        <ele>4295.8</ele>
        <time>2015-08-29T09:21:02Z</time>
      </trkpt>
      <trkpt lat="34.14056" lon="77.03831">
        <ele>4295.6</ele>
        <time>2015-08-29T09:21:05Z</time>
      </trkpt>
      <trkpt lat="34.14055" lon="77.03832">
        <ele>4295.6</ele>
        <time>2015-08-29T09:21:06Z</time>
      </trkpt>
      <trkpt lat="34.14053" lon="77.03833">
        <ele>4295.6</ele>
        <time>2015-08-29T09:21:08Z</time>
      </trkpt>
      <trkpt lat="34.14036" lon="77.03841">
        <ele>4294.6</ele>
        <time>2015-08-29T09:21:24Z</time>
      </trkpt>
      <trkpt lat="34.14035" lon="77.03843">
        <ele>4294.6</ele>
        <time>2015-08-29T09:21:25Z</time>
      </trkpt>
      <trkpt lat="34.14036" lon="77.03846">
        <ele>4293.8</ele>
        <time>2015-08-29T09:21:29Z</time>
      </trkpt>
      <trkpt lat="34.14036" lon="77.03847">
        <ele>4293.4</ele>
        <time>2015-08-29T09:21:31Z</time>
      </trkpt>
      <trkpt lat="34.1403" lon="77.03863">
        <ele>4292.4</ele>
        <time>2015-08-29T09:21:44Z</time>
      </trkpt>
      <trkpt lat="34.14027" lon="77.03868">
        <ele>4291.4</ele>
        <time>2015-08-29T09:21:51Z</time>
      </trkpt>
      <trkpt lat="34.14026" lon="77.03868">
        <ele>4291.2</ele>
        <time>2015-08-29T09:21:53Z</time>
      </trkpt>
      <trkpt lat="34.14023" lon="77.03869">
        <ele>4290.2</ele>
        <time>2015-08-29T09:22:05Z</time>
      </trkpt>
      <trkpt lat="34.14018" lon="77.03871">
        <ele>4289.8</ele>
        <time>2015-08-29T09:22:11Z</time>
      </trkpt>
      <trkpt lat="34.14014" lon="77.03876">
        <ele>4289.8</ele>
        <time>2015-08-29T09:22:15Z</time>
      </trkpt>
      <trkpt lat="34.14012" lon="77.03877">
        <ele>4289.6</ele>
        <time>2015-08-29T09:22:17Z</time>
      </trkpt>
      <trkpt lat="34.14011" lon="77.03878">
        <ele>4289.2</ele>
        <time>2015-08-29T09:22:28Z</time>
      </trkpt>
      <trkpt lat="34.14007" lon="77.03882">
        <ele>4289.4</ele>
        <time>2015-08-29T09:22:39Z</time>
      </trkpt>
      <trkpt lat="34.14005" lon="77.03882">
        <ele>4289.4</ele>
        <time>2015-08-29T09:22:42Z</time>
      </trkpt>
      <trkpt lat="34.14002" lon="77.03887">
        <ele>4289.2</ele>
        <time>2015-08-29T09:22:45Z</time>
      </trkpt>
      <trkpt lat="34.14001" lon="77.03889">
        <ele>4288.6</ele>
        <time>2015-08-29T09:22:48Z</time>
      </trkpt>
      <trkpt lat="34.13998" lon="77.03893">
        <ele>4288.4</ele>
        <time>2015-08-29T09:22:53Z</time>
      </trkpt>
      <trkpt lat="34.13994" lon="77.03893">
        <ele>4288.2</ele>
        <time>2015-08-29T09:22:56Z</time>
      </trkpt>
      <trkpt lat="34.13983" lon="77.03901">
        <ele>4287.4</ele>
        <time>2015-08-29T09:23:10Z</time>
      </trkpt>
      <trkpt lat="34.13984" lon="77.039">
        <ele>4287.2</ele>
        <time>2015-08-29T09:23:12Z</time>
      </trkpt>
      <trkpt lat="34.13978" lon="77.03904">
        <ele>4286.4</ele>
        <time>2015-08-29T09:23:19Z</time>
      </trkpt>
      <trkpt lat="34.13972" lon="77.03909">
        <ele>4286</ele>
        <time>2015-08-29T09:23:23Z</time>
      </trkpt>
      <trkpt lat="34.13969" lon="77.03915">
        <ele>4285.6</ele>
        <time>2015-08-29T09:23:27Z</time>
      </trkpt>
      <trkpt lat="34.13965" lon="77.03918">
        <ele>4285</ele>
        <time>2015-08-29T09:23:32Z</time>
      </trkpt>
      <trkpt lat="34.13969" lon="77.03929">
        <ele>4284</ele>
        <time>2015-08-29T09:23:41Z</time>
      </trkpt>
      <trkpt lat="34.1397" lon="77.0393">
        <ele>4283.8</ele>
        <time>2015-08-29T09:23:42Z</time>
      </trkpt>
      <trkpt lat="34.13971" lon="77.0393">
        <ele>4283.8</ele>
        <time>2015-08-29T09:23:43Z</time>
      </trkpt>
      <trkpt lat="34.1397" lon="77.03933">
        <ele>4282.8</ele>
        <time>2015-08-29T09:23:57Z</time>
      </trkpt>
      <trkpt lat="34.1397" lon="77.03939">
        <ele>4281.8</ele>
        <time>2015-08-29T09:24:18Z</time>
      </trkpt>
      <trkpt lat="34.13969" lon="77.03942">
        <ele>4281.4</ele>
        <time>2015-08-29T09:24:30Z</time>
      </trkpt>
      <trkpt lat="34.13966" lon="77.03944">
        <ele>4281.6</ele>
        <time>2015-08-29T09:24:33Z</time>
      </trkpt>
      <trkpt lat="34.13957" lon="77.03951">
        <ele>4281.6</ele>
        <time>2015-08-29T09:24:40Z</time>
      </trkpt>
      <trkpt lat="34.13942" lon="77.03959">
        <ele>4282.6</ele>
        <time>2015-08-29T09:25:05Z</time>
      </trkpt>
      <trkpt lat="34.13942" lon="77.03959">
        <ele>4282.8</ele>
        <time>2015-08-29T09:25:06Z</time>
      </trkpt>
      <trkpt lat="34.13939" lon="77.03971">
        <ele>4282</ele>
        <time>2015-08-29T09:25:14Z</time>
      </trkpt>
      <trkpt lat="34.13937" lon="77.03975">
        <ele>4281.8</ele>
        <time>2015-08-29T09:25:16Z</time>
      </trkpt>
      <trkpt lat="34.13936" lon="77.03979">
        <ele>4281.8</ele>
        <time>2015-08-29T09:25:19Z</time>
      </trkpt>
      <trkpt lat="34.13935" lon="77.03982">
        <ele>4282.2</ele>
        <time>2015-08-29T09:25:22Z</time>
      </trkpt>
      <trkpt lat="34.13935" lon="77.03988">
        <ele>4282.8</ele>
        <time>2015-08-29T09:25:28Z</time>
      </trkpt>
      <trkpt lat="34.13932" lon="77.03991">
        <ele>4283.2</ele>
        <time>2015-08-29T09:25:32Z</time>
      </trkpt>
      <trkpt lat="34.13933" lon="77.04002">
        <ele>4283.6</ele>
        <time>2015-08-29T09:25:40Z</time>
      </trkpt>
      <trkpt lat="34.13931" lon="77.04005">
        <ele>4283.8</ele>
        <time>2015-08-29T09:25:44Z</time>
      </trkpt>
      <trkpt lat="34.13929" lon="77.0401">
        <ele>4284</ele>
        <time>2015-08-29T09:25:48Z</time>
      </trkpt>
      <trkpt lat="34.13927" lon="77.04013">
        <ele>4284.2</ele>
        <time>2015-08-29T09:25:52Z</time>
      </trkpt>
      <trkpt lat="34.13924" lon="77.0402">
        <ele>4284.6</ele>
        <time>2015-08-29T09:25:58Z</time>
      </trkpt>
      <trkpt lat="34.13918" lon="77.04024">
        <ele>4285</ele>
        <time>2015-08-29T09:26:07Z</time>
      </trkpt>
      <trkpt lat="34.13918" lon="77.04025">
        <ele>4285</ele>
        <time>2015-08-29T09:26:08Z</time>
      </trkpt>
      <trkpt lat="34.13913" lon="77.04036">
        <ele>4285.2</ele>
        <time>2015-08-29T09:26:17Z</time>
      </trkpt>
      <trkpt lat="34.13912" lon="77.0404">
        <ele>4284.8</ele>
        <time>2015-08-29T09:26:20Z</time>
      </trkpt>
      <trkpt lat="34.13912" lon="77.04042">
        <ele>4284.6</ele>
        <time>2015-08-29T09:26:22Z</time>
      </trkpt>
      <trkpt lat="34.13913" lon="77.04047">
        <ele>4284.6</ele>
        <time>2015-08-29T09:26:26Z</time>
      </trkpt>
      <trkpt lat="34.13916" lon="77.04051">
        <ele>4284.2</ele>
        <time>2015-08-29T09:26:31Z</time>
      </trkpt>
      <trkpt lat="34.13915" lon="77.04054">
        <ele>4284</ele>
        <time>2015-08-29T09:26:36Z</time>
      </trkpt>
      <trkpt lat="34.13907" lon="77.04058">
        <ele>4284</ele>
        <time>2015-08-29T09:26:43Z</time>
      </trkpt>
      <trkpt lat="34.13904" lon="77.04058">
        <ele>4284</ele>
        <time>2015-08-29T09:26:45Z</time>
      </trkpt>
      <trkpt lat="34.13898" lon="77.0406">
        <ele>4284.4</ele>
        <time>2015-08-29T09:26:50Z</time>
      </trkpt>
      <trkpt lat="34.13894" lon="77.04063">
        <ele>4284</ele>
        <time>2015-08-29T09:26:54Z</time>
      </trkpt>
      <trkpt lat="34.13893" lon="77.04063">
        <ele>4284</ele>
        <time>2015-08-29T09:26:56Z</time>
      </trkpt>
      <trkpt lat="34.13892" lon="77.04062">
        <ele>4283.8</ele>
        <time>2015-08-29T09:26:57Z</time>
      </trkpt>
      <trkpt lat="34.13891" lon="77.04062">
        <ele>4283.8</ele>
        <time>2015-08-29T09:26:58Z</time>
      </trkpt>
      <trkpt lat="34.13887" lon="77.0406">
        <ele>4282.8</ele>
        <time>2015-08-29T09:27:05Z</time>
      </trkpt>
      <trkpt lat="34.13883" lon="77.04065">
        <ele>4281.8</ele>
        <time>2015-08-29T09:27:14Z</time>
      </trkpt>
      <trkpt lat="34.13881" lon="77.04067">
        <ele>4281.4</ele>
        <time>2015-08-29T09:27:16Z</time>
      </trkpt>
      <trkpt lat="34.13879" lon="77.04069">
        <ele>4281</ele>
        <time>2015-08-29T09:27:19Z</time>
      </trkpt>
      <trkpt lat="34.13877" lon="77.04071">
        <ele>4280.6</ele>
        <time>2015-08-29T09:27:21Z</time>
      </trkpt>
      <trkpt lat="34.13875" lon="77.04073">
        <ele>4280.2</ele>
        <time>2015-08-29T09:27:25Z</time>
      </trkpt>
      <trkpt lat="34.13873" lon="77.04074">
        <ele>4279.8</ele>
        <time>2015-08-29T09:27:27Z</time>
      </trkpt>
      <trkpt lat="34.13869" lon="77.04076">
        <ele>4279.6</ele>
        <time>2015-08-29T09:27:31Z</time>
      </trkpt>
      <trkpt lat="34.13867" lon="77.04078">
        <ele>4279.4</ele>
        <time>2015-08-29T09:27:32Z</time>
      </trkpt>
      <trkpt lat="34.13859" lon="77.04079">
        <ele>4278.4</ele>
        <time>2015-08-29T09:27:37Z</time>
      </trkpt>
      <trkpt lat="34.13856" lon="77.0408">
        <ele>4278.2</ele>
        <time>2015-08-29T09:27:40Z</time>
      </trkpt>
      <trkpt lat="34.13854" lon="77.0408">
        <ele>4278</ele>
        <time>2015-08-29T09:27:42Z</time>
      </trkpt>
      <trkpt lat="34.13848" lon="77.04082">
        <ele>4277.8</ele>
        <time>2015-08-29T09:27:51Z</time>
      </trkpt>
      <trkpt lat="34.13848" lon="77.04083">
        <ele>4277.4</ele>
        <time>2015-08-29T09:27:55Z</time>
      </trkpt>
      <trkpt lat="34.13837" lon="77.04098">
        <ele>4276.2</ele>
        <time>2015-08-29T09:28:06Z</time>
      </trkpt>
      <trkpt lat="34.13835" lon="77.04101">
        <ele>4275.8</ele>
        <time>2015-08-29T09:28:09Z</time>
      </trkpt>
      <trkpt lat="34.13834" lon="77.04104">
        <ele>4275.4</ele>
        <time>2015-08-29T09:28:11Z</time>
      </trkpt>
      <trkpt lat="34.13834" lon="77.04106">
        <ele>4275.2</ele>
        <time>2015-08-29T09:28:13Z</time>
      </trkpt>
      <trkpt lat="34.13833" lon="77.04108">
        <ele>4275</ele>
        <time>2015-08-29T09:28:15Z</time>
      </trkpt>
      <trkpt lat="34.13832" lon="77.04111">
        <ele>4274.6</ele>
        <time>2015-08-29T09:28:19Z</time>
      </trkpt>
      <trkpt lat="34.13831" lon="77.04113">
        <ele>4274.2</ele>
        <time>2015-08-29T09:28:22Z</time>
      </trkpt>
      <trkpt lat="34.13829" lon="77.04116">
        <ele>4273</ele>
        <time>2015-08-29T09:28:29Z</time>
      </trkpt>
      <trkpt lat="34.13826" lon="77.04119">
        <ele>4272.4</ele>
        <time>2015-08-29T09:28:31Z</time>
      </trkpt>
      <trkpt lat="34.13825" lon="77.04124">
        <ele>4272</ele>
        <time>2015-08-29T09:28:35Z</time>
      </trkpt>
      <trkpt lat="34.1382" lon="77.04129">
        <ele>4270.8</ele>
        <time>2015-08-29T09:28:41Z</time>
      </trkpt>
      <trkpt lat="34.1382" lon="77.04132">
        <ele>4269.8</ele>
        <time>2015-08-29T09:28:48Z</time>
      </trkpt>
      <trkpt lat="34.13816" lon="77.04135">
        <ele>4268.6</ele>
        <time>2015-08-29T09:28:53Z</time>
      </trkpt>
      <trkpt lat="34.13816" lon="77.04136">
        <ele>4268.4</ele>
        <time>2015-08-29T09:28:54Z</time>
      </trkpt>
      <trkpt lat="34.13813" lon="77.04139">
        <ele>4267.4</ele>
        <time>2015-08-29T09:29:04Z</time>
      </trkpt>
      <trkpt lat="34.13811" lon="77.04142">
        <ele>4266.8</ele>
        <time>2015-08-29T09:29:06Z</time>
      </trkpt>
      <trkpt lat="34.13806" lon="77.04146">
        <ele>4266.4</ele>
        <time>2015-08-29T09:29:10Z</time>
      </trkpt>
      <trkpt lat="34.13806" lon="77.04153">
        <ele>4265.2</ele>
        <time>2015-08-29T09:29:24Z</time>
      </trkpt>
      <trkpt lat="34.13802" lon="77.04157">
        <ele>4265.2</ele>
        <time>2015-08-29T09:29:35Z</time>
      </trkpt>
      <trkpt lat="34.13797" lon="77.0416">
        <ele>4264.8</ele>
        <time>2015-08-29T09:29:41Z</time>
      </trkpt>
      <trkpt lat="34.13796" lon="77.04162">
        <ele>4264.8</ele>
        <time>2015-08-29T09:29:43Z</time>
      </trkpt>
      <trkpt lat="34.13795" lon="77.04164">
        <ele>4264.6</ele>
        <time>2015-08-29T09:29:45Z</time>
      </trkpt>
      <trkpt lat="34.13793" lon="77.04166">
        <ele>4264.2</ele>
        <time>2015-08-29T09:29:47Z</time>
      </trkpt>
      <trkpt lat="34.13791" lon="77.04168">
        <ele>4263.4</ele>
        <time>2015-08-29T09:29:50Z</time>
      </trkpt>
      <trkpt lat="34.13792" lon="77.04168">
        <ele>4263</ele>
        <time>2015-08-29T09:29:51Z</time>
      </trkpt>
      <trkpt lat="34.13789" lon="77.04169">
        <ele>4262</ele>
        <time>2015-08-29T09:29:54Z</time>
      </trkpt>
      <trkpt lat="34.13788" lon="77.04169">
        <ele>4261.8</ele>
        <time>2015-08-29T09:29:55Z</time>
      </trkpt>
      <trkpt lat="34.13786" lon="77.0417">
        <ele>4260.8</ele>
        <time>2015-08-29T09:29:58Z</time>
      </trkpt>
      <trkpt lat="34.13784" lon="77.0417">
        <ele>4260</ele>
        <time>2015-08-29T09:30:00Z</time>
      </trkpt>
      <trkpt lat="34.13783" lon="77.0417">
        <ele>4259.6</ele>
        <time>2015-08-29T09:30:02Z</time>
      </trkpt>
      <trkpt lat="34.13779" lon="77.0417">
        <ele>4258.6</ele>
        <time>2015-08-29T09:30:07Z</time>
      </trkpt>
      <trkpt lat="34.13777" lon="77.04168">
        <ele>4257.8</ele>
        <time>2015-08-29T09:30:11Z</time>
      </trkpt>
      <trkpt lat="34.13774" lon="77.0417">
        <ele>4257.6</ele>
        <time>2015-08-29T09:30:14Z</time>
      </trkpt>
      <trkpt lat="34.13768" lon="77.04173">
        <ele>4256.6</ele>
        <time>2015-08-29T09:30:38Z</time>
      </trkpt>
      <trkpt lat="34.13757" lon="77.04179">
        <ele>4256</ele>
        <time>2015-08-29T09:30:58Z</time>
      </trkpt>
      <trkpt lat="34.13753" lon="77.04187">
        <ele>4255.6</ele>
        <time>2015-08-29T09:31:04Z</time>
      </trkpt>
      <trkpt lat="34.13746" lon="77.04198">
        <ele>4255.4</ele>
        <time>2015-08-29T09:31:18Z</time>
      </trkpt>
      <trkpt lat="34.13741" lon="77.04198">
        <ele>4254.8</ele>
        <time>2015-08-29T09:31:22Z</time>
      </trkpt>
      <trkpt lat="34.13739" lon="77.04198">
        <ele>4254.4</ele>
        <time>2015-08-29T09:31:26Z</time>
      </trkpt>
      <trkpt lat="34.13733" lon="77.04212">
        <ele>4255</ele>
        <time>2015-08-29T09:31:40Z</time>
      </trkpt>
      <trkpt lat="34.13733" lon="77.04215">
        <ele>4255</ele>
        <time>2015-08-29T09:31:42Z</time>
      </trkpt>
      <trkpt lat="34.13728" lon="77.04227">
        <ele>4254.6</ele>
        <time>2015-08-29T09:31:53Z</time>
      </trkpt>
      <trkpt lat="34.1372" lon="77.04231">
        <ele>4254.4</ele>
        <time>2015-08-29T09:32:05Z</time>
      </trkpt>
      <trkpt lat="34.13718" lon="77.04236">
        <ele>4253.4</ele>
        <time>2015-08-29T09:32:12Z</time>
      </trkpt>
      <trkpt lat="34.13717" lon="77.04249">
        <ele>4252.4</ele>
        <time>2015-08-29T09:32:22Z</time>
      </trkpt>
      <trkpt lat="34.13708" lon="77.04263">
        <ele>4251.6</ele>
        <time>2015-08-29T09:32:34Z</time>
      </trkpt>
      <trkpt lat="34.13708" lon="77.04264">
        <ele>4251.4</ele>
        <time>2015-08-29T09:32:35Z</time>
      </trkpt>
      <trkpt lat="34.13708" lon="77.04266">
        <ele>4251.2</ele>
        <time>2015-08-29T09:32:36Z</time>
      </trkpt>
      <trkpt lat="34.13709" lon="77.04269">
        <ele>4251</ele>
        <time>2015-08-29T09:32:39Z</time>
      </trkpt>
      <trkpt lat="34.1371" lon="77.04279">
        <ele>4250.6</ele>
        <time>2015-08-29T09:32:46Z</time>
      </trkpt>
      <trkpt lat="34.13708" lon="77.04282">
        <ele>4250.2</ele>
        <time>2015-08-29T09:32:49Z</time>
      </trkpt>
      <trkpt lat="34.13704" lon="77.04293">
        <ele>4249.2</ele>
        <time>2015-08-29T09:33:02Z</time>
      </trkpt>
      <trkpt lat="34.13692" lon="77.04302">
        <ele>4248.2</ele>
        <time>2015-08-29T09:33:13Z</time>
      </trkpt>
      <trkpt lat="34.1369" lon="77.04317">
        <ele>4248.2</ele>
        <time>2015-08-29T09:33:26Z</time>
      </trkpt>
      <trkpt lat="34.13691" lon="77.04318">
        <ele>4248</ele>
        <time>2015-08-29T09:33:28Z</time>
      </trkpt>
      <trkpt lat="34.13688" lon="77.04323">
        <ele>4248</ele>
        <time>2015-08-29T09:33:37Z</time>
      </trkpt>
      <trkpt lat="34.13694" lon="77.04327">
        <ele>4247.8</ele>
        <time>2015-08-29T09:33:46Z</time>
      </trkpt>
      <trkpt lat="34.13695" lon="77.04328">
        <ele>4247.8</ele>
        <time>2015-08-29T09:33:48Z</time>
      </trkpt>
      <trkpt lat="34.13697" lon="77.04329">
        <ele>4247.8</ele>
        <time>2015-08-29T09:33:51Z</time>
      </trkpt>
      <trkpt lat="34.13698" lon="77.04332">
        <ele>4247.6</ele>
        <time>2015-08-29T09:33:53Z</time>
      </trkpt>
      <trkpt lat="34.13697" lon="77.04335">
        <ele>4247.2</ele>
        <time>2015-08-29T09:33:54Z</time>
      </trkpt>
      <trkpt lat="34.13697" lon="77.04335">
        <ele>4246.6</ele>
        <time>2015-08-29T09:33:55Z</time>
      </trkpt>
      <trkpt lat="34.13696" lon="77.04336">
        <ele>4246</ele>
        <time>2015-08-29T09:33:56Z</time>
      </trkpt>
      <trkpt lat="34.13691" lon="77.04339">
        <ele>4245.8</ele>
        <time>2015-08-29T09:34:01Z</time>
      </trkpt>
      <trkpt lat="34.13684" lon="77.04344">
        <ele>4245.6</ele>
        <time>2015-08-29T09:34:07Z</time>
      </trkpt>
      <trkpt lat="34.13684" lon="77.04347">
        <ele>4245.6</ele>
        <time>2015-08-29T09:34:10Z</time>
      </trkpt>
      <trkpt lat="34.13685" lon="77.0435">
        <ele>4245.4</ele>
        <time>2015-08-29T09:34:13Z</time>
      </trkpt>
      <trkpt lat="34.13683" lon="77.0436">
        <ele>4245.4</ele>
        <time>2015-08-29T09:34:18Z</time>
      </trkpt>
      <trkpt lat="34.13678" lon="77.04381">
        <ele>4246.2</ele>
        <time>2015-08-29T09:34:34Z</time>
      </trkpt>
      <trkpt lat="34.13677" lon="77.04386">
        <ele>4245</ele>
        <time>2015-08-29T09:34:41Z</time>
      </trkpt>
      <trkpt lat="34.13677" lon="77.0439">
        <ele>4243.8</ele>
        <time>2015-08-29T09:34:47Z</time>
      </trkpt>
      <trkpt lat="34.13679" lon="77.04394">
        <ele>4243.2</ele>
        <time>2015-08-29T09:34:51Z</time>
      </trkpt>
      <trkpt lat="34.13678" lon="77.04397">
        <ele>4243</ele>
        <time>2015-08-29T09:34:53Z</time>
      </trkpt>
      <trkpt lat="34.13677" lon="77.044">
        <ele>4242.8</ele>
        <time>2015-08-29T09:34:56Z</time>
      </trkpt>
      <trkpt lat="34.13676" lon="77.044">
        <ele>4242.8</ele>
        <time>2015-08-29T09:34:57Z</time>
      </trkpt>
      <trkpt lat="34.13662" lon="77.04411">
        <ele>4242</ele>
        <time>2015-08-29T09:35:11Z</time>
      </trkpt>
      <trkpt lat="34.13662" lon="77.04414">
        <ele>4241.8</ele>
        <time>2015-08-29T09:35:14Z</time>
      </trkpt>
      <trkpt lat="34.13668" lon="77.04427">
        <ele>4240.8</ele>
        <time>2015-08-29T09:35:25Z</time>
      </trkpt>
      <trkpt lat="34.13669" lon="77.04429">
        <ele>4240.6</ele>
        <time>2015-08-29T09:35:28Z</time>
      </trkpt>
      <trkpt lat="34.13671" lon="77.04435">
        <ele>4240.4</ele>
        <time>2015-08-29T09:35:34Z</time>
      </trkpt>
      <trkpt lat="34.13663" lon="77.04436">
        <ele>4240.4</ele>
        <time>2015-08-29T09:35:39Z</time>
      </trkpt>
      <trkpt lat="34.13654" lon="77.04451">
        <ele>4240.6</ele>
        <time>2015-08-29T09:36:08Z</time>
      </trkpt>
      <trkpt lat="34.13652" lon="77.04453">
        <ele>4240.8</ele>
        <time>2015-08-29T09:36:13Z</time>
      </trkpt>
      <trkpt lat="34.13654" lon="77.04453">
        <ele>4240.4</ele>
        <time>2015-08-29T09:36:18Z</time>
      </trkpt>
      <trkpt lat="34.13655" lon="77.04452">
        <ele>4240.4</ele>
        <time>2015-08-29T09:36:20Z</time>
      </trkpt>
      <trkpt lat="34.13662" lon="77.0445">
        <ele>4240.6</ele>
        <time>2015-08-29T09:36:29Z</time>
      </trkpt>
      <trkpt lat="34.13659" lon="77.04451">
        <ele>4238.6</ele>
        <time>2015-08-29T09:36:39Z</time>
      </trkpt>
    </trkseg>
  </trk>
</gpx>